<?xml version='1.0' encoding='UTF-8'?><gpx version="1.1" creator="JPX - https://github.com/jenetics/jpx" xmlns="http://www.topografix.com/GPX/1/1"><trk><trkseg><trkpt lat="45.6099719" lon="9.4271011"><ele>202.0</ele><time>2026-04-29T11:19:48.752Z</time></trkpt><trkpt lat="45.6100034" lon="9.4269985"><ele>202.0</ele><time>2026-04-29T11:19:55.752Z</time></trkpt><trkpt lat="45.61003" lon="9.4269034"><ele>202.0</ele><time>2026-04-29T11:20:31.752Z</time></trkpt><trkpt lat="45.6100423" lon="9.4267716"><ele>202.0</ele><time>2026-04-29T11:20:34.752Z</time></trkpt><trkpt lat="45.6099861" lon="9.4266927"><ele>202.0</ele><time>2026-04-29T11:20:37.752Z</time></trkpt><trkpt lat="45.6099237" lon="9.4266746"><ele>202.0</ele><time>2026-04-29T11:20:39.752Z</time></trkpt><trkpt lat="45.6098621" lon="9.4266558"><ele>202.0</ele><time>2026-04-29T11:20:41.752Z</time></trkpt><trkpt lat="45.6098084" lon="9.4265686"><ele>201.99999999999997</ele><time>2026-04-29T11:20:43.752Z</time></trkpt><trkpt lat="45.6097795" lon="9.4264548"><ele>202.0</ele><time>2026-04-29T11:20:45.752Z</time></trkpt><trkpt lat="45.6097787" lon="9.426309"><ele>202.0</ele><time>2026-04-29T11:20:47.752Z</time></trkpt><trkpt lat="45.609778" lon="9.4261772"><ele>202.0</ele><time>2026-04-29T11:20:49.752Z</time></trkpt><trkpt lat="45.6097473" lon="9.4260789"><ele>201.99999999999997</ele><time>2026-04-29T11:20:51.752Z</time></trkpt><trkpt lat="45.6096747" lon="9.4260099"><ele>202.0</ele><time>2026-04-29T11:20:54.752Z</time></trkpt><trkpt lat="45.6096097" lon="9.4259989"><ele>201.99999999999997</ele><time>2026-04-29T11:20:56.752Z</time></trkpt><trkpt lat="45.6095345" lon="9.4260059"><ele>202.0</ele><time>2026-04-29T11:20:58.752Z</time></trkpt><trkpt lat="45.6094555" lon="9.4260268"><ele>202.0</ele><time>2026-04-29T11:21:00.752Z</time></trkpt><trkpt lat="45.6093677" lon="9.426023"><ele>202.0</ele><time>2026-04-29T11:21:02.752Z</time></trkpt><trkpt lat="45.609282" lon="9.4260147"><ele>201.99999999999997</ele><time>2026-04-29T11:21:04.752Z</time></trkpt><trkpt lat="45.609202" lon="9.4260084"><ele>202.0</ele><time>2026-04-29T11:21:06.752Z</time></trkpt><trkpt lat="45.6091227" lon="9.4260038"><ele>201.49999999999997</ele><time>2026-04-29T11:21:08.752Z</time></trkpt><trkpt lat="45.609045" lon="9.4260023"><ele>201.0</ele><time>2026-04-29T11:21:10.752Z</time></trkpt><trkpt lat="45.6089645" lon="9.4259996"><ele>200.5</ele><time>2026-04-29T11:21:12.752Z</time></trkpt><trkpt lat="45.6088839" lon="9.4259979"><ele>200.0</ele><time>2026-04-29T11:21:14.752Z</time></trkpt><trkpt lat="45.6087994" lon="9.425996"><ele>199.49999999999997</ele><time>2026-04-29T11:21:16.752Z</time></trkpt><trkpt lat="45.60871" lon="9.4259992"><ele>199.0</ele><time>2026-04-29T11:21:18.752Z</time></trkpt><trkpt lat="45.6086112" lon="9.4259944"><ele>198.39999999999998</ele><time>2026-04-29T11:21:20.751Z</time></trkpt><trkpt lat="45.6085197" lon="9.4259952"><ele>197.8</ele><time>2026-04-29T11:21:22.752Z</time></trkpt><trkpt lat="45.6084254" lon="9.4259893"><ele>197.2</ele><time>2026-04-29T11:21:24.752Z</time></trkpt><trkpt lat="45.6083228" lon="9.4259758"><ele>196.60000000000002</ele><time>2026-04-29T11:21:26.752Z</time></trkpt><trkpt lat="45.6082243" lon="9.4259683"><ele>196.0</ele><time>2026-04-29T11:21:28.752Z</time></trkpt><trkpt lat="45.6081297" lon="9.4259649"><ele>196.0</ele><time>2026-04-29T11:21:30.752Z</time></trkpt><trkpt lat="45.6080278" lon="9.4259641"><ele>196.0</ele><time>2026-04-29T11:21:32.752Z</time></trkpt><trkpt lat="45.6079257" lon="9.425963"><ele>196.0</ele><time>2026-04-29T11:21:34.751Z</time></trkpt><trkpt lat="45.6078275" lon="9.4259675"><ele>196.0</ele><time>2026-04-29T11:21:36.752Z</time></trkpt><trkpt lat="45.6077324" lon="9.4259548"><ele>196.0</ele><time>2026-04-29T11:21:38.752Z</time></trkpt><trkpt lat="45.6076387" lon="9.4259547"><ele>195.83333333333331</ele><time>2026-04-29T11:21:40.752Z</time></trkpt><trkpt lat="45.6075496" lon="9.4259564"><ele>195.66666666666666</ele><time>2026-04-29T11:21:42.752Z</time></trkpt><trkpt lat="45.607482" lon="9.4260256"><ele>195.5</ele><time>2026-04-29T11:21:44.752Z</time></trkpt><trkpt lat="45.6074534" lon="9.426122"><ele>195.33333333333331</ele><time>2026-04-29T11:21:46.751Z</time></trkpt><trkpt lat="45.6074433" lon="9.4262396"><ele>195.16666666666666</ele><time>2026-04-29T11:21:48.752Z</time></trkpt><trkpt lat="45.6074287" lon="9.4263698"><ele>195.0</ele><time>2026-04-29T11:21:50.752Z</time></trkpt><trkpt lat="45.6074232" lon="9.4265061"><ele>195.0</ele><time>2026-04-29T11:21:52.752Z</time></trkpt><trkpt lat="45.6074164" lon="9.4266445"><ele>195.0</ele><time>2026-04-29T11:21:54.752Z</time></trkpt><trkpt lat="45.6074157" lon="9.4267821"><ele>195.0</ele><time>2026-04-29T11:21:56.752Z</time></trkpt><trkpt lat="45.6074113" lon="9.4269261"><ele>195.0</ele><time>2026-04-29T11:21:58.752Z</time></trkpt><trkpt lat="45.607401" lon="9.4270641"><ele>195.0</ele><time>2026-04-29T11:22:00.752Z</time></trkpt><trkpt lat="45.6073923" lon="9.4272004"><ele>195.0</ele><time>2026-04-29T11:22:02.752Z</time></trkpt><trkpt lat="45.6073718" lon="9.4273462"><ele>195.0</ele><time>2026-04-29T11:22:04.752Z</time></trkpt><trkpt lat="45.6073372" lon="9.4274923"><ele>195.0</ele><time>2026-04-29T11:22:06.752Z</time></trkpt><trkpt lat="45.6073167" lon="9.4276433"><ele>195.0</ele><time>2026-04-29T11:22:08.752Z</time></trkpt><trkpt lat="45.6073113" lon="9.4277906"><ele>195.0</ele><time>2026-04-29T11:22:10.752Z</time></trkpt><trkpt lat="45.607307" lon="9.4279404"><ele>195.0</ele><time>2026-04-29T11:22:12.752Z</time></trkpt><trkpt lat="45.6073066" lon="9.4280861"><ele>195.0</ele><time>2026-04-29T11:22:14.752Z</time></trkpt><trkpt lat="45.6073033" lon="9.428234"><ele>195.0</ele><time>2026-04-29T11:22:16.752Z</time></trkpt><trkpt lat="45.6072874" lon="9.4283656"><ele>195.0</ele><time>2026-04-29T11:22:18.752Z</time></trkpt><trkpt lat="45.6072884" lon="9.4285051"><ele>195.0</ele><time>2026-04-29T11:22:20.752Z</time></trkpt><trkpt lat="45.6072952" lon="9.4286317"><ele>195.0</ele><time>2026-04-29T11:22:22.752Z</time></trkpt><trkpt lat="45.6072929" lon="9.4287701"><ele>195.0</ele><time>2026-04-29T11:22:24.752Z</time></trkpt><trkpt lat="45.6072979" lon="9.4289091"><ele>195.0</ele><time>2026-04-29T11:22:26.752Z</time></trkpt><trkpt lat="45.607288" lon="9.4290502"><ele>195.0</ele><time>2026-04-29T11:22:28.752Z</time></trkpt><trkpt lat="45.6072863" lon="9.4291884"><ele>195.0</ele><time>2026-04-29T11:22:30.752Z</time></trkpt><trkpt lat="45.6072792" lon="9.4293326"><ele>195.0</ele><time>2026-04-29T11:22:32.752Z</time></trkpt><trkpt lat="45.6072738" lon="9.4294714"><ele>195.0</ele><time>2026-04-29T11:22:34.752Z</time></trkpt><trkpt lat="45.6072683" lon="9.4296197"><ele>195.0</ele><time>2026-04-29T11:22:36.752Z</time></trkpt><trkpt lat="45.6072551" lon="9.4297736"><ele>195.0</ele><time>2026-04-29T11:22:38.752Z</time></trkpt><trkpt lat="45.6072232" lon="9.4299156"><ele>195.0</ele><time>2026-04-29T11:22:40.752Z</time></trkpt><trkpt lat="45.6071623" lon="9.4300532"><ele>195.16666666666666</ele><time>2026-04-29T11:22:42.752Z</time></trkpt><trkpt lat="45.6071052" lon="9.4301392"><ele>195.33333333333331</ele><time>2026-04-29T11:22:44.752Z</time></trkpt><trkpt lat="45.6070371" lon="9.4302381"><ele>195.5</ele><time>2026-04-29T11:22:46.752Z</time></trkpt><trkpt lat="45.6070311" lon="9.4303445"><ele>195.66666666666666</ele><time>2026-04-29T11:22:47.752Z</time></trkpt><trkpt lat="45.6070327" lon="9.430504"><ele>195.83333333333331</ele><time>2026-04-29T11:22:49.751Z</time></trkpt><trkpt lat="45.6070376" lon="9.4306028"><ele>196.0</ele><time>2026-04-29T11:22:50.752Z</time></trkpt><trkpt lat="45.6070279" lon="9.430695"><ele>196.20000000000002</ele><time>2026-04-29T11:22:51.752Z</time></trkpt><trkpt lat="45.6070014" lon="9.4307888"><ele>196.4</ele><time>2026-04-29T11:22:52.752Z</time></trkpt><trkpt lat="45.6069617" lon="9.430932"><ele>196.6</ele><time>2026-04-29T11:22:54.752Z</time></trkpt><trkpt lat="45.606972" lon="9.4310646"><ele>196.8</ele><time>2026-04-29T11:22:56.752Z</time></trkpt><trkpt lat="45.6070241" lon="9.4311557"><ele>197.0</ele><time>2026-04-29T11:22:58.752Z</time></trkpt><trkpt lat="45.6071207" lon="9.4312175"><ele>197.0</ele><time>2026-04-29T11:23:00.752Z</time></trkpt><trkpt lat="45.6072112" lon="9.4312727"><ele>197.0</ele><time>2026-04-29T11:23:02.752Z</time></trkpt><trkpt lat="45.6072884" lon="9.4313741"><ele>197.0</ele><time>2026-04-29T11:23:04.752Z</time></trkpt><trkpt lat="45.607299" lon="9.4315142"><ele>197.0</ele><time>2026-04-29T11:23:06.752Z</time></trkpt><trkpt lat="45.6073093" lon="9.4316416"><ele>197.0</ele><time>2026-04-29T11:23:08.752Z</time></trkpt><trkpt lat="45.6073413" lon="9.4317679"><ele>197.0</ele><time>2026-04-29T11:23:10.752Z</time></trkpt><trkpt lat="45.6074342" lon="9.4318268"><ele>197.0</ele><time>2026-04-29T11:23:12.752Z</time></trkpt><trkpt lat="45.6074944" lon="9.4318578"><ele>197.0</ele><time>2026-04-29T11:23:13.752Z</time></trkpt><trkpt lat="45.6076145" lon="9.4318926"><ele>197.0</ele><time>2026-04-29T11:23:15.752Z</time></trkpt><trkpt lat="45.6076839" lon="9.4319208"><ele>197.0</ele><time>2026-04-29T11:23:16.752Z</time></trkpt><trkpt lat="45.607781" lon="9.4319553"><ele>197.2</ele><time>2026-04-29T11:23:18.752Z</time></trkpt><trkpt lat="45.6078458" lon="9.4319691"><ele>197.39999999999998</ele><time>2026-04-29T11:23:19.751Z</time></trkpt><trkpt lat="45.6079513" lon="9.4319977"><ele>197.60000000000002</ele><time>2026-04-29T11:23:21.752Z</time></trkpt><trkpt lat="45.6080643" lon="9.431964"><ele>197.8</ele><time>2026-04-29T11:23:23.752Z</time></trkpt><trkpt lat="45.6081662" lon="9.4318836"><ele>198.0</ele><time>2026-04-29T11:23:25.752Z</time></trkpt><trkpt lat="45.6082916" lon="9.4317924"><ele>198.0</ele><time>2026-04-29T11:23:27.752Z</time></trkpt><trkpt lat="45.60843" lon="9.4317739"><ele>198.0</ele><time>2026-04-29T11:23:29.752Z</time></trkpt><trkpt lat="45.6085142" lon="9.4317737"><ele>198.0</ele><time>2026-04-29T11:23:30.751Z</time></trkpt><trkpt lat="45.6085816" lon="9.4317811"><ele>198.0</ele><time>2026-04-29T11:23:31.752Z</time></trkpt><trkpt lat="45.6086486" lon="9.4318022"><ele>198.0</ele><time>2026-04-29T11:23:32.752Z</time></trkpt><trkpt lat="45.6087624" lon="9.4318502"><ele>197.5</ele><time>2026-04-29T11:23:34.751Z</time></trkpt><trkpt lat="45.6088273" lon="9.4318693"><ele>197.0</ele><time>2026-04-29T11:23:35.752Z</time></trkpt><trkpt lat="45.6088948" lon="9.4318962"><ele>196.5</ele><time>2026-04-29T11:23:36.752Z</time></trkpt><trkpt lat="45.6089616" lon="9.4319284"><ele>196.0</ele><time>2026-04-29T11:23:37.752Z</time></trkpt><trkpt lat="45.6090219" lon="9.4319601"><ele>195.5</ele><time>2026-04-29T11:23:38.752Z</time></trkpt><trkpt lat="45.6091405" lon="9.432013"><ele>195.0</ele><time>2026-04-29T11:23:40.752Z</time></trkpt><trkpt lat="45.6092072" lon="9.4320358"><ele>195.0</ele><time>2026-04-29T11:23:41.752Z</time></trkpt><trkpt lat="45.6092796" lon="9.4320686"><ele>195.0</ele><time>2026-04-29T11:23:42.752Z</time></trkpt><trkpt lat="45.6093501" lon="9.4321036"><ele>195.0</ele><time>2026-04-29T11:23:43.752Z</time></trkpt><trkpt lat="45.6094134" lon="9.4321293"><ele>195.0</ele><time>2026-04-29T11:23:44.752Z</time></trkpt><trkpt lat="45.6095334" lon="9.4321743"><ele>195.0</ele><time>2026-04-29T11:23:46.752Z</time></trkpt><trkpt lat="45.6096587" lon="9.4322277"><ele>195.16666666666666</ele><time>2026-04-29T11:23:48.752Z</time></trkpt><trkpt lat="45.6097244" lon="9.4322504"><ele>195.33333333333331</ele><time>2026-04-29T11:23:49.752Z</time></trkpt><trkpt lat="45.6098474" lon="9.4322601"><ele>195.5</ele><time>2026-04-29T11:23:51.752Z</time></trkpt><trkpt lat="45.6099086" lon="9.4322309"><ele>195.66666666666666</ele><time>2026-04-29T11:23:52.752Z</time></trkpt><trkpt lat="45.6099819" lon="9.432217"><ele>195.83333333333331</ele><time>2026-04-29T11:23:53.752Z</time></trkpt><trkpt lat="45.6100482" lon="9.4322107"><ele>196.0</ele><time>2026-04-29T11:23:54.752Z</time></trkpt><trkpt lat="45.6101125" lon="9.4322085"><ele>195.99999999999997</ele><time>2026-04-29T11:23:55.752Z</time></trkpt><trkpt lat="45.6101772" lon="9.4322142"><ele>196.0</ele><time>2026-04-29T11:23:56.752Z</time></trkpt><trkpt lat="45.6102397" lon="9.4322335"><ele>196.0</ele><time>2026-04-29T11:23:57.752Z</time></trkpt><trkpt lat="45.610331" lon="9.4321919"><ele>196.0</ele><time>2026-04-29T11:23:59.752Z</time></trkpt><trkpt lat="45.6103856" lon="9.4321471"><ele>195.99999999999997</ele><time>2026-04-29T11:24:00.752Z</time></trkpt><trkpt lat="45.6104645" lon="9.4320393"><ele>196.0</ele><time>2026-04-29T11:24:02.752Z</time></trkpt><trkpt lat="45.6105708" lon="9.4319638"><ele>196.75</ele><time>2026-04-29T11:24:04.752Z</time></trkpt><trkpt lat="45.6106844" lon="9.4318986"><ele>197.5</ele><time>2026-04-29T11:24:06.752Z</time></trkpt><trkpt lat="45.6107894" lon="9.4319004"><ele>198.25</ele><time>2026-04-29T11:24:08.752Z</time></trkpt><trkpt lat="45.6109023" lon="9.4319159"><ele>199.0</ele><time>2026-04-29T11:24:10.752Z</time></trkpt><trkpt lat="45.6110105" lon="9.4319399"><ele>199.0</ele><time>2026-04-29T11:24:12.752Z</time></trkpt><trkpt lat="45.6111136" lon="9.4319486"><ele>199.0</ele><time>2026-04-29T11:24:14.752Z</time></trkpt><trkpt lat="45.6112256" lon="9.4319309"><ele>199.0</ele><time>2026-04-29T11:24:16.752Z</time></trkpt><trkpt lat="45.6113259" lon="9.4319414"><ele>199.0</ele><time>2026-04-29T11:24:18.752Z</time></trkpt><trkpt lat="45.6114302" lon="9.4319535"><ele>199.0</ele><time>2026-04-29T11:24:20.752Z</time></trkpt><trkpt lat="45.6115505" lon="9.431974"><ele>199.6</ele><time>2026-04-29T11:24:22.752Z</time></trkpt><trkpt lat="45.6116581" lon="9.432022"><ele>200.2</ele><time>2026-04-29T11:24:24.752Z</time></trkpt><trkpt lat="45.6117308" lon="9.4321352"><ele>200.79999999999998</ele><time>2026-04-29T11:24:26.752Z</time></trkpt><trkpt lat="45.6117684" lon="9.4322112"><ele>201.39999999999998</ele><time>2026-04-29T11:24:27.752Z</time></trkpt><trkpt lat="45.6118662" lon="9.4322652"><ele>202.0</ele><time>2026-04-29T11:24:29.752Z</time></trkpt><trkpt lat="45.6119296" lon="9.4322787"><ele>202.2</ele><time>2026-04-29T11:24:30.752Z</time></trkpt><trkpt lat="45.6119941" lon="9.4322831"><ele>202.39999999999998</ele><time>2026-04-29T11:24:31.752Z</time></trkpt><trkpt lat="45.6120589" lon="9.432289"><ele>202.60000000000002</ele><time>2026-04-29T11:24:32.752Z</time></trkpt><trkpt lat="45.6121768" lon="9.4322997"><ele>202.8</ele><time>2026-04-29T11:24:34.752Z</time></trkpt><trkpt lat="45.6122929" lon="9.4323138"><ele>203.0</ele><time>2026-04-29T11:24:36.752Z</time></trkpt><trkpt lat="45.6124135" lon="9.4323258"><ele>203.00000000000003</ele><time>2026-04-29T11:24:38.752Z</time></trkpt><trkpt lat="45.6124766" lon="9.4323303"><ele>203.0</ele><time>2026-04-29T11:24:39.752Z</time></trkpt><trkpt lat="45.6125399" lon="9.4323377"><ele>203.0</ele><time>2026-04-29T11:24:40.751Z</time></trkpt><trkpt lat="45.6126028" lon="9.4323469"><ele>203.0</ele><time>2026-04-29T11:24:41.752Z</time></trkpt><trkpt lat="45.6127171" lon="9.4323729"><ele>203.00000000000003</ele><time>2026-04-29T11:24:43.752Z</time></trkpt><trkpt lat="45.6128357" lon="9.4324302"><ele>203.0</ele><time>2026-04-29T11:24:45.752Z</time></trkpt><trkpt lat="45.6128972" lon="9.4324561"><ele>203.0</ele><time>2026-04-29T11:24:46.751Z</time></trkpt><trkpt lat="45.6130083" lon="9.4325149"><ele>203.0</ele><time>2026-04-29T11:24:48.752Z</time></trkpt><trkpt lat="45.6130694" lon="9.4325388"><ele>203.0</ele><time>2026-04-29T11:24:49.752Z</time></trkpt><trkpt lat="45.6131846" lon="9.4325972"><ele>203.0</ele><time>2026-04-29T11:24:51.752Z</time></trkpt><trkpt lat="45.6132432" lon="9.4326359"><ele>203.0</ele><time>2026-04-29T11:24:52.752Z</time></trkpt><trkpt lat="45.613357" lon="9.4327013"><ele>203.0</ele><time>2026-04-29T11:24:54.752Z</time></trkpt><trkpt lat="45.6134191" lon="9.4327329"><ele>203.0</ele><time>2026-04-29T11:24:55.752Z</time></trkpt><trkpt lat="45.6134835" lon="9.4327553"><ele>203.0</ele><time>2026-04-29T11:24:56.752Z</time></trkpt><trkpt lat="45.6136103" lon="9.4327973"><ele>203.0</ele><time>2026-04-29T11:24:58.752Z</time></trkpt><trkpt lat="45.6137328" lon="9.4328205"><ele>203.0</ele><time>2026-04-29T11:25:00.752Z</time></trkpt><trkpt lat="45.613847" lon="9.4327785"><ele>203.0</ele><time>2026-04-29T11:25:02.752Z</time></trkpt><trkpt lat="45.6139595" lon="9.4327337"><ele>203.0</ele><time>2026-04-29T11:25:04.752Z</time></trkpt><trkpt lat="45.6140723" lon="9.4327667"><ele>203.0</ele><time>2026-04-29T11:25:06.752Z</time></trkpt><trkpt lat="45.6141806" lon="9.4328283"><ele>203.0</ele><time>2026-04-29T11:25:08.752Z</time></trkpt><trkpt lat="45.6142971" lon="9.4328816"><ele>203.0</ele><time>2026-04-29T11:25:10.752Z</time></trkpt><trkpt lat="45.6144047" lon="9.4329104"><ele>203.0</ele><time>2026-04-29T11:25:12.752Z</time></trkpt><trkpt lat="45.6145159" lon="9.4329694"><ele>203.0</ele><time>2026-04-29T11:25:14.752Z</time></trkpt><trkpt lat="45.6146298" lon="9.43302"><ele>203.0</ele><time>2026-04-29T11:25:16.752Z</time></trkpt><trkpt lat="45.6147357" lon="9.4330891"><ele>203.5</ele><time>2026-04-29T11:25:18.752Z</time></trkpt><trkpt lat="45.6148466" lon="9.4331535"><ele>204.0</ele><time>2026-04-29T11:25:20.751Z</time></trkpt><trkpt lat="45.6149645" lon="9.4332157"><ele>204.5</ele><time>2026-04-29T11:25:22.752Z</time></trkpt><trkpt lat="45.6150774" lon="9.4332705"><ele>205.0</ele><time>2026-04-29T11:25:24.752Z</time></trkpt><trkpt lat="45.6151904" lon="9.4333086"><ele>205.0</ele><time>2026-04-29T11:25:26.752Z</time></trkpt><trkpt lat="45.6152991" lon="9.4333696"><ele>205.0</ele><time>2026-04-29T11:25:28.752Z</time></trkpt><trkpt lat="45.6154107" lon="9.4334282"><ele>205.0</ele><time>2026-04-29T11:25:30.752Z</time></trkpt><trkpt lat="45.6155187" lon="9.4334731"><ele>205.0</ele><time>2026-04-29T11:25:32.752Z</time></trkpt><trkpt lat="45.6156033" lon="9.4334739"><ele>205.0</ele><time>2026-04-29T11:25:34.752Z</time></trkpt><trkpt lat="45.6156254" lon="9.4333764"><ele>204.8</ele><time>2026-04-29T11:25:36.752Z</time></trkpt><trkpt lat="45.6156187" lon="9.4332412"><ele>204.6</ele><time>2026-04-29T11:25:38.751Z</time></trkpt><trkpt lat="45.6156169" lon="9.4330971"><ele>204.39999999999998</ele><time>2026-04-29T11:25:40.752Z</time></trkpt><trkpt lat="45.6156418" lon="9.4329851"><ele>204.2</ele><time>2026-04-29T11:25:42.752Z</time></trkpt><trkpt lat="45.6156913" lon="9.4329192"><ele>204.0</ele><time>2026-04-29T11:25:44.752Z</time></trkpt><trkpt lat="45.615863" lon="9.4326957"><ele>204.0</ele><time>2026-04-29T11:25:49.761Z</time></trkpt><trkpt lat="45.6158908" lon="9.4325476"><ele>204.0</ele><time>2026-04-29T11:25:51.761Z</time></trkpt><trkpt lat="45.6159155" lon="9.4324215"><ele>204.0</ele><time>2026-04-29T11:25:53.763Z</time></trkpt><trkpt lat="45.6159494" lon="9.4322793"><ele>204.0</ele><time>2026-04-29T11:25:55.763Z</time></trkpt><trkpt lat="45.6159622" lon="9.4321593"><ele>204.0</ele><time>2026-04-29T11:25:57.763Z</time></trkpt><trkpt lat="45.6159853" lon="9.4320417"><ele>204.16666666666666</ele><time>2026-04-29T11:25:59.763Z</time></trkpt><trkpt lat="45.6160443" lon="9.431993"><ele>204.33333333333331</ele><time>2026-04-29T11:26:01.763Z</time></trkpt><trkpt lat="45.6161175" lon="9.4319944"><ele>204.5</ele><time>2026-04-29T11:26:03.763Z</time></trkpt><trkpt lat="45.6161553" lon="9.4320711"><ele>204.66666666666666</ele><time>2026-04-29T11:26:05.763Z</time></trkpt><trkpt lat="45.6161617" lon="9.4322068"><ele>204.83333333333331</ele><time>2026-04-29T11:26:07.763Z</time></trkpt><trkpt lat="45.61617" lon="9.4323311"><ele>205.0</ele><time>2026-04-29T11:26:09.762Z</time></trkpt><trkpt lat="45.6161749" lon="9.4324726"><ele>205.0</ele><time>2026-04-29T11:26:11.763Z</time></trkpt><trkpt lat="45.6161882" lon="9.4326152"><ele>205.0</ele><time>2026-04-29T11:26:13.763Z</time></trkpt><trkpt lat="45.6162081" lon="9.4327694"><ele>205.0</ele><time>2026-04-29T11:26:15.763Z</time></trkpt><trkpt lat="45.6162191" lon="9.4329374"><ele>205.0</ele><time>2026-04-29T11:26:17.763Z</time></trkpt><trkpt lat="45.6162334" lon="9.4331016"><ele>205.0</ele><time>2026-04-29T11:26:19.762Z</time></trkpt><trkpt lat="45.6162658" lon="9.4332641"><ele>205.0</ele><time>2026-04-29T11:26:21.763Z</time></trkpt><trkpt lat="45.6163053" lon="9.4334304"><ele>205.0</ele><time>2026-04-29T11:26:23.763Z</time></trkpt><trkpt lat="45.6163596" lon="9.4335877"><ele>205.0</ele><time>2026-04-29T11:26:25.763Z</time></trkpt><trkpt lat="45.6164334" lon="9.4337229"><ele>205.0</ele><time>2026-04-29T11:26:27.763Z</time></trkpt><trkpt lat="45.6165217" lon="9.4338359"><ele>205.0</ele><time>2026-04-29T11:26:29.763Z</time></trkpt><trkpt lat="45.6166321" lon="9.4338797"><ele>205.0</ele><time>2026-04-29T11:26:31.763Z</time></trkpt><trkpt lat="45.6167355" lon="9.4338262"><ele>205.0</ele><time>2026-04-29T11:26:33.763Z</time></trkpt><trkpt lat="45.6168212" lon="9.4337076"><ele>205.0</ele><time>2026-04-29T11:26:35.763Z</time></trkpt><trkpt lat="45.616902" lon="9.4335891"><ele>205.0</ele><time>2026-04-29T11:26:37.763Z</time></trkpt><trkpt lat="45.6169826" lon="9.4334551"><ele>205.0</ele><time>2026-04-29T11:26:39.763Z</time></trkpt><trkpt lat="45.6170703" lon="9.4333286"><ele>205.0</ele><time>2026-04-29T11:26:41.763Z</time></trkpt><trkpt lat="45.6171113" lon="9.4332571"><ele>205.0</ele><time>2026-04-29T11:26:42.763Z</time></trkpt><trkpt lat="45.6171945" lon="9.4331228"><ele>205.0</ele><time>2026-04-29T11:26:44.763Z</time></trkpt><trkpt lat="45.6172794" lon="9.4329873"><ele>205.16666666666666</ele><time>2026-04-29T11:26:46.763Z</time></trkpt><trkpt lat="45.6173608" lon="9.4328513"><ele>205.33333333333331</ele><time>2026-04-29T11:26:48.763Z</time></trkpt><trkpt lat="45.6174038" lon="9.4327804"><ele>205.5</ele><time>2026-04-29T11:26:49.763Z</time></trkpt><trkpt lat="45.6174484" lon="9.4327113"><ele>205.66666666666669</ele><time>2026-04-29T11:26:50.763Z</time></trkpt><trkpt lat="45.6174893" lon="9.432631"><ele>205.83333333333334</ele><time>2026-04-29T11:26:51.763Z</time></trkpt><trkpt lat="45.6175292" lon="9.4325553"><ele>206.0</ele><time>2026-04-29T11:26:52.763Z</time></trkpt><trkpt lat="45.6175674" lon="9.4324725"><ele>206.00000000000003</ele><time>2026-04-29T11:26:53.763Z</time></trkpt><trkpt lat="45.6176031" lon="9.4323914"><ele>206.0</ele><time>2026-04-29T11:26:54.763Z</time></trkpt><trkpt lat="45.6176671" lon="9.4322291"><ele>206.0</ele><time>2026-04-29T11:26:56.763Z</time></trkpt><trkpt lat="45.6176974" lon="9.4321429"><ele>206.0</ele><time>2026-04-29T11:26:57.762Z</time></trkpt><trkpt lat="45.6177317" lon="9.4320544"><ele>206.00000000000003</ele><time>2026-04-29T11:26:58.763Z</time></trkpt><trkpt lat="45.6177599" lon="9.4319707"><ele>206.0</ele><time>2026-04-29T11:26:59.762Z</time></trkpt><trkpt lat="45.6177896" lon="9.4318862"><ele>206.14285714285714</ele><time>2026-04-29T11:27:00.763Z</time></trkpt><trkpt lat="45.6178263" lon="9.4318027"><ele>206.28571428571428</ele><time>2026-04-29T11:27:01.763Z</time></trkpt><trkpt lat="45.6178609" lon="9.4317212"><ele>206.42857142857144</ele><time>2026-04-29T11:27:02.763Z</time></trkpt><trkpt lat="45.6178886" lon="9.4316341"><ele>206.57142857142856</ele><time>2026-04-29T11:27:03.763Z</time></trkpt><trkpt lat="45.6179202" lon="9.4315513"><ele>206.71428571428572</ele><time>2026-04-29T11:27:04.763Z</time></trkpt><trkpt lat="45.6179475" lon="9.4314573"><ele>206.85714285714286</ele><time>2026-04-29T11:27:05.763Z</time></trkpt><trkpt lat="45.6179803" lon="9.431367"><ele>207.0</ele><time>2026-04-29T11:27:06.763Z</time></trkpt><trkpt lat="45.6180144" lon="9.4312769"><ele>207.14285714285717</ele><time>2026-04-29T11:27:07.763Z</time></trkpt><trkpt lat="45.6180439" lon="9.4311873"><ele>207.28571428571428</ele><time>2026-04-29T11:27:08.763Z</time></trkpt><trkpt lat="45.6180765" lon="9.4310963"><ele>207.42857142857144</ele><time>2026-04-29T11:27:09.763Z</time></trkpt><trkpt lat="45.6181107" lon="9.4310077"><ele>207.57142857142858</ele><time>2026-04-29T11:27:10.763Z</time></trkpt><trkpt lat="45.6181547" lon="9.4309271"><ele>207.71428571428572</ele><time>2026-04-29T11:27:11.763Z</time></trkpt><trkpt lat="45.6182007" lon="9.4308578"><ele>207.85714285714286</ele><time>2026-04-29T11:27:12.763Z</time></trkpt><trkpt lat="45.6182449" lon="9.430787"><ele>208.0</ele><time>2026-04-29T11:27:13.763Z</time></trkpt><trkpt lat="45.6182971" lon="9.4307181"><ele>208.0</ele><time>2026-04-29T11:27:14.763Z</time></trkpt><trkpt lat="45.6183564" lon="9.4306696"><ele>208.0</ele><time>2026-04-29T11:27:15.763Z</time></trkpt><trkpt lat="45.618421" lon="9.4306277"><ele>208.0</ele><time>2026-04-29T11:27:16.763Z</time></trkpt><trkpt lat="45.6184826" lon="9.4306018"><ele>208.0</ele><time>2026-04-29T11:27:17.763Z</time></trkpt><trkpt lat="45.6185449" lon="9.430581"><ele>208.0</ele><time>2026-04-29T11:27:18.763Z</time></trkpt><trkpt lat="45.6186105" lon="9.4305514"><ele>208.0</ele><time>2026-04-29T11:27:19.763Z</time></trkpt><trkpt lat="45.6186731" lon="9.4305296"><ele>208.0</ele><time>2026-04-29T11:27:20.763Z</time></trkpt><trkpt lat="45.6187979" lon="9.4304762"><ele>207.99999999999997</ele><time>2026-04-29T11:27:22.763Z</time></trkpt><trkpt lat="45.6188598" lon="9.4304527"><ele>208.0</ele><time>2026-04-29T11:27:23.763Z</time></trkpt><trkpt lat="45.618922" lon="9.4304305"><ele>208.0</ele><time>2026-04-29T11:27:24.763Z</time></trkpt><trkpt lat="45.6189878" lon="9.4304114"><ele>208.0</ele><time>2026-04-29T11:27:25.763Z</time></trkpt><trkpt lat="45.6190536" lon="9.4303856"><ele>207.99999999999997</ele><time>2026-04-29T11:27:26.763Z</time></trkpt><trkpt lat="45.619177" lon="9.4303312"><ele>208.0</ele><time>2026-04-29T11:27:28.763Z</time></trkpt><trkpt lat="45.619296" lon="9.4302676"><ele>208.0</ele><time>2026-04-29T11:27:30.763Z</time></trkpt><trkpt lat="45.6193541" lon="9.4302281"><ele>208.0</ele><time>2026-04-29T11:27:31.763Z</time></trkpt><trkpt lat="45.6194593" lon="9.4301521"><ele>208.0</ele><time>2026-04-29T11:27:33.763Z</time></trkpt><trkpt lat="45.6195645" lon="9.430067"><ele>208.0</ele><time>2026-04-29T11:27:35.763Z</time></trkpt><trkpt lat="45.6196564" lon="9.4299537"><ele>208.0</ele><time>2026-04-29T11:27:37.763Z</time></trkpt><trkpt lat="45.6197245" lon="9.429805"><ele>207.99999999999997</ele><time>2026-04-29T11:27:39.763Z</time></trkpt><trkpt lat="45.6197516" lon="9.429719"><ele>208.0</ele><time>2026-04-29T11:27:40.762Z</time></trkpt><trkpt lat="45.6197797" lon="9.4295411"><ele>208.0</ele><time>2026-04-29T11:27:42.763Z</time></trkpt><trkpt lat="45.6198088" lon="9.4293648"><ele>208.0</ele><time>2026-04-29T11:27:44.763Z</time></trkpt><trkpt lat="45.619825" lon="9.4292773"><ele>207.99999999999997</ele><time>2026-04-29T11:27:45.763Z</time></trkpt><trkpt lat="45.6198443" lon="9.4291891"><ele>208.0</ele><time>2026-04-29T11:27:46.763Z</time></trkpt><trkpt lat="45.6198612" lon="9.4291005"><ele>208.0</ele><time>2026-04-29T11:27:47.763Z</time></trkpt><trkpt lat="45.6198797" lon="9.4290117"><ele>208.0</ele><time>2026-04-29T11:27:48.763Z</time></trkpt><trkpt lat="45.619898" lon="9.4289213"><ele>208.0</ele><time>2026-04-29T11:27:49.763Z</time></trkpt><trkpt lat="45.6199174" lon="9.4288334"><ele>208.0</ele><time>2026-04-29T11:27:50.763Z</time></trkpt><trkpt lat="45.6199336" lon="9.4287451"><ele>208.0</ele><time>2026-04-29T11:27:51.763Z</time></trkpt><trkpt lat="45.6199428" lon="9.4286542"><ele>208.0</ele><time>2026-04-29T11:27:52.763Z</time></trkpt><trkpt lat="45.6199441" lon="9.4285641"><ele>208.0</ele><time>2026-04-29T11:27:53.762Z</time></trkpt><trkpt lat="45.6199353" lon="9.4284743"><ele>207.99999999999997</ele><time>2026-04-29T11:27:54.763Z</time></trkpt><trkpt lat="45.6198812" lon="9.4283115"><ele>208.0</ele><time>2026-04-29T11:27:56.763Z</time></trkpt><trkpt lat="45.6198393" lon="9.4282384"><ele>208.0</ele><time>2026-04-29T11:27:57.763Z</time></trkpt><trkpt lat="45.6197992" lon="9.4281658"><ele>208.0</ele><time>2026-04-29T11:27:58.763Z</time></trkpt><trkpt lat="45.6197532" lon="9.4280984"><ele>207.99999999999997</ele><time>2026-04-29T11:27:59.763Z</time></trkpt><trkpt lat="45.619708" lon="9.428023"><ele>208.0</ele><time>2026-04-29T11:28:00.763Z</time></trkpt><trkpt lat="45.6196611" lon="9.427942"><ele>208.0</ele><time>2026-04-29T11:28:01.763Z</time></trkpt><trkpt lat="45.6195844" lon="9.4278215"><ele>208.0</ele><time>2026-04-29T11:28:03.763Z</time></trkpt><trkpt lat="45.6195133" lon="9.4276967"><ele>208.0</ele><time>2026-04-29T11:28:05.763Z</time></trkpt><trkpt lat="45.6194388" lon="9.4275711"><ele>208.0</ele><time>2026-04-29T11:28:07.763Z</time></trkpt><trkpt lat="45.6193936" lon="9.4273966"><ele>208.16666666666666</ele><time>2026-04-29T11:28:09.763Z</time></trkpt><trkpt lat="45.6193867" lon="9.427224"><ele>208.33333333333331</ele><time>2026-04-29T11:28:11.763Z</time></trkpt><trkpt lat="45.6193995" lon="9.4270422"><ele>208.5</ele><time>2026-04-29T11:28:13.763Z</time></trkpt><trkpt lat="45.6194042" lon="9.4269507"><ele>208.66666666666669</ele><time>2026-04-29T11:28:14.763Z</time></trkpt><trkpt lat="45.6194093" lon="9.4268529"><ele>208.83333333333334</ele><time>2026-04-29T11:28:15.763Z</time></trkpt><trkpt lat="45.6194172" lon="9.4267617"><ele>209.0</ele><time>2026-04-29T11:28:16.763Z</time></trkpt><trkpt lat="45.619426" lon="9.4265729"><ele>209.0</ele><time>2026-04-29T11:28:18.763Z</time></trkpt><trkpt lat="45.6194275" lon="9.4264821"><ele>209.0</ele><time>2026-04-29T11:28:19.763Z</time></trkpt><trkpt lat="45.6194288" lon="9.4263128"><ele>209.0</ele><time>2026-04-29T11:28:21.763Z</time></trkpt><trkpt lat="45.6194313" lon="9.4261547"><ele>209.0</ele><time>2026-04-29T11:28:23.763Z</time></trkpt><trkpt lat="45.6194254" lon="9.4259913"><ele>209.0</ele><time>2026-04-29T11:28:25.763Z</time></trkpt><trkpt lat="45.619434" lon="9.4258285"><ele>209.0</ele><time>2026-04-29T11:28:27.763Z</time></trkpt><trkpt lat="45.6194445" lon="9.4256682"><ele>209.0</ele><time>2026-04-29T11:28:29.762Z</time></trkpt><trkpt lat="45.6194578" lon="9.4254959"><ele>209.0</ele><time>2026-04-29T11:28:31.763Z</time></trkpt><trkpt lat="45.6194719" lon="9.4253274"><ele>209.0</ele><time>2026-04-29T11:28:33.763Z</time></trkpt><trkpt lat="45.6194754" lon="9.4252373"><ele>209.0</ele><time>2026-04-29T11:28:34.763Z</time></trkpt><trkpt lat="45.6194847" lon="9.4250607"><ele>209.0</ele><time>2026-04-29T11:28:36.763Z</time></trkpt><trkpt lat="45.6194898" lon="9.4249704"><ele>209.0</ele><time>2026-04-29T11:28:37.763Z</time></trkpt><trkpt lat="45.6194914" lon="9.4247967"><ele>209.0</ele><time>2026-04-29T11:28:39.763Z</time></trkpt><trkpt lat="45.6195019" lon="9.4246133"><ele>209.0</ele><time>2026-04-29T11:28:41.763Z</time></trkpt><trkpt lat="45.6195027" lon="9.4245177"><ele>209.0</ele><time>2026-04-29T11:28:42.763Z</time></trkpt><trkpt lat="45.6195088" lon="9.424345"><ele>209.0</ele><time>2026-04-29T11:28:44.763Z</time></trkpt><trkpt lat="45.6195121" lon="9.4241832"><ele>209.0</ele><time>2026-04-29T11:28:46.763Z</time></trkpt><trkpt lat="45.6195129" lon="9.4240164"><ele>209.0</ele><time>2026-04-29T11:28:48.763Z</time></trkpt><trkpt lat="45.6195114" lon="9.423867"><ele>209.0</ele><time>2026-04-29T11:28:50.763Z</time></trkpt><trkpt lat="45.619516" lon="9.4237226"><ele>209.0</ele><time>2026-04-29T11:28:52.763Z</time></trkpt><trkpt lat="45.6195306" lon="9.4235749"><ele>209.2</ele><time>2026-04-29T11:28:54.763Z</time></trkpt><trkpt lat="45.6195856" lon="9.4234498"><ele>209.39999999999998</ele><time>2026-04-29T11:28:56.763Z</time></trkpt><trkpt lat="45.6196945" lon="9.4233918"><ele>209.6</ele><time>2026-04-29T11:28:58.763Z</time></trkpt><trkpt lat="45.6198086" lon="9.4233705"><ele>209.8</ele><time>2026-04-29T11:29:00.763Z</time></trkpt><trkpt lat="45.6198735" lon="9.4233599"><ele>210.0</ele><time>2026-04-29T11:29:01.763Z</time></trkpt><trkpt lat="45.6199369" lon="9.4233469"><ele>210.0</ele><time>2026-04-29T11:29:02.762Z</time></trkpt><trkpt lat="45.6200534" lon="9.4233044"><ele>210.0</ele><time>2026-04-29T11:29:04.763Z</time></trkpt><trkpt lat="45.6201708" lon="9.4232635"><ele>210.0</ele><time>2026-04-29T11:29:06.763Z</time></trkpt><trkpt lat="45.6202333" lon="9.4232447"><ele>210.0</ele><time>2026-04-29T11:29:07.763Z</time></trkpt><trkpt lat="45.6202947" lon="9.4232225"><ele>210.0</ele><time>2026-04-29T11:29:08.763Z</time></trkpt><trkpt lat="45.620411" lon="9.4231749"><ele>210.2</ele><time>2026-04-29T11:29:10.762Z</time></trkpt><trkpt lat="45.6205339" lon="9.423126"><ele>210.4</ele><time>2026-04-29T11:29:12.763Z</time></trkpt><trkpt lat="45.6205993" lon="9.4231028"><ele>210.60000000000002</ele><time>2026-04-29T11:29:13.763Z</time></trkpt><trkpt lat="45.6207138" lon="9.4230535"><ele>210.8</ele><time>2026-04-29T11:29:15.763Z</time></trkpt><trkpt lat="45.6208245" lon="9.4229955"><ele>211.0</ele><time>2026-04-29T11:29:17.763Z</time></trkpt><trkpt lat="45.6208845" lon="9.4229589"><ele>210.99999999999997</ele><time>2026-04-29T11:29:18.763Z</time></trkpt><trkpt lat="45.6209437" lon="9.4229234"><ele>211.0</ele><time>2026-04-29T11:29:19.763Z</time></trkpt><trkpt lat="45.6210045" lon="9.4228866"><ele>211.0</ele><time>2026-04-29T11:29:20.763Z</time></trkpt><trkpt lat="45.6210638" lon="9.4228455"><ele>211.0</ele><time>2026-04-29T11:29:21.763Z</time></trkpt><trkpt lat="45.6211842" lon="9.4227605"><ele>210.99999999999997</ele><time>2026-04-29T11:29:23.763Z</time></trkpt><trkpt lat="45.6212414" lon="9.4227177"><ele>211.0</ele><time>2026-04-29T11:29:24.763Z</time></trkpt><trkpt lat="45.6213543" lon="9.4226322"><ele>211.0</ele><time>2026-04-29T11:29:26.763Z</time></trkpt><trkpt lat="45.6214156" lon="9.4225757"><ele>211.0</ele><time>2026-04-29T11:29:27.763Z</time></trkpt><trkpt lat="45.6214695" lon="9.4225291"><ele>211.0</ele><time>2026-04-29T11:29:28.762Z</time></trkpt><trkpt lat="45.6215241" lon="9.4224771"><ele>211.0</ele><time>2026-04-29T11:29:29.763Z</time></trkpt><trkpt lat="45.6215866" lon="9.4224325"><ele>211.0</ele><time>2026-04-29T11:29:30.763Z</time></trkpt><trkpt lat="45.621641" lon="9.4223855"><ele>211.0</ele><time>2026-04-29T11:29:31.763Z</time></trkpt><trkpt lat="45.6217017" lon="9.4223359"><ele>211.0</ele><time>2026-04-29T11:29:32.763Z</time></trkpt><trkpt lat="45.6217609" lon="9.4222875"><ele>210.99999999999997</ele><time>2026-04-29T11:29:33.763Z</time></trkpt><trkpt lat="45.6218661" lon="9.4221876"><ele>211.0</ele><time>2026-04-29T11:29:35.763Z</time></trkpt><trkpt lat="45.6219267" lon="9.4221352"><ele>211.0</ele><time>2026-04-29T11:29:36.763Z</time></trkpt><trkpt lat="45.6219918" lon="9.4220815"><ele>211.0</ele><time>2026-04-29T11:29:37.762Z</time></trkpt><trkpt lat="45.6220468" lon="9.4220302"><ele>210.99999999999997</ele><time>2026-04-29T11:29:38.763Z</time></trkpt><trkpt lat="45.6221036" lon="9.4219822"><ele>211.0</ele><time>2026-04-29T11:29:39.762Z</time></trkpt><trkpt lat="45.6221555" lon="9.4219278"><ele>210.99999999999997</ele><time>2026-04-29T11:29:40.763Z</time></trkpt><trkpt lat="45.6222017" lon="9.4218635"><ele>211.0</ele><time>2026-04-29T11:29:41.763Z</time></trkpt><trkpt lat="45.6222511" lon="9.4217968"><ele>211.0</ele><time>2026-04-29T11:29:42.763Z</time></trkpt><trkpt lat="45.6223125" lon="9.42173"><ele>211.0</ele><time>2026-04-29T11:29:43.763Z</time></trkpt><trkpt lat="45.6223606" lon="9.4216625"><ele>210.99999999999997</ele><time>2026-04-29T11:29:44.763Z</time></trkpt><trkpt lat="45.622446" lon="9.4215253"><ele>211.0</ele><time>2026-04-29T11:29:46.763Z</time></trkpt><trkpt lat="45.6224942" lon="9.4214521"><ele>211.0</ele><time>2026-04-29T11:29:47.763Z</time></trkpt><trkpt lat="45.6225393" lon="9.421389"><ele>211.0</ele><time>2026-04-29T11:29:48.763Z</time></trkpt><trkpt lat="45.6225889" lon="9.421325"><ele>211.0</ele><time>2026-04-29T11:29:49.762Z</time></trkpt><trkpt lat="45.6226408" lon="9.4212512"><ele>211.0</ele><time>2026-04-29T11:29:50.763Z</time></trkpt><trkpt lat="45.6226843" lon="9.4211842"><ele>211.0</ele><time>2026-04-29T11:29:51.763Z</time></trkpt><trkpt lat="45.6227315" lon="9.4211143"><ele>211.0</ele><time>2026-04-29T11:29:52.763Z</time></trkpt><trkpt lat="45.6227773" lon="9.4210428"><ele>211.0</ele><time>2026-04-29T11:29:53.763Z</time></trkpt><trkpt lat="45.6228234" lon="9.4209643"><ele>210.85714285714286</ele><time>2026-04-29T11:29:54.763Z</time></trkpt><trkpt lat="45.6228726" lon="9.4208917"><ele>210.71428571428572</ele><time>2026-04-29T11:29:55.763Z</time></trkpt><trkpt lat="45.6229195" lon="9.4208192"><ele>210.57142857142856</ele><time>2026-04-29T11:29:56.763Z</time></trkpt><trkpt lat="45.6229687" lon="9.4207443"><ele>210.42857142857144</ele><time>2026-04-29T11:29:57.763Z</time></trkpt><trkpt lat="45.6230168" lon="9.4206704"><ele>210.28571428571428</ele><time>2026-04-29T11:29:58.763Z</time></trkpt><trkpt lat="45.623064" lon="9.4205972"><ele>210.14285714285714</ele><time>2026-04-29T11:29:59.763Z</time></trkpt><trkpt lat="45.6231134" lon="9.4205264"><ele>210.0</ele><time>2026-04-29T11:30:00.763Z</time></trkpt><trkpt lat="45.6231694" lon="9.4204476"><ele>210.5</ele><time>2026-04-29T11:30:01.763Z</time></trkpt><trkpt lat="45.6232488" lon="9.4203141"><ele>211.0</ele><time>2026-04-29T11:30:03.763Z</time></trkpt><trkpt lat="45.623303" lon="9.4202337"><ele>211.5</ele><time>2026-04-29T11:30:04.763Z</time></trkpt><trkpt lat="45.6233536" lon="9.4201644"><ele>212.0</ele><time>2026-04-29T11:30:05.763Z</time></trkpt><trkpt lat="45.6233999" lon="9.4200842"><ele>212.5</ele><time>2026-04-29T11:30:06.763Z</time></trkpt><trkpt lat="45.6234512" lon="9.4200095"><ele>213.0</ele><time>2026-04-29T11:30:07.763Z</time></trkpt><trkpt lat="45.6235008" lon="9.419937"><ele>213.0</ele><time>2026-04-29T11:30:08.763Z</time></trkpt><trkpt lat="45.6235508" lon="9.4198622"><ele>213.0</ele><time>2026-04-29T11:30:09.763Z</time></trkpt><trkpt lat="45.6236037" lon="9.419787"><ele>213.0</ele><time>2026-04-29T11:30:10.763Z</time></trkpt><trkpt lat="45.6236564" lon="9.4197079"><ele>213.0</ele><time>2026-04-29T11:30:11.763Z</time></trkpt><trkpt lat="45.6237173" lon="9.4196263"><ele>213.0</ele><time>2026-04-29T11:30:12.763Z</time></trkpt><trkpt lat="45.6237754" lon="9.4195463"><ele>213.0</ele><time>2026-04-29T11:30:13.763Z</time></trkpt><trkpt lat="45.6238252" lon="9.4194686"><ele>213.85714285714283</ele><time>2026-04-29T11:30:14.763Z</time></trkpt><trkpt lat="45.6238762" lon="9.4193899"><ele>214.71428571428572</ele><time>2026-04-29T11:30:15.763Z</time></trkpt><trkpt lat="45.6239267" lon="9.4193179"><ele>215.57142857142856</ele><time>2026-04-29T11:30:16.763Z</time></trkpt><trkpt lat="45.6239711" lon="9.4192432"><ele>216.42857142857142</ele><time>2026-04-29T11:30:17.763Z</time></trkpt><trkpt lat="45.6240161" lon="9.4191779"><ele>217.28571428571428</ele><time>2026-04-29T11:30:18.763Z</time></trkpt><trkpt lat="45.6240715" lon="9.4190904"><ele>218.14285714285714</ele><time>2026-04-29T11:30:19.763Z</time></trkpt><trkpt lat="45.6241198" lon="9.4190187"><ele>219.0</ele><time>2026-04-29T11:30:20.763Z</time></trkpt><trkpt lat="45.6241695" lon="9.4189384"><ele>219.0</ele><time>2026-04-29T11:30:21.763Z</time></trkpt><trkpt lat="45.6242221" lon="9.4188723"><ele>219.0</ele><time>2026-04-29T11:30:22.763Z</time></trkpt><trkpt lat="45.6242726" lon="9.4187927"><ele>219.0</ele><time>2026-04-29T11:30:23.763Z</time></trkpt><trkpt lat="45.6243211" lon="9.4187164"><ele>219.0</ele><time>2026-04-29T11:30:24.763Z</time></trkpt><trkpt lat="45.6243808" lon="9.4186452"><ele>219.0</ele><time>2026-04-29T11:30:25.762Z</time></trkpt><trkpt lat="45.6244335" lon="9.4185775"><ele>219.0</ele><time>2026-04-29T11:30:26.763Z</time></trkpt><trkpt lat="45.6244834" lon="9.4184985"><ele>219.0</ele><time>2026-04-29T11:30:27.763Z</time></trkpt><trkpt lat="45.6245222" lon="9.4184266"><ele>218.57142857142858</ele><time>2026-04-29T11:30:28.763Z</time></trkpt><trkpt lat="45.6245715" lon="9.418355"><ele>218.14285714285714</ele><time>2026-04-29T11:30:29.763Z</time></trkpt><trkpt lat="45.6246195" lon="9.4182821"><ele>217.71428571428572</ele><time>2026-04-29T11:30:30.763Z</time></trkpt><trkpt lat="45.6246678" lon="9.4182228"><ele>217.28571428571428</ele><time>2026-04-29T11:30:31.763Z</time></trkpt><trkpt lat="45.6247186" lon="9.418157"><ele>216.85714285714283</ele><time>2026-04-29T11:30:32.763Z</time></trkpt><trkpt lat="45.6247716" lon="9.4180893"><ele>216.42857142857142</ele><time>2026-04-29T11:30:33.763Z</time></trkpt><trkpt lat="45.6248363" lon="9.418034"><ele>216.0</ele><time>2026-04-29T11:30:34.763Z</time></trkpt><trkpt lat="45.6249656" lon="9.4179867"><ele>216.0</ele><time>2026-04-29T11:30:36.763Z</time></trkpt><trkpt lat="45.6250364" lon="9.4179918"><ele>216.0</ele><time>2026-04-29T11:30:37.763Z</time></trkpt><trkpt lat="45.625104" lon="9.4180063"><ele>216.0</ele><time>2026-04-29T11:30:38.763Z</time></trkpt><trkpt lat="45.625164" lon="9.4180424"><ele>216.0</ele><time>2026-04-29T11:30:39.763Z</time></trkpt><trkpt lat="45.6252286" lon="9.4180847"><ele>216.0</ele><time>2026-04-29T11:30:40.763Z</time></trkpt><trkpt lat="45.6252886" lon="9.4181214"><ele>216.0</ele><time>2026-04-29T11:30:41.763Z</time></trkpt><trkpt lat="45.625351" lon="9.4181446"><ele>216.0</ele><time>2026-04-29T11:30:42.763Z</time></trkpt><trkpt lat="45.6254209" lon="9.4181638"><ele>215.71428571428572</ele><time>2026-04-29T11:30:43.763Z</time></trkpt><trkpt lat="45.6254885" lon="9.4181716"><ele>215.42857142857142</ele><time>2026-04-29T11:30:44.763Z</time></trkpt><trkpt lat="45.6255568" lon="9.418181"><ele>215.14285714285717</ele><time>2026-04-29T11:30:45.763Z</time></trkpt><trkpt lat="45.6256225" lon="9.4181896"><ele>214.85714285714286</ele><time>2026-04-29T11:30:46.763Z</time></trkpt><trkpt lat="45.6256945" lon="9.4182022"><ele>214.57142857142858</ele><time>2026-04-29T11:30:47.763Z</time></trkpt><trkpt lat="45.6257599" lon="9.4182114"><ele>214.2857142857143</ele><time>2026-04-29T11:30:48.763Z</time></trkpt><trkpt lat="45.6258244" lon="9.4182244"><ele>214.0</ele><time>2026-04-29T11:30:49.763Z</time></trkpt><trkpt lat="45.6258918" lon="9.418229"><ele>214.00000000000003</ele><time>2026-04-29T11:30:50.763Z</time></trkpt><trkpt lat="45.6259578" lon="9.4182405"><ele>214.0</ele><time>2026-04-29T11:30:51.763Z</time></trkpt><trkpt lat="45.6260264" lon="9.4182476"><ele>214.0</ele><time>2026-04-29T11:30:52.763Z</time></trkpt><trkpt lat="45.6260953" lon="9.418258"><ele>214.0</ele><time>2026-04-29T11:30:53.763Z</time></trkpt><trkpt lat="45.626163" lon="9.4182686"><ele>214.0</ele><time>2026-04-29T11:30:54.763Z</time></trkpt><trkpt lat="45.6262291" lon="9.4182786"><ele>214.00000000000003</ele><time>2026-04-29T11:30:55.763Z</time></trkpt><trkpt lat="45.6262934" lon="9.4182954"><ele>214.0</ele><time>2026-04-29T11:30:56.763Z</time></trkpt><trkpt lat="45.6263592" lon="9.418304"><ele>214.2857142857143</ele><time>2026-04-29T11:30:57.763Z</time></trkpt><trkpt lat="45.6264223" lon="9.4183125"><ele>214.57142857142858</ele><time>2026-04-29T11:30:58.763Z</time></trkpt><trkpt lat="45.6264903" lon="9.4183201"><ele>214.85714285714286</ele><time>2026-04-29T11:30:59.763Z</time></trkpt><trkpt lat="45.6265551" lon="9.4183299"><ele>215.14285714285717</ele><time>2026-04-29T11:31:00.763Z</time></trkpt><trkpt lat="45.6266246" lon="9.4183415"><ele>215.42857142857142</ele><time>2026-04-29T11:31:01.763Z</time></trkpt><trkpt lat="45.6266913" lon="9.4183434"><ele>215.71428571428572</ele><time>2026-04-29T11:31:02.763Z</time></trkpt><trkpt lat="45.6267572" lon="9.4183491"><ele>216.0</ele><time>2026-04-29T11:31:03.763Z</time></trkpt><trkpt lat="45.626825" lon="9.4183589"><ele>216.0</ele><time>2026-04-29T11:31:04.763Z</time></trkpt><trkpt lat="45.6268907" lon="9.4183643"><ele>216.0</ele><time>2026-04-29T11:31:05.763Z</time></trkpt><trkpt lat="45.6269579" lon="9.4183725"><ele>216.0</ele><time>2026-04-29T11:31:06.763Z</time></trkpt><trkpt lat="45.6270222" lon="9.4183723"><ele>216.0</ele><time>2026-04-29T11:31:07.763Z</time></trkpt><trkpt lat="45.6270925" lon="9.4183714"><ele>216.0</ele><time>2026-04-29T11:31:08.763Z</time></trkpt><trkpt lat="45.6271596" lon="9.4183705"><ele>216.0</ele><time>2026-04-29T11:31:09.763Z</time></trkpt><trkpt lat="45.62723" lon="9.4183736"><ele>216.0</ele><time>2026-04-29T11:31:10.763Z</time></trkpt><trkpt lat="45.6272989" lon="9.4183791"><ele>215.83333333333334</ele><time>2026-04-29T11:31:11.763Z</time></trkpt><trkpt lat="45.6273656" lon="9.4183806"><ele>215.66666666666669</ele><time>2026-04-29T11:31:12.763Z</time></trkpt><trkpt lat="45.6274996" lon="9.418381"><ele>215.5</ele><time>2026-04-29T11:31:14.763Z</time></trkpt><trkpt lat="45.6275648" lon="9.4183852"><ele>215.33333333333334</ele><time>2026-04-29T11:31:15.763Z</time></trkpt><trkpt lat="45.6276294" lon="9.4183864"><ele>215.16666666666669</ele><time>2026-04-29T11:31:16.763Z</time></trkpt><trkpt lat="45.6276994" lon="9.4183815"><ele>215.0</ele><time>2026-04-29T11:31:17.762Z</time></trkpt><trkpt lat="45.6277653" lon="9.4183806"><ele>215.00000000000003</ele><time>2026-04-29T11:31:18.763Z</time></trkpt><trkpt lat="45.6278297" lon="9.4183765"><ele>215.0</ele><time>2026-04-29T11:31:19.763Z</time></trkpt><trkpt lat="45.6278937" lon="9.4183811"><ele>215.0</ele><time>2026-04-29T11:31:20.763Z</time></trkpt><trkpt lat="45.627957" lon="9.4183892"><ele>215.0</ele><time>2026-04-29T11:31:21.763Z</time></trkpt><trkpt lat="45.6280235" lon="9.4183896"><ele>215.00000000000003</ele><time>2026-04-29T11:31:22.763Z</time></trkpt><trkpt lat="45.6280894" lon="9.4184015"><ele>215.0</ele><time>2026-04-29T11:31:23.762Z</time></trkpt><trkpt lat="45.6282245" lon="9.4184026"><ele>215.00000000000003</ele><time>2026-04-29T11:31:25.763Z</time></trkpt><trkpt lat="45.6283523" lon="9.4184147"><ele>215.0</ele><time>2026-04-29T11:31:27.763Z</time></trkpt><trkpt lat="45.6284164" lon="9.4184202"><ele>215.0</ele><time>2026-04-29T11:31:28.763Z</time></trkpt><trkpt lat="45.6285437" lon="9.4184219"><ele>215.0</ele><time>2026-04-29T11:31:30.763Z</time></trkpt><trkpt lat="45.628608" lon="9.4184215"><ele>215.00000000000003</ele><time>2026-04-29T11:31:31.763Z</time></trkpt><trkpt lat="45.6286722" lon="9.4184215"><ele>215.0</ele><time>2026-04-29T11:31:32.763Z</time></trkpt><trkpt lat="45.6287393" lon="9.4184207"><ele>215.57142857142856</ele><time>2026-04-29T11:31:33.763Z</time></trkpt><trkpt lat="45.6288044" lon="9.4184087"><ele>216.14285714285717</ele><time>2026-04-29T11:31:34.763Z</time></trkpt><trkpt lat="45.6288716" lon="9.4184037"><ele>216.71428571428572</ele><time>2026-04-29T11:31:35.763Z</time></trkpt><trkpt lat="45.6289378" lon="9.4184043"><ele>217.28571428571428</ele><time>2026-04-29T11:31:36.763Z</time></trkpt><trkpt lat="45.6290093" lon="9.4184024"><ele>217.85714285714283</ele><time>2026-04-29T11:31:37.763Z</time></trkpt><trkpt lat="45.6290722" lon="9.4183857"><ele>218.42857142857144</ele><time>2026-04-29T11:31:38.763Z</time></trkpt><trkpt lat="45.6291377" lon="9.4183761"><ele>219.0</ele><time>2026-04-29T11:31:39.763Z</time></trkpt><trkpt lat="45.6292077" lon="9.4183701"><ele>219.0</ele><time>2026-04-29T11:31:40.763Z</time></trkpt><trkpt lat="45.6293405" lon="9.4183448"><ele>218.99999999999997</ele><time>2026-04-29T11:31:42.763Z</time></trkpt><trkpt lat="45.629465" lon="9.4183164"><ele>218.99999999999997</ele><time>2026-04-29T11:31:44.763Z</time></trkpt><trkpt lat="45.629531" lon="9.4183125"><ele>219.0</ele><time>2026-04-29T11:31:45.763Z</time></trkpt><trkpt lat="45.6295974" lon="9.4183222"><ele>219.0</ele><time>2026-04-29T11:31:46.763Z</time></trkpt><trkpt lat="45.6297314" lon="9.4183506"><ele>219.2857142857143</ele><time>2026-04-29T11:31:48.763Z</time></trkpt><trkpt lat="45.6298021" lon="9.4183373"><ele>219.57142857142856</ele><time>2026-04-29T11:31:49.763Z</time></trkpt><trkpt lat="45.6298654" lon="9.4183049"><ele>219.85714285714286</ele><time>2026-04-29T11:31:50.763Z</time></trkpt><trkpt lat="45.6299284" lon="9.418263"><ele>220.14285714285717</ele><time>2026-04-29T11:31:51.763Z</time></trkpt><trkpt lat="45.6299993" lon="9.4182277"><ele>220.42857142857144</ele><time>2026-04-29T11:31:52.763Z</time></trkpt><trkpt lat="45.6300701" lon="9.4181912"><ele>220.71428571428572</ele><time>2026-04-29T11:31:53.763Z</time></trkpt><trkpt lat="45.6301415" lon="9.4181723"><ele>221.0</ele><time>2026-04-29T11:31:54.763Z</time></trkpt><trkpt lat="45.6302123" lon="9.4181603"><ele>221.00000000000003</ele><time>2026-04-29T11:31:55.763Z</time></trkpt><trkpt lat="45.6302833" lon="9.4181436"><ele>221.0</ele><time>2026-04-29T11:31:56.763Z</time></trkpt><trkpt lat="45.6303525" lon="9.4181288"><ele>221.0</ele><time>2026-04-29T11:31:57.763Z</time></trkpt><trkpt lat="45.6304208" lon="9.4181107"><ele>221.0</ele><time>2026-04-29T11:31:58.763Z</time></trkpt><trkpt lat="45.6304917" lon="9.4180956"><ele>221.0</ele><time>2026-04-29T11:31:59.763Z</time></trkpt><trkpt lat="45.63056" lon="9.4180781"><ele>221.00000000000003</ele><time>2026-04-29T11:32:00.762Z</time></trkpt><trkpt lat="45.6306268" lon="9.4180584"><ele>221.0</ele><time>2026-04-29T11:32:01.763Z</time></trkpt><trkpt lat="45.6306979" lon="9.4180459"><ele>221.2857142857143</ele><time>2026-04-29T11:32:02.763Z</time></trkpt><trkpt lat="45.6307642" lon="9.4180427"><ele>221.57142857142858</ele><time>2026-04-29T11:32:03.763Z</time></trkpt><trkpt lat="45.6308443" lon="9.4180281"><ele>221.85714285714286</ele><time>2026-04-29T11:32:04.763Z</time></trkpt><trkpt lat="45.6309242" lon="9.4180264"><ele>222.14285714285717</ele><time>2026-04-29T11:32:05.763Z</time></trkpt><trkpt lat="45.6309904" lon="9.4180383"><ele>222.42857142857142</ele><time>2026-04-29T11:32:06.763Z</time></trkpt><trkpt lat="45.631061" lon="9.4180504"><ele>222.71428571428572</ele><time>2026-04-29T11:32:07.763Z</time></trkpt><trkpt lat="45.6311333" lon="9.4180611"><ele>223.0</ele><time>2026-04-29T11:32:08.763Z</time></trkpt><trkpt lat="45.6311964" lon="9.4180675"><ele>222.99999999999997</ele><time>2026-04-29T11:32:09.763Z</time></trkpt><trkpt lat="45.6312686" lon="9.4180838"><ele>223.0</ele><time>2026-04-29T11:32:10.763Z</time></trkpt><trkpt lat="45.6313392" lon="9.4180994"><ele>223.0</ele><time>2026-04-29T11:32:11.763Z</time></trkpt><trkpt lat="45.6314059" lon="9.4181185"><ele>223.0</ele><time>2026-04-29T11:32:12.763Z</time></trkpt><trkpt lat="45.6315314" lon="9.4181366"><ele>222.99999999999997</ele><time>2026-04-29T11:32:14.763Z</time></trkpt><trkpt lat="45.6315927" lon="9.418165"><ele>223.0</ele><time>2026-04-29T11:32:15.763Z</time></trkpt><trkpt lat="45.6316721" lon="9.4181744"><ele>223.0</ele><time>2026-04-29T11:32:16.763Z</time></trkpt><trkpt lat="45.6317445" lon="9.4181945"><ele>223.0</ele><time>2026-04-29T11:32:17.762Z</time></trkpt><trkpt lat="45.6318128" lon="9.4182055"><ele>223.0</ele><time>2026-04-29T11:32:18.763Z</time></trkpt><trkpt lat="45.6318795" lon="9.4182131"><ele>223.0</ele><time>2026-04-29T11:32:19.763Z</time></trkpt><trkpt lat="45.6319425" lon="9.4182121"><ele>223.0</ele><time>2026-04-29T11:32:20.763Z</time></trkpt><trkpt lat="45.6320136" lon="9.41824"><ele>223.0</ele><time>2026-04-29T11:32:21.763Z</time></trkpt><trkpt lat="45.6320851" lon="9.4182532"><ele>223.0</ele><time>2026-04-29T11:32:22.763Z</time></trkpt><trkpt lat="45.6321493" lon="9.4182684"><ele>223.14285714285714</ele><time>2026-04-29T11:32:23.763Z</time></trkpt><trkpt lat="45.6322156" lon="9.418286"><ele>223.28571428571428</ele><time>2026-04-29T11:32:24.763Z</time></trkpt><trkpt lat="45.6322831" lon="9.4182973"><ele>223.42857142857144</ele><time>2026-04-29T11:32:25.763Z</time></trkpt><trkpt lat="45.6323597" lon="9.4183232"><ele>223.57142857142856</ele><time>2026-04-29T11:32:26.762Z</time></trkpt><trkpt lat="45.6324285" lon="9.4183386"><ele>223.71428571428572</ele><time>2026-04-29T11:32:27.763Z</time></trkpt><trkpt lat="45.6324932" lon="9.4183444"><ele>223.85714285714286</ele><time>2026-04-29T11:32:28.763Z</time></trkpt><trkpt lat="45.6325619" lon="9.4183635"><ele>224.0</ele><time>2026-04-29T11:32:29.763Z</time></trkpt><trkpt lat="45.632634" lon="9.4183774"><ele>224.0</ele><time>2026-04-29T11:32:30.763Z</time></trkpt><trkpt lat="45.6327664" lon="9.4183977"><ele>224.0</ele><time>2026-04-29T11:32:32.763Z</time></trkpt><trkpt lat="45.6328362" lon="9.4184092"><ele>224.0</ele><time>2026-04-29T11:32:33.763Z</time></trkpt><trkpt lat="45.6329678" lon="9.4184298"><ele>224.0</ele><time>2026-04-29T11:32:35.763Z</time></trkpt><trkpt lat="45.6330982" lon="9.4184693"><ele>223.79999999999998</ele><time>2026-04-29T11:32:37.763Z</time></trkpt><trkpt lat="45.6332192" lon="9.4184702"><ele>223.59999999999997</ele><time>2026-04-29T11:32:39.763Z</time></trkpt><trkpt lat="45.6332877" lon="9.4184879"><ele>223.4</ele><time>2026-04-29T11:32:40.762Z</time></trkpt><trkpt lat="45.6334077" lon="9.4185064"><ele>223.2</ele><time>2026-04-29T11:32:42.763Z</time></trkpt><trkpt lat="45.6335187" lon="9.4185302"><ele>223.0</ele><time>2026-04-29T11:32:44.763Z</time></trkpt><trkpt lat="45.6336375" lon="9.4185632"><ele>223.16666666666666</ele><time>2026-04-29T11:32:46.763Z</time></trkpt><trkpt lat="45.6337294" lon="9.4185648"><ele>223.33333333333331</ele><time>2026-04-29T11:32:48.763Z</time></trkpt><trkpt lat="45.6337949" lon="9.4185952"><ele>223.5</ele><time>2026-04-29T11:32:49.763Z</time></trkpt><trkpt lat="45.6338601" lon="9.418609"><ele>223.66666666666669</ele><time>2026-04-29T11:32:50.763Z</time></trkpt><trkpt lat="45.6339757" lon="9.4186456"><ele>223.83333333333334</ele><time>2026-04-29T11:32:52.763Z</time></trkpt><trkpt lat="45.6340414" lon="9.4186631"><ele>224.0</ele><time>2026-04-29T11:32:53.763Z</time></trkpt><trkpt lat="45.6341471" lon="9.4187014"><ele>224.0</ele><time>2026-04-29T11:32:55.763Z</time></trkpt><trkpt lat="45.6342619" lon="9.4187416"><ele>224.0</ele><time>2026-04-29T11:32:57.763Z</time></trkpt><trkpt lat="45.6343732" lon="9.4187819"><ele>224.0</ele><time>2026-04-29T11:32:59.763Z</time></trkpt><trkpt lat="45.6344833" lon="9.418837"><ele>224.0</ele><time>2026-04-29T11:33:01.763Z</time></trkpt><trkpt lat="45.6345985" lon="9.4189031"><ele>225.25</ele><time>2026-04-29T11:33:03.762Z</time></trkpt><trkpt lat="45.6347104" lon="9.4189793"><ele>226.5</ele><time>2026-04-29T11:33:05.763Z</time></trkpt><trkpt lat="45.6348236" lon="9.4190426"><ele>227.75</ele><time>2026-04-29T11:33:07.763Z</time></trkpt><trkpt lat="45.6349486" lon="9.4191184"><ele>229.0</ele><time>2026-04-29T11:33:09.763Z</time></trkpt><trkpt lat="45.6350516" lon="9.4191949"><ele>229.0</ele><time>2026-04-29T11:33:11.763Z</time></trkpt><trkpt lat="45.6351109" lon="9.4192328"><ele>228.99999999999997</ele><time>2026-04-29T11:33:12.763Z</time></trkpt><trkpt lat="45.6352085" lon="9.4193031"><ele>228.99999999999997</ele><time>2026-04-29T11:33:14.762Z</time></trkpt><trkpt lat="45.6353175" lon="9.4193556"><ele>229.0</ele><time>2026-04-29T11:33:16.763Z</time></trkpt><trkpt lat="45.6354146" lon="9.419412"><ele>229.0</ele><time>2026-04-29T11:33:18.763Z</time></trkpt><trkpt lat="45.6354926" lon="9.4194543"><ele>228.6</ele><time>2026-04-29T11:33:20.763Z</time></trkpt><trkpt lat="45.6355343" lon="9.4193573"><ele>228.2</ele><time>2026-04-29T11:33:23.763Z</time></trkpt><trkpt lat="45.6355675" lon="9.4192446"><ele>227.79999999999998</ele><time>2026-04-29T11:33:25.763Z</time></trkpt><trkpt lat="45.6356049" lon="9.4190938"><ele>227.39999999999998</ele><time>2026-04-29T11:33:28.763Z</time></trkpt><trkpt lat="45.6356311" lon="9.4189864"><ele>227.0</ele><time>2026-04-29T11:33:30.763Z</time></trkpt><trkpt lat="45.6356716" lon="9.4188445"><ele>226.6</ele><time>2026-04-29T11:33:32.763Z</time></trkpt><trkpt lat="45.6357088" lon="9.4187223"><ele>226.2</ele><time>2026-04-29T11:33:34.763Z</time></trkpt><trkpt lat="45.6357821" lon="9.4186159"><ele>225.8</ele><time>2026-04-29T11:33:36.763Z</time></trkpt><trkpt lat="45.6358505" lon="9.418473"><ele>225.4</ele><time>2026-04-29T11:33:38.763Z</time></trkpt><trkpt lat="45.6359243" lon="9.4183365"><ele>225.0</ele><time>2026-04-29T11:33:40.763Z</time></trkpt><trkpt lat="45.6359602" lon="9.4182434"><ele>225.0</ele><time>2026-04-29T11:33:41.763Z</time></trkpt><trkpt lat="45.6360254" lon="9.4180916"><ele>225.0</ele><time>2026-04-29T11:33:43.763Z</time></trkpt><trkpt lat="45.6360631" lon="9.418005"><ele>225.0</ele><time>2026-04-29T11:33:44.763Z</time></trkpt><trkpt lat="45.6361337" lon="9.4178532"><ele>225.0</ele><time>2026-04-29T11:33:46.763Z</time></trkpt><trkpt lat="45.6362149" lon="9.4177341"><ele>225.0</ele><time>2026-04-29T11:33:48.763Z</time></trkpt><trkpt lat="45.6362562" lon="9.4176568"><ele>224.6</ele><time>2026-04-29T11:33:49.763Z</time></trkpt><trkpt lat="45.6363247" lon="9.4175387"><ele>224.2</ele><time>2026-04-29T11:33:51.763Z</time></trkpt><trkpt lat="45.6363989" lon="9.41757"><ele>223.8</ele><time>2026-04-29T11:33:53.763Z</time></trkpt><trkpt lat="45.6364938" lon="9.4176183"><ele>223.4</ele><time>2026-04-29T11:33:55.763Z</time></trkpt><trkpt lat="45.6365986" lon="9.4176575"><ele>223.0</ele><time>2026-04-29T11:33:57.763Z</time></trkpt><trkpt lat="45.636707" lon="9.4177169"><ele>223.0</ele><time>2026-04-29T11:33:59.763Z</time></trkpt><trkpt lat="45.636817" lon="9.4177775"><ele>223.0</ele><time>2026-04-29T11:34:01.763Z</time></trkpt><trkpt lat="45.6369305" lon="9.4178448"><ele>223.0</ele><time>2026-04-29T11:34:03.763Z</time></trkpt><trkpt lat="45.6369927" lon="9.4178735"><ele>223.0</ele><time>2026-04-29T11:34:04.763Z</time></trkpt><trkpt lat="45.6370685" lon="9.4179101"><ele>223.0</ele><time>2026-04-29T11:34:05.763Z</time></trkpt><trkpt lat="45.6371463" lon="9.417944"><ele>223.25</ele><time>2026-04-29T11:34:06.763Z</time></trkpt><trkpt lat="45.6372517" lon="9.4179432"><ele>223.5</ele><time>2026-04-29T11:34:08.763Z</time></trkpt><trkpt lat="45.6373672" lon="9.4179743"><ele>223.75</ele><time>2026-04-29T11:34:10.762Z</time></trkpt><trkpt lat="45.6374794" lon="9.4180029"><ele>224.0</ele><time>2026-04-29T11:34:12.763Z</time></trkpt><trkpt lat="45.6375933" lon="9.4180416"><ele>224.0</ele><time>2026-04-29T11:34:14.763Z</time></trkpt><trkpt lat="45.6377161" lon="9.4180822"><ele>224.0</ele><time>2026-04-29T11:34:16.762Z</time></trkpt><trkpt lat="45.6378384" lon="9.4181229"><ele>224.0</ele><time>2026-04-29T11:34:18.762Z</time></trkpt><trkpt lat="45.6379464" lon="9.4181461"><ele>224.0</ele><time>2026-04-29T11:34:20.763Z</time></trkpt><trkpt lat="45.6380726" lon="9.4181647"><ele>223.79999999999998</ele><time>2026-04-29T11:34:22.763Z</time></trkpt><trkpt lat="45.6381357" lon="9.4181803"><ele>223.59999999999997</ele><time>2026-04-29T11:34:23.763Z</time></trkpt><trkpt lat="45.6382591" lon="9.4182001"><ele>223.4</ele><time>2026-04-29T11:34:25.763Z</time></trkpt><trkpt lat="45.6383709" lon="9.4182363"><ele>223.2</ele><time>2026-04-29T11:34:27.763Z</time></trkpt><trkpt lat="45.6384674" lon="9.4181848"><ele>223.0</ele><time>2026-04-29T11:34:29.763Z</time></trkpt><trkpt lat="45.6385401" lon="9.418057"><ele>224.0</ele><time>2026-04-29T11:34:31.763Z</time></trkpt><trkpt lat="45.6386443" lon="9.4179918"><ele>225.0</ele><time>2026-04-29T11:34:33.763Z</time></trkpt><trkpt lat="45.6387543" lon="9.418013"><ele>226.0</ele><time>2026-04-29T11:34:35.763Z</time></trkpt><trkpt lat="45.6388732" lon="9.4180334"><ele>227.0</ele><time>2026-04-29T11:34:37.763Z</time></trkpt><trkpt lat="45.6389915" lon="9.4180524"><ele>227.0</ele><time>2026-04-29T11:34:39.763Z</time></trkpt><trkpt lat="45.6391113" lon="9.4180924"><ele>227.0</ele><time>2026-04-29T11:34:41.763Z</time></trkpt><trkpt lat="45.639226" lon="9.4181255"><ele>227.0</ele><time>2026-04-29T11:34:43.763Z</time></trkpt><trkpt lat="45.6392878" lon="9.4181439"><ele>227.0</ele><time>2026-04-29T11:34:44.763Z</time></trkpt><trkpt lat="45.6394086" lon="9.4181814"><ele>227.0</ele><time>2026-04-29T11:34:46.763Z</time></trkpt><trkpt lat="45.6395254" lon="9.4182084"><ele>227.33333333333334</ele><time>2026-04-29T11:34:48.763Z</time></trkpt><trkpt lat="45.6395887" lon="9.4182194"><ele>227.66666666666669</ele><time>2026-04-29T11:34:49.763Z</time></trkpt><trkpt lat="45.6397132" lon="9.418249"><ele>228.0</ele><time>2026-04-29T11:34:51.763Z</time></trkpt><trkpt lat="45.6397757" lon="9.4182618"><ele>228.33333333333331</ele><time>2026-04-29T11:34:52.763Z</time></trkpt><trkpt lat="45.6398396" lon="9.4182663"><ele>228.66666666666666</ele><time>2026-04-29T11:34:53.763Z</time></trkpt><trkpt lat="45.6399033" lon="9.4182797"><ele>229.0</ele><time>2026-04-29T11:34:54.763Z</time></trkpt><trkpt lat="45.6400231" lon="9.4182928"><ele>228.99999999999997</ele><time>2026-04-29T11:34:56.763Z</time></trkpt><trkpt lat="45.6401412" lon="9.418289"><ele>229.0</ele><time>2026-04-29T11:34:58.762Z</time></trkpt><trkpt lat="45.6402044" lon="9.4182794"><ele>229.0</ele><time>2026-04-29T11:34:59.763Z</time></trkpt><trkpt lat="45.6403278" lon="9.4182426"><ele>229.0</ele><time>2026-04-29T11:35:01.763Z</time></trkpt><trkpt lat="45.6403877" lon="9.4181998"><ele>228.99999999999997</ele><time>2026-04-29T11:35:02.763Z</time></trkpt><trkpt lat="45.640449" lon="9.418157"><ele>229.0</ele><time>2026-04-29T11:35:03.763Z</time></trkpt><trkpt lat="45.6405048" lon="9.4181031"><ele>229.0</ele><time>2026-04-29T11:35:04.763Z</time></trkpt><trkpt lat="45.6405558" lon="9.4180484"><ele>229.0</ele><time>2026-04-29T11:35:05.763Z</time></trkpt><trkpt lat="45.6406095" lon="9.4179991"><ele>229.0</ele><time>2026-04-29T11:35:06.763Z</time></trkpt><trkpt lat="45.6406656" lon="9.4179425"><ele>229.0</ele><time>2026-04-29T11:35:07.763Z</time></trkpt><trkpt lat="45.6407118" lon="9.4178622"><ele>229.0</ele><time>2026-04-29T11:35:08.763Z</time></trkpt><trkpt lat="45.6407463" lon="9.4177772"><ele>229.0</ele><time>2026-04-29T11:35:09.763Z</time></trkpt><trkpt lat="45.6407886" lon="9.4176894"><ele>229.0</ele><time>2026-04-29T11:35:10.763Z</time></trkpt><trkpt lat="45.640819" lon="9.4176021"><ele>228.99999999999997</ele><time>2026-04-29T11:35:11.762Z</time></trkpt><trkpt lat="45.6408458" lon="9.417519"><ele>229.0</ele><time>2026-04-29T11:35:12.763Z</time></trkpt><trkpt lat="45.6408822" lon="9.4174227"><ele>229.0</ele><time>2026-04-29T11:35:13.763Z</time></trkpt><trkpt lat="45.6409217" lon="9.4173236"><ele>229.0</ele><time>2026-04-29T11:35:14.763Z</time></trkpt><trkpt lat="45.6409671" lon="9.4172128"><ele>228.99999999999997</ele><time>2026-04-29T11:35:15.763Z</time></trkpt><trkpt lat="45.6409983" lon="9.4170928"><ele>229.0</ele><time>2026-04-29T11:35:16.763Z</time></trkpt><trkpt lat="45.6410281" lon="9.4170129"><ele>228.99999999999997</ele><time>2026-04-29T11:35:17.763Z</time></trkpt><trkpt lat="45.6410636" lon="9.416919"><ele>229.0</ele><time>2026-04-29T11:35:18.763Z</time></trkpt><trkpt lat="45.6411023" lon="9.4168182"><ele>229.0</ele><time>2026-04-29T11:35:19.763Z</time></trkpt><trkpt lat="45.6411363" lon="9.4167131"><ele>229.0</ele><time>2026-04-29T11:35:20.763Z</time></trkpt><trkpt lat="45.6411661" lon="9.4166207"><ele>228.99999999999997</ele><time>2026-04-29T11:35:21.763Z</time></trkpt><trkpt lat="45.6411947" lon="9.4165387"><ele>229.0</ele><time>2026-04-29T11:35:22.763Z</time></trkpt><trkpt lat="45.6412572" lon="9.416372"><ele>229.0</ele><time>2026-04-29T11:35:24.763Z</time></trkpt><trkpt lat="45.6413453" lon="9.4162768"><ele>228.99999999999997</ele><time>2026-04-29T11:35:26.763Z</time></trkpt><trkpt lat="45.641451" lon="9.4163221"><ele>228.99999999999997</ele><time>2026-04-29T11:35:28.762Z</time></trkpt><trkpt lat="45.641558" lon="9.4163895"><ele>229.0</ele><time>2026-04-29T11:35:30.763Z</time></trkpt><trkpt lat="45.6416261" lon="9.4163981"><ele>229.0</ele><time>2026-04-29T11:35:31.763Z</time></trkpt><trkpt lat="45.6417014" lon="9.4164616"><ele>228.99999999999997</ele><time>2026-04-29T11:35:32.763Z</time></trkpt><trkpt lat="45.6417675" lon="9.4165032"><ele>229.0</ele><time>2026-04-29T11:35:33.763Z</time></trkpt><trkpt lat="45.6418269" lon="9.4165493"><ele>229.0</ele><time>2026-04-29T11:35:34.763Z</time></trkpt><trkpt lat="45.6418862" lon="9.416588"><ele>229.0</ele><time>2026-04-29T11:35:35.763Z</time></trkpt><trkpt lat="45.6419426" lon="9.4166325"><ele>228.99999999999997</ele><time>2026-04-29T11:35:36.763Z</time></trkpt><trkpt lat="45.6420102" lon="9.4166764"><ele>229.0</ele><time>2026-04-29T11:35:37.763Z</time></trkpt><trkpt lat="45.642112" lon="9.4167434"><ele>228.99999999999997</ele><time>2026-04-29T11:35:39.763Z</time></trkpt><trkpt lat="45.642183" lon="9.4167919"><ele>229.0</ele><time>2026-04-29T11:35:40.763Z</time></trkpt><trkpt lat="45.6422452" lon="9.4168352"><ele>229.0</ele><time>2026-04-29T11:35:41.763Z</time></trkpt><trkpt lat="45.6423207" lon="9.4168812"><ele>229.0</ele><time>2026-04-29T11:35:42.763Z</time></trkpt><trkpt lat="45.6424413" lon="9.416956"><ele>228.99999999999997</ele><time>2026-04-29T11:35:44.763Z</time></trkpt><trkpt lat="45.6424978" lon="9.4169972"><ele>229.0</ele><time>2026-04-29T11:35:45.763Z</time></trkpt><trkpt lat="45.6425586" lon="9.4170427"><ele>229.0</ele><time>2026-04-29T11:35:46.763Z</time></trkpt><trkpt lat="45.6426198" lon="9.4170913"><ele>229.0</ele><time>2026-04-29T11:35:47.763Z</time></trkpt><trkpt lat="45.6426793" lon="9.4171314"><ele>229.0</ele><time>2026-04-29T11:35:48.763Z</time></trkpt><trkpt lat="45.6427409" lon="9.4171714"><ele>229.0</ele><time>2026-04-29T11:35:49.763Z</time></trkpt><trkpt lat="45.6428023" lon="9.4172136"><ele>229.0</ele><time>2026-04-29T11:35:50.763Z</time></trkpt><trkpt lat="45.6428643" lon="9.4172538"><ele>229.0</ele><time>2026-04-29T11:35:51.763Z</time></trkpt><trkpt lat="45.6429318" lon="9.4172883"><ele>229.0</ele><time>2026-04-29T11:35:52.763Z</time></trkpt><trkpt lat="45.6429923" lon="9.4173332"><ele>229.0</ele><time>2026-04-29T11:35:53.762Z</time></trkpt><trkpt lat="45.643052" lon="9.4173769"><ele>229.0</ele><time>2026-04-29T11:35:54.763Z</time></trkpt><trkpt lat="45.6431118" lon="9.4174112"><ele>229.0</ele><time>2026-04-29T11:35:55.763Z</time></trkpt><trkpt lat="45.6431717" lon="9.4174554"><ele>229.0</ele><time>2026-04-29T11:35:56.763Z</time></trkpt><trkpt lat="45.643228" lon="9.417498"><ele>229.0</ele><time>2026-04-29T11:35:57.763Z</time></trkpt><trkpt lat="45.6432887" lon="9.4175378"><ele>229.0</ele><time>2026-04-29T11:35:58.763Z</time></trkpt><trkpt lat="45.6433496" lon="9.4175788"><ele>229.0</ele><time>2026-04-29T11:35:59.763Z</time></trkpt><trkpt lat="45.6434096" lon="9.4176238"><ele>229.0</ele><time>2026-04-29T11:36:00.763Z</time></trkpt><trkpt lat="45.6434738" lon="9.4176608"><ele>229.0</ele><time>2026-04-29T11:36:01.763Z</time></trkpt><trkpt lat="45.6435329" lon="9.4177032"><ele>229.0</ele><time>2026-04-29T11:36:02.763Z</time></trkpt><trkpt lat="45.6435908" lon="9.417749"><ele>229.0</ele><time>2026-04-29T11:36:03.762Z</time></trkpt><trkpt lat="45.6436553" lon="9.4177938"><ele>229.0</ele><time>2026-04-29T11:36:04.763Z</time></trkpt><trkpt lat="45.6437131" lon="9.4178393"><ele>229.0</ele><time>2026-04-29T11:36:05.763Z</time></trkpt><trkpt lat="45.6437796" lon="9.4178794"><ele>229.0</ele><time>2026-04-29T11:36:06.763Z</time></trkpt><trkpt lat="45.6438417" lon="9.417917"><ele>228.83333333333331</ele><time>2026-04-29T11:36:07.763Z</time></trkpt><trkpt lat="45.6439024" lon="9.417954"><ele>228.66666666666666</ele><time>2026-04-29T11:36:08.763Z</time></trkpt><trkpt lat="45.6440089" lon="9.4180433"><ele>228.5</ele><time>2026-04-29T11:36:10.763Z</time></trkpt><trkpt lat="45.6440632" lon="9.4181056"><ele>228.33333333333331</ele><time>2026-04-29T11:36:11.763Z</time></trkpt><trkpt lat="45.6441078" lon="9.4181829"><ele>228.16666666666666</ele><time>2026-04-29T11:36:12.763Z</time></trkpt><trkpt lat="45.644142" lon="9.4182643"><ele>228.0</ele><time>2026-04-29T11:36:13.763Z</time></trkpt><trkpt lat="45.6441895" lon="9.4183487"><ele>228.0</ele><time>2026-04-29T11:36:14.762Z</time></trkpt><trkpt lat="45.6442169" lon="9.4184395"><ele>227.99999999999997</ele><time>2026-04-29T11:36:15.763Z</time></trkpt><trkpt lat="45.6442475" lon="9.4185316"><ele>228.0</ele><time>2026-04-29T11:36:16.763Z</time></trkpt><trkpt lat="45.6442749" lon="9.4186182"><ele>228.0</ele><time>2026-04-29T11:36:17.763Z</time></trkpt><trkpt lat="45.6443079" lon="9.4187074"><ele>227.99999999999997</ele><time>2026-04-29T11:36:18.763Z</time></trkpt><trkpt lat="45.6443396" lon="9.4187989"><ele>228.0</ele><time>2026-04-29T11:36:19.763Z</time></trkpt><trkpt lat="45.6443686" lon="9.4188851"><ele>228.0</ele><time>2026-04-29T11:36:20.763Z</time></trkpt><trkpt lat="45.6443991" lon="9.4189666"><ele>227.83333333333334</ele><time>2026-04-29T11:36:21.763Z</time></trkpt><trkpt lat="45.6444249" lon="9.4190519"><ele>227.66666666666669</ele><time>2026-04-29T11:36:22.763Z</time></trkpt><trkpt lat="45.6444791" lon="9.4192128"><ele>227.5</ele><time>2026-04-29T11:36:24.763Z</time></trkpt><trkpt lat="45.6445062" lon="9.4193013"><ele>227.33333333333334</ele><time>2026-04-29T11:36:25.763Z</time></trkpt><trkpt lat="45.6445377" lon="9.4193821"><ele>227.16666666666669</ele><time>2026-04-29T11:36:26.763Z</time></trkpt><trkpt lat="45.6445903" lon="9.4195382"><ele>227.0</ele><time>2026-04-29T11:36:28.763Z</time></trkpt><trkpt lat="45.6446444" lon="9.4196934"><ele>228.2</ele><time>2026-04-29T11:36:30.763Z</time></trkpt><trkpt lat="45.6446949" lon="9.419841"><ele>229.39999999999998</ele><time>2026-04-29T11:36:32.763Z</time></trkpt><trkpt lat="45.6447523" lon="9.419986"><ele>230.60000000000002</ele><time>2026-04-29T11:36:34.763Z</time></trkpt><trkpt lat="45.6448065" lon="9.4201196"><ele>231.8</ele><time>2026-04-29T11:36:36.763Z</time></trkpt><trkpt lat="45.6448536" lon="9.4202525"><ele>233.0</ele><time>2026-04-29T11:36:38.763Z</time></trkpt><trkpt lat="45.6448902" lon="9.4203818"><ele>233.8</ele><time>2026-04-29T11:36:40.763Z</time></trkpt><trkpt lat="45.6449344" lon="9.4204837"><ele>234.60000000000002</ele><time>2026-04-29T11:36:42.763Z</time></trkpt><trkpt lat="45.6449764" lon="9.4205784"><ele>235.39999999999998</ele><time>2026-04-29T11:36:44.763Z</time></trkpt><trkpt lat="45.6450245" lon="9.4206966"><ele>236.2</ele><time>2026-04-29T11:36:46.763Z</time></trkpt><trkpt lat="45.6450753" lon="9.4208192"><ele>237.0</ele><time>2026-04-29T11:36:48.763Z</time></trkpt><trkpt lat="45.6451202" lon="9.4209426"><ele>237.0</ele><time>2026-04-29T11:36:50.763Z</time></trkpt><trkpt lat="45.6451637" lon="9.4210682"><ele>237.0</ele><time>2026-04-29T11:36:52.763Z</time></trkpt><trkpt lat="45.6452099" lon="9.4211842"><ele>237.0</ele><time>2026-04-29T11:36:54.763Z</time></trkpt><trkpt lat="45.6452556" lon="9.4213029"><ele>237.0</ele><time>2026-04-29T11:36:56.763Z</time></trkpt><trkpt lat="45.6452943" lon="9.4214295"><ele>237.0</ele><time>2026-04-29T11:36:58.763Z</time></trkpt><trkpt lat="45.6453354" lon="9.4215526"><ele>236.6</ele><time>2026-04-29T11:37:00.763Z</time></trkpt><trkpt lat="45.6453804" lon="9.4216708"><ele>236.2</ele><time>2026-04-29T11:37:02.763Z</time></trkpt><trkpt lat="45.6454277" lon="9.4217939"><ele>235.8</ele><time>2026-04-29T11:37:04.763Z</time></trkpt><trkpt lat="45.6454784" lon="9.4219155"><ele>235.4</ele><time>2026-04-29T11:37:06.763Z</time></trkpt><trkpt lat="45.6455438" lon="9.4220279"><ele>235.0</ele><time>2026-04-29T11:37:08.763Z</time></trkpt><trkpt lat="45.6456158" lon="9.4221339"><ele>236.0</ele><time>2026-04-29T11:37:10.762Z</time></trkpt><trkpt lat="45.6456948" lon="9.4222301"><ele>237.0</ele><time>2026-04-29T11:37:12.763Z</time></trkpt><trkpt lat="45.645783" lon="9.4223207"><ele>238.0</ele><time>2026-04-29T11:37:14.763Z</time></trkpt><trkpt lat="45.6458788" lon="9.4224088"><ele>239.0</ele><time>2026-04-29T11:37:16.763Z</time></trkpt><trkpt lat="45.6459795" lon="9.4224942"><ele>240.0</ele><time>2026-04-29T11:37:18.762Z</time></trkpt><trkpt lat="45.6460798" lon="9.422586"><ele>239.0</ele><time>2026-04-29T11:37:20.763Z</time></trkpt><trkpt lat="45.6461764" lon="9.4226884"><ele>238.0</ele><time>2026-04-29T11:37:22.763Z</time></trkpt><trkpt lat="45.6462806" lon="9.4227789"><ele>237.0</ele><time>2026-04-29T11:37:24.763Z</time></trkpt><trkpt lat="45.6463847" lon="9.4228719"><ele>236.0</ele><time>2026-04-29T11:37:26.763Z</time></trkpt><trkpt lat="45.6464398" lon="9.422919"><ele>235.0</ele><time>2026-04-29T11:37:27.763Z</time></trkpt><trkpt lat="45.646495" lon="9.4229652"><ele>235.66666666666666</ele><time>2026-04-29T11:37:28.763Z</time></trkpt><trkpt lat="45.6465534" lon="9.4230279"><ele>236.33333333333331</ele><time>2026-04-29T11:37:29.763Z</time></trkpt><trkpt lat="45.6466511" lon="9.4230905"><ele>237.0</ele><time>2026-04-29T11:37:31.763Z</time></trkpt><trkpt lat="45.6467049" lon="9.4231424"><ele>237.66666666666669</ele><time>2026-04-29T11:37:32.763Z</time></trkpt><trkpt lat="45.6468056" lon="9.4232107"><ele>238.33333333333334</ele><time>2026-04-29T11:37:34.763Z</time></trkpt><trkpt lat="45.6468701" lon="9.4232497"><ele>239.0</ele><time>2026-04-29T11:37:35.762Z</time></trkpt><trkpt lat="45.6469245" lon="9.423308"><ele>238.79999999999998</ele><time>2026-04-29T11:37:36.763Z</time></trkpt><trkpt lat="45.6470382" lon="9.423391"><ele>238.59999999999997</ele><time>2026-04-29T11:37:38.763Z</time></trkpt><trkpt lat="45.647103" lon="9.4234394"><ele>238.4</ele><time>2026-04-29T11:37:39.763Z</time></trkpt><trkpt lat="45.6472222" lon="9.4234951"><ele>238.2</ele><time>2026-04-29T11:37:41.763Z</time></trkpt><trkpt lat="45.6472904" lon="9.4235063"><ele>238.0</ele><time>2026-04-29T11:37:42.763Z</time></trkpt><trkpt lat="45.6473581" lon="9.4235072"><ele>238.0</ele><time>2026-04-29T11:37:43.763Z</time></trkpt><trkpt lat="45.6474239" lon="9.4235002"><ele>238.0</ele><time>2026-04-29T11:37:44.763Z</time></trkpt><trkpt lat="45.6474887" lon="9.423501"><ele>238.0</ele><time>2026-04-29T11:37:45.763Z</time></trkpt><trkpt lat="45.6475583" lon="9.4234927"><ele>238.0</ele><time>2026-04-29T11:37:46.763Z</time></trkpt><trkpt lat="45.6476295" lon="9.4234974"><ele>238.0</ele><time>2026-04-29T11:37:47.763Z</time></trkpt><trkpt lat="45.6477046" lon="9.4234818"><ele>238.0</ele><time>2026-04-29T11:37:48.762Z</time></trkpt><trkpt lat="45.6477816" lon="9.423469"><ele>238.0</ele><time>2026-04-29T11:37:49.763Z</time></trkpt><trkpt lat="45.6478563" lon="9.4234582"><ele>237.85714285714286</ele><time>2026-04-29T11:37:50.763Z</time></trkpt><trkpt lat="45.6479319" lon="9.4234435"><ele>237.71428571428572</ele><time>2026-04-29T11:37:51.763Z</time></trkpt><trkpt lat="45.6480046" lon="9.4234212"><ele>237.57142857142856</ele><time>2026-04-29T11:37:52.762Z</time></trkpt><trkpt lat="45.6480676" lon="9.4233941"><ele>237.42857142857142</ele><time>2026-04-29T11:37:53.763Z</time></trkpt><trkpt lat="45.6481547" lon="9.4234219"><ele>237.28571428571428</ele><time>2026-04-29T11:37:54.763Z</time></trkpt><trkpt lat="45.648226" lon="9.4234164"><ele>237.1428571428571</ele><time>2026-04-29T11:37:55.763Z</time></trkpt><trkpt lat="45.6482913" lon="9.4234061"><ele>236.99999999999997</ele><time>2026-04-29T11:37:56.763Z</time></trkpt><trkpt lat="45.6483613" lon="9.4234054"><ele>236.99999999999997</ele><time>2026-04-29T11:37:57.763Z</time></trkpt><trkpt lat="45.6484305" lon="9.4234013"><ele>237.0</ele><time>2026-04-29T11:37:58.763Z</time></trkpt><trkpt lat="45.6484981" lon="9.4233994"><ele>236.99999999999997</ele><time>2026-04-29T11:37:59.763Z</time></trkpt><trkpt lat="45.648572" lon="9.4234028"><ele>236.99999999999997</ele><time>2026-04-29T11:38:00.763Z</time></trkpt><trkpt lat="45.6486419" lon="9.4234013"><ele>237.0</ele><time>2026-04-29T11:38:01.763Z</time></trkpt><trkpt lat="45.6487066" lon="9.4233962"><ele>236.99999999999997</ele><time>2026-04-29T11:38:02.763Z</time></trkpt><trkpt lat="45.6487756" lon="9.4234025"><ele>236.99999999999997</ele><time>2026-04-29T11:38:03.763Z</time></trkpt><trkpt lat="45.6488407" lon="9.4233951"><ele>237.0</ele><time>2026-04-29T11:38:04.763Z</time></trkpt><trkpt lat="45.648936" lon="9.4233492"><ele>237.0</ele><time>2026-04-29T11:38:06.763Z</time></trkpt><trkpt lat="45.648966" lon="9.4232009"><ele>237.0</ele><time>2026-04-29T11:38:08.763Z</time></trkpt><trkpt lat="45.6489604" lon="9.423025"><ele>237.0</ele><time>2026-04-29T11:38:10.763Z</time></trkpt><trkpt lat="45.6489614" lon="9.4229294"><ele>237.0</ele><time>2026-04-29T11:38:11.763Z</time></trkpt><trkpt lat="45.6489539" lon="9.4228258"><ele>236.16666666666666</ele><time>2026-04-29T11:38:12.763Z</time></trkpt><trkpt lat="45.6489482" lon="9.4227281"><ele>235.33333333333331</ele><time>2026-04-29T11:38:13.763Z</time></trkpt><trkpt lat="45.648941" lon="9.4226237"><ele>234.5</ele><time>2026-04-29T11:38:14.763Z</time></trkpt><trkpt lat="45.648933" lon="9.4225292"><ele>233.66666666666666</ele><time>2026-04-29T11:38:15.762Z</time></trkpt><trkpt lat="45.6489302" lon="9.4224356"><ele>232.83333333333331</ele><time>2026-04-29T11:38:16.763Z</time></trkpt><trkpt lat="45.6489538" lon="9.4222977"><ele>232.0</ele><time>2026-04-29T11:38:18.763Z</time></trkpt><trkpt lat="45.6490227" lon="9.4222464"><ele>232.0</ele><time>2026-04-29T11:38:20.763Z</time></trkpt><trkpt lat="45.6491306" lon="9.4222483"><ele>232.0</ele><time>2026-04-29T11:38:22.763Z</time></trkpt><trkpt lat="45.6492356" lon="9.4222503"><ele>232.0</ele><time>2026-04-29T11:38:24.763Z</time></trkpt><trkpt lat="45.649349" lon="9.4222556"><ele>232.0</ele><time>2026-04-29T11:38:26.763Z</time></trkpt><trkpt lat="45.6494697" lon="9.4222614"><ele>232.0</ele><time>2026-04-29T11:38:28.763Z</time></trkpt><trkpt lat="45.6495347" lon="9.4222631"><ele>232.39999999999998</ele><time>2026-04-29T11:38:29.763Z</time></trkpt><trkpt lat="45.6496012" lon="9.4222799"><ele>232.79999999999998</ele><time>2026-04-29T11:38:30.763Z</time></trkpt><trkpt lat="45.6497167" lon="9.4223103"><ele>233.2</ele><time>2026-04-29T11:38:32.763Z</time></trkpt><trkpt lat="45.6498133" lon="9.4223328"><ele>233.6</ele><time>2026-04-29T11:38:34.763Z</time></trkpt><trkpt lat="45.6499193" lon="9.4223785"><ele>234.0</ele><time>2026-04-29T11:38:36.763Z</time></trkpt><trkpt lat="45.6500272" lon="9.4224005"><ele>234.0</ele><time>2026-04-29T11:38:38.763Z</time></trkpt><trkpt lat="45.6501424" lon="9.4224217"><ele>233.99999999999997</ele><time>2026-04-29T11:38:40.763Z</time></trkpt><trkpt lat="45.65024" lon="9.4224101"><ele>233.99999999999997</ele><time>2026-04-29T11:38:42.763Z</time></trkpt><trkpt lat="45.6503674" lon="9.4223719"><ele>234.0</ele><time>2026-04-29T11:38:44.763Z</time></trkpt><trkpt lat="45.650437" lon="9.4223795"><ele>234.0</ele><time>2026-04-29T11:38:45.763Z</time></trkpt><trkpt lat="45.6505042" lon="9.4223913"><ele>233.83333333333334</ele><time>2026-04-29T11:38:46.763Z</time></trkpt><trkpt lat="45.6505715" lon="9.4224083"><ele>233.66666666666669</ele><time>2026-04-29T11:38:47.763Z</time></trkpt><trkpt lat="45.6506429" lon="9.4224189"><ele>233.5</ele><time>2026-04-29T11:38:48.763Z</time></trkpt><trkpt lat="45.6507199" lon="9.4224344"><ele>233.33333333333334</ele><time>2026-04-29T11:38:49.763Z</time></trkpt><trkpt lat="45.6508016" lon="9.4224556"><ele>233.16666666666669</ele><time>2026-04-29T11:38:50.763Z</time></trkpt><trkpt lat="45.6508736" lon="9.4224758"><ele>233.0</ele><time>2026-04-29T11:38:51.763Z</time></trkpt><trkpt lat="45.6509986" lon="9.4224862"><ele>233.0</ele><time>2026-04-29T11:38:53.763Z</time></trkpt><trkpt lat="45.6510621" lon="9.4224948"><ele>233.0</ele><time>2026-04-29T11:38:54.763Z</time></trkpt><trkpt lat="45.6511845" lon="9.4224974"><ele>233.0</ele><time>2026-04-29T11:38:56.763Z</time></trkpt><trkpt lat="45.6513007" lon="9.4225038"><ele>233.0</ele><time>2026-04-29T11:38:58.763Z</time></trkpt><trkpt lat="45.651391" lon="9.4225351"><ele>233.0</ele><time>2026-04-29T11:39:00.763Z</time></trkpt><trkpt lat="45.6514136" lon="9.422429"><ele>232.8</ele><time>2026-04-29T11:39:03.763Z</time></trkpt><trkpt lat="45.6514523" lon="9.4223574"><ele>232.60000000000002</ele><time>2026-04-29T11:39:04.763Z</time></trkpt><trkpt lat="45.65149" lon="9.4222321"><ele>232.39999999999998</ele><time>2026-04-29T11:39:06.763Z</time></trkpt><trkpt lat="45.6515059" lon="9.4221444"><ele>232.2</ele><time>2026-04-29T11:39:07.763Z</time></trkpt><trkpt lat="45.6515489" lon="9.4219653"><ele>232.0</ele><time>2026-04-29T11:39:09.763Z</time></trkpt><trkpt lat="45.6515624" lon="9.4218118"><ele>233.0</ele><time>2026-04-29T11:39:11.763Z</time></trkpt><trkpt lat="45.6515727" lon="9.4216809"><ele>234.0</ele><time>2026-04-29T11:39:13.763Z</time></trkpt><trkpt lat="45.65182" lon="9.4216283"><ele>235.0</ele><time>2026-04-29T11:39:24.763Z</time></trkpt><trkpt lat="45.6519019" lon="9.4216713"><ele>236.0</ele><time>2026-04-29T11:39:26.763Z</time></trkpt><trkpt lat="45.6519704" lon="9.4217055"><ele>236.4</ele><time>2026-04-29T11:39:28.763Z</time></trkpt><trkpt lat="45.6520292" lon="9.4217408"><ele>236.8</ele><time>2026-04-29T11:39:30.763Z</time></trkpt><trkpt lat="45.6521519" lon="9.4217954"><ele>237.20000000000002</ele><time>2026-04-29T11:39:32.763Z</time></trkpt><trkpt lat="45.6522215" lon="9.4218191"><ele>237.60000000000002</ele><time>2026-04-29T11:39:34.763Z</time></trkpt><trkpt lat="45.6523401" lon="9.4218274"><ele>238.0</ele><time>2026-04-29T11:39:36.763Z</time></trkpt><trkpt lat="45.6524065" lon="9.421851"><ele>238.0</ele><time>2026-04-29T11:39:37.763Z</time></trkpt><trkpt lat="45.6524723" lon="9.4218721"><ele>238.0</ele><time>2026-04-29T11:39:39.763Z</time></trkpt><trkpt lat="45.6525935" lon="9.4218831"><ele>238.0</ele><time>2026-04-29T11:39:41.763Z</time></trkpt><trkpt lat="45.6527769" lon="9.4218825"><ele>238.0</ele><time>2026-04-29T11:39:44.763Z</time></trkpt><trkpt lat="45.6528432" lon="9.4218931"><ele>238.0</ele><time>2026-04-29T11:39:45.763Z</time></trkpt><trkpt lat="45.6529622" lon="9.4218916"><ele>237.8</ele><time>2026-04-29T11:39:47.762Z</time></trkpt><trkpt lat="45.6530263" lon="9.4218833"><ele>237.60000000000002</ele><time>2026-04-29T11:39:48.763Z</time></trkpt><trkpt lat="45.6530884" lon="9.4218659"><ele>237.39999999999998</ele><time>2026-04-29T11:39:49.763Z</time></trkpt><trkpt lat="45.6531987" lon="9.4218859"><ele>237.2</ele><time>2026-04-29T11:39:51.763Z</time></trkpt><trkpt lat="45.6533243" lon="9.4218777"><ele>237.0</ele><time>2026-04-29T11:39:53.763Z</time></trkpt><trkpt lat="45.6534282" lon="9.4218325"><ele>237.0</ele><time>2026-04-29T11:39:54.763Z</time></trkpt><trkpt lat="45.6534932" lon="9.4218514"><ele>237.0</ele><time>2026-04-29T11:39:55.763Z</time></trkpt><trkpt lat="45.6535693" lon="9.4218099"><ele>237.0</ele><time>2026-04-29T11:39:57.763Z</time></trkpt><trkpt lat="45.6536705" lon="9.4218148"><ele>237.0</ele><time>2026-04-29T11:39:59.763Z</time></trkpt><trkpt lat="45.6538038" lon="9.4218138"><ele>237.0</ele><time>2026-04-29T11:40:01.763Z</time></trkpt><trkpt lat="45.6538864" lon="9.4217808"><ele>236.6</ele><time>2026-04-29T11:40:02.763Z</time></trkpt><trkpt lat="45.653973" lon="9.4217452"><ele>236.2</ele><time>2026-04-29T11:40:03.763Z</time></trkpt><trkpt lat="45.6540938" lon="9.4216697"><ele>235.8</ele><time>2026-04-29T11:40:05.763Z</time></trkpt><trkpt lat="45.6541983" lon="9.4217116"><ele>235.4</ele><time>2026-04-29T11:40:07.763Z</time></trkpt><trkpt lat="45.6542907" lon="9.421704"><ele>235.0</ele><time>2026-04-29T11:40:09.762Z</time></trkpt><trkpt lat="45.654384" lon="9.4217628"><ele>235.5</ele><time>2026-04-29T11:40:11.763Z</time></trkpt><trkpt lat="45.6546406" lon="9.4216865"><ele>236.0</ele><time>2026-04-29T11:40:16.763Z</time></trkpt><trkpt lat="45.6548329" lon="9.4217075"><ele>236.00000000000003</ele><time>2026-04-29T11:40:19.763Z</time></trkpt><trkpt lat="45.6549464" lon="9.421756"><ele>236.0</ele><time>2026-04-29T11:40:21.762Z</time></trkpt><trkpt lat="45.655015" lon="9.4217793"><ele>236.0</ele><time>2026-04-29T11:40:22.763Z</time></trkpt><trkpt lat="45.6550885" lon="9.4217724"><ele>236.0</ele><time>2026-04-29T11:40:23.763Z</time></trkpt><trkpt lat="45.6551542" lon="9.4218057"><ele>236.00000000000003</ele><time>2026-04-29T11:40:24.763Z</time></trkpt><trkpt lat="45.6552206" lon="9.4218446"><ele>236.0</ele><time>2026-04-29T11:40:25.763Z</time></trkpt><trkpt lat="45.6552833" lon="9.4218631"><ele>236.4</ele><time>2026-04-29T11:40:26.763Z</time></trkpt><trkpt lat="45.6553898" lon="9.4219347"><ele>236.8</ele><time>2026-04-29T11:40:28.763Z</time></trkpt><trkpt lat="45.6554764" lon="9.4219891"><ele>237.20000000000002</ele><time>2026-04-29T11:40:30.763Z</time></trkpt><trkpt lat="45.6555332" lon="9.4220343"><ele>237.60000000000002</ele><time>2026-04-29T11:40:31.763Z</time></trkpt><trkpt lat="45.6556033" lon="9.4220681"><ele>238.0</ele><time>2026-04-29T11:40:32.763Z</time></trkpt><trkpt lat="45.6557116" lon="9.4221481"><ele>237.60000000000002</ele><time>2026-04-29T11:40:34.763Z</time></trkpt><trkpt lat="45.6558348" lon="9.4222383"><ele>237.20000000000002</ele><time>2026-04-29T11:40:36.763Z</time></trkpt><trkpt lat="45.655947" lon="9.4222916"><ele>236.8</ele><time>2026-04-29T11:40:38.763Z</time></trkpt><trkpt lat="45.6560127" lon="9.4223116"><ele>236.4</ele><time>2026-04-29T11:40:39.763Z</time></trkpt><trkpt lat="45.6560818" lon="9.4223385"><ele>236.0</ele><time>2026-04-29T11:40:40.763Z</time></trkpt><trkpt lat="45.6561478" lon="9.4223848"><ele>236.00000000000003</ele><time>2026-04-29T11:40:41.763Z</time></trkpt><trkpt lat="45.6562123" lon="9.4224158"><ele>236.0</ele><time>2026-04-29T11:40:42.763Z</time></trkpt><trkpt lat="45.6562725" lon="9.4224567"><ele>236.0</ele><time>2026-04-29T11:40:43.763Z</time></trkpt><trkpt lat="45.6563461" lon="9.4224764"><ele>236.0</ele><time>2026-04-29T11:40:44.763Z</time></trkpt><trkpt lat="45.6564695" lon="9.4225452"><ele>236.00000000000003</ele><time>2026-04-29T11:40:46.763Z</time></trkpt><trkpt lat="45.6565373" lon="9.4225788"><ele>236.0</ele><time>2026-04-29T11:40:47.763Z</time></trkpt><trkpt lat="45.6566374" lon="9.4226569"><ele>236.00000000000003</ele><time>2026-04-29T11:40:49.763Z</time></trkpt><trkpt lat="45.6567088" lon="9.4226985"><ele>236.0</ele><time>2026-04-29T11:40:50.763Z</time></trkpt><trkpt lat="45.6568274" lon="9.4227526"><ele>236.0</ele><time>2026-04-29T11:40:52.763Z</time></trkpt><trkpt lat="45.6568963" lon="9.4227927"><ele>236.0</ele><time>2026-04-29T11:40:53.763Z</time></trkpt><trkpt lat="45.6569649" lon="9.4228095"><ele>236.00000000000003</ele><time>2026-04-29T11:40:54.763Z</time></trkpt><trkpt lat="45.6570321" lon="9.4228293"><ele>236.0</ele><time>2026-04-29T11:40:55.763Z</time></trkpt><trkpt lat="45.6571502" lon="9.422869"><ele>236.16666666666669</ele><time>2026-04-29T11:40:57.763Z</time></trkpt><trkpt lat="45.6572183" lon="9.4228838"><ele>236.33333333333334</ele><time>2026-04-29T11:40:58.763Z</time></trkpt><trkpt lat="45.6573444" lon="9.4229266"><ele>236.5</ele><time>2026-04-29T11:41:00.763Z</time></trkpt><trkpt lat="45.6574067" lon="9.4229449"><ele>236.66666666666669</ele><time>2026-04-29T11:41:01.763Z</time></trkpt><trkpt lat="45.657473" lon="9.4229622"><ele>236.83333333333334</ele><time>2026-04-29T11:41:02.762Z</time></trkpt><trkpt lat="45.6575413" lon="9.422968"><ele>237.0</ele><time>2026-04-29T11:41:03.763Z</time></trkpt><trkpt lat="45.6576079" lon="9.4229687"><ele>237.0</ele><time>2026-04-29T11:41:04.763Z</time></trkpt><trkpt lat="45.6576727" lon="9.4229653"><ele>237.0</ele><time>2026-04-29T11:41:05.763Z</time></trkpt><trkpt lat="45.6577925" lon="9.4229659"><ele>237.0</ele><time>2026-04-29T11:41:07.763Z</time></trkpt><trkpt lat="45.6578597" lon="9.4229746"><ele>237.0</ele><time>2026-04-29T11:41:08.763Z</time></trkpt><trkpt lat="45.657923" lon="9.4229913"><ele>237.0</ele><time>2026-04-29T11:41:09.763Z</time></trkpt><trkpt lat="45.6579878" lon="9.4230311"><ele>237.0</ele><time>2026-04-29T11:41:10.763Z</time></trkpt><trkpt lat="45.6580512" lon="9.4230664"><ele>236.71428571428567</ele><time>2026-04-29T11:41:11.763Z</time></trkpt><trkpt lat="45.6581128" lon="9.4231115"><ele>236.42857142857142</ele><time>2026-04-29T11:41:12.763Z</time></trkpt><trkpt lat="45.6581759" lon="9.4231539"><ele>236.1428571428571</ele><time>2026-04-29T11:41:13.763Z</time></trkpt><trkpt lat="45.6582315" lon="9.4232119"><ele>235.85714285714283</ele><time>2026-04-29T11:41:14.762Z</time></trkpt><trkpt lat="45.658288" lon="9.4232615"><ele>235.57142857142856</ele><time>2026-04-29T11:41:15.763Z</time></trkpt><trkpt lat="45.6583467" lon="9.423308"><ele>235.28571428571428</ele><time>2026-04-29T11:41:16.763Z</time></trkpt><trkpt lat="45.6584055" lon="9.4233545"><ele>235.0</ele><time>2026-04-29T11:41:17.763Z</time></trkpt><trkpt lat="45.6584648" lon="9.4233981"><ele>234.99999999999997</ele><time>2026-04-29T11:41:18.763Z</time></trkpt><trkpt lat="45.6585262" lon="9.4234454"><ele>235.0</ele><time>2026-04-29T11:41:19.762Z</time></trkpt><trkpt lat="45.6585793" lon="9.4234963"><ele>235.0</ele><time>2026-04-29T11:41:20.763Z</time></trkpt><trkpt lat="45.6586324" lon="9.4235501"><ele>235.0</ele><time>2026-04-29T11:41:21.763Z</time></trkpt><trkpt lat="45.65869" lon="9.4235943"><ele>234.99999999999997</ele><time>2026-04-29T11:41:22.763Z</time></trkpt><trkpt lat="45.658748" lon="9.4236383"><ele>235.0</ele><time>2026-04-29T11:41:23.763Z</time></trkpt><trkpt lat="45.6588549" lon="9.4237241"><ele>234.99999999999997</ele><time>2026-04-29T11:41:25.763Z</time></trkpt><trkpt lat="45.6589057" lon="9.4237794"><ele>235.0</ele><time>2026-04-29T11:41:26.763Z</time></trkpt><trkpt lat="45.6589603" lon="9.4238287"><ele>235.0</ele><time>2026-04-29T11:41:27.763Z</time></trkpt><trkpt lat="45.6590504" lon="9.4239316"><ele>235.0</ele><time>2026-04-29T11:41:29.763Z</time></trkpt><trkpt lat="45.6591173" lon="9.4240561"><ele>234.99999999999997</ele><time>2026-04-29T11:41:31.763Z</time></trkpt><trkpt lat="45.6591039" lon="9.4241848"><ele>235.0</ele><time>2026-04-29T11:41:33.763Z</time></trkpt><trkpt lat="45.6590644" lon="9.4243017"><ele>235.0</ele><time>2026-04-29T11:41:35.763Z</time></trkpt><trkpt lat="45.6590603" lon="9.4244441"><ele>235.0</ele><time>2026-04-29T11:41:37.763Z</time></trkpt><trkpt lat="45.6591123" lon="9.4245675"><ele>235.0</ele><time>2026-04-29T11:41:39.762Z</time></trkpt><trkpt lat="45.6592034" lon="9.4246522"><ele>235.0</ele><time>2026-04-29T11:41:41.763Z</time></trkpt><trkpt lat="45.6592872" lon="9.4247487"><ele>235.0</ele><time>2026-04-29T11:41:43.763Z</time></trkpt><trkpt lat="45.6593743" lon="9.4248586"><ele>235.2</ele><time>2026-04-29T11:41:45.763Z</time></trkpt><trkpt lat="45.6594612" lon="9.424948"><ele>235.4</ele><time>2026-04-29T11:41:47.763Z</time></trkpt><trkpt lat="45.6595451" lon="9.4250379"><ele>235.60000000000002</ele><time>2026-04-29T11:41:49.763Z</time></trkpt><trkpt lat="45.6596356" lon="9.4251171"><ele>235.8</ele><time>2026-04-29T11:41:51.763Z</time></trkpt><trkpt lat="45.6597268" lon="9.4251906"><ele>236.0</ele><time>2026-04-29T11:41:53.763Z</time></trkpt><trkpt lat="45.659821" lon="9.4252808"><ele>236.00000000000003</ele><time>2026-04-29T11:41:55.763Z</time></trkpt><trkpt lat="45.6598795" lon="9.4253378"><ele>236.0</ele><time>2026-04-29T11:41:56.763Z</time></trkpt><trkpt lat="45.6599244" lon="9.4254066"><ele>236.0</ele><time>2026-04-29T11:41:57.763Z</time></trkpt><trkpt lat="45.6600261" lon="9.4254794"><ele>236.0</ele><time>2026-04-29T11:41:59.763Z</time></trkpt><trkpt lat="45.6600896" lon="9.4255074"><ele>236.00000000000003</ele><time>2026-04-29T11:42:00.763Z</time></trkpt><trkpt lat="45.6601767" lon="9.4255891"><ele>236.0</ele><time>2026-04-29T11:42:02.763Z</time></trkpt><trkpt lat="45.6602818" lon="9.4256774"><ele>236.0</ele><time>2026-04-29T11:42:04.763Z</time></trkpt><trkpt lat="45.6603715" lon="9.4257707"><ele>236.0</ele><time>2026-04-29T11:42:06.763Z</time></trkpt><trkpt lat="45.6604706" lon="9.4258614"><ele>236.0</ele><time>2026-04-29T11:42:08.763Z</time></trkpt><trkpt lat="45.6605685" lon="9.4259554"><ele>236.0</ele><time>2026-04-29T11:42:10.763Z</time></trkpt><trkpt lat="45.6606654" lon="9.426048"><ele>236.0</ele><time>2026-04-29T11:42:12.763Z</time></trkpt><trkpt lat="45.6607602" lon="9.4261577"><ele>236.0</ele><time>2026-04-29T11:42:14.763Z</time></trkpt><trkpt lat="45.660857" lon="9.4262571"><ele>236.0</ele><time>2026-04-29T11:42:16.763Z</time></trkpt><trkpt lat="45.6609445" lon="9.4263575"><ele>236.0</ele><time>2026-04-29T11:42:18.763Z</time></trkpt><trkpt lat="45.6610364" lon="9.4264642"><ele>236.5</ele><time>2026-04-29T11:42:20.763Z</time></trkpt><trkpt lat="45.6611264" lon="9.4265668"><ele>237.0</ele><time>2026-04-29T11:42:22.763Z</time></trkpt><trkpt lat="45.6612231" lon="9.426652"><ele>237.5</ele><time>2026-04-29T11:42:24.763Z</time></trkpt><trkpt lat="45.661314" lon="9.4267558"><ele>238.0</ele><time>2026-04-29T11:42:26.762Z</time></trkpt><trkpt lat="45.6614074" lon="9.4268307"><ele>238.0</ele><time>2026-04-29T11:42:28.763Z</time></trkpt><trkpt lat="45.6615006" lon="9.4269034"><ele>238.0</ele><time>2026-04-29T11:42:30.763Z</time></trkpt><trkpt lat="45.6616032" lon="9.4269864"><ele>238.0</ele><time>2026-04-29T11:42:32.763Z</time></trkpt><trkpt lat="45.6616953" lon="9.4270732"><ele>238.0</ele><time>2026-04-29T11:42:34.763Z</time></trkpt><trkpt lat="45.6617962" lon="9.4271638"><ele>237.75</ele><time>2026-04-29T11:42:36.763Z</time></trkpt><trkpt lat="45.661896" lon="9.4272599"><ele>237.5</ele><time>2026-04-29T11:42:38.763Z</time></trkpt><trkpt lat="45.6619948" lon="9.4273507"><ele>237.25</ele><time>2026-04-29T11:42:40.763Z</time></trkpt><trkpt lat="45.6620848" lon="9.4274624"><ele>237.0</ele><time>2026-04-29T11:42:42.763Z</time></trkpt><trkpt lat="45.662159" lon="9.4275775"><ele>237.0</ele><time>2026-04-29T11:42:44.763Z</time></trkpt><trkpt lat="45.6622083" lon="9.4276915"><ele>237.0</ele><time>2026-04-29T11:42:46.763Z</time></trkpt><trkpt lat="45.6623028" lon="9.4277539"><ele>237.0</ele><time>2026-04-29T11:42:48.763Z</time></trkpt><trkpt lat="45.6623579" lon="9.4278191"><ele>237.0</ele><time>2026-04-29T11:42:49.763Z</time></trkpt><trkpt lat="45.6624161" lon="9.4278655"><ele>237.0</ele><time>2026-04-29T11:42:50.762Z</time></trkpt><trkpt lat="45.6625223" lon="9.4279705"><ele>237.33333333333334</ele><time>2026-04-29T11:42:52.763Z</time></trkpt><trkpt lat="45.6626291" lon="9.4280576"><ele>237.66666666666669</ele><time>2026-04-29T11:42:54.762Z</time></trkpt><trkpt lat="45.6626843" lon="9.428101"><ele>238.0</ele><time>2026-04-29T11:42:55.763Z</time></trkpt><trkpt lat="45.6627371" lon="9.4281529"><ele>238.33333333333334</ele><time>2026-04-29T11:42:56.763Z</time></trkpt><trkpt lat="45.662825" lon="9.4282353"><ele>238.66666666666669</ele><time>2026-04-29T11:42:58.763Z</time></trkpt><trkpt lat="45.6629138" lon="9.4282808"><ele>239.0</ele><time>2026-04-29T11:43:00.763Z</time></trkpt><trkpt lat="45.6629886" lon="9.4283875"><ele>239.0</ele><time>2026-04-29T11:43:02.763Z</time></trkpt><trkpt lat="45.6630202" lon="9.4285385"><ele>239.0</ele><time>2026-04-29T11:43:04.763Z</time></trkpt><trkpt lat="45.6630973" lon="9.4286359"><ele>239.0</ele><time>2026-04-29T11:43:06.763Z</time></trkpt><trkpt lat="45.6632097" lon="9.4286824"><ele>239.0</ele><time>2026-04-29T11:43:08.763Z</time></trkpt><trkpt lat="45.6633279" lon="9.4287207"><ele>239.0</ele><time>2026-04-29T11:43:10.763Z</time></trkpt><trkpt lat="45.6634373" lon="9.4287869"><ele>239.0</ele><time>2026-04-29T11:43:12.763Z</time></trkpt><trkpt lat="45.6635484" lon="9.4288726"><ele>239.0</ele><time>2026-04-29T11:43:14.763Z</time></trkpt><trkpt lat="45.6636443" lon="9.4289605"><ele>239.0</ele><time>2026-04-29T11:43:16.763Z</time></trkpt><trkpt lat="45.6637453" lon="9.4290529"><ele>238.79999999999998</ele><time>2026-04-29T11:43:18.763Z</time></trkpt><trkpt lat="45.6638477" lon="9.429161"><ele>238.59999999999997</ele><time>2026-04-29T11:43:20.763Z</time></trkpt><trkpt lat="45.6639471" lon="9.4292598"><ele>238.4</ele><time>2026-04-29T11:43:22.762Z</time></trkpt><trkpt lat="45.6639994" lon="9.4293147"><ele>238.2</ele><time>2026-04-29T11:43:23.763Z</time></trkpt><trkpt lat="45.6641054" lon="9.4294067"><ele>238.0</ele><time>2026-04-29T11:43:25.763Z</time></trkpt><trkpt lat="45.6641636" lon="9.4294729"><ele>237.99999999999997</ele><time>2026-04-29T11:43:26.763Z</time></trkpt><trkpt lat="45.6642607" lon="9.4295673"><ele>238.0</ele><time>2026-04-29T11:43:28.763Z</time></trkpt><trkpt lat="45.6643576" lon="9.4296632"><ele>238.0</ele><time>2026-04-29T11:43:30.763Z</time></trkpt><trkpt lat="45.6644095" lon="9.4297207"><ele>238.0</ele><time>2026-04-29T11:43:31.763Z</time></trkpt><trkpt lat="45.6644624" lon="9.4297713"><ele>237.99999999999997</ele><time>2026-04-29T11:43:32.763Z</time></trkpt><trkpt lat="45.6645193" lon="9.4298228"><ele>238.0</ele><time>2026-04-29T11:43:33.763Z</time></trkpt><trkpt lat="45.6646229" lon="9.4299246"><ele>238.60000000000002</ele><time>2026-04-29T11:43:35.763Z</time></trkpt><trkpt lat="45.6647327" lon="9.4300257"><ele>239.20000000000002</ele><time>2026-04-29T11:43:37.763Z</time></trkpt><trkpt lat="45.6647859" lon="9.4300822"><ele>239.8</ele><time>2026-04-29T11:43:38.763Z</time></trkpt><trkpt lat="45.6648925" lon="9.4301816"><ele>240.4</ele><time>2026-04-29T11:43:40.763Z</time></trkpt><trkpt lat="45.6649474" lon="9.4302266"><ele>241.0</ele><time>2026-04-29T11:43:41.763Z</time></trkpt><trkpt lat="45.6650555" lon="9.4303315"><ele>240.99999999999997</ele><time>2026-04-29T11:43:43.763Z</time></trkpt><trkpt lat="45.6651078" lon="9.4303834"><ele>241.0</ele><time>2026-04-29T11:43:44.763Z</time></trkpt><trkpt lat="45.6651606" lon="9.4304436"><ele>241.0</ele><time>2026-04-29T11:43:45.763Z</time></trkpt><trkpt lat="45.6652093" lon="9.4305046"><ele>241.0</ele><time>2026-04-29T11:43:46.763Z</time></trkpt><trkpt lat="45.6653096" lon="9.4305983"><ele>240.99999999999997</ele><time>2026-04-29T11:43:48.763Z</time></trkpt><trkpt lat="45.6653887" lon="9.4306826"><ele>241.0</ele><time>2026-04-29T11:43:49.763Z</time></trkpt><trkpt lat="45.6654562" lon="9.4307315"><ele>241.20000000000002</ele><time>2026-04-29T11:43:50.762Z</time></trkpt><trkpt lat="45.6655305" lon="9.4307971"><ele>241.40000000000003</ele><time>2026-04-29T11:43:52.763Z</time></trkpt><trkpt lat="45.6655863" lon="9.4308421"><ele>241.6</ele><time>2026-04-29T11:43:53.763Z</time></trkpt><trkpt lat="45.6656802" lon="9.4309443"><ele>241.8</ele><time>2026-04-29T11:43:55.763Z</time></trkpt><trkpt lat="45.6657316" lon="9.431004"><ele>242.0</ele><time>2026-04-29T11:43:56.763Z</time></trkpt><trkpt lat="45.6658204" lon="9.431108"><ele>242.00000000000003</ele><time>2026-04-29T11:43:58.763Z</time></trkpt><trkpt lat="45.665921" lon="9.4311829"><ele>242.0</ele><time>2026-04-29T11:44:00.763Z</time></trkpt><trkpt lat="45.6659671" lon="9.4312504"><ele>242.0</ele><time>2026-04-29T11:44:01.763Z</time></trkpt><trkpt lat="45.6660155" lon="9.4313209"><ele>242.0</ele><time>2026-04-29T11:44:02.762Z</time></trkpt><trkpt lat="45.6661152" lon="9.4314204"><ele>242.00000000000003</ele><time>2026-04-29T11:44:04.763Z</time></trkpt><trkpt lat="45.6661725" lon="9.4314635"><ele>242.0</ele><time>2026-04-29T11:44:05.763Z</time></trkpt><trkpt lat="45.6662244" lon="9.4315202"><ele>241.85714285714283</ele><time>2026-04-29T11:44:06.763Z</time></trkpt><trkpt lat="45.6662789" lon="9.431574"><ele>241.7142857142857</ele><time>2026-04-29T11:44:07.763Z</time></trkpt><trkpt lat="45.666337" lon="9.4316283"><ele>241.57142857142856</ele><time>2026-04-29T11:44:08.763Z</time></trkpt><trkpt lat="45.6663884" lon="9.4316851"><ele>241.42857142857144</ele><time>2026-04-29T11:44:09.763Z</time></trkpt><trkpt lat="45.6664394" lon="9.4317407"><ele>241.2857142857143</ele><time>2026-04-29T11:44:10.763Z</time></trkpt><trkpt lat="45.6664955" lon="9.4317984"><ele>241.14285714285717</ele><time>2026-04-29T11:44:11.763Z</time></trkpt><trkpt lat="45.6665521" lon="9.4318517"><ele>241.0</ele><time>2026-04-29T11:44:12.763Z</time></trkpt><trkpt lat="45.6666093" lon="9.4319156"><ele>241.0</ele><time>2026-04-29T11:44:13.763Z</time></trkpt><trkpt lat="45.6667128" lon="9.4320462"><ele>241.0</ele><time>2026-04-29T11:44:16.715Z</time></trkpt><trkpt lat="45.6667668" lon="9.4321235"><ele>241.0</ele><time>2026-04-29T11:44:17.876Z</time></trkpt><trkpt lat="45.6669131" lon="9.432239"><ele>241.0</ele><time>2026-04-29T11:44:19.761Z</time></trkpt><trkpt lat="45.6669811" lon="9.4323291"><ele>241.33333333333331</ele><time>2026-04-29T11:44:20.766Z</time></trkpt><trkpt lat="45.6670358" lon="9.4323839"><ele>241.66666666666666</ele><time>2026-04-29T11:44:21.766Z</time></trkpt><trkpt lat="45.6671419" lon="9.4324687"><ele>242.0</ele><time>2026-04-29T11:44:23.762Z</time></trkpt><trkpt lat="45.6671945" lon="9.4325245"><ele>242.33333333333331</ele><time>2026-04-29T11:44:24.761Z</time></trkpt><trkpt lat="45.6672962" lon="9.4326138"><ele>242.66666666666666</ele><time>2026-04-29T11:44:26.762Z</time></trkpt><trkpt lat="45.6673522" lon="9.4326797"><ele>243.0</ele><time>2026-04-29T11:44:27.762Z</time></trkpt><trkpt lat="45.6674071" lon="9.4327254"><ele>243.0</ele><time>2026-04-29T11:44:28.762Z</time></trkpt><trkpt lat="45.6675159" lon="9.4328208"><ele>243.0</ele><time>2026-04-29T11:44:30.762Z</time></trkpt><trkpt lat="45.6675701" lon="9.4328768"><ele>243.0</ele><time>2026-04-29T11:44:31.762Z</time></trkpt><trkpt lat="45.6676828" lon="9.4329789"><ele>243.0</ele><time>2026-04-29T11:44:33.762Z</time></trkpt><trkpt lat="45.6677409" lon="9.433042"><ele>243.0</ele><time>2026-04-29T11:44:34.762Z</time></trkpt><trkpt lat="45.667794" lon="9.4330918"><ele>243.42857142857142</ele><time>2026-04-29T11:44:35.762Z</time></trkpt><trkpt lat="45.6678531" lon="9.4331534"><ele>243.8571428571429</ele><time>2026-04-29T11:44:36.762Z</time></trkpt><trkpt lat="45.6679096" lon="9.4332084"><ele>244.2857142857143</ele><time>2026-04-29T11:44:37.762Z</time></trkpt><trkpt lat="45.6679684" lon="9.4332635"><ele>244.71428571428572</ele><time>2026-04-29T11:44:38.762Z</time></trkpt><trkpt lat="45.6680276" lon="9.4333141"><ele>245.14285714285717</ele><time>2026-04-29T11:44:39.762Z</time></trkpt><trkpt lat="45.6680797" lon="9.4333817"><ele>245.5714285714286</ele><time>2026-04-29T11:44:40.762Z</time></trkpt><trkpt lat="45.6681303" lon="9.4334382"><ele>246.00000000000003</ele><time>2026-04-29T11:44:41.761Z</time></trkpt><trkpt lat="45.6681856" lon="9.4334903"><ele>246.00000000000003</ele><time>2026-04-29T11:44:42.762Z</time></trkpt><trkpt lat="45.6682407" lon="9.4335456"><ele>246.0</ele><time>2026-04-29T11:44:43.762Z</time></trkpt><trkpt lat="45.6682947" lon="9.4336019"><ele>246.00000000000003</ele><time>2026-04-29T11:44:44.762Z</time></trkpt><trkpt lat="45.6683517" lon="9.4336555"><ele>246.00000000000003</ele><time>2026-04-29T11:44:45.761Z</time></trkpt><trkpt lat="45.6684071" lon="9.4337028"><ele>246.0</ele><time>2026-04-29T11:44:46.762Z</time></trkpt><trkpt lat="45.6684658" lon="9.4337594"><ele>246.00000000000003</ele><time>2026-04-29T11:44:47.762Z</time></trkpt><trkpt lat="45.6685216" lon="9.4338092"><ele>246.00000000000003</ele><time>2026-04-29T11:44:48.762Z</time></trkpt><trkpt lat="45.6685805" lon="9.4338438"><ele>245.71428571428575</ele><time>2026-04-29T11:44:49.762Z</time></trkpt><trkpt lat="45.6686366" lon="9.4339014"><ele>245.42857142857144</ele><time>2026-04-29T11:44:50.762Z</time></trkpt><trkpt lat="45.668699" lon="9.4339548"><ele>245.14285714285714</ele><time>2026-04-29T11:44:51.762Z</time></trkpt><trkpt lat="45.668753" lon="9.4340138"><ele>244.85714285714286</ele><time>2026-04-29T11:44:52.762Z</time></trkpt><trkpt lat="45.6688186" lon="9.4340818"><ele>244.57142857142856</ele><time>2026-04-29T11:44:53.762Z</time></trkpt><trkpt lat="45.6688742" lon="9.4341371"><ele>244.28571428571425</ele><time>2026-04-29T11:44:54.762Z</time></trkpt><trkpt lat="45.6689179" lon="9.4342047"><ele>243.99999999999997</ele><time>2026-04-29T11:44:55.762Z</time></trkpt><trkpt lat="45.6689845" lon="9.4342398"><ele>244.0</ele><time>2026-04-29T11:44:56.762Z</time></trkpt><trkpt lat="45.6690922" lon="9.4343295"><ele>243.99999999999997</ele><time>2026-04-29T11:44:58.762Z</time></trkpt><trkpt lat="45.6691979" lon="9.4344299"><ele>243.99999999999997</ele><time>2026-04-29T11:45:00.762Z</time></trkpt><trkpt lat="45.6692519" lon="9.4344816"><ele>244.0</ele><time>2026-04-29T11:45:01.761Z</time></trkpt><trkpt lat="45.6693589" lon="9.4345919"><ele>244.0</ele><time>2026-04-29T11:45:03.762Z</time></trkpt><trkpt lat="45.6694626" lon="9.4347194"><ele>244.28571428571425</ele><time>2026-04-29T11:45:05.762Z</time></trkpt><trkpt lat="45.669519" lon="9.4347637"><ele>244.57142857142856</ele><time>2026-04-29T11:45:06.762Z</time></trkpt><trkpt lat="45.6695725" lon="9.4348236"><ele>244.85714285714286</ele><time>2026-04-29T11:45:07.762Z</time></trkpt><trkpt lat="45.6696273" lon="9.4348983"><ele>245.14285714285714</ele><time>2026-04-29T11:45:08.761Z</time></trkpt><trkpt lat="45.6696802" lon="9.4349563"><ele>245.42857142857144</ele><time>2026-04-29T11:45:09.762Z</time></trkpt><trkpt lat="45.669726" lon="9.4350332"><ele>245.71428571428575</ele><time>2026-04-29T11:45:10.762Z</time></trkpt><trkpt lat="45.669776" lon="9.4350959"><ele>246.00000000000003</ele><time>2026-04-29T11:45:11.762Z</time></trkpt><trkpt lat="45.6698304" lon="9.4351431"><ele>246.0</ele><time>2026-04-29T11:45:12.761Z</time></trkpt><trkpt lat="45.6699293" lon="9.4352575"><ele>246.00000000000003</ele><time>2026-04-29T11:45:14.761Z</time></trkpt><trkpt lat="45.6699808" lon="9.4353133"><ele>246.00000000000003</ele><time>2026-04-29T11:45:15.762Z</time></trkpt><trkpt lat="45.67003" lon="9.4353792"><ele>246.0</ele><time>2026-04-29T11:45:16.762Z</time></trkpt><trkpt lat="45.6701299" lon="9.4354918"><ele>246.0</ele><time>2026-04-29T11:45:18.762Z</time></trkpt><trkpt lat="45.67023" lon="9.4356005"><ele>246.5</ele><time>2026-04-29T11:45:20.762Z</time></trkpt><trkpt lat="45.6702794" lon="9.435658"><ele>247.0</ele><time>2026-04-29T11:45:21.762Z</time></trkpt><trkpt lat="45.6703703" lon="9.435765"><ele>247.5</ele><time>2026-04-29T11:45:23.762Z</time></trkpt><trkpt lat="45.6704327" lon="9.4358718"><ele>248.0</ele><time>2026-04-29T11:45:25.762Z</time></trkpt><trkpt lat="45.6704943" lon="9.4359544"><ele>248.5</ele><time>2026-04-29T11:45:27.762Z</time></trkpt><trkpt lat="45.6705061" lon="9.436063"><ele>249.0</ele><time>2026-04-29T11:45:29.762Z</time></trkpt><trkpt lat="45.6704598" lon="9.4361627"><ele>249.0</ele><time>2026-04-29T11:45:31.762Z</time></trkpt><trkpt lat="45.6704168" lon="9.4362766"><ele>248.99999999999997</ele><time>2026-04-29T11:45:33.762Z</time></trkpt><trkpt lat="45.6703377" lon="9.4363712"><ele>248.99999999999997</ele><time>2026-04-29T11:45:35.762Z</time></trkpt><trkpt lat="45.6702779" lon="9.4364955"><ele>249.0</ele><time>2026-04-29T11:45:37.762Z</time></trkpt><trkpt lat="45.6702163" lon="9.4366237"><ele>249.0</ele><time>2026-04-29T11:45:39.762Z</time></trkpt><trkpt lat="45.6701612" lon="9.436777"><ele>248.75</ele><time>2026-04-29T11:45:41.762Z</time></trkpt><trkpt lat="45.6701071" lon="9.4369086"><ele>248.5</ele><time>2026-04-29T11:45:43.762Z</time></trkpt><trkpt lat="45.6700493" lon="9.4370475"><ele>248.25</ele><time>2026-04-29T11:45:45.762Z</time></trkpt><trkpt lat="45.6699683" lon="9.4371692"><ele>248.0</ele><time>2026-04-29T11:45:47.762Z</time></trkpt><trkpt lat="45.6698926" lon="9.4372997"><ele>248.0</ele><time>2026-04-29T11:45:49.762Z</time></trkpt><trkpt lat="45.6698274" lon="9.4374157"><ele>248.0</ele><time>2026-04-29T11:45:51.762Z</time></trkpt><trkpt lat="45.6697766" lon="9.4375388"><ele>248.0</ele><time>2026-04-29T11:45:53.762Z</time></trkpt><trkpt lat="45.6697138" lon="9.4376846"><ele>248.0</ele><time>2026-04-29T11:45:55.761Z</time></trkpt><trkpt lat="45.6696464" lon="9.4377956"><ele>248.0</ele><time>2026-04-29T11:45:57.762Z</time></trkpt><trkpt lat="45.6696113" lon="9.437899"><ele>248.4</ele><time>2026-04-29T11:45:59.762Z</time></trkpt><trkpt lat="45.6696397" lon="9.4380131"><ele>248.8</ele><time>2026-04-29T11:46:01.762Z</time></trkpt><trkpt lat="45.6696994" lon="9.4381071"><ele>249.2</ele><time>2026-04-29T11:46:03.762Z</time></trkpt><trkpt lat="45.6697818" lon="9.4382393"><ele>249.6</ele><time>2026-04-29T11:46:05.762Z</time></trkpt><trkpt lat="45.6698348" lon="9.4382941"><ele>250.0</ele><time>2026-04-29T11:46:06.762Z</time></trkpt><trkpt lat="45.6699371" lon="9.4383842"><ele>249.99999999999997</ele><time>2026-04-29T11:46:08.762Z</time></trkpt><trkpt lat="45.6700373" lon="9.4384973"><ele>250.0</ele><time>2026-04-29T11:46:10.762Z</time></trkpt><trkpt lat="45.6701313" lon="9.4386019"><ele>250.0</ele><time>2026-04-29T11:46:12.762Z</time></trkpt><trkpt lat="45.6701863" lon="9.4386531"><ele>250.0</ele><time>2026-04-29T11:46:13.762Z</time></trkpt><trkpt lat="45.6702424" lon="9.4387034"><ele>249.99999999999997</ele><time>2026-04-29T11:46:14.762Z</time></trkpt><trkpt lat="45.6703014" lon="9.4387531"><ele>250.0</ele><time>2026-04-29T11:46:15.762Z</time></trkpt><trkpt lat="45.6704038" lon="9.438798"><ele>250.75</ele><time>2026-04-29T11:46:16.762Z</time></trkpt><trkpt lat="45.6705087" lon="9.4388889"><ele>251.5</ele><time>2026-04-29T11:46:18.762Z</time></trkpt><trkpt lat="45.6706162" lon="9.438972"><ele>252.25</ele><time>2026-04-29T11:46:20.762Z</time></trkpt><trkpt lat="45.67072" lon="9.4390633"><ele>253.0</ele><time>2026-04-29T11:46:22.762Z</time></trkpt><trkpt lat="45.6708191" lon="9.4391615"><ele>252.99999999999997</ele><time>2026-04-29T11:46:24.762Z</time></trkpt><trkpt lat="45.6709211" lon="9.4392503"><ele>253.0</ele><time>2026-04-29T11:46:26.762Z</time></trkpt><trkpt lat="45.6710227" lon="9.4393523"><ele>253.0</ele><time>2026-04-29T11:46:28.762Z</time></trkpt><trkpt lat="45.6710797" lon="9.4393981"><ele>253.0</ele><time>2026-04-29T11:46:29.762Z</time></trkpt><trkpt lat="45.6711388" lon="9.439447"><ele>252.99999999999997</ele><time>2026-04-29T11:46:30.762Z</time></trkpt><trkpt lat="45.6711902" lon="9.4395171"><ele>253.0</ele><time>2026-04-29T11:46:31.762Z</time></trkpt><trkpt lat="45.6712892" lon="9.4396189"><ele>253.4</ele><time>2026-04-29T11:46:33.762Z</time></trkpt><trkpt lat="45.6713962" lon="9.4397097"><ele>253.8</ele><time>2026-04-29T11:46:35.762Z</time></trkpt><trkpt lat="45.6714942" lon="9.4398282"><ele>254.2</ele><time>2026-04-29T11:46:37.762Z</time></trkpt><trkpt lat="45.6715834" lon="9.4399006"><ele>254.6</ele><time>2026-04-29T11:46:39.762Z</time></trkpt><trkpt lat="45.6716435" lon="9.4399603"><ele>255.0</ele><time>2026-04-29T11:46:40.762Z</time></trkpt><trkpt lat="45.6716964" lon="9.4400255"><ele>255.0</ele><time>2026-04-29T11:46:41.762Z</time></trkpt><trkpt lat="45.6717503" lon="9.4400759"><ele>255.0</ele><time>2026-04-29T11:46:42.762Z</time></trkpt><trkpt lat="45.671805" lon="9.4401306"><ele>255.0</ele><time>2026-04-29T11:46:43.762Z</time></trkpt><trkpt lat="45.671861" lon="9.4401742"><ele>255.0</ele><time>2026-04-29T11:46:44.762Z</time></trkpt><trkpt lat="45.6719648" lon="9.4402852"><ele>255.0</ele><time>2026-04-29T11:46:46.762Z</time></trkpt><trkpt lat="45.6720171" lon="9.4403374"><ele>255.0</ele><time>2026-04-29T11:46:47.762Z</time></trkpt><trkpt lat="45.67207" lon="9.4403947"><ele>255.33333333333334</ele><time>2026-04-29T11:46:48.762Z</time></trkpt><trkpt lat="45.6721282" lon="9.4404542"><ele>255.66666666666669</ele><time>2026-04-29T11:46:49.762Z</time></trkpt><trkpt lat="45.6721857" lon="9.4405053"><ele>256.0</ele><time>2026-04-29T11:46:50.762Z</time></trkpt><trkpt lat="45.6722896" lon="9.4406058"><ele>256.33333333333337</ele><time>2026-04-29T11:46:52.762Z</time></trkpt><trkpt lat="45.6723453" lon="9.4406494"><ele>256.6666666666667</ele><time>2026-04-29T11:46:53.762Z</time></trkpt><trkpt lat="45.6724025" lon="9.4407117"><ele>257.0</ele><time>2026-04-29T11:46:54.762Z</time></trkpt><trkpt lat="45.6724559" lon="9.4407727"><ele>257.0</ele><time>2026-04-29T11:46:55.762Z</time></trkpt><trkpt lat="45.6725577" lon="9.4408855"><ele>257.0</ele><time>2026-04-29T11:46:57.762Z</time></trkpt><trkpt lat="45.6726068" lon="9.4409469"><ele>257.0</ele><time>2026-04-29T11:46:58.762Z</time></trkpt><trkpt lat="45.6726919" lon="9.4410562"><ele>257.0</ele><time>2026-04-29T11:47:00.762Z</time></trkpt><trkpt lat="45.6727521" lon="9.4411088"><ele>257.0</ele><time>2026-04-29T11:47:01.761Z</time></trkpt><trkpt lat="45.6728104" lon="9.4411837"><ele>257.6</ele><time>2026-04-29T11:47:02.762Z</time></trkpt><trkpt lat="45.6728894" lon="9.441313"><ele>258.2</ele><time>2026-04-29T11:47:04.762Z</time></trkpt><trkpt lat="45.6729496" lon="9.441438"><ele>258.8</ele><time>2026-04-29T11:47:06.762Z</time></trkpt><trkpt lat="45.6730235" lon="9.4415471"><ele>259.4</ele><time>2026-04-29T11:47:08.762Z</time></trkpt><trkpt lat="45.6730961" lon="9.4416532"><ele>260.0</ele><time>2026-04-29T11:47:10.762Z</time></trkpt><trkpt lat="45.6731548" lon="9.4417849"><ele>260.0</ele><time>2026-04-29T11:47:12.762Z</time></trkpt><trkpt lat="45.6732276" lon="9.4418825"><ele>260.0</ele><time>2026-04-29T11:47:14.762Z</time></trkpt><trkpt lat="45.6732989" lon="9.4419775"><ele>260.0</ele><time>2026-04-29T11:47:16.762Z</time></trkpt><trkpt lat="45.6733804" lon="9.4420857"><ele>260.0</ele><time>2026-04-29T11:47:18.762Z</time></trkpt><trkpt lat="45.6734457" lon="9.4422049"><ele>260.0</ele><time>2026-04-29T11:47:20.762Z</time></trkpt><trkpt lat="45.6735174" lon="9.4423222"><ele>260.2</ele><time>2026-04-29T11:47:22.762Z</time></trkpt><trkpt lat="45.6735971" lon="9.4424032"><ele>260.4</ele><time>2026-04-29T11:47:24.762Z</time></trkpt><trkpt lat="45.6737005" lon="9.4425025"><ele>260.6</ele><time>2026-04-29T11:47:26.762Z</time></trkpt><trkpt lat="45.673751" lon="9.4426275"><ele>260.8</ele><time>2026-04-29T11:47:28.762Z</time></trkpt><trkpt lat="45.673832" lon="9.4427084"><ele>261.0</ele><time>2026-04-29T11:47:30.762Z</time></trkpt><trkpt lat="45.6738661" lon="9.4427967"><ele>261.0</ele><time>2026-04-29T11:47:31.762Z</time></trkpt><trkpt lat="45.6739174" lon="9.4429193"><ele>261.0</ele><time>2026-04-29T11:47:33.762Z</time></trkpt><trkpt lat="45.6739871" lon="9.4430506"><ele>261.0</ele><time>2026-04-29T11:47:35.762Z</time></trkpt><trkpt lat="45.6740622" lon="9.4431823"><ele>261.0</ele><time>2026-04-29T11:47:37.762Z</time></trkpt><trkpt lat="45.6741374" lon="9.4433193"><ele>261.0</ele><time>2026-04-29T11:47:39.762Z</time></trkpt><trkpt lat="45.6741847" lon="9.4433883"><ele>261.0</ele><time>2026-04-29T11:47:40.762Z</time></trkpt><trkpt lat="45.6742414" lon="9.4435427"><ele>261.0</ele><time>2026-04-29T11:47:42.762Z</time></trkpt><trkpt lat="45.6743119" lon="9.4436774"><ele>261.0</ele><time>2026-04-29T11:47:44.762Z</time></trkpt><trkpt lat="45.6743871" lon="9.4438189"><ele>261.0</ele><time>2026-04-29T11:47:46.762Z</time></trkpt><trkpt lat="45.6744612" lon="9.4439606"><ele>261.1666666666667</ele><time>2026-04-29T11:47:48.762Z</time></trkpt><trkpt lat="45.6745234" lon="9.4441041"><ele>261.3333333333333</ele><time>2026-04-29T11:47:50.762Z</time></trkpt><trkpt lat="45.6745586" lon="9.4441886"><ele>261.5</ele><time>2026-04-29T11:47:51.762Z</time></trkpt><trkpt lat="45.674597" lon="9.4442691"><ele>261.66666666666663</ele><time>2026-04-29T11:47:52.761Z</time></trkpt><trkpt lat="45.6746642" lon="9.4444198"><ele>261.8333333333333</ele><time>2026-04-29T11:47:54.762Z</time></trkpt><trkpt lat="45.6747057" lon="9.4444925"><ele>262.0</ele><time>2026-04-29T11:47:55.762Z</time></trkpt><trkpt lat="45.6747781" lon="9.4446312"><ele>262.0</ele><time>2026-04-29T11:47:57.761Z</time></trkpt><trkpt lat="45.6748134" lon="9.444715"><ele>262.0</ele><time>2026-04-29T11:47:58.762Z</time></trkpt><trkpt lat="45.6748577" lon="9.4447909"><ele>262.0</ele><time>2026-04-29T11:47:59.762Z</time></trkpt><trkpt lat="45.6748904" lon="9.4448705"><ele>262.0</ele><time>2026-04-29T11:48:00.762Z</time></trkpt><trkpt lat="45.6749191" lon="9.444957"><ele>262.0</ele><time>2026-04-29T11:48:01.762Z</time></trkpt><trkpt lat="45.6749964" lon="9.4450968"><ele>262.0</ele><time>2026-04-29T11:48:03.762Z</time></trkpt><trkpt lat="45.675037" lon="9.445174"><ele>262.0</ele><time>2026-04-29T11:48:04.762Z</time></trkpt><trkpt lat="45.675074" lon="9.4452584"><ele>262.0</ele><time>2026-04-29T11:48:05.762Z</time></trkpt><trkpt lat="45.6751097" lon="9.4453396"><ele>262.0</ele><time>2026-04-29T11:48:06.762Z</time></trkpt><trkpt lat="45.675151" lon="9.4454198"><ele>262.0</ele><time>2026-04-29T11:48:07.762Z</time></trkpt><trkpt lat="45.6751886" lon="9.445504"><ele>262.0</ele><time>2026-04-29T11:48:08.762Z</time></trkpt><trkpt lat="45.6752284" lon="9.445578"><ele>262.0</ele><time>2026-04-29T11:48:09.762Z</time></trkpt><trkpt lat="45.6752688" lon="9.4456542"><ele>262.0</ele><time>2026-04-29T11:48:10.762Z</time></trkpt><trkpt lat="45.6753067" lon="9.4457304"><ele>262.0</ele><time>2026-04-29T11:48:11.762Z</time></trkpt><trkpt lat="45.6753488" lon="9.4458034"><ele>262.0</ele><time>2026-04-29T11:48:12.762Z</time></trkpt><trkpt lat="45.6753848" lon="9.4458897"><ele>262.0</ele><time>2026-04-29T11:48:13.762Z</time></trkpt><trkpt lat="45.675423" lon="9.4459838"><ele>262.0</ele><time>2026-04-29T11:48:14.762Z</time></trkpt><trkpt lat="45.6755038" lon="9.4461106"><ele>262.0</ele><time>2026-04-29T11:48:16.762Z</time></trkpt><trkpt lat="45.6755449" lon="9.4461886"><ele>262.0</ele><time>2026-04-29T11:48:17.762Z</time></trkpt><trkpt lat="45.6755865" lon="9.4462687"><ele>262.3333333333333</ele><time>2026-04-29T11:48:18.762Z</time></trkpt><trkpt lat="45.6756259" lon="9.4463417"><ele>262.66666666666663</ele><time>2026-04-29T11:48:19.762Z</time></trkpt><trkpt lat="45.6757022" lon="9.4464831"><ele>263.0</ele><time>2026-04-29T11:48:21.762Z</time></trkpt><trkpt lat="45.6757441" lon="9.4465576"><ele>263.3333333333333</ele><time>2026-04-29T11:48:22.761Z</time></trkpt><trkpt lat="45.6757769" lon="9.4466349"><ele>263.6666666666667</ele><time>2026-04-29T11:48:23.762Z</time></trkpt><trkpt lat="45.675815" lon="9.4467139"><ele>264.0</ele><time>2026-04-29T11:48:24.762Z</time></trkpt><trkpt lat="45.6758518" lon="9.4467875"><ele>264.0</ele><time>2026-04-29T11:48:25.762Z</time></trkpt><trkpt lat="45.6758922" lon="9.4468608"><ele>264.0</ele><time>2026-04-29T11:48:26.762Z</time></trkpt><trkpt lat="45.6759641" lon="9.4470181"><ele>264.0</ele><time>2026-04-29T11:48:28.762Z</time></trkpt><trkpt lat="45.6760005" lon="9.4470929"><ele>264.0</ele><time>2026-04-29T11:48:29.761Z</time></trkpt><trkpt lat="45.6760375" lon="9.4471754"><ele>264.0</ele><time>2026-04-29T11:48:30.762Z</time></trkpt><trkpt lat="45.6760768" lon="9.4472543"><ele>264.0</ele><time>2026-04-29T11:48:31.762Z</time></trkpt><trkpt lat="45.6761162" lon="9.4473278"><ele>264.0</ele><time>2026-04-29T11:48:32.762Z</time></trkpt><trkpt lat="45.6761549" lon="9.4474023"><ele>264.0</ele><time>2026-04-29T11:48:33.762Z</time></trkpt><trkpt lat="45.676197" lon="9.4474791"><ele>264.0</ele><time>2026-04-29T11:48:34.762Z</time></trkpt><trkpt lat="45.676237" lon="9.4475689"><ele>264.0</ele><time>2026-04-29T11:48:35.762Z</time></trkpt><trkpt lat="45.676277" lon="9.4476473"><ele>264.0</ele><time>2026-04-29T11:48:36.762Z</time></trkpt><trkpt lat="45.6763183" lon="9.4477368"><ele>264.0</ele><time>2026-04-29T11:48:37.762Z</time></trkpt><trkpt lat="45.6763599" lon="9.4478165"><ele>264.0</ele><time>2026-04-29T11:48:38.762Z</time></trkpt><trkpt lat="45.6764018" lon="9.4478983"><ele>264.1428571428571</ele><time>2026-04-29T11:48:39.762Z</time></trkpt><trkpt lat="45.6764411" lon="9.4479799"><ele>264.2857142857143</ele><time>2026-04-29T11:48:40.762Z</time></trkpt><trkpt lat="45.6764776" lon="9.448059"><ele>264.42857142857144</ele><time>2026-04-29T11:48:41.762Z</time></trkpt><trkpt lat="45.6765217" lon="9.4481326"><ele>264.57142857142856</ele><time>2026-04-29T11:48:42.762Z</time></trkpt><trkpt lat="45.6765593" lon="9.4482111"><ele>264.7142857142857</ele><time>2026-04-29T11:48:43.762Z</time></trkpt><trkpt lat="45.6766013" lon="9.4482891"><ele>264.85714285714283</ele><time>2026-04-29T11:48:44.762Z</time></trkpt><trkpt lat="45.6766396" lon="9.4483711"><ele>265.0</ele><time>2026-04-29T11:48:45.762Z</time></trkpt><trkpt lat="45.6766823" lon="9.4484466"><ele>264.99999999999994</ele><time>2026-04-29T11:48:46.762Z</time></trkpt><trkpt lat="45.6767238" lon="9.448524"><ele>265.0</ele><time>2026-04-29T11:48:47.762Z</time></trkpt><trkpt lat="45.6767674" lon="9.448601"><ele>265.0</ele><time>2026-04-29T11:48:48.762Z</time></trkpt><trkpt lat="45.6768137" lon="9.4486822"><ele>265.0</ele><time>2026-04-29T11:48:49.762Z</time></trkpt><trkpt lat="45.6768588" lon="9.4487636"><ele>265.0</ele><time>2026-04-29T11:48:50.762Z</time></trkpt><trkpt lat="45.6769001" lon="9.4488477"><ele>264.99999999999994</ele><time>2026-04-29T11:48:51.762Z</time></trkpt><trkpt lat="45.6769447" lon="9.4489333"><ele>265.0</ele><time>2026-04-29T11:48:52.762Z</time></trkpt><trkpt lat="45.6769943" lon="9.4490153"><ele>264.3333333333333</ele><time>2026-04-29T11:48:53.762Z</time></trkpt><trkpt lat="45.6770393" lon="9.4491027"><ele>263.66666666666663</ele><time>2026-04-29T11:48:54.762Z</time></trkpt><trkpt lat="45.6770815" lon="9.4491882"><ele>263.0</ele><time>2026-04-29T11:48:55.762Z</time></trkpt><trkpt lat="45.6771244" lon="9.449282"><ele>262.3333333333333</ele><time>2026-04-29T11:48:56.761Z</time></trkpt><trkpt lat="45.6771791" lon="9.4493572"><ele>261.6666666666667</ele><time>2026-04-29T11:48:57.762Z</time></trkpt><trkpt lat="45.677234" lon="9.4494337"><ele>261.0</ele><time>2026-04-29T11:48:58.762Z</time></trkpt><trkpt lat="45.6772858" lon="9.4495655"><ele>260.8333333333333</ele><time>2026-04-29T11:48:59.762Z</time></trkpt><trkpt lat="45.6773346" lon="9.4496739"><ele>260.6666666666667</ele><time>2026-04-29T11:49:00.762Z</time></trkpt><trkpt lat="45.6773839" lon="9.4497705"><ele>260.5</ele><time>2026-04-29T11:49:01.762Z</time></trkpt><trkpt lat="45.6774376" lon="9.4498744"><ele>260.33333333333337</ele><time>2026-04-29T11:49:02.762Z</time></trkpt><trkpt lat="45.6774861" lon="9.4499925"><ele>260.1666666666667</ele><time>2026-04-29T11:49:03.762Z</time></trkpt><trkpt lat="45.6775408" lon="9.4500754"><ele>260.0</ele><time>2026-04-29T11:49:04.762Z</time></trkpt><trkpt lat="45.6775883" lon="9.4502282"><ele>260.0</ele><time>2026-04-29T11:49:05.761Z</time></trkpt><trkpt lat="45.6776308" lon="9.450356"><ele>260.0</ele><time>2026-04-29T11:49:06.762Z</time></trkpt><trkpt lat="45.6776871" lon="9.450434"><ele>260.0</ele><time>2026-04-29T11:49:07.762Z</time></trkpt><trkpt lat="45.6777514" lon="9.4505349"><ele>260.0</ele><time>2026-04-29T11:49:08.762Z</time></trkpt><trkpt lat="45.6778114" lon="9.4506399"><ele>260.0</ele><time>2026-04-29T11:49:09.762Z</time></trkpt><trkpt lat="45.6778738" lon="9.450719"><ele>260.0</ele><time>2026-04-29T11:49:10.762Z</time></trkpt><trkpt lat="45.6779381" lon="9.4508083"><ele>260.0</ele><time>2026-04-29T11:49:11.761Z</time></trkpt><trkpt lat="45.6780026" lon="9.4508828"><ele>260.0</ele><time>2026-04-29T11:49:12.762Z</time></trkpt><trkpt lat="45.6780662" lon="9.4509547"><ele>260.0</ele><time>2026-04-29T11:49:13.762Z</time></trkpt><trkpt lat="45.6781339" lon="9.4510173"><ele>260.0</ele><time>2026-04-29T11:49:14.762Z</time></trkpt><trkpt lat="45.6782026" lon="9.4510848"><ele>260.0</ele><time>2026-04-29T11:49:15.762Z</time></trkpt><trkpt lat="45.6782708" lon="9.4511413"><ele>260.0</ele><time>2026-04-29T11:49:16.762Z</time></trkpt><trkpt lat="45.678344" lon="9.4511941"><ele>260.0</ele><time>2026-04-29T11:49:17.762Z</time></trkpt><trkpt lat="45.6784166" lon="9.4512411"><ele>260.0</ele><time>2026-04-29T11:49:18.762Z</time></trkpt><trkpt lat="45.6784897" lon="9.4512875"><ele>260.0</ele><time>2026-04-29T11:49:19.762Z</time></trkpt><trkpt lat="45.6785636" lon="9.451328"><ele>260.0</ele><time>2026-04-29T11:49:20.762Z</time></trkpt><trkpt lat="45.6786441" lon="9.451366"><ele>260.0</ele><time>2026-04-29T11:49:21.762Z</time></trkpt><trkpt lat="45.6787203" lon="9.451393"><ele>259.6666666666667</ele><time>2026-04-29T11:49:22.762Z</time></trkpt><trkpt lat="45.6788034" lon="9.4514202"><ele>259.33333333333337</ele><time>2026-04-29T11:49:23.762Z</time></trkpt><trkpt lat="45.6788852" lon="9.4514391"><ele>259.0</ele><time>2026-04-29T11:49:24.762Z</time></trkpt><trkpt lat="45.6789652" lon="9.4514551"><ele>258.6666666666667</ele><time>2026-04-29T11:49:25.762Z</time></trkpt><trkpt lat="45.6790382" lon="9.4514695"><ele>258.3333333333333</ele><time>2026-04-29T11:49:26.762Z</time></trkpt><trkpt lat="45.6791222" lon="9.4514831"><ele>258.0</ele><time>2026-04-29T11:49:27.761Z</time></trkpt><trkpt lat="45.679197" lon="9.4514946"><ele>258.0</ele><time>2026-04-29T11:49:28.762Z</time></trkpt><trkpt lat="45.6792796" lon="9.4515055"><ele>258.0</ele><time>2026-04-29T11:49:29.762Z</time></trkpt><trkpt lat="45.6793636" lon="9.4515122"><ele>258.0</ele><time>2026-04-29T11:49:30.762Z</time></trkpt><trkpt lat="45.679442" lon="9.4515176"><ele>258.0</ele><time>2026-04-29T11:49:31.762Z</time></trkpt><trkpt lat="45.6795192" lon="9.4515256"><ele>258.0</ele><time>2026-04-29T11:49:32.762Z</time></trkpt><trkpt lat="45.6795974" lon="9.4515229"><ele>258.0</ele><time>2026-04-29T11:49:33.762Z</time></trkpt><trkpt lat="45.6796805" lon="9.4515202"><ele>258.5</ele><time>2026-04-29T11:49:34.762Z</time></trkpt><trkpt lat="45.6797591" lon="9.4515165"><ele>259.0</ele><time>2026-04-29T11:49:35.762Z</time></trkpt><trkpt lat="45.6798336" lon="9.4515206"><ele>259.5</ele><time>2026-04-29T11:49:36.761Z</time></trkpt><trkpt lat="45.6799163" lon="9.4515183"><ele>260.0</ele><time>2026-04-29T11:49:37.762Z</time></trkpt><trkpt lat="45.6799954" lon="9.4515053"><ele>260.5</ele><time>2026-04-29T11:49:38.762Z</time></trkpt><trkpt lat="45.6800658" lon="9.4514952"><ele>261.0</ele><time>2026-04-29T11:49:39.762Z</time></trkpt><trkpt lat="45.6801504" lon="9.4514999"><ele>261.0</ele><time>2026-04-29T11:49:40.762Z</time></trkpt><trkpt lat="45.6802391" lon="9.4515039"><ele>261.0</ele><time>2026-04-29T11:49:41.762Z</time></trkpt><trkpt lat="45.680309" lon="9.4515129"><ele>261.0</ele><time>2026-04-29T11:49:42.762Z</time></trkpt><trkpt lat="45.6803907" lon="9.4515169"><ele>261.0</ele><time>2026-04-29T11:49:43.762Z</time></trkpt><trkpt lat="45.6804579" lon="9.4515002"><ele>261.0</ele><time>2026-04-29T11:49:44.762Z</time></trkpt><trkpt lat="45.6805219" lon="9.4514872"><ele>261.0</ele><time>2026-04-29T11:49:45.762Z</time></trkpt><trkpt lat="45.6805903" lon="9.4514935"><ele>261.0</ele><time>2026-04-29T11:49:46.762Z</time></trkpt><trkpt lat="45.6806598" lon="9.4514914"><ele>261.3333333333333</ele><time>2026-04-29T11:49:47.762Z</time></trkpt><trkpt lat="45.680733" lon="9.4514778"><ele>261.6666666666667</ele><time>2026-04-29T11:49:48.762Z</time></trkpt><trkpt lat="45.6808035" lon="9.4514763"><ele>262.0</ele><time>2026-04-29T11:49:49.761Z</time></trkpt><trkpt lat="45.6808727" lon="9.4514654"><ele>262.33333333333337</ele><time>2026-04-29T11:49:50.762Z</time></trkpt><trkpt lat="45.6809412" lon="9.4514648"><ele>262.6666666666667</ele><time>2026-04-29T11:49:51.762Z</time></trkpt><trkpt lat="45.6810577" lon="9.451465"><ele>263.0</ele><time>2026-04-29T11:49:53.762Z</time></trkpt><trkpt lat="45.6811592" lon="9.4514638"><ele>262.0</ele><time>2026-04-29T11:49:55.762Z</time></trkpt><trkpt lat="45.6812523" lon="9.4514628"><ele>261.0</ele><time>2026-04-29T11:49:57.762Z</time></trkpt><trkpt lat="45.681331" lon="9.4514277"><ele>260.0</ele><time>2026-04-29T11:49:59.762Z</time></trkpt><trkpt lat="45.6814372" lon="9.4513618"><ele>259.0</ele><time>2026-04-29T11:50:01.762Z</time></trkpt><trkpt lat="45.6815215" lon="9.4512806"><ele>258.0</ele><time>2026-04-29T11:50:03.762Z</time></trkpt><trkpt lat="45.6816053" lon="9.4511899"><ele>258.0</ele><time>2026-04-29T11:50:05.762Z</time></trkpt><trkpt lat="45.6816795" lon="9.4510787"><ele>258.0</ele><time>2026-04-29T11:50:07.762Z</time></trkpt><trkpt lat="45.6817244" lon="9.4510096"><ele>258.0</ele><time>2026-04-29T11:50:08.762Z</time></trkpt><trkpt lat="45.6818006" lon="9.4508611"><ele>258.0</ele><time>2026-04-29T11:50:10.762Z</time></trkpt><trkpt lat="45.6818402" lon="9.4507834"><ele>258.0</ele><time>2026-04-29T11:50:11.762Z</time></trkpt><trkpt lat="45.6818845" lon="9.4507011"><ele>258.0</ele><time>2026-04-29T11:50:12.762Z</time></trkpt><trkpt lat="45.681912" lon="9.4506197"><ele>257.0</ele><time>2026-04-29T11:50:13.762Z</time></trkpt><trkpt lat="45.6819567" lon="9.4505266"><ele>256.0</ele><time>2026-04-29T11:50:14.762Z</time></trkpt><trkpt lat="45.6819873" lon="9.450433"><ele>255.0</ele><time>2026-04-29T11:50:15.762Z</time></trkpt><trkpt lat="45.6820208" lon="9.4503385"><ele>254.0</ele><time>2026-04-29T11:50:16.762Z</time></trkpt><trkpt lat="45.6820553" lon="9.4502415"><ele>253.0</ele><time>2026-04-29T11:50:17.761Z</time></trkpt><trkpt lat="45.682089" lon="9.4501424"><ele>252.0</ele><time>2026-04-29T11:50:18.762Z</time></trkpt><trkpt lat="45.6821312" lon="9.4500485"><ele>252.0</ele><time>2026-04-29T11:50:19.762Z</time></trkpt><trkpt lat="45.6821798" lon="9.4499497"><ele>252.0</ele><time>2026-04-29T11:50:20.762Z</time></trkpt><trkpt lat="45.6822117" lon="9.4498461"><ele>252.0</ele><time>2026-04-29T11:50:21.761Z</time></trkpt><trkpt lat="45.6822402" lon="9.4497469"><ele>252.0</ele><time>2026-04-29T11:50:22.762Z</time></trkpt><trkpt lat="45.682262" lon="9.4496548"><ele>252.0</ele><time>2026-04-29T11:50:23.762Z</time></trkpt><trkpt lat="45.6822822" lon="9.4495603"><ele>252.0</ele><time>2026-04-29T11:50:24.762Z</time></trkpt><trkpt lat="45.6823142" lon="9.4494647"><ele>252.0</ele><time>2026-04-29T11:50:25.761Z</time></trkpt><trkpt lat="45.682338" lon="9.4493751"><ele>253.71428571428572</ele><time>2026-04-29T11:50:26.761Z</time></trkpt><trkpt lat="45.6823654" lon="9.4492892"><ele>255.42857142857144</ele><time>2026-04-29T11:50:27.762Z</time></trkpt><trkpt lat="45.68239" lon="9.4491964"><ele>257.1428571428571</ele><time>2026-04-29T11:50:28.762Z</time></trkpt><trkpt lat="45.6824253" lon="9.4491052"><ele>258.8571428571429</ele><time>2026-04-29T11:50:29.762Z</time></trkpt><trkpt lat="45.6824547" lon="9.4490128"><ele>260.57142857142856</ele><time>2026-04-29T11:50:30.762Z</time></trkpt><trkpt lat="45.682484" lon="9.4489199"><ele>262.2857142857143</ele><time>2026-04-29T11:50:31.762Z</time></trkpt><trkpt lat="45.6825083" lon="9.4488342"><ele>264.0</ele><time>2026-04-29T11:50:32.762Z</time></trkpt><trkpt lat="45.6825409" lon="9.4487505"><ele>264.0</ele><time>2026-04-29T11:50:33.762Z</time></trkpt><trkpt lat="45.6825756" lon="9.4486507"><ele>264.0</ele><time>2026-04-29T11:50:34.762Z</time></trkpt><trkpt lat="45.6826214" lon="9.4484708"><ele>264.0</ele><time>2026-04-29T11:50:36.762Z</time></trkpt><trkpt lat="45.6826679" lon="9.4483036"><ele>264.0</ele><time>2026-04-29T11:50:38.762Z</time></trkpt><trkpt lat="45.6827" lon="9.4482079"><ele>264.0</ele><time>2026-04-29T11:50:39.762Z</time></trkpt><trkpt lat="45.6827281" lon="9.4481079"><ele>264.0</ele><time>2026-04-29T11:50:40.762Z</time></trkpt><trkpt lat="45.6827577" lon="9.4480252"><ele>264.0</ele><time>2026-04-29T11:50:41.762Z</time></trkpt><trkpt lat="45.6827852" lon="9.447942"><ele>264.0</ele><time>2026-04-29T11:50:42.762Z</time></trkpt><trkpt lat="45.6828114" lon="9.4478443"><ele>264.0</ele><time>2026-04-29T11:50:43.762Z</time></trkpt><trkpt lat="45.6828449" lon="9.4477363"><ele>264.0</ele><time>2026-04-29T11:50:44.762Z</time></trkpt><trkpt lat="45.6828449" lon="9.4476405"><ele>264.0</ele><time>2026-04-29T11:50:45.762Z</time></trkpt><trkpt lat="45.6828739" lon="9.4474919"><ele>264.3333333333333</ele><time>2026-04-29T11:50:47.762Z</time></trkpt><trkpt lat="45.6828938" lon="9.4474017"><ele>264.6666666666667</ele><time>2026-04-29T11:50:48.762Z</time></trkpt><trkpt lat="45.6828969" lon="9.447305"><ele>265.0</ele><time>2026-04-29T11:50:49.762Z</time></trkpt><trkpt lat="45.6829241" lon="9.447201"><ele>265.33333333333337</ele><time>2026-04-29T11:50:50.762Z</time></trkpt><trkpt lat="45.6829531" lon="9.4470614"><ele>265.6666666666667</ele><time>2026-04-29T11:50:52.762Z</time></trkpt><trkpt lat="45.6829574" lon="9.4469595"><ele>266.0</ele><time>2026-04-29T11:50:53.762Z</time></trkpt><trkpt lat="45.6829884" lon="9.4468103"><ele>266.0</ele><time>2026-04-29T11:50:55.762Z</time></trkpt><trkpt lat="45.6830041" lon="9.4466886"><ele>266.0</ele><time>2026-04-29T11:50:56.762Z</time></trkpt><trkpt lat="45.6830033" lon="9.4465981"><ele>266.0</ele><time>2026-04-29T11:50:57.762Z</time></trkpt><trkpt lat="45.6830013" lon="9.4465038"><ele>266.0</ele><time>2026-04-29T11:50:58.762Z</time></trkpt><trkpt lat="45.683006" lon="9.4464101"><ele>266.0</ele><time>2026-04-29T11:50:59.762Z</time></trkpt><trkpt lat="45.6830214" lon="9.4463027"><ele>266.0</ele><time>2026-04-29T11:51:00.762Z</time></trkpt><trkpt lat="45.6830256" lon="9.4462032"><ele>266.0</ele><time>2026-04-29T11:51:01.762Z</time></trkpt><trkpt lat="45.6830285" lon="9.4461013"><ele>266.5</ele><time>2026-04-29T11:51:02.762Z</time></trkpt><trkpt lat="45.6830341" lon="9.4460068"><ele>267.0</ele><time>2026-04-29T11:51:03.762Z</time></trkpt><trkpt lat="45.6830418" lon="9.4459109"><ele>267.5</ele><time>2026-04-29T11:51:04.762Z</time></trkpt><trkpt lat="45.6830402" lon="9.4458123"><ele>268.0</ele><time>2026-04-29T11:51:05.762Z</time></trkpt><trkpt lat="45.6830402" lon="9.445721"><ele>268.5</ele><time>2026-04-29T11:51:06.762Z</time></trkpt><trkpt lat="45.6830352" lon="9.4456122"><ele>269.0</ele><time>2026-04-29T11:51:07.762Z</time></trkpt><trkpt lat="45.6830512" lon="9.4454372"><ele>269.5</ele><time>2026-04-29T11:51:09.762Z</time></trkpt><trkpt lat="45.6830533" lon="9.4453442"><ele>270.0</ele><time>2026-04-29T11:51:10.762Z</time></trkpt><trkpt lat="45.6830693" lon="9.4451731"><ele>270.5</ele><time>2026-04-29T11:51:12.762Z</time></trkpt><trkpt lat="45.6830889" lon="9.4450626"><ele>271.0</ele><time>2026-04-29T11:51:13.762Z</time></trkpt><trkpt lat="45.6830784" lon="9.4449448"><ele>271.5</ele><time>2026-04-29T11:51:14.762Z</time></trkpt><trkpt lat="45.683083" lon="9.4448071"><ele>272.0</ele><time>2026-04-29T11:51:16.762Z</time></trkpt><trkpt lat="45.6831005" lon="9.4447037"><ele>272.4</ele><time>2026-04-29T11:51:18.762Z</time></trkpt><trkpt lat="45.6830725" lon="9.444595"><ele>272.79999999999995</ele><time>2026-04-29T11:51:20.762Z</time></trkpt><trkpt lat="45.683147" lon="9.4445264"><ele>273.2</ele><time>2026-04-29T11:51:22.762Z</time></trkpt><trkpt lat="45.6832198" lon="9.4445271"><ele>273.59999999999997</ele><time>2026-04-29T11:51:23.762Z</time></trkpt><trkpt lat="45.6833468" lon="9.4445305"><ele>274.0</ele><time>2026-04-29T11:51:25.762Z</time></trkpt><trkpt lat="45.6834661" lon="9.4445169"><ele>274.0</ele><time>2026-04-29T11:51:27.762Z</time></trkpt><trkpt lat="45.68357" lon="9.4445073"><ele>274.0</ele><time>2026-04-29T11:51:29.762Z</time></trkpt><trkpt lat="45.6836502" lon="9.4446238"><ele>274.0</ele><time>2026-04-29T11:51:31.762Z</time></trkpt><trkpt lat="45.6837063" lon="9.4446716"><ele>274.0</ele><time>2026-04-29T11:51:32.761Z</time></trkpt><trkpt lat="45.683695" lon="9.4448488"><ele>274.0</ele><time>2026-04-29T11:51:34.762Z</time></trkpt><trkpt lat="45.683695" lon="9.4449977"><ele>273.59999999999997</ele><time>2026-04-29T11:51:36.762Z</time></trkpt><trkpt lat="45.6837039" lon="9.445181"><ele>273.2</ele><time>2026-04-29T11:51:38.761Z</time></trkpt><trkpt lat="45.6837084" lon="9.4452805"><ele>272.79999999999995</ele><time>2026-04-29T11:51:39.762Z</time></trkpt><trkpt lat="45.683712" lon="9.4454501"><ele>272.4</ele><time>2026-04-29T11:51:41.761Z</time></trkpt><trkpt lat="45.6837109" lon="9.4455574"><ele>272.0</ele><time>2026-04-29T11:51:42.761Z</time></trkpt><trkpt lat="45.6837059" lon="9.4456486"><ele>271.4</ele><time>2026-04-29T11:51:43.762Z</time></trkpt><trkpt lat="45.6837016" lon="9.4458233"><ele>270.79999999999995</ele><time>2026-04-29T11:51:45.762Z</time></trkpt><trkpt lat="45.6836927" lon="9.4459212"><ele>270.2</ele><time>2026-04-29T11:51:46.762Z</time></trkpt><trkpt lat="45.6837411" lon="9.4460523"><ele>269.59999999999997</ele><time>2026-04-29T11:51:48.762Z</time></trkpt><trkpt lat="45.6838087" lon="9.4460559"><ele>269.0</ele><time>2026-04-29T11:51:49.762Z</time></trkpt><trkpt lat="45.6839235" lon="9.4460641"><ele>269.0</ele><time>2026-04-29T11:51:51.762Z</time></trkpt><trkpt lat="45.6840365" lon="9.4460851"><ele>269.0</ele><time>2026-04-29T11:51:53.762Z</time></trkpt><trkpt lat="45.6840995" lon="9.4460881"><ele>269.0</ele><time>2026-04-29T11:51:54.762Z</time></trkpt><trkpt lat="45.6842176" lon="9.4460908"><ele>269.0</ele><time>2026-04-29T11:51:56.762Z</time></trkpt><trkpt lat="45.684333" lon="9.4461043"><ele>269.0</ele><time>2026-04-29T11:51:58.762Z</time></trkpt><trkpt lat="45.6844508" lon="9.4460851"><ele>269.0</ele><time>2026-04-29T11:52:00.762Z</time></trkpt><trkpt lat="45.6845525" lon="9.4460691"><ele>269.0</ele><time>2026-04-29T11:52:02.761Z</time></trkpt><trkpt lat="45.6846487" lon="9.4459995"><ele>269.0</ele><time>2026-04-29T11:52:04.762Z</time></trkpt><trkpt lat="45.6846029" lon="9.4458986"><ele>269.0</ele><time>2026-04-29T11:52:05.762Z</time></trkpt><trkpt lat="45.6846608" lon="9.4457732"><ele>269.0</ele><time>2026-04-29T11:52:07.762Z</time></trkpt><trkpt lat="45.6846736" lon="9.4456456"><ele>269.0</ele><time>2026-04-29T11:52:09.761Z</time></trkpt><trkpt lat="45.6846761" lon="9.4454843"><ele>269.0</ele><time>2026-04-29T11:52:11.762Z</time></trkpt><trkpt lat="45.6846797" lon="9.4453266"><ele>269.0</ele><time>2026-04-29T11:52:13.762Z</time></trkpt><trkpt lat="45.684687" lon="9.4451792"><ele>269.0</ele><time>2026-04-29T11:52:15.762Z</time></trkpt><trkpt lat="45.6846931" lon="9.445028"><ele>269.0</ele><time>2026-04-29T11:52:17.762Z</time></trkpt><trkpt lat="45.6846945" lon="9.4449173"><ele>269.8</ele><time>2026-04-29T11:52:19.762Z</time></trkpt><trkpt lat="45.6847542" lon="9.4448128"><ele>270.59999999999997</ele><time>2026-04-29T11:52:22.762Z</time></trkpt><trkpt lat="45.6848442" lon="9.4448479"><ele>271.4</ele><time>2026-04-29T11:52:23.762Z</time></trkpt><trkpt lat="45.6849093" lon="9.4448697"><ele>272.2</ele><time>2026-04-29T11:52:24.762Z</time></trkpt><trkpt lat="45.6850135" lon="9.4449125"><ele>273.0</ele><time>2026-04-29T11:52:26.762Z</time></trkpt><trkpt lat="45.6851221" lon="9.4449287"><ele>273.0</ele><time>2026-04-29T11:52:28.762Z</time></trkpt><trkpt lat="45.6851841" lon="9.4449523"><ele>273.0</ele><time>2026-04-29T11:52:29.762Z</time></trkpt><trkpt lat="45.6852469" lon="9.4449733"><ele>273.0</ele><time>2026-04-29T11:52:30.762Z</time></trkpt><trkpt lat="45.6853713" lon="9.4450086"><ele>273.0</ele><time>2026-04-29T11:52:32.762Z</time></trkpt><trkpt lat="45.6854521" lon="9.4450361"><ele>273.0</ele><time>2026-04-29T11:52:33.762Z</time></trkpt><trkpt lat="45.6855193" lon="9.4450494"><ele>273.0</ele><time>2026-04-29T11:52:34.762Z</time></trkpt><trkpt lat="45.685641" lon="9.4450707"><ele>272.8</ele><time>2026-04-29T11:52:36.762Z</time></trkpt><trkpt lat="45.6857085" lon="9.4450904"><ele>272.6</ele><time>2026-04-29T11:52:37.762Z</time></trkpt><trkpt lat="45.6858369" lon="9.445127"><ele>272.4</ele><time>2026-04-29T11:52:39.762Z</time></trkpt><trkpt lat="45.6859538" lon="9.4451528"><ele>272.2</ele><time>2026-04-29T11:52:41.762Z</time></trkpt><trkpt lat="45.6860244" lon="9.4451715"><ele>272.0</ele><time>2026-04-29T11:52:42.762Z</time></trkpt><trkpt lat="45.6860882" lon="9.4451802"><ele>272.4</ele><time>2026-04-29T11:52:43.762Z</time></trkpt><trkpt lat="45.6862139" lon="9.4452164"><ele>272.79999999999995</ele><time>2026-04-29T11:52:45.762Z</time></trkpt><trkpt lat="45.6862793" lon="9.4452295"><ele>273.2</ele><time>2026-04-29T11:52:46.762Z</time></trkpt><trkpt lat="45.6864061" lon="9.4452473"><ele>273.59999999999997</ele><time>2026-04-29T11:52:48.761Z</time></trkpt><trkpt lat="45.6865124" lon="9.4452479"><ele>274.0</ele><time>2026-04-29T11:52:50.762Z</time></trkpt><trkpt lat="45.6865785" lon="9.4452548"><ele>274.0</ele><time>2026-04-29T11:52:51.762Z</time></trkpt><trkpt lat="45.6866509" lon="9.4452696"><ele>274.0</ele><time>2026-04-29T11:52:52.762Z</time></trkpt><trkpt lat="45.6867187" lon="9.4452647"><ele>274.0</ele><time>2026-04-29T11:52:53.762Z</time></trkpt><trkpt lat="45.6868341" lon="9.4452301"><ele>274.0</ele><time>2026-04-29T11:52:55.762Z</time></trkpt><trkpt lat="45.686958" lon="9.445194"><ele>274.0</ele><time>2026-04-29T11:52:57.761Z</time></trkpt><trkpt lat="45.6870258" lon="9.4451878"><ele>274.14285714285717</ele><time>2026-04-29T11:52:58.762Z</time></trkpt><trkpt lat="45.6871013" lon="9.4451775"><ele>274.2857142857143</ele><time>2026-04-29T11:52:59.762Z</time></trkpt><trkpt lat="45.6871684" lon="9.4451534"><ele>274.42857142857144</ele><time>2026-04-29T11:53:00.761Z</time></trkpt><trkpt lat="45.6872309" lon="9.4451145"><ele>274.57142857142856</ele><time>2026-04-29T11:53:01.762Z</time></trkpt><trkpt lat="45.6872984" lon="9.4450852"><ele>274.7142857142857</ele><time>2026-04-29T11:53:02.762Z</time></trkpt><trkpt lat="45.6873609" lon="9.4450304"><ele>274.8571428571429</ele><time>2026-04-29T11:53:03.762Z</time></trkpt><trkpt lat="45.6874406" lon="9.4450052"><ele>275.0</ele><time>2026-04-29T11:53:04.762Z</time></trkpt><trkpt lat="45.6875121" lon="9.4449395"><ele>275.0</ele><time>2026-04-29T11:53:05.762Z</time></trkpt><trkpt lat="45.687623" lon="9.4448479"><ele>275.0</ele><time>2026-04-29T11:53:07.762Z</time></trkpt><trkpt lat="45.6876935" lon="9.4447989"><ele>275.0</ele><time>2026-04-29T11:53:08.762Z</time></trkpt><trkpt lat="45.6877742" lon="9.4447152"><ele>275.0</ele><time>2026-04-29T11:53:09.762Z</time></trkpt><trkpt lat="45.6878327" lon="9.4446702"><ele>275.0</ele><time>2026-04-29T11:53:10.762Z</time></trkpt><trkpt lat="45.6879085" lon="9.4446281"><ele>275.1666666666667</ele><time>2026-04-29T11:53:11.762Z</time></trkpt><trkpt lat="45.6879832" lon="9.4445733"><ele>275.33333333333337</ele><time>2026-04-29T11:53:12.762Z</time></trkpt><trkpt lat="45.6880492" lon="9.4445358"><ele>275.5</ele><time>2026-04-29T11:53:13.761Z</time></trkpt><trkpt lat="45.6881256" lon="9.4444511"><ele>275.6666666666667</ele><time>2026-04-29T11:53:15.762Z</time></trkpt><trkpt lat="45.688199" lon="9.4443712"><ele>275.8333333333333</ele><time>2026-04-29T11:53:16.761Z</time></trkpt><trkpt lat="45.688283" lon="9.4442826"><ele>276.0</ele><time>2026-04-29T11:53:17.762Z</time></trkpt><trkpt lat="45.688351" lon="9.4442305"><ele>276.0</ele><time>2026-04-29T11:53:18.762Z</time></trkpt><trkpt lat="45.6884041" lon="9.444165"><ele>276.0</ele><time>2026-04-29T11:53:19.762Z</time></trkpt><trkpt lat="45.6884568" lon="9.4441049"><ele>276.0</ele><time>2026-04-29T11:53:20.762Z</time></trkpt><trkpt lat="45.6885217" lon="9.4440581"><ele>276.0</ele><time>2026-04-29T11:53:21.762Z</time></trkpt><trkpt lat="45.6885895" lon="9.4440027"><ele>276.0</ele><time>2026-04-29T11:53:22.762Z</time></trkpt><trkpt lat="45.6886623" lon="9.4439629"><ele>276.0</ele><time>2026-04-29T11:53:23.762Z</time></trkpt><trkpt lat="45.6887231" lon="9.4438974"><ele>276.0</ele><time>2026-04-29T11:53:24.762Z</time></trkpt><trkpt lat="45.6888005" lon="9.4438193"><ele>275.8333333333333</ele><time>2026-04-29T11:53:25.762Z</time></trkpt><trkpt lat="45.6888699" lon="9.4437579"><ele>275.6666666666667</ele><time>2026-04-29T11:53:26.762Z</time></trkpt><trkpt lat="45.6889242" lon="9.443692"><ele>275.5</ele><time>2026-04-29T11:53:27.762Z</time></trkpt><trkpt lat="45.6889841" lon="9.4436245"><ele>275.33333333333337</ele><time>2026-04-29T11:53:28.762Z</time></trkpt><trkpt lat="45.6890673" lon="9.4435552"><ele>275.1666666666667</ele><time>2026-04-29T11:53:29.762Z</time></trkpt><trkpt lat="45.6891343" lon="9.4435016"><ele>275.0</ele><time>2026-04-29T11:53:30.762Z</time></trkpt><trkpt lat="45.6891915" lon="9.4434614"><ele>275.0</ele><time>2026-04-29T11:53:31.762Z</time></trkpt><trkpt lat="45.6892533" lon="9.4434133"><ele>275.0</ele><time>2026-04-29T11:53:32.762Z</time></trkpt><trkpt lat="45.6893365" lon="9.4433484"><ele>275.0</ele><time>2026-04-29T11:53:33.762Z</time></trkpt><trkpt lat="45.6893999" lon="9.4432984"><ele>275.0</ele><time>2026-04-29T11:53:34.762Z</time></trkpt><trkpt lat="45.6894643" lon="9.4432494"><ele>275.0</ele><time>2026-04-29T11:53:35.762Z</time></trkpt><trkpt lat="45.6895378" lon="9.4431843"><ele>275.0</ele><time>2026-04-29T11:53:36.761Z</time></trkpt><trkpt lat="45.6896022" lon="9.4431199"><ele>275.33333333333337</ele><time>2026-04-29T11:53:37.762Z</time></trkpt><trkpt lat="45.6896618" lon="9.443054"><ele>275.6666666666667</ele><time>2026-04-29T11:53:38.762Z</time></trkpt><trkpt lat="45.6897376" lon="9.4430142"><ele>276.0</ele><time>2026-04-29T11:53:39.762Z</time></trkpt><trkpt lat="45.6897899" lon="9.4429413"><ele>276.3333333333333</ele><time>2026-04-29T11:53:40.762Z</time></trkpt><trkpt lat="45.6898591" lon="9.4428885"><ele>276.66666666666663</ele><time>2026-04-29T11:53:41.762Z</time></trkpt><trkpt lat="45.6899332" lon="9.4428218"><ele>277.0</ele><time>2026-04-29T11:53:42.762Z</time></trkpt><trkpt lat="45.6900048" lon="9.4427671"><ele>277.16666666666663</ele><time>2026-04-29T11:53:43.762Z</time></trkpt><trkpt lat="45.690078" lon="9.4427212"><ele>277.3333333333333</ele><time>2026-04-29T11:53:44.761Z</time></trkpt><trkpt lat="45.6901351" lon="9.442679"><ele>277.5</ele><time>2026-04-29T11:53:45.762Z</time></trkpt><trkpt lat="45.6902021" lon="9.4426387"><ele>277.6666666666667</ele><time>2026-04-29T11:53:46.762Z</time></trkpt><trkpt lat="45.6902575" lon="9.4425876"><ele>277.83333333333337</ele><time>2026-04-29T11:53:47.761Z</time></trkpt><trkpt lat="45.6903515" lon="9.4425343"><ele>278.0</ele><time>2026-04-29T11:53:48.761Z</time></trkpt><trkpt lat="45.6904261" lon="9.4424936"><ele>278.0</ele><time>2026-04-29T11:53:49.762Z</time></trkpt><trkpt lat="45.6905068" lon="9.4424567"><ele>278.0</ele><time>2026-04-29T11:53:50.762Z</time></trkpt><trkpt lat="45.6905654" lon="9.4424074"><ele>278.0</ele><time>2026-04-29T11:53:51.762Z</time></trkpt><trkpt lat="45.6906349" lon="9.4423711"><ele>278.0</ele><time>2026-04-29T11:53:52.762Z</time></trkpt><trkpt lat="45.6907014" lon="9.442367"><ele>278.0</ele><time>2026-04-29T11:53:53.761Z</time></trkpt><trkpt lat="45.6908169" lon="9.4422878"><ele>278.0</ele><time>2026-04-29T11:53:55.762Z</time></trkpt><trkpt lat="45.6909213" lon="9.4422226"><ele>278.0</ele><time>2026-04-29T11:53:57.762Z</time></trkpt><trkpt lat="45.6910496" lon="9.4421696"><ele>278.0</ele><time>2026-04-29T11:53:59.762Z</time></trkpt><trkpt lat="45.6911911" lon="9.4421568"><ele>278.0</ele><time>2026-04-29T11:54:01.762Z</time></trkpt><trkpt lat="45.6912964" lon="9.4421277"><ele>278.0</ele><time>2026-04-29T11:54:03.762Z</time></trkpt><trkpt lat="45.6913733" lon="9.4420744"><ele>277.0</ele><time>2026-04-29T11:54:05.762Z</time></trkpt><trkpt lat="45.6914186" lon="9.4420045"><ele>276.0</ele><time>2026-04-29T11:54:06.762Z</time></trkpt><trkpt lat="45.6914783" lon="9.4418903"><ele>275.0</ele><time>2026-04-29T11:54:08.762Z</time></trkpt><trkpt lat="45.6915524" lon="9.4417616"><ele>274.0</ele><time>2026-04-29T11:54:10.762Z</time></trkpt><trkpt lat="45.69165" lon="9.4417533"><ele>273.0</ele><time>2026-04-29T11:54:12.761Z</time></trkpt><trkpt lat="45.6917724" lon="9.4417535"><ele>273.0</ele><time>2026-04-29T11:54:14.762Z</time></trkpt><trkpt lat="45.691894" lon="9.4417625"><ele>273.0</ele><time>2026-04-29T11:54:16.762Z</time></trkpt><trkpt lat="45.6919639" lon="9.441762"><ele>273.0</ele><time>2026-04-29T11:54:17.762Z</time></trkpt><trkpt lat="45.6920917" lon="9.4417425"><ele>273.0</ele><time>2026-04-29T11:54:19.762Z</time></trkpt><trkpt lat="45.6922037" lon="9.4417547"><ele>273.0</ele><time>2026-04-29T11:54:21.762Z</time></trkpt><trkpt lat="45.6922859" lon="9.4417585"><ele>273.3333333333333</ele><time>2026-04-29T11:54:22.762Z</time></trkpt><trkpt lat="45.6923524" lon="9.4417732"><ele>273.6666666666667</ele><time>2026-04-29T11:54:23.762Z</time></trkpt><trkpt lat="45.6924269" lon="9.4418434"><ele>274.0</ele><time>2026-04-29T11:54:24.762Z</time></trkpt><trkpt lat="45.6925629" lon="9.4418413"><ele>274.33333333333337</ele><time>2026-04-29T11:54:26.762Z</time></trkpt><trkpt lat="45.6926272" lon="9.4418459"><ele>274.6666666666667</ele><time>2026-04-29T11:54:27.762Z</time></trkpt><trkpt lat="45.6927005" lon="9.4417928"><ele>275.0</ele><time>2026-04-29T11:54:28.762Z</time></trkpt><trkpt lat="45.6927987" lon="9.4417429"><ele>276.0</ele><time>2026-04-29T11:54:30.762Z</time></trkpt><trkpt lat="45.6929035" lon="9.4416945"><ele>277.0</ele><time>2026-04-29T11:54:32.762Z</time></trkpt><trkpt lat="45.6929735" lon="9.4416662"><ele>278.0</ele><time>2026-04-29T11:54:33.762Z</time></trkpt><trkpt lat="45.6930376" lon="9.4416242"><ele>279.0</ele><time>2026-04-29T11:54:34.762Z</time></trkpt><trkpt lat="45.6931143" lon="9.4416003"><ele>280.0</ele><time>2026-04-29T11:54:35.762Z</time></trkpt><trkpt lat="45.6931835" lon="9.4416141"><ele>281.0</ele><time>2026-04-29T11:54:36.762Z</time></trkpt><trkpt lat="45.6932905" lon="9.4415498"><ele>281.0</ele><time>2026-04-29T11:54:38.762Z</time></trkpt><trkpt lat="45.6933823" lon="9.4414947"><ele>281.0</ele><time>2026-04-29T11:54:40.762Z</time></trkpt><trkpt lat="45.6934969" lon="9.4414437"><ele>281.0</ele><time>2026-04-29T11:54:42.762Z</time></trkpt><trkpt lat="45.6936006" lon="9.4414149"><ele>281.0</ele><time>2026-04-29T11:54:44.762Z</time></trkpt><trkpt lat="45.6936673" lon="9.4413916"><ele>281.0</ele><time>2026-04-29T11:54:45.762Z</time></trkpt><trkpt lat="45.6937312" lon="9.4413564"><ele>281.2</ele><time>2026-04-29T11:54:46.762Z</time></trkpt><trkpt lat="45.6938392" lon="9.4413654"><ele>281.40000000000003</ele><time>2026-04-29T11:54:48.762Z</time></trkpt><trkpt lat="45.6939324" lon="9.4413329"><ele>281.6</ele><time>2026-04-29T11:54:50.762Z</time></trkpt><trkpt lat="45.6940411" lon="9.4412736"><ele>281.8</ele><time>2026-04-29T11:54:52.762Z</time></trkpt><trkpt lat="45.6941615" lon="9.4412336"><ele>282.0</ele><time>2026-04-29T11:54:54.762Z</time></trkpt><trkpt lat="45.6942322" lon="9.4412073"><ele>282.0</ele><time>2026-04-29T11:54:55.762Z</time></trkpt><trkpt lat="45.694302" lon="9.4411831"><ele>282.0</ele><time>2026-04-29T11:54:56.762Z</time></trkpt><trkpt lat="45.6943666" lon="9.4411562"><ele>282.0</ele><time>2026-04-29T11:54:57.762Z</time></trkpt><trkpt lat="45.6944379" lon="9.4411292"><ele>282.0</ele><time>2026-04-29T11:54:58.762Z</time></trkpt><trkpt lat="45.6944997" lon="9.4411493"><ele>282.0</ele><time>2026-04-29T11:54:59.762Z</time></trkpt><trkpt lat="45.6945893" lon="9.4410909"><ele>282.0</ele><time>2026-04-29T11:55:01.762Z</time></trkpt><trkpt lat="45.6946902" lon="9.4410304"><ele>282.8</ele><time>2026-04-29T11:55:03.762Z</time></trkpt><trkpt lat="45.6947949" lon="9.4409989"><ele>283.6</ele><time>2026-04-29T11:55:05.762Z</time></trkpt><trkpt lat="45.6948846" lon="9.4409462"><ele>284.40000000000003</ele><time>2026-04-29T11:55:07.762Z</time></trkpt><trkpt lat="45.6949645" lon="9.440891"><ele>285.2</ele><time>2026-04-29T11:55:09.762Z</time></trkpt><trkpt lat="45.6950772" lon="9.4408507"><ele>286.0</ele><time>2026-04-29T11:55:11.762Z</time></trkpt><trkpt lat="45.6951395" lon="9.4408713"><ele>288.0</ele><time>2026-04-29T11:55:12.762Z</time></trkpt><trkpt lat="45.6953109" lon="9.4408837"><ele>290.0</ele><time>2026-04-29T11:55:15.762Z</time></trkpt><trkpt lat="45.6954317" lon="9.4409172"><ele>292.0</ele><time>2026-04-29T11:55:18.762Z</time></trkpt><trkpt lat="45.6955885" lon="9.4409164"><ele>292.0</ele><time>2026-04-29T11:55:22.761Z</time></trkpt><trkpt lat="45.6956681" lon="9.4409071"><ele>292.0</ele><time>2026-04-29T11:55:24.762Z</time></trkpt><trkpt lat="45.6957509" lon="9.4408914"><ele>292.0</ele><time>2026-04-29T11:55:26.762Z</time></trkpt><trkpt lat="45.6958281" lon="9.4408792"><ele>292.0</ele><time>2026-04-29T11:55:28.762Z</time></trkpt><trkpt lat="45.6959035" lon="9.4408682"><ele>292.0</ele><time>2026-04-29T11:55:30.762Z</time></trkpt><trkpt lat="45.6959718" lon="9.4408593"><ele>292.0</ele><time>2026-04-29T11:55:32.762Z</time></trkpt><trkpt lat="45.6960508" lon="9.4408691"><ele>292.0</ele><time>2026-04-29T11:55:34.762Z</time></trkpt><trkpt lat="45.6959583" lon="9.4408626"><ele>292.0</ele><time>2026-04-29T11:55:36.815Z</time></trkpt><trkpt lat="45.6960326" lon="9.4408647"><ele>292.0</ele><time>2026-04-29T11:55:39.552Z</time></trkpt><trkpt lat="45.696108" lon="9.4408648"><ele>292.0</ele><time>2026-04-29T11:55:43.638Z</time></trkpt><trkpt lat="45.6961837" lon="9.4408618"><ele>292.0</ele><time>2026-04-29T11:55:47.677Z</time></trkpt><trkpt lat="45.6963707" lon="9.440849"><ele>293.0</ele><time>2026-04-29T11:55:49.762Z</time></trkpt><trkpt lat="45.6965041" lon="9.4408434"><ele>294.0</ele><time>2026-04-29T11:55:50.757Z</time></trkpt><trkpt lat="45.6966836" lon="9.4408291"><ele>295.0</ele><time>2026-04-29T11:55:51.762Z</time></trkpt><trkpt lat="45.6967696" lon="9.4408094"><ele>296.0</ele><time>2026-04-29T11:55:53.762Z</time></trkpt><trkpt lat="45.6968325" lon="9.4407979"><ele>296.0</ele><time>2026-04-29T11:55:55.762Z</time></trkpt><trkpt lat="45.6969006" lon="9.4407959"><ele>296.0</ele><time>2026-04-29T11:55:57.762Z</time></trkpt><trkpt lat="45.6969861" lon="9.4407885"><ele>296.0</ele><time>2026-04-29T11:56:00.762Z</time></trkpt><trkpt lat="45.6970734" lon="9.4407595"><ele>296.0</ele><time>2026-04-29T11:56:03.762Z</time></trkpt><trkpt lat="45.6971678" lon="9.4407265"><ele>296.0</ele><time>2026-04-29T11:56:06.762Z</time></trkpt><trkpt lat="45.6972255" lon="9.4406522"><ele>296.0</ele><time>2026-04-29T11:56:13.762Z</time></trkpt><trkpt lat="45.6971603" lon="9.4406715"><ele>296.0</ele><time>2026-04-29T11:56:14.762Z</time></trkpt><trkpt lat="45.696986" lon="9.4408421"><ele>296.0</ele><time>2026-04-29T11:56:15.762Z</time></trkpt><trkpt lat="45.696914" lon="9.4408497"><ele>296.0</ele><time>2026-04-29T11:56:16.762Z</time></trkpt><trkpt lat="45.6968449" lon="9.4408419"><ele>296.0</ele><time>2026-04-29T11:56:17.762Z</time></trkpt><trkpt lat="45.6967774" lon="9.4408412"><ele>296.0</ele><time>2026-04-29T11:56:18.762Z</time></trkpt><trkpt lat="45.6967041" lon="9.4408488"><ele>296.0</ele><time>2026-04-29T11:56:19.762Z</time></trkpt><trkpt lat="45.6966171" lon="9.4408405"><ele>296.0</ele><time>2026-04-29T11:56:20.762Z</time></trkpt><trkpt lat="45.6965501" lon="9.4408311"><ele>296.0</ele><time>2026-04-29T11:56:21.762Z</time></trkpt><trkpt lat="45.6964602" lon="9.4408244"><ele>296.0</ele><time>2026-04-29T11:56:22.762Z</time></trkpt><trkpt lat="45.6963687" lon="9.4408406"><ele>296.0</ele><time>2026-04-29T11:56:23.762Z</time></trkpt><trkpt lat="45.6962711" lon="9.440837"><ele>296.0</ele><time>2026-04-29T11:56:24.762Z</time></trkpt><trkpt lat="45.6961837" lon="9.4408476"><ele>296.0</ele><time>2026-04-29T11:56:25.762Z</time></trkpt><trkpt lat="45.6960988" lon="9.4408712"><ele>296.0</ele><time>2026-04-29T11:56:26.762Z</time></trkpt><trkpt lat="45.6960011" lon="9.4408872"><ele>296.0</ele><time>2026-04-29T11:56:27.762Z</time></trkpt><trkpt lat="45.6959048" lon="9.4409042"><ele>296.0</ele><time>2026-04-29T11:56:28.761Z</time></trkpt><trkpt lat="45.6958093" lon="9.440907"><ele>296.0</ele><time>2026-04-29T11:56:29.762Z</time></trkpt><trkpt lat="45.6957005" lon="9.4409104"><ele>295.2</ele><time>2026-04-29T11:56:30.762Z</time></trkpt><trkpt lat="45.6956021" lon="9.4409103"><ele>294.40000000000003</ele><time>2026-04-29T11:56:31.762Z</time></trkpt><trkpt lat="45.6954976" lon="9.4408921"><ele>293.6</ele><time>2026-04-29T11:56:32.762Z</time></trkpt><trkpt lat="45.6953977" lon="9.4408713"><ele>292.8</ele><time>2026-04-29T11:56:33.762Z</time></trkpt><trkpt lat="45.6952822" lon="9.4408509"><ele>292.0</ele><time>2026-04-29T11:56:34.762Z</time></trkpt><trkpt lat="45.6951669" lon="9.4408236"><ele>290.8</ele><time>2026-04-29T11:56:35.762Z</time></trkpt><trkpt lat="45.6950642" lon="9.440817"><ele>289.6</ele><time>2026-04-29T11:56:36.762Z</time></trkpt><trkpt lat="45.6949676" lon="9.4408035"><ele>288.40000000000003</ele><time>2026-04-29T11:56:37.762Z</time></trkpt><trkpt lat="45.6948739" lon="9.4408354"><ele>287.2</ele><time>2026-04-29T11:56:38.762Z</time></trkpt><trkpt lat="45.6947827" lon="9.4409042"><ele>286.0</ele><time>2026-04-29T11:56:39.762Z</time></trkpt><trkpt lat="45.6946863" lon="9.4409589"><ele>286.0</ele><time>2026-04-29T11:56:40.762Z</time></trkpt><trkpt lat="45.6945959" lon="9.44102"><ele>286.0</ele><time>2026-04-29T11:56:41.762Z</time></trkpt><trkpt lat="45.6945083" lon="9.4410836"><ele>286.0</ele><time>2026-04-29T11:56:42.762Z</time></trkpt><trkpt lat="45.6944261" lon="9.4411475"><ele>286.0</ele><time>2026-04-29T11:56:43.762Z</time></trkpt><trkpt lat="45.6943551" lon="9.4411944"><ele>286.0</ele><time>2026-04-29T11:56:44.762Z</time></trkpt><trkpt lat="45.6942757" lon="9.4412306"><ele>285.40000000000003</ele><time>2026-04-29T11:56:45.762Z</time></trkpt><trkpt lat="45.6941963" lon="9.4412816"><ele>284.8</ele><time>2026-04-29T11:56:46.761Z</time></trkpt><trkpt lat="45.6940991" lon="9.4413108"><ele>284.20000000000005</ele><time>2026-04-29T11:56:47.762Z</time></trkpt><trkpt lat="45.6940117" lon="9.4413479"><ele>283.6</ele><time>2026-04-29T11:56:48.762Z</time></trkpt><trkpt lat="45.6939378" lon="9.4413847"><ele>283.0</ele><time>2026-04-29T11:56:49.761Z</time></trkpt><trkpt lat="45.6938363" lon="9.4414195"><ele>283.0</ele><time>2026-04-29T11:56:50.762Z</time></trkpt><trkpt lat="45.6937529" lon="9.4414558"><ele>283.0</ele><time>2026-04-29T11:56:51.762Z</time></trkpt><trkpt lat="45.6936628" lon="9.4414854"><ele>283.0</ele><time>2026-04-29T11:56:52.762Z</time></trkpt><trkpt lat="45.6935574" lon="9.4415171"><ele>283.0</ele><time>2026-04-29T11:56:53.762Z</time></trkpt><trkpt lat="45.6934708" lon="9.4415509"><ele>283.0</ele><time>2026-04-29T11:56:54.762Z</time></trkpt><trkpt lat="45.6933895" lon="9.4415952"><ele>282.6</ele><time>2026-04-29T11:56:55.762Z</time></trkpt><trkpt lat="45.6933002" lon="9.4416324"><ele>282.20000000000005</ele><time>2026-04-29T11:56:56.762Z</time></trkpt><trkpt lat="45.6932024" lon="9.4416787"><ele>281.8</ele><time>2026-04-29T11:56:57.762Z</time></trkpt><trkpt lat="45.6931126" lon="9.4416906"><ele>281.40000000000003</ele><time>2026-04-29T11:56:58.762Z</time></trkpt><trkpt lat="45.6929998" lon="9.4417235"><ele>281.0</ele><time>2026-04-29T11:56:59.762Z</time></trkpt><trkpt lat="45.6929038" lon="9.4417293"><ele>281.0</ele><time>2026-04-29T11:57:00.762Z</time></trkpt><trkpt lat="45.6928078" lon="9.4417543"><ele>281.0</ele><time>2026-04-29T11:57:01.762Z</time></trkpt><trkpt lat="45.6927058" lon="9.4417707"><ele>281.0</ele><time>2026-04-29T11:57:02.762Z</time></trkpt><trkpt lat="45.6926025" lon="9.4417894"><ele>281.0</ele><time>2026-04-29T11:57:03.762Z</time></trkpt><trkpt lat="45.6925018" lon="9.4418028"><ele>281.0</ele><time>2026-04-29T11:57:04.762Z</time></trkpt><trkpt lat="45.6924151" lon="9.4417967"><ele>280.0</ele><time>2026-04-29T11:57:05.762Z</time></trkpt><trkpt lat="45.6923246" lon="9.4417871"><ele>279.0</ele><time>2026-04-29T11:57:06.762Z</time></trkpt><trkpt lat="45.6922331" lon="9.4417732"><ele>278.0</ele><time>2026-04-29T11:57:07.762Z</time></trkpt><trkpt lat="45.6921415" lon="9.4417672"><ele>277.0</ele><time>2026-04-29T11:57:08.761Z</time></trkpt><trkpt lat="45.6920615" lon="9.4417369"><ele>276.0</ele><time>2026-04-29T11:57:09.762Z</time></trkpt><trkpt lat="45.6919815" lon="9.4417337"><ele>275.0</ele><time>2026-04-29T11:57:10.762Z</time></trkpt><trkpt lat="45.6918962" lon="9.4417202"><ele>274.6666666666667</ele><time>2026-04-29T11:57:11.762Z</time></trkpt><trkpt lat="45.6918198" lon="9.4417049"><ele>274.33333333333337</ele><time>2026-04-29T11:57:12.762Z</time></trkpt><trkpt lat="45.6917485" lon="9.441696"><ele>274.0</ele><time>2026-04-29T11:57:13.762Z</time></trkpt><trkpt lat="45.691676" lon="9.4416861"><ele>273.6666666666667</ele><time>2026-04-29T11:57:14.762Z</time></trkpt><trkpt lat="45.6916151" lon="9.4417168"><ele>273.3333333333333</ele><time>2026-04-29T11:57:15.762Z</time></trkpt><trkpt lat="45.6914946" lon="9.441746"><ele>273.0</ele><time>2026-04-29T11:57:17.762Z</time></trkpt><trkpt lat="45.6914593" lon="9.4418924"><ele>273.0</ele><time>2026-04-29T11:57:19.762Z</time></trkpt><trkpt lat="45.6913916" lon="9.4419833"><ele>273.0</ele><time>2026-04-29T11:57:21.762Z</time></trkpt><trkpt lat="45.6912928" lon="9.4420405"><ele>273.0</ele><time>2026-04-29T11:57:23.762Z</time></trkpt><trkpt lat="45.6911849" lon="9.442078"><ele>273.0</ele><time>2026-04-29T11:57:25.762Z</time></trkpt><trkpt lat="45.691102" lon="9.4420794"><ele>273.0</ele><time>2026-04-29T11:57:27.762Z</time></trkpt><trkpt lat="45.6909682" lon="9.4421144"><ele>274.0</ele><time>2026-04-29T11:57:29.762Z</time></trkpt><trkpt lat="45.6908393" lon="9.4421408"><ele>275.0</ele><time>2026-04-29T11:57:31.762Z</time></trkpt><trkpt lat="45.6907724" lon="9.4421927"><ele>276.0</ele><time>2026-04-29T11:57:32.762Z</time></trkpt><trkpt lat="45.6906677" lon="9.4422972"><ele>277.0</ele><time>2026-04-29T11:57:34.762Z</time></trkpt><trkpt lat="45.6905695" lon="9.4423811"><ele>278.0</ele><time>2026-04-29T11:57:36.762Z</time></trkpt><trkpt lat="45.6904922" lon="9.4424249"><ele>278.0</ele><time>2026-04-29T11:57:37.762Z</time></trkpt><trkpt lat="45.6904196" lon="9.4424422"><ele>278.0</ele><time>2026-04-29T11:57:38.762Z</time></trkpt><trkpt lat="45.6903355" lon="9.4424982"><ele>278.0</ele><time>2026-04-29T11:57:39.762Z</time></trkpt><trkpt lat="45.6902604" lon="9.4425622"><ele>278.0</ele><time>2026-04-29T11:57:40.762Z</time></trkpt><trkpt lat="45.6901586" lon="9.4426611"><ele>278.0</ele><time>2026-04-29T11:57:42.762Z</time></trkpt><trkpt lat="45.6901167" lon="9.4427364"><ele>278.0</ele><time>2026-04-29T11:57:43.762Z</time></trkpt><trkpt lat="45.6900684" lon="9.4428055"><ele>277.83333333333337</ele><time>2026-04-29T11:57:44.762Z</time></trkpt><trkpt lat="45.6900005" lon="9.4428578"><ele>277.6666666666667</ele><time>2026-04-29T11:57:45.762Z</time></trkpt><trkpt lat="45.6899276" lon="9.4428888"><ele>277.5</ele><time>2026-04-29T11:57:46.762Z</time></trkpt><trkpt lat="45.689868" lon="9.4429382"><ele>277.3333333333333</ele><time>2026-04-29T11:57:47.762Z</time></trkpt><trkpt lat="45.6898103" lon="9.4429888"><ele>277.16666666666663</ele><time>2026-04-29T11:57:48.762Z</time></trkpt><trkpt lat="45.6896949" lon="9.4431055"><ele>277.0</ele><time>2026-04-29T11:57:50.762Z</time></trkpt><trkpt lat="45.6896265" lon="9.4431468"><ele>277.0</ele><time>2026-04-29T11:57:51.762Z</time></trkpt><trkpt lat="45.6895562" lon="9.4432091"><ele>277.0</ele><time>2026-04-29T11:57:52.762Z</time></trkpt><trkpt lat="45.6894775" lon="9.443276"><ele>277.0</ele><time>2026-04-29T11:57:53.762Z</time></trkpt><trkpt lat="45.6893553" lon="9.4433843"><ele>277.0</ele><time>2026-04-29T11:57:55.762Z</time></trkpt><trkpt lat="45.6892746" lon="9.4434186"><ele>277.0</ele><time>2026-04-29T11:57:56.762Z</time></trkpt><trkpt lat="45.6892038" lon="9.4434694"><ele>277.0</ele><time>2026-04-29T11:57:57.762Z</time></trkpt><trkpt lat="45.6891308" lon="9.4435287"><ele>277.0</ele><time>2026-04-29T11:57:58.762Z</time></trkpt><trkpt lat="45.6890753" lon="9.4435717"><ele>277.0</ele><time>2026-04-29T11:57:59.762Z</time></trkpt><trkpt lat="45.6890114" lon="9.4436177"><ele>277.0</ele><time>2026-04-29T11:58:00.762Z</time></trkpt><trkpt lat="45.6889496" lon="9.4436718"><ele>277.0</ele><time>2026-04-29T11:58:01.762Z</time></trkpt><trkpt lat="45.6888829" lon="9.4437336"><ele>277.0</ele><time>2026-04-29T11:58:02.762Z</time></trkpt><trkpt lat="45.6888279" lon="9.4437903"><ele>277.0</ele><time>2026-04-29T11:58:03.762Z</time></trkpt><trkpt lat="45.6887651" lon="9.4438424"><ele>277.0</ele><time>2026-04-29T11:58:04.762Z</time></trkpt><trkpt lat="45.6886563" lon="9.4439452"><ele>277.0</ele><time>2026-04-29T11:58:06.762Z</time></trkpt><trkpt lat="45.6885937" lon="9.4439994"><ele>277.0</ele><time>2026-04-29T11:58:07.762Z</time></trkpt><trkpt lat="45.6885291" lon="9.4440483"><ele>277.0</ele><time>2026-04-29T11:58:08.762Z</time></trkpt><trkpt lat="45.6884673" lon="9.4441064"><ele>277.0</ele><time>2026-04-29T11:58:09.762Z</time></trkpt><trkpt lat="45.6883934" lon="9.4441553"><ele>277.0</ele><time>2026-04-29T11:58:10.762Z</time></trkpt><trkpt lat="45.6883219" lon="9.444209"><ele>276.8333333333333</ele><time>2026-04-29T11:58:11.762Z</time></trkpt><trkpt lat="45.6882527" lon="9.4442708"><ele>276.66666666666663</ele><time>2026-04-29T11:58:12.762Z</time></trkpt><trkpt lat="45.6881816" lon="9.4443379"><ele>276.5</ele><time>2026-04-29T11:58:13.762Z</time></trkpt><trkpt lat="45.6881175" lon="9.4443909"><ele>276.3333333333333</ele><time>2026-04-29T11:58:14.762Z</time></trkpt><trkpt lat="45.6880552" lon="9.4444438"><ele>276.1666666666667</ele><time>2026-04-29T11:58:15.762Z</time></trkpt><trkpt lat="45.6879961" lon="9.4445148"><ele>276.0</ele><time>2026-04-29T11:58:16.762Z</time></trkpt><trkpt lat="45.6879521" lon="9.444588"><ele>276.0</ele><time>2026-04-29T11:58:17.762Z</time></trkpt><trkpt lat="45.687895" lon="9.444628"><ele>276.0</ele><time>2026-04-29T11:58:18.761Z</time></trkpt><trkpt lat="45.6877612" lon="9.4447402"><ele>276.0</ele><time>2026-04-29T11:58:21.157Z</time></trkpt><trkpt lat="45.6876318" lon="9.4448451"><ele>276.0</ele><time>2026-04-29T11:58:22.764Z</time></trkpt><trkpt lat="45.6875135" lon="9.4449425"><ele>275.8571428571429</ele><time>2026-04-29T11:58:24.762Z</time></trkpt><trkpt lat="45.6874479" lon="9.4449961"><ele>275.7142857142857</ele><time>2026-04-29T11:58:25.761Z</time></trkpt><trkpt lat="45.687389" lon="9.4450618"><ele>275.57142857142856</ele><time>2026-04-29T11:58:26.764Z</time></trkpt><trkpt lat="45.6873284" lon="9.4451069"><ele>275.42857142857144</ele><time>2026-04-29T11:58:27.764Z</time></trkpt><trkpt lat="45.687259" lon="9.4451396"><ele>275.2857142857143</ele><time>2026-04-29T11:58:28.763Z</time></trkpt><trkpt lat="45.6871833" lon="9.4451652"><ele>275.14285714285717</ele><time>2026-04-29T11:58:29.764Z</time></trkpt><trkpt lat="45.6871049" lon="9.4451881"><ele>275.0</ele><time>2026-04-29T11:58:30.764Z</time></trkpt><trkpt lat="45.6870244" lon="9.4452089"><ele>275.0</ele><time>2026-04-29T11:58:31.764Z</time></trkpt><trkpt lat="45.6869475" lon="9.4452103"><ele>275.0</ele><time>2026-04-29T11:58:32.764Z</time></trkpt><trkpt lat="45.68687" lon="9.4452365"><ele>275.0</ele><time>2026-04-29T11:58:33.764Z</time></trkpt><trkpt lat="45.6868025" lon="9.4452483"><ele>275.0</ele><time>2026-04-29T11:58:34.764Z</time></trkpt><trkpt lat="45.6867221" lon="9.4452755"><ele>275.0</ele><time>2026-04-29T11:58:35.764Z</time></trkpt><trkpt lat="45.686592" lon="9.4452941"><ele>275.0</ele><time>2026-04-29T11:58:37.764Z</time></trkpt><trkpt lat="45.6865153" lon="9.4452609"><ele>274.8</ele><time>2026-04-29T11:58:38.764Z</time></trkpt><trkpt lat="45.6864114" lon="9.4452449"><ele>274.6</ele><time>2026-04-29T11:58:39.764Z</time></trkpt><trkpt lat="45.6863307" lon="9.4452211"><ele>274.4</ele><time>2026-04-29T11:58:40.764Z</time></trkpt><trkpt lat="45.6861886" lon="9.4451828"><ele>274.2</ele><time>2026-04-29T11:58:42.764Z</time></trkpt><trkpt lat="45.686114" lon="9.4451823"><ele>274.0</ele><time>2026-04-29T11:58:43.764Z</time></trkpt><trkpt lat="45.6860428" lon="9.4451792"><ele>273.66666666666663</ele><time>2026-04-29T11:58:44.764Z</time></trkpt><trkpt lat="45.6859552" lon="9.4451663"><ele>273.3333333333333</ele><time>2026-04-29T11:58:45.764Z</time></trkpt><trkpt lat="45.68589" lon="9.4451422"><ele>273.0</ele><time>2026-04-29T11:58:46.764Z</time></trkpt><trkpt lat="45.6858119" lon="9.4451348"><ele>272.6666666666667</ele><time>2026-04-29T11:58:47.764Z</time></trkpt><trkpt lat="45.6857354" lon="9.4451175"><ele>272.33333333333337</ele><time>2026-04-29T11:58:48.764Z</time></trkpt><trkpt lat="45.6856472" lon="9.4450854"><ele>272.0</ele><time>2026-04-29T11:58:49.764Z</time></trkpt><trkpt lat="45.6855776" lon="9.4450715"><ele>272.0</ele><time>2026-04-29T11:58:50.764Z</time></trkpt><trkpt lat="45.6854878" lon="9.4450414"><ele>272.0</ele><time>2026-04-29T11:58:51.764Z</time></trkpt><trkpt lat="45.6854056" lon="9.445011"><ele>272.0</ele><time>2026-04-29T11:58:52.764Z</time></trkpt><trkpt lat="45.6853331" lon="9.44498"><ele>272.0</ele><time>2026-04-29T11:58:53.764Z</time></trkpt><trkpt lat="45.6852517" lon="9.4449625"><ele>272.0</ele><time>2026-04-29T11:58:54.764Z</time></trkpt><trkpt lat="45.6851759" lon="9.444944"><ele>272.0</ele><time>2026-04-29T11:58:55.764Z</time></trkpt><trkpt lat="45.6851015" lon="9.4449285"><ele>272.1666666666667</ele><time>2026-04-29T11:58:56.764Z</time></trkpt><trkpt lat="45.6850347" lon="9.4449103"><ele>272.33333333333337</ele><time>2026-04-29T11:58:57.764Z</time></trkpt><trkpt lat="45.6849723" lon="9.4448943"><ele>272.5</ele><time>2026-04-29T11:58:58.764Z</time></trkpt><trkpt lat="45.6848541" lon="9.4448521"><ele>272.6666666666667</ele><time>2026-04-29T11:59:00.764Z</time></trkpt><trkpt lat="45.6847489" lon="9.4447792"><ele>272.8333333333333</ele><time>2026-04-29T11:59:02.764Z</time></trkpt><trkpt lat="45.6847516" lon="9.444684"><ele>273.0</ele><time>2026-04-29T11:59:04.764Z</time></trkpt><trkpt lat="45.6847977" lon="9.4446088"><ele>273.5</ele><time>2026-04-29T11:59:06.764Z</time></trkpt><trkpt lat="45.6848627" lon="9.4445196"><ele>274.0</ele><time>2026-04-29T11:59:08.763Z</time></trkpt><trkpt lat="45.6849021" lon="9.4444142"><ele>274.5</ele><time>2026-04-29T11:59:10.764Z</time></trkpt><trkpt lat="45.684927" lon="9.4442883"><ele>275.0</ele><time>2026-04-29T11:59:12.764Z</time></trkpt><trkpt lat="45.6849621" lon="9.444178"><ele>275.5</ele><time>2026-04-29T11:59:14.764Z</time></trkpt><trkpt lat="45.6850033" lon="9.4440757"><ele>276.0</ele><time>2026-04-29T11:59:16.764Z</time></trkpt><trkpt lat="45.6850412" lon="9.4439821"><ele>276.0</ele><time>2026-04-29T11:59:18.764Z</time></trkpt><trkpt lat="45.6850916" lon="9.4438892"><ele>276.0</ele><time>2026-04-29T11:59:20.764Z</time></trkpt><trkpt lat="45.6851484" lon="9.4437671"><ele>276.0</ele><time>2026-04-29T11:59:22.764Z</time></trkpt><trkpt lat="45.685204" lon="9.4436553"><ele>276.0</ele><time>2026-04-29T11:59:24.764Z</time></trkpt><trkpt lat="45.6852592" lon="9.4435485"><ele>276.0</ele><time>2026-04-29T11:59:26.764Z</time></trkpt><trkpt lat="45.6853187" lon="9.4434386"><ele>277.2</ele><time>2026-04-29T11:59:28.764Z</time></trkpt><trkpt lat="45.6853817" lon="9.4433209"><ele>278.40000000000003</ele><time>2026-04-29T11:59:30.764Z</time></trkpt><trkpt lat="45.6854502" lon="9.4431995"><ele>279.6</ele><time>2026-04-29T11:59:32.764Z</time></trkpt><trkpt lat="45.6855022" lon="9.4430825"><ele>280.8</ele><time>2026-04-29T11:59:34.764Z</time></trkpt><trkpt lat="45.6855365" lon="9.4429648"><ele>282.0</ele><time>2026-04-29T11:59:36.763Z</time></trkpt><trkpt lat="45.6855686" lon="9.4428755"><ele>282.0</ele><time>2026-04-29T11:59:38.764Z</time></trkpt><trkpt lat="45.6855979" lon="9.4427143"><ele>282.0</ele><time>2026-04-29T11:59:40.764Z</time></trkpt><trkpt lat="45.6856311" lon="9.4425616"><ele>282.0</ele><time>2026-04-29T11:59:42.764Z</time></trkpt><trkpt lat="45.6856636" lon="9.4424241"><ele>282.0</ele><time>2026-04-29T11:59:44.764Z</time></trkpt><trkpt lat="45.6856878" lon="9.4422705"><ele>282.0</ele><time>2026-04-29T11:59:46.764Z</time></trkpt><trkpt lat="45.6857085" lon="9.442108"><ele>282.2</ele><time>2026-04-29T11:59:48.764Z</time></trkpt><trkpt lat="45.6857511" lon="9.4418756"><ele>282.4</ele><time>2026-04-29T11:59:51.764Z</time></trkpt><trkpt lat="45.6858038" lon="9.4417603"><ele>282.6</ele><time>2026-04-29T11:59:53.763Z</time></trkpt><trkpt lat="45.6858999" lon="9.4417193"><ele>282.8</ele><time>2026-04-29T11:59:55.764Z</time></trkpt><trkpt lat="45.6859675" lon="9.4417371"><ele>283.0</ele><time>2026-04-29T11:59:56.764Z</time></trkpt><trkpt lat="45.6860291" lon="9.4417621"><ele>283.0</ele><time>2026-04-29T11:59:57.764Z</time></trkpt><trkpt lat="45.6860928" lon="9.4417931"><ele>283.0</ele><time>2026-04-29T11:59:58.763Z</time></trkpt><trkpt lat="45.6861571" lon="9.4418229"><ele>283.0</ele><time>2026-04-29T11:59:59.764Z</time></trkpt><trkpt lat="45.6862195" lon="9.4418543"><ele>283.0</ele><time>2026-04-29T12:00:00.764Z</time></trkpt><trkpt lat="45.6862919" lon="9.4418842"><ele>283.0</ele><time>2026-04-29T12:00:01.764Z</time></trkpt><trkpt lat="45.686356" lon="9.441897"><ele>283.0</ele><time>2026-04-29T12:00:02.764Z</time></trkpt><trkpt lat="45.6864628" lon="9.4418663"><ele>281.2</ele><time>2026-04-29T12:00:04.764Z</time></trkpt><trkpt lat="45.6865359" lon="9.4417676"><ele>279.4</ele><time>2026-04-29T12:00:06.764Z</time></trkpt><trkpt lat="45.6865683" lon="9.4416296"><ele>277.59999999999997</ele><time>2026-04-29T12:00:08.763Z</time></trkpt><trkpt lat="45.6865834" lon="9.4415281"><ele>275.8</ele><time>2026-04-29T12:00:09.764Z</time></trkpt><trkpt lat="45.6866001" lon="9.4414146"><ele>274.0</ele><time>2026-04-29T12:00:10.763Z</time></trkpt><trkpt lat="45.6866301" lon="9.4412857"><ele>273.0</ele><time>2026-04-29T12:00:11.764Z</time></trkpt><trkpt lat="45.6866537" lon="9.4411629"><ele>272.0</ele><time>2026-04-29T12:00:12.764Z</time></trkpt><trkpt lat="45.6866787" lon="9.4410464"><ele>271.0</ele><time>2026-04-29T12:00:13.764Z</time></trkpt><trkpt lat="45.6867044" lon="9.4409216"><ele>270.0</ele><time>2026-04-29T12:00:14.764Z</time></trkpt><trkpt lat="45.6867344" lon="9.4407994"><ele>269.0</ele><time>2026-04-29T12:00:15.764Z</time></trkpt><trkpt lat="45.6867662" lon="9.4406775"><ele>268.0</ele><time>2026-04-29T12:00:16.764Z</time></trkpt><trkpt lat="45.6867966" lon="9.4405606"><ele>267.8333333333333</ele><time>2026-04-29T12:00:17.763Z</time></trkpt><trkpt lat="45.6868215" lon="9.4404563"><ele>267.66666666666663</ele><time>2026-04-29T12:00:18.764Z</time></trkpt><trkpt lat="45.6868412" lon="9.4403608"><ele>267.5</ele><time>2026-04-29T12:00:19.764Z</time></trkpt><trkpt lat="45.686874" lon="9.4401988"><ele>267.3333333333333</ele><time>2026-04-29T12:00:21.764Z</time></trkpt><trkpt lat="45.6868958" lon="9.4401141"><ele>267.1666666666667</ele><time>2026-04-29T12:00:22.764Z</time></trkpt><trkpt lat="45.6869235" lon="9.4400204"><ele>267.0</ele><time>2026-04-29T12:00:23.764Z</time></trkpt><trkpt lat="45.6869507" lon="9.4399235"><ele>267.0</ele><time>2026-04-29T12:00:24.764Z</time></trkpt><trkpt lat="45.6869778" lon="9.4398262"><ele>267.0</ele><time>2026-04-29T12:00:25.764Z</time></trkpt><trkpt lat="45.6870016" lon="9.4397347"><ele>267.0</ele><time>2026-04-29T12:00:26.764Z</time></trkpt><trkpt lat="45.6870281" lon="9.439643"><ele>267.0</ele><time>2026-04-29T12:00:27.764Z</time></trkpt><trkpt lat="45.6870516" lon="9.4395544"><ele>267.0</ele><time>2026-04-29T12:00:28.763Z</time></trkpt><trkpt lat="45.687086" lon="9.4393957"><ele>267.0</ele><time>2026-04-29T12:00:30.764Z</time></trkpt><trkpt lat="45.6871065" lon="9.4392812"><ele>266.8</ele><time>2026-04-29T12:00:32.764Z</time></trkpt><trkpt lat="45.6870956" lon="9.4391647"><ele>266.6</ele><time>2026-04-29T12:00:35.764Z</time></trkpt><trkpt lat="45.687012" lon="9.4391005"><ele>266.40000000000003</ele><time>2026-04-29T12:00:37.764Z</time></trkpt><trkpt lat="45.6869128" lon="9.4390531"><ele>266.2</ele><time>2026-04-29T12:00:39.764Z</time></trkpt><trkpt lat="45.6868021" lon="9.4389909"><ele>266.0</ele><time>2026-04-29T12:00:41.763Z</time></trkpt><trkpt lat="45.6867452" lon="9.4389412"><ele>265.85714285714283</ele><time>2026-04-29T12:00:42.763Z</time></trkpt><trkpt lat="45.6866892" lon="9.4388939"><ele>265.7142857142857</ele><time>2026-04-29T12:00:43.764Z</time></trkpt><trkpt lat="45.6866237" lon="9.438867"><ele>265.57142857142856</ele><time>2026-04-29T12:00:44.764Z</time></trkpt><trkpt lat="45.6865579" lon="9.4388346"><ele>265.42857142857144</ele><time>2026-04-29T12:00:45.764Z</time></trkpt><trkpt lat="45.6864965" lon="9.4388054"><ele>265.2857142857143</ele><time>2026-04-29T12:00:46.764Z</time></trkpt><trkpt lat="45.686433" lon="9.438766"><ele>265.1428571428571</ele><time>2026-04-29T12:00:47.764Z</time></trkpt><trkpt lat="45.686367" lon="9.4387273"><ele>265.0</ele><time>2026-04-29T12:00:48.764Z</time></trkpt><trkpt lat="45.6863037" lon="9.4386929"><ele>265.0</ele><time>2026-04-29T12:00:49.764Z</time></trkpt><trkpt lat="45.6862372" lon="9.4386612"><ele>265.0</ele><time>2026-04-29T12:00:50.764Z</time></trkpt><trkpt lat="45.6861671" lon="9.4386259"><ele>265.0</ele><time>2026-04-29T12:00:51.764Z</time></trkpt><trkpt lat="45.6861041" lon="9.4385888"><ele>265.0</ele><time>2026-04-29T12:00:52.764Z</time></trkpt><trkpt lat="45.6859881" lon="9.4385308"><ele>265.0</ele><time>2026-04-29T12:00:54.764Z</time></trkpt><trkpt lat="45.6859291" lon="9.4384955"><ele>265.0</ele><time>2026-04-29T12:00:55.764Z</time></trkpt><trkpt lat="45.6858686" lon="9.4384653"><ele>265.16666666666663</ele><time>2026-04-29T12:00:56.764Z</time></trkpt><trkpt lat="45.6857863" lon="9.4384262"><ele>265.3333333333333</ele><time>2026-04-29T12:00:58.764Z</time></trkpt><trkpt lat="45.6857428" lon="9.4383457"><ele>265.5</ele><time>2026-04-29T12:01:47.764Z</time></trkpt><trkpt lat="45.6856693" lon="9.4383474"><ele>265.6666666666667</ele><time>2026-04-29T12:01:49.764Z</time></trkpt><trkpt lat="45.6856225" lon="9.4384083"><ele>265.83333333333337</ele><time>2026-04-29T12:01:50.764Z</time></trkpt><trkpt lat="45.685564" lon="9.4385381"><ele>266.0</ele><time>2026-04-29T12:01:52.764Z</time></trkpt><trkpt lat="45.6855135" lon="9.4386993"><ele>265.8</ele><time>2026-04-29T12:01:54.764Z</time></trkpt><trkpt lat="45.6854688" lon="9.438856"><ele>265.6</ele><time>2026-04-29T12:01:56.764Z</time></trkpt><trkpt lat="45.6854211" lon="9.4390208"><ele>265.4</ele><time>2026-04-29T12:01:58.764Z</time></trkpt><trkpt lat="45.6853718" lon="9.4391855"><ele>265.2</ele><time>2026-04-29T12:02:00.764Z</time></trkpt><trkpt lat="45.6853445" lon="9.4392729"><ele>265.0</ele><time>2026-04-29T12:02:01.764Z</time></trkpt><trkpt lat="45.6853201" lon="9.4393602"><ele>264.99999999999994</ele><time>2026-04-29T12:02:02.764Z</time></trkpt><trkpt lat="45.6852973" lon="9.4394458"><ele>265.0</ele><time>2026-04-29T12:02:03.764Z</time></trkpt><trkpt lat="45.6852725" lon="9.4395337"><ele>265.0</ele><time>2026-04-29T12:02:04.764Z</time></trkpt><trkpt lat="45.6852483" lon="9.4396291"><ele>265.0</ele><time>2026-04-29T12:02:05.764Z</time></trkpt><trkpt lat="45.6852229" lon="9.4397183"><ele>265.0</ele><time>2026-04-29T12:02:06.764Z</time></trkpt><trkpt lat="45.685194" lon="9.439813"><ele>264.99999999999994</ele><time>2026-04-29T12:02:07.764Z</time></trkpt><trkpt lat="45.6851601" lon="9.43991"><ele>265.0</ele><time>2026-04-29T12:02:08.764Z</time></trkpt><trkpt lat="45.6851243" lon="9.439998"><ele>265.2857142857143</ele><time>2026-04-29T12:02:09.764Z</time></trkpt><trkpt lat="45.6850864" lon="9.4400856"><ele>265.57142857142856</ele><time>2026-04-29T12:02:10.764Z</time></trkpt><trkpt lat="45.6850471" lon="9.4401683"><ele>265.8571428571429</ele><time>2026-04-29T12:02:11.764Z</time></trkpt><trkpt lat="45.6850054" lon="9.44025"><ele>266.1428571428571</ele><time>2026-04-29T12:02:12.764Z</time></trkpt><trkpt lat="45.6849626" lon="9.4403308"><ele>266.42857142857144</ele><time>2026-04-29T12:02:13.764Z</time></trkpt><trkpt lat="45.684919" lon="9.4404163"><ele>266.7142857142857</ele><time>2026-04-29T12:02:14.764Z</time></trkpt><trkpt lat="45.6848718" lon="9.4404983"><ele>267.0</ele><time>2026-04-29T12:02:15.764Z</time></trkpt><trkpt lat="45.6848251" lon="9.4405823"><ele>268.0</ele><time>2026-04-29T12:02:16.764Z</time></trkpt><trkpt lat="45.6847838" lon="9.4406655"><ele>269.0</ele><time>2026-04-29T12:02:17.764Z</time></trkpt><trkpt lat="45.6846955" lon="9.440791"><ele>270.0</ele><time>2026-04-29T12:02:19.764Z</time></trkpt><trkpt lat="45.6846264" lon="9.4408481"><ele>271.0</ele><time>2026-04-29T12:02:20.764Z</time></trkpt><trkpt lat="45.6845724" lon="9.4409087"><ele>272.0</ele><time>2026-04-29T12:02:21.764Z</time></trkpt><trkpt lat="45.6845246" lon="9.4409795"><ele>273.0</ele><time>2026-04-29T12:02:22.764Z</time></trkpt><trkpt lat="45.6844846" lon="9.4410626"><ele>273.0</ele><time>2026-04-29T12:02:23.764Z</time></trkpt><trkpt lat="45.6844509" lon="9.4411503"><ele>273.0</ele><time>2026-04-29T12:02:24.764Z</time></trkpt><trkpt lat="45.6844159" lon="9.4412466"><ele>273.0</ele><time>2026-04-29T12:02:25.764Z</time></trkpt><trkpt lat="45.6843834" lon="9.4413326"><ele>273.0</ele><time>2026-04-29T12:02:26.764Z</time></trkpt><trkpt lat="45.6843524" lon="9.4414295"><ele>273.0</ele><time>2026-04-29T12:02:27.764Z</time></trkpt><trkpt lat="45.6843157" lon="9.4415176"><ele>273.0</ele><time>2026-04-29T12:02:28.764Z</time></trkpt><trkpt lat="45.6842822" lon="9.4416007"><ele>273.0</ele><time>2026-04-29T12:02:29.764Z</time></trkpt><trkpt lat="45.6842415" lon="9.4416835"><ele>273.2857142857143</ele><time>2026-04-29T12:02:30.764Z</time></trkpt><trkpt lat="45.6842041" lon="9.4417807"><ele>273.57142857142856</ele><time>2026-04-29T12:02:31.764Z</time></trkpt><trkpt lat="45.6841751" lon="9.4418681"><ele>273.8571428571429</ele><time>2026-04-29T12:02:32.764Z</time></trkpt><trkpt lat="45.6841262" lon="9.4419633"><ele>274.1428571428571</ele><time>2026-04-29T12:02:33.764Z</time></trkpt><trkpt lat="45.6840847" lon="9.4420516"><ele>274.42857142857144</ele><time>2026-04-29T12:02:34.763Z</time></trkpt><trkpt lat="45.6840468" lon="9.4421438"><ele>274.7142857142857</ele><time>2026-04-29T12:02:35.764Z</time></trkpt><trkpt lat="45.6840036" lon="9.442221"><ele>275.0</ele><time>2026-04-29T12:02:36.764Z</time></trkpt><trkpt lat="45.6839685" lon="9.4423022"><ele>275.0</ele><time>2026-04-29T12:02:37.764Z</time></trkpt><trkpt lat="45.6839305" lon="9.4423901"><ele>275.0</ele><time>2026-04-29T12:02:38.764Z</time></trkpt><trkpt lat="45.6838934" lon="9.4424791"><ele>275.0</ele><time>2026-04-29T12:02:39.764Z</time></trkpt><trkpt lat="45.6838581" lon="9.4425607"><ele>275.0</ele><time>2026-04-29T12:02:40.764Z</time></trkpt><trkpt lat="45.6838128" lon="9.442642"><ele>275.0</ele><time>2026-04-29T12:02:41.764Z</time></trkpt><trkpt lat="45.6837767" lon="9.4427243"><ele>275.0</ele><time>2026-04-29T12:02:42.764Z</time></trkpt><trkpt lat="45.6837414" lon="9.442814"><ele>275.0</ele><time>2026-04-29T12:02:43.764Z</time></trkpt><trkpt lat="45.6836797" lon="9.442991"><ele>275.2857142857143</ele><time>2026-04-29T12:02:45.764Z</time></trkpt><trkpt lat="45.6836174" lon="9.4430705"><ele>275.57142857142856</ele><time>2026-04-29T12:02:46.764Z</time></trkpt><trkpt lat="45.6835801" lon="9.4431588"><ele>275.85714285714283</ele><time>2026-04-29T12:02:47.764Z</time></trkpt><trkpt lat="45.683542" lon="9.443243"><ele>276.1428571428571</ele><time>2026-04-29T12:02:48.764Z</time></trkpt><trkpt lat="45.6835046" lon="9.4433379"><ele>276.4285714285714</ele><time>2026-04-29T12:02:49.764Z</time></trkpt><trkpt lat="45.6834774" lon="9.4434215"><ele>276.7142857142857</ele><time>2026-04-29T12:02:50.764Z</time></trkpt><trkpt lat="45.6834413" lon="9.4435045"><ele>277.0</ele><time>2026-04-29T12:02:51.764Z</time></trkpt><trkpt lat="45.6833992" lon="9.4435902"><ele>276.5</ele><time>2026-04-29T12:02:52.764Z</time></trkpt><trkpt lat="45.6833599" lon="9.4436692"><ele>276.0</ele><time>2026-04-29T12:02:53.764Z</time></trkpt><trkpt lat="45.6833067" lon="9.443754"><ele>275.5</ele><time>2026-04-29T12:02:54.764Z</time></trkpt><trkpt lat="45.6832663" lon="9.4438349"><ele>275.0</ele><time>2026-04-29T12:02:55.764Z</time></trkpt><trkpt lat="45.6832036" lon="9.4440104"><ele>274.5</ele><time>2026-04-29T12:02:57.764Z</time></trkpt><trkpt lat="45.68317" lon="9.4440996"><ele>274.0</ele><time>2026-04-29T12:02:58.764Z</time></trkpt><trkpt lat="45.683128" lon="9.4441834"><ele>274.0</ele><time>2026-04-29T12:02:59.764Z</time></trkpt><trkpt lat="45.683093" lon="9.4442652"><ele>274.0</ele><time>2026-04-29T12:03:00.764Z</time></trkpt><trkpt lat="45.6830511" lon="9.4443539"><ele>274.0</ele><time>2026-04-29T12:03:01.764Z</time></trkpt><trkpt lat="45.6830201" lon="9.4444337"><ele>274.0</ele><time>2026-04-29T12:03:02.764Z</time></trkpt><trkpt lat="45.6829544" lon="9.4444834"><ele>274.0</ele><time>2026-04-29T12:03:03.764Z</time></trkpt><trkpt lat="45.6828465" lon="9.4445535"><ele>274.0</ele><time>2026-04-29T12:03:05.764Z</time></trkpt><trkpt lat="45.6827837" lon="9.4445792"><ele>273.5</ele><time>2026-04-29T12:03:06.764Z</time></trkpt><trkpt lat="45.6826947" lon="9.444607"><ele>273.0</ele><time>2026-04-29T12:03:08.764Z</time></trkpt><trkpt lat="45.6825591" lon="9.4446502"><ele>272.5</ele><time>2026-04-29T12:03:10.764Z</time></trkpt><trkpt lat="45.6823862" lon="9.4446513"><ele>272.0</ele><time>2026-04-29T12:03:12.764Z</time></trkpt><trkpt lat="45.6822767" lon="9.4447069"><ele>272.0</ele><time>2026-04-29T12:03:14.764Z</time></trkpt><trkpt lat="45.6822015" lon="9.4447056"><ele>272.0</ele><time>2026-04-29T12:03:15.764Z</time></trkpt><trkpt lat="45.6821384" lon="9.444688"><ele>272.0</ele><time>2026-04-29T12:03:16.764Z</time></trkpt><trkpt lat="45.6820384" lon="9.4446572"><ele>272.0</ele><time>2026-04-29T12:03:17.763Z</time></trkpt><trkpt lat="45.6819507" lon="9.4446393"><ele>272.0</ele><time>2026-04-29T12:03:18.764Z</time></trkpt><trkpt lat="45.6818617" lon="9.444651"><ele>272.0</ele><time>2026-04-29T12:03:19.764Z</time></trkpt><trkpt lat="45.6817212" lon="9.4446485"><ele>272.0</ele><time>2026-04-29T12:03:21.764Z</time></trkpt><trkpt lat="45.6816442" lon="9.4446358"><ele>272.0</ele><time>2026-04-29T12:03:22.764Z</time></trkpt><trkpt lat="45.6815725" lon="9.4446178"><ele>272.0</ele><time>2026-04-29T12:03:23.764Z</time></trkpt><trkpt lat="45.6814999" lon="9.4446246"><ele>272.0</ele><time>2026-04-29T12:03:24.764Z</time></trkpt><trkpt lat="45.6813616" lon="9.4445692"><ele>272.0</ele><time>2026-04-29T12:03:26.764Z</time></trkpt><trkpt lat="45.681257" lon="9.4446114"><ele>271.8</ele><time>2026-04-29T12:03:28.764Z</time></trkpt><trkpt lat="45.6811353" lon="9.4446216"><ele>271.6</ele><time>2026-04-29T12:03:30.764Z</time></trkpt><trkpt lat="45.681062" lon="9.4445933"><ele>271.40000000000003</ele><time>2026-04-29T12:03:31.764Z</time></trkpt><trkpt lat="45.680943" lon="9.4445958"><ele>271.2</ele><time>2026-04-29T12:03:33.764Z</time></trkpt><trkpt lat="45.6808437" lon="9.4445509"><ele>271.0</ele><time>2026-04-29T12:03:35.764Z</time></trkpt><trkpt lat="45.6807654" lon="9.4445123"><ele>270.8333333333333</ele><time>2026-04-29T12:03:36.764Z</time></trkpt><trkpt lat="45.6806822" lon="9.4444861"><ele>270.66666666666663</ele><time>2026-04-29T12:03:37.764Z</time></trkpt><trkpt lat="45.6805998" lon="9.4444655"><ele>270.5</ele><time>2026-04-29T12:03:38.764Z</time></trkpt><trkpt lat="45.6805331" lon="9.4444519"><ele>270.3333333333333</ele><time>2026-04-29T12:03:39.764Z</time></trkpt><trkpt lat="45.6804048" lon="9.4444397"><ele>270.1666666666667</ele><time>2026-04-29T12:03:41.763Z</time></trkpt><trkpt lat="45.6803319" lon="9.4444079"><ele>270.0</ele><time>2026-04-29T12:03:42.764Z</time></trkpt><trkpt lat="45.6802641" lon="9.4444182"><ele>270.0</ele><time>2026-04-29T12:03:43.764Z</time></trkpt><trkpt lat="45.6801718" lon="9.4444194"><ele>270.0</ele><time>2026-04-29T12:03:44.764Z</time></trkpt><trkpt lat="45.6800938" lon="9.444406"><ele>270.0</ele><time>2026-04-29T12:03:45.764Z</time></trkpt><trkpt lat="45.6800284" lon="9.4444115"><ele>270.0</ele><time>2026-04-29T12:03:46.763Z</time></trkpt><trkpt lat="45.6798838" lon="9.4444232"><ele>270.0</ele><time>2026-04-29T12:03:48.764Z</time></trkpt><trkpt lat="45.6798218" lon="9.4443682"><ele>270.0</ele><time>2026-04-29T12:03:49.764Z</time></trkpt><trkpt lat="45.6797386" lon="9.4443515"><ele>270.0</ele><time>2026-04-29T12:03:50.764Z</time></trkpt><trkpt lat="45.6796712" lon="9.4443269"><ele>270.0</ele><time>2026-04-29T12:03:51.764Z</time></trkpt><trkpt lat="45.6796019" lon="9.4443047"><ele>270.0</ele><time>2026-04-29T12:03:52.764Z</time></trkpt><trkpt lat="45.6795259" lon="9.4443032"><ele>270.0</ele><time>2026-04-29T12:03:53.764Z</time></trkpt><trkpt lat="45.6793843" lon="9.4442605"><ele>270.0</ele><time>2026-04-29T12:03:55.764Z</time></trkpt><trkpt lat="45.6793085" lon="9.4442124"><ele>269.57142857142856</ele><time>2026-04-29T12:03:56.764Z</time></trkpt><trkpt lat="45.6792421" lon="9.4441995"><ele>269.1428571428571</ele><time>2026-04-29T12:03:57.764Z</time></trkpt><trkpt lat="45.679154" lon="9.4441749"><ele>268.7142857142857</ele><time>2026-04-29T12:03:58.764Z</time></trkpt><trkpt lat="45.6790761" lon="9.4441568"><ele>268.2857142857143</ele><time>2026-04-29T12:03:59.764Z</time></trkpt><trkpt lat="45.6790063" lon="9.4441561"><ele>267.8571428571429</ele><time>2026-04-29T12:04:00.764Z</time></trkpt><trkpt lat="45.6789456" lon="9.4441856"><ele>267.42857142857144</ele><time>2026-04-29T12:04:01.764Z</time></trkpt><trkpt lat="45.6788745" lon="9.4441915"><ele>267.0</ele><time>2026-04-29T12:04:02.764Z</time></trkpt><trkpt lat="45.6787959" lon="9.4441858"><ele>267.0</ele><time>2026-04-29T12:04:03.764Z</time></trkpt><trkpt lat="45.6787106" lon="9.4441597"><ele>267.0</ele><time>2026-04-29T12:04:04.764Z</time></trkpt><trkpt lat="45.6786141" lon="9.4441259"><ele>267.0</ele><time>2026-04-29T12:04:05.764Z</time></trkpt><trkpt lat="45.6785234" lon="9.4441112"><ele>267.0</ele><time>2026-04-29T12:04:06.764Z</time></trkpt><trkpt lat="45.6784359" lon="9.4440816"><ele>267.0</ele><time>2026-04-29T12:04:07.764Z</time></trkpt><trkpt lat="45.6783395" lon="9.4440511"><ele>267.0</ele><time>2026-04-29T12:04:08.764Z</time></trkpt><trkpt lat="45.678253" lon="9.4440253"><ele>267.0</ele><time>2026-04-29T12:04:09.764Z</time></trkpt><trkpt lat="45.6781684" lon="9.4440159"><ele>267.0</ele><time>2026-04-29T12:04:10.764Z</time></trkpt><trkpt lat="45.6780534" lon="9.4440093"><ele>267.0</ele><time>2026-04-29T12:04:11.764Z</time></trkpt><trkpt lat="45.6779769" lon="9.4440028"><ele>267.0</ele><time>2026-04-29T12:04:12.764Z</time></trkpt><trkpt lat="45.6778708" lon="9.443983"><ele>267.0</ele><time>2026-04-29T12:04:13.764Z</time></trkpt><trkpt lat="45.6777934" lon="9.443971"><ele>267.0</ele><time>2026-04-29T12:04:14.764Z</time></trkpt><trkpt lat="45.6776972" lon="9.4439348"><ele>267.0</ele><time>2026-04-29T12:04:15.764Z</time></trkpt><trkpt lat="45.6776103" lon="9.4439231"><ele>267.0</ele><time>2026-04-29T12:04:16.764Z</time></trkpt><trkpt lat="45.677527" lon="9.4438935"><ele>267.0</ele><time>2026-04-29T12:04:17.764Z</time></trkpt><trkpt lat="45.6774421" lon="9.4438736"><ele>267.0</ele><time>2026-04-29T12:04:18.764Z</time></trkpt><trkpt lat="45.6773528" lon="9.4438591"><ele>266.8333333333333</ele><time>2026-04-29T12:04:19.764Z</time></trkpt><trkpt lat="45.6772659" lon="9.4438444"><ele>266.6666666666667</ele><time>2026-04-29T12:04:20.764Z</time></trkpt><trkpt lat="45.677179" lon="9.4438365"><ele>266.5</ele><time>2026-04-29T12:04:21.764Z</time></trkpt><trkpt lat="45.6770988" lon="9.4438194"><ele>266.33333333333337</ele><time>2026-04-29T12:04:22.763Z</time></trkpt><trkpt lat="45.6770075" lon="9.4437971"><ele>266.1666666666667</ele><time>2026-04-29T12:04:23.764Z</time></trkpt><trkpt lat="45.6769308" lon="9.4437763"><ele>266.0</ele><time>2026-04-29T12:04:24.764Z</time></trkpt><trkpt lat="45.6768539" lon="9.4437754"><ele>265.83333333333337</ele><time>2026-04-29T12:04:25.764Z</time></trkpt><trkpt lat="45.6767686" lon="9.4437379"><ele>265.6666666666667</ele><time>2026-04-29T12:04:26.764Z</time></trkpt><trkpt lat="45.6766797" lon="9.4437"><ele>265.5</ele><time>2026-04-29T12:04:27.764Z</time></trkpt><trkpt lat="45.6765912" lon="9.4436674"><ele>265.3333333333333</ele><time>2026-04-29T12:04:28.763Z</time></trkpt><trkpt lat="45.6765135" lon="9.443633"><ele>265.16666666666663</ele><time>2026-04-29T12:04:29.764Z</time></trkpt><trkpt lat="45.6764258" lon="9.4435821"><ele>265.0</ele><time>2026-04-29T12:04:30.764Z</time></trkpt><trkpt lat="45.6763432" lon="9.4435432"><ele>265.0</ele><time>2026-04-29T12:04:31.764Z</time></trkpt><trkpt lat="45.6762637" lon="9.4435255"><ele>265.0</ele><time>2026-04-29T12:04:32.764Z</time></trkpt><trkpt lat="45.6761936" lon="9.4434858"><ele>265.0</ele><time>2026-04-29T12:04:33.764Z</time></trkpt><trkpt lat="45.6760885" lon="9.4434447"><ele>265.0</ele><time>2026-04-29T12:04:34.764Z</time></trkpt><trkpt lat="45.6759961" lon="9.4434228"><ele>265.0</ele><time>2026-04-29T12:04:35.764Z</time></trkpt><trkpt lat="45.6759147" lon="9.4433946"><ele>265.0</ele><time>2026-04-29T12:04:36.764Z</time></trkpt><trkpt lat="45.6758188" lon="9.4433707"><ele>264.8</ele><time>2026-04-29T12:04:37.764Z</time></trkpt><trkpt lat="45.6757261" lon="9.4433358"><ele>264.6</ele><time>2026-04-29T12:04:38.764Z</time></trkpt><trkpt lat="45.6756409" lon="9.4433026"><ele>264.4</ele><time>2026-04-29T12:04:39.764Z</time></trkpt><trkpt lat="45.6755455" lon="9.4432892"><ele>264.2</ele><time>2026-04-29T12:04:40.764Z</time></trkpt><trkpt lat="45.675455" lon="9.4432722"><ele>264.0</ele><time>2026-04-29T12:04:41.764Z</time></trkpt><trkpt lat="45.6753714" lon="9.44324"><ele>264.0</ele><time>2026-04-29T12:04:42.764Z</time></trkpt><trkpt lat="45.675288" lon="9.4432263"><ele>264.0</ele><time>2026-04-29T12:04:43.764Z</time></trkpt><trkpt lat="45.6752001" lon="9.4431791"><ele>264.0</ele><time>2026-04-29T12:04:44.764Z</time></trkpt><trkpt lat="45.6751102" lon="9.4431382"><ele>264.0</ele><time>2026-04-29T12:04:45.764Z</time></trkpt><trkpt lat="45.6750191" lon="9.443107"><ele>264.0</ele><time>2026-04-29T12:04:46.764Z</time></trkpt><trkpt lat="45.6749358" lon="9.4430758"><ele>263.6666666666667</ele><time>2026-04-29T12:04:47.764Z</time></trkpt><trkpt lat="45.6748356" lon="9.4430454"><ele>263.3333333333333</ele><time>2026-04-29T12:04:48.764Z</time></trkpt><trkpt lat="45.6747489" lon="9.4430122"><ele>263.0</ele><time>2026-04-29T12:04:49.764Z</time></trkpt><trkpt lat="45.6746619" lon="9.442975"><ele>262.66666666666663</ele><time>2026-04-29T12:04:50.764Z</time></trkpt><trkpt lat="45.6745769" lon="9.442944"><ele>262.3333333333333</ele><time>2026-04-29T12:04:51.764Z</time></trkpt><trkpt lat="45.6745043" lon="9.4429223"><ele>262.0</ele><time>2026-04-29T12:04:52.764Z</time></trkpt><trkpt lat="45.674431" lon="9.4428944"><ele>261.8333333333333</ele><time>2026-04-29T12:04:53.764Z</time></trkpt><trkpt lat="45.6743646" lon="9.4428776"><ele>261.66666666666663</ele><time>2026-04-29T12:04:54.764Z</time></trkpt><trkpt lat="45.6742927" lon="9.4428507"><ele>261.5</ele><time>2026-04-29T12:04:55.763Z</time></trkpt><trkpt lat="45.6741705" lon="9.44281"><ele>261.3333333333333</ele><time>2026-04-29T12:04:57.764Z</time></trkpt><trkpt lat="45.6740758" lon="9.442834"><ele>261.1666666666667</ele><time>2026-04-29T12:04:59.764Z</time></trkpt><trkpt lat="45.6740107" lon="9.442797"><ele>261.0</ele><time>2026-04-29T12:05:01.764Z</time></trkpt><trkpt lat="45.6739394" lon="9.442736"><ele>261.0</ele><time>2026-04-29T12:05:03.764Z</time></trkpt><trkpt lat="45.673833" lon="9.4426625"><ele>261.0</ele><time>2026-04-29T12:05:05.764Z</time></trkpt><trkpt lat="45.6737687" lon="9.4426207"><ele>261.0</ele><time>2026-04-29T12:05:06.764Z</time></trkpt><trkpt lat="45.6737057" lon="9.4425411"><ele>261.0</ele><time>2026-04-29T12:05:07.764Z</time></trkpt><trkpt lat="45.6736622" lon="9.442475"><ele>261.0</ele><time>2026-04-29T12:05:08.764Z</time></trkpt><trkpt lat="45.6736091" lon="9.4424041"><ele>261.0</ele><time>2026-04-29T12:05:09.764Z</time></trkpt><trkpt lat="45.6735418" lon="9.4423272"><ele>260.8</ele><time>2026-04-29T12:05:10.764Z</time></trkpt><trkpt lat="45.6734876" lon="9.4422243"><ele>260.6</ele><time>2026-04-29T12:05:11.764Z</time></trkpt><trkpt lat="45.6734283" lon="9.4421358"><ele>260.4</ele><time>2026-04-29T12:05:12.764Z</time></trkpt><trkpt lat="45.6733595" lon="9.4420249"><ele>260.2</ele><time>2026-04-29T12:05:13.764Z</time></trkpt><trkpt lat="45.6732919" lon="9.4419348"><ele>260.0</ele><time>2026-04-29T12:05:14.764Z</time></trkpt><trkpt lat="45.6732335" lon="9.4418493"><ele>260.0</ele><time>2026-04-29T12:05:15.764Z</time></trkpt><trkpt lat="45.6731744" lon="9.4417573"><ele>260.0</ele><time>2026-04-29T12:05:16.764Z</time></trkpt><trkpt lat="45.6731059" lon="9.441679"><ele>260.0</ele><time>2026-04-29T12:05:17.764Z</time></trkpt><trkpt lat="45.6730534" lon="9.4416116"><ele>260.0</ele><time>2026-04-29T12:05:18.764Z</time></trkpt><trkpt lat="45.6729929" lon="9.4415276"><ele>260.0</ele><time>2026-04-29T12:05:20.764Z</time></trkpt><trkpt lat="45.672918" lon="9.4414607"><ele>260.0</ele><time>2026-04-29T12:05:22.764Z</time></trkpt><trkpt lat="45.6728602" lon="9.441385"><ele>259.5</ele><time>2026-04-29T12:05:24.763Z</time></trkpt><trkpt lat="45.6727926" lon="9.4412882"><ele>259.0</ele><time>2026-04-29T12:05:26.764Z</time></trkpt><trkpt lat="45.6727527" lon="9.4412033"><ele>258.5</ele><time>2026-04-29T12:05:28.764Z</time></trkpt><trkpt lat="45.6726869" lon="9.441151"><ele>258.0</ele><time>2026-04-29T12:05:30.763Z</time></trkpt><trkpt lat="45.6726156" lon="9.4410875"><ele>257.5</ele><time>2026-04-29T12:05:31.764Z</time></trkpt><trkpt lat="45.6725516" lon="9.4410474"><ele>257.0</ele><time>2026-04-29T12:05:32.764Z</time></trkpt><trkpt lat="45.6724971" lon="9.4409845"><ele>257.0</ele><time>2026-04-29T12:05:33.764Z</time></trkpt><trkpt lat="45.6724358" lon="9.4408655"><ele>257.0</ele><time>2026-04-29T12:05:34.764Z</time></trkpt><trkpt lat="45.6723748" lon="9.4407982"><ele>257.0</ele><time>2026-04-29T12:05:35.764Z</time></trkpt><trkpt lat="45.6723065" lon="9.4406932"><ele>257.0</ele><time>2026-04-29T12:05:36.764Z</time></trkpt><trkpt lat="45.6722506" lon="9.4406179"><ele>257.0</ele><time>2026-04-29T12:05:37.764Z</time></trkpt><trkpt lat="45.6721846" lon="9.4405354"><ele>257.0</ele><time>2026-04-29T12:05:38.764Z</time></trkpt><trkpt lat="45.6721089" lon="9.44046"><ele>256.6666666666667</ele><time>2026-04-29T12:05:39.764Z</time></trkpt><trkpt lat="45.6720496" lon="9.4403807"><ele>256.33333333333337</ele><time>2026-04-29T12:05:40.764Z</time></trkpt><trkpt lat="45.6719934" lon="9.4403112"><ele>256.0</ele><time>2026-04-29T12:05:41.764Z</time></trkpt><trkpt lat="45.6719156" lon="9.4402413"><ele>255.66666666666669</ele><time>2026-04-29T12:05:42.764Z</time></trkpt><trkpt lat="45.6718364" lon="9.4401675"><ele>255.33333333333334</ele><time>2026-04-29T12:05:43.764Z</time></trkpt><trkpt lat="45.6717697" lon="9.4401099"><ele>255.0</ele><time>2026-04-29T12:05:44.764Z</time></trkpt><trkpt lat="45.671692" lon="9.4400416"><ele>255.0</ele><time>2026-04-29T12:05:45.764Z</time></trkpt><trkpt lat="45.6716339" lon="9.4399739"><ele>255.0</ele><time>2026-04-29T12:05:46.764Z</time></trkpt><trkpt lat="45.6715595" lon="9.43991"><ele>255.0</ele><time>2026-04-29T12:05:47.764Z</time></trkpt><trkpt lat="45.6714791" lon="9.4398236"><ele>255.0</ele><time>2026-04-29T12:05:48.764Z</time></trkpt><trkpt lat="45.6714001" lon="9.4397526"><ele>255.0</ele><time>2026-04-29T12:05:49.764Z</time></trkpt><trkpt lat="45.6713089" lon="9.4396635"><ele>254.6</ele><time>2026-04-29T12:05:50.764Z</time></trkpt><trkpt lat="45.6712266" lon="9.4395884"><ele>254.2</ele><time>2026-04-29T12:05:51.764Z</time></trkpt><trkpt lat="45.6711453" lon="9.4395021"><ele>253.8</ele><time>2026-04-29T12:05:52.764Z</time></trkpt><trkpt lat="45.6710467" lon="9.4394091"><ele>253.4</ele><time>2026-04-29T12:05:53.764Z</time></trkpt><trkpt lat="45.6709578" lon="9.439332"><ele>253.0</ele><time>2026-04-29T12:05:54.764Z</time></trkpt><trkpt lat="45.6708827" lon="9.4392457"><ele>253.0</ele><time>2026-04-29T12:05:55.764Z</time></trkpt><trkpt lat="45.6707983" lon="9.4391642"><ele>253.0</ele><time>2026-04-29T12:05:56.764Z</time></trkpt><trkpt lat="45.6707082" lon="9.4390816"><ele>253.0</ele><time>2026-04-29T12:05:57.764Z</time></trkpt><trkpt lat="45.6706223" lon="9.439024"><ele>253.0</ele><time>2026-04-29T12:05:58.764Z</time></trkpt><trkpt lat="45.6705378" lon="9.4389509"><ele>253.0</ele><time>2026-04-29T12:05:59.764Z</time></trkpt><trkpt lat="45.6704547" lon="9.438876"><ele>252.4</ele><time>2026-04-29T12:06:00.764Z</time></trkpt><trkpt lat="45.6703773" lon="9.4387995"><ele>251.8</ele><time>2026-04-29T12:06:01.764Z</time></trkpt><trkpt lat="45.6702982" lon="9.438708"><ele>251.2</ele><time>2026-04-29T12:06:02.764Z</time></trkpt><trkpt lat="45.6702217" lon="9.4386239"><ele>250.6</ele><time>2026-04-29T12:06:03.764Z</time></trkpt><trkpt lat="45.6701501" lon="9.4385411"><ele>250.0</ele><time>2026-04-29T12:06:04.764Z</time></trkpt><trkpt lat="45.6700777" lon="9.438479"><ele>250.0</ele><time>2026-04-29T12:06:05.764Z</time></trkpt><trkpt lat="45.6700165" lon="9.4384215"><ele>250.0</ele><time>2026-04-29T12:06:06.764Z</time></trkpt><trkpt lat="45.6699551" lon="9.4383717"><ele>250.0</ele><time>2026-04-29T12:06:07.764Z</time></trkpt><trkpt lat="45.6698822" lon="9.4382899"><ele>250.0</ele><time>2026-04-29T12:06:09.764Z</time></trkpt><trkpt lat="45.6698415" lon="9.4382207"><ele>250.0</ele><time>2026-04-29T12:06:11.764Z</time></trkpt><trkpt lat="45.669807" lon="9.4381357"><ele>250.0</ele><time>2026-04-29T12:06:13.763Z</time></trkpt><trkpt lat="45.6697793" lon="9.4380538"><ele>250.0</ele><time>2026-04-29T12:06:16.764Z</time></trkpt><trkpt lat="45.6697627" lon="9.4379493"><ele>249.83333333333331</ele><time>2026-04-29T12:06:19.764Z</time></trkpt><trkpt lat="45.6696955" lon="9.4378828"><ele>249.66666666666666</ele><time>2026-04-29T12:06:22.764Z</time></trkpt><trkpt lat="45.6696345" lon="9.4378565"><ele>249.5</ele><time>2026-04-29T12:06:23.764Z</time></trkpt><trkpt lat="45.669564" lon="9.4378915"><ele>249.33333333333331</ele><time>2026-04-29T12:06:25.764Z</time></trkpt><trkpt lat="45.6694971" lon="9.4379316"><ele>249.16666666666666</ele><time>2026-04-29T12:06:27.764Z</time></trkpt><trkpt lat="45.6694168" lon="9.437918"><ele>249.0</ele><time>2026-04-29T12:06:29.764Z</time></trkpt><trkpt lat="45.6693314" lon="9.4378422"><ele>249.0</ele><time>2026-04-29T12:06:31.764Z</time></trkpt><trkpt lat="45.6692744" lon="9.4377764"><ele>249.0</ele><time>2026-04-29T12:06:32.764Z</time></trkpt><trkpt lat="45.6692056" lon="9.4377263"><ele>249.0</ele><time>2026-04-29T12:06:33.764Z</time></trkpt><trkpt lat="45.6691483" lon="9.4376807"><ele>249.0</ele><time>2026-04-29T12:06:34.764Z</time></trkpt><trkpt lat="45.6690866" lon="9.43763"><ele>249.0</ele><time>2026-04-29T12:06:35.764Z</time></trkpt><trkpt lat="45.6690325" lon="9.437575"><ele>249.0</ele><time>2026-04-29T12:06:36.764Z</time></trkpt><trkpt lat="45.6689295" lon="9.4374517"><ele>249.0</ele><time>2026-04-29T12:06:38.764Z</time></trkpt><trkpt lat="45.66887" lon="9.437392"><ele>248.99999999999997</ele><time>2026-04-29T12:06:39.764Z</time></trkpt><trkpt lat="45.6688111" lon="9.4373395"><ele>249.0</ele><time>2026-04-29T12:06:40.764Z</time></trkpt><trkpt lat="45.6687465" lon="9.4372823"><ele>249.0</ele><time>2026-04-29T12:06:41.764Z</time></trkpt><trkpt lat="45.6686881" lon="9.4372255"><ele>248.99999999999997</ele><time>2026-04-29T12:06:42.764Z</time></trkpt><trkpt lat="45.6686232" lon="9.4371755"><ele>249.0</ele><time>2026-04-29T12:06:43.764Z</time></trkpt><trkpt lat="45.6685615" lon="9.4371117"><ele>249.0</ele><time>2026-04-29T12:06:44.764Z</time></trkpt><trkpt lat="45.6684973" lon="9.4370816"><ele>249.16666666666666</ele><time>2026-04-29T12:06:45.764Z</time></trkpt><trkpt lat="45.668421" lon="9.4370493"><ele>249.33333333333331</ele><time>2026-04-29T12:06:46.764Z</time></trkpt><trkpt lat="45.6683469" lon="9.4370264"><ele>249.5</ele><time>2026-04-29T12:06:47.764Z</time></trkpt><trkpt lat="45.6682741" lon="9.4369908"><ele>249.66666666666666</ele><time>2026-04-29T12:06:48.764Z</time></trkpt><trkpt lat="45.6682071" lon="9.4369475"><ele>249.83333333333331</ele><time>2026-04-29T12:06:49.764Z</time></trkpt><trkpt lat="45.6681413" lon="9.4368925"><ele>250.0</ele><time>2026-04-29T12:06:50.764Z</time></trkpt><trkpt lat="45.6680802" lon="9.4368283"><ele>250.0</ele><time>2026-04-29T12:06:51.764Z</time></trkpt><trkpt lat="45.6680122" lon="9.4367718"><ele>250.0</ele><time>2026-04-29T12:06:52.764Z</time></trkpt><trkpt lat="45.6679572" lon="9.4367175"><ele>250.0</ele><time>2026-04-29T12:06:53.764Z</time></trkpt><trkpt lat="45.6678996" lon="9.4366638"><ele>250.0</ele><time>2026-04-29T12:06:54.764Z</time></trkpt><trkpt lat="45.6678375" lon="9.436601"><ele>250.0</ele><time>2026-04-29T12:06:55.764Z</time></trkpt><trkpt lat="45.6677782" lon="9.4365428"><ele>250.0</ele><time>2026-04-29T12:06:56.764Z</time></trkpt><trkpt lat="45.6677178" lon="9.436476"><ele>250.0</ele><time>2026-04-29T12:06:57.764Z</time></trkpt><trkpt lat="45.6676577" lon="9.4364012"><ele>249.49999999999997</ele><time>2026-04-29T12:06:58.764Z</time></trkpt><trkpt lat="45.6675929" lon="9.436354"><ele>249.0</ele><time>2026-04-29T12:06:59.764Z</time></trkpt><trkpt lat="45.6675331" lon="9.4362881"><ele>248.5</ele><time>2026-04-29T12:07:00.764Z</time></trkpt><trkpt lat="45.6674701" lon="9.4362291"><ele>248.0</ele><time>2026-04-29T12:07:01.764Z</time></trkpt><trkpt lat="45.6674056" lon="9.4361476"><ele>247.49999999999997</ele><time>2026-04-29T12:07:02.764Z</time></trkpt><trkpt lat="45.667346" lon="9.4360783"><ele>247.0</ele><time>2026-04-29T12:07:03.764Z</time></trkpt><trkpt lat="45.6672945" lon="9.4360066"><ele>246.85714285714286</ele><time>2026-04-29T12:07:04.764Z</time></trkpt><trkpt lat="45.6672417" lon="9.4359338"><ele>246.71428571428572</ele><time>2026-04-29T12:07:05.764Z</time></trkpt><trkpt lat="45.6671881" lon="9.4358699"><ele>246.57142857142858</ele><time>2026-04-29T12:07:06.764Z</time></trkpt><trkpt lat="45.6671162" lon="9.4358209"><ele>246.42857142857144</ele><time>2026-04-29T12:07:07.764Z</time></trkpt><trkpt lat="45.6670505" lon="9.4357587"><ele>246.28571428571428</ele><time>2026-04-29T12:07:08.764Z</time></trkpt><trkpt lat="45.6669984" lon="9.4356953"><ele>246.14285714285717</ele><time>2026-04-29T12:07:09.764Z</time></trkpt><trkpt lat="45.6669411" lon="9.4356281"><ele>246.00000000000003</ele><time>2026-04-29T12:07:10.764Z</time></trkpt><trkpt lat="45.6668858" lon="9.4355661"><ele>245.83333333333334</ele><time>2026-04-29T12:07:11.764Z</time></trkpt><trkpt lat="45.6668334" lon="9.4354868"><ele>245.66666666666669</ele><time>2026-04-29T12:07:12.764Z</time></trkpt><trkpt lat="45.6667878" lon="9.4354137"><ele>245.5</ele><time>2026-04-29T12:07:13.764Z</time></trkpt><trkpt lat="45.6667063" lon="9.4352925"><ele>245.33333333333334</ele><time>2026-04-29T12:07:15.763Z</time></trkpt><trkpt lat="45.6666613" lon="9.4352207"><ele>245.16666666666669</ele><time>2026-04-29T12:07:16.764Z</time></trkpt><trkpt lat="45.6666156" lon="9.4351498"><ele>245.0</ele><time>2026-04-29T12:07:17.764Z</time></trkpt><trkpt lat="45.6665236" lon="9.435074"><ele>244.83333333333334</ele><time>2026-04-29T12:07:19.764Z</time></trkpt><trkpt lat="45.6664704" lon="9.4350118"><ele>244.66666666666669</ele><time>2026-04-29T12:07:20.764Z</time></trkpt><trkpt lat="45.6664171" lon="9.434951"><ele>244.5</ele><time>2026-04-29T12:07:21.764Z</time></trkpt><trkpt lat="45.6663638" lon="9.4348958"><ele>244.33333333333331</ele><time>2026-04-29T12:07:22.764Z</time></trkpt><trkpt lat="45.666314" lon="9.4348218"><ele>244.16666666666666</ele><time>2026-04-29T12:07:23.763Z</time></trkpt><trkpt lat="45.6662356" lon="9.4347079"><ele>244.0</ele><time>2026-04-29T12:07:25.764Z</time></trkpt><trkpt lat="45.6662426" lon="9.4345959"><ele>243.6</ele><time>2026-04-29T12:07:27.764Z</time></trkpt><trkpt lat="45.6662964" lon="9.4344547"><ele>243.2</ele><time>2026-04-29T12:07:29.764Z</time></trkpt><trkpt lat="45.6663348" lon="9.4343616"><ele>242.79999999999998</ele><time>2026-04-29T12:07:30.764Z</time></trkpt><trkpt lat="45.6663806" lon="9.4342616"><ele>242.39999999999998</ele><time>2026-04-29T12:07:31.764Z</time></trkpt><trkpt lat="45.6664301" lon="9.4341005"><ele>242.0</ele><time>2026-04-29T12:07:33.764Z</time></trkpt><trkpt lat="45.6664605" lon="9.4339871"><ele>242.0</ele><time>2026-04-29T12:07:34.764Z</time></trkpt><trkpt lat="45.6665361" lon="9.4338199"><ele>242.0</ele><time>2026-04-29T12:07:36.764Z</time></trkpt><trkpt lat="45.6665758" lon="9.4337244"><ele>242.0</ele><time>2026-04-29T12:07:37.764Z</time></trkpt><trkpt lat="45.6666085" lon="9.4336311"><ele>242.0</ele><time>2026-04-29T12:07:38.764Z</time></trkpt><trkpt lat="45.6666431" lon="9.4335454"><ele>242.0</ele><time>2026-04-29T12:07:39.764Z</time></trkpt><trkpt lat="45.666705" lon="9.4333758"><ele>242.0</ele><time>2026-04-29T12:07:41.764Z</time></trkpt><trkpt lat="45.6667395" lon="9.4332886"><ele>242.0</ele><time>2026-04-29T12:07:42.764Z</time></trkpt><trkpt lat="45.6667912" lon="9.4331327"><ele>242.0</ele><time>2026-04-29T12:07:44.764Z</time></trkpt><trkpt lat="45.6668616" lon="9.4329538"><ele>242.0</ele><time>2026-04-29T12:07:46.764Z</time></trkpt><trkpt lat="45.666904" lon="9.432881"><ele>242.0</ele><time>2026-04-29T12:07:47.764Z</time></trkpt><trkpt lat="45.6669324" lon="9.432733"><ele>242.25</ele><time>2026-04-29T12:07:49.763Z</time></trkpt><trkpt lat="45.6669429" lon="9.4325721"><ele>242.5</ele><time>2026-04-29T12:07:51.764Z</time></trkpt><trkpt lat="45.6669558" lon="9.4324172"><ele>242.75</ele><time>2026-04-29T12:07:53.764Z</time></trkpt><trkpt lat="45.6668769" lon="9.4322988"><ele>243.0</ele><time>2026-04-29T12:07:55.764Z</time></trkpt><trkpt lat="45.6667886" lon="9.4321831"><ele>242.60000000000002</ele><time>2026-04-29T12:07:57.764Z</time></trkpt><trkpt lat="45.6667282" lon="9.4321189"><ele>242.20000000000002</ele><time>2026-04-29T12:07:58.764Z</time></trkpt><trkpt lat="45.666675" lon="9.432054"><ele>241.8</ele><time>2026-04-29T12:07:59.764Z</time></trkpt><trkpt lat="45.6665734" lon="9.4319543"><ele>241.4</ele><time>2026-04-29T12:08:01.764Z</time></trkpt><trkpt lat="45.6664873" lon="9.4318521"><ele>241.0</ele><time>2026-04-29T12:08:03.764Z</time></trkpt><trkpt lat="45.6664097" lon="9.4317205"><ele>241.0</ele><time>2026-04-29T12:08:05.764Z</time></trkpt><trkpt lat="45.6663286" lon="9.4316213"><ele>241.00000000000003</ele><time>2026-04-29T12:08:07.763Z</time></trkpt><trkpt lat="45.6662869" lon="9.431542"><ele>241.00000000000003</ele><time>2026-04-29T12:08:08.764Z</time></trkpt><trkpt lat="45.6661978" lon="9.4313868"><ele>241.0</ele><time>2026-04-29T12:08:10.764Z</time></trkpt><trkpt lat="45.6661553" lon="9.4313173"><ele>241.0</ele><time>2026-04-29T12:08:11.764Z</time></trkpt><trkpt lat="45.6661022" lon="9.4312532"><ele>241.16666666666666</ele><time>2026-04-29T12:08:12.764Z</time></trkpt><trkpt lat="45.6659749" lon="9.43119"><ele>241.33333333333331</ele><time>2026-04-29T12:08:14.764Z</time></trkpt><trkpt lat="45.6659094" lon="9.4311459"><ele>241.5</ele><time>2026-04-29T12:08:15.764Z</time></trkpt><trkpt lat="45.6658466" lon="9.4310797"><ele>241.66666666666669</ele><time>2026-04-29T12:08:16.764Z</time></trkpt><trkpt lat="45.6657801" lon="9.4310197"><ele>241.83333333333334</ele><time>2026-04-29T12:08:17.764Z</time></trkpt><trkpt lat="45.665719" lon="9.4309623"><ele>242.0</ele><time>2026-04-29T12:08:18.764Z</time></trkpt><trkpt lat="45.6656556" lon="9.4308973"><ele>242.00000000000003</ele><time>2026-04-29T12:08:19.764Z</time></trkpt><trkpt lat="45.6655934" lon="9.4308316"><ele>242.0</ele><time>2026-04-29T12:08:20.764Z</time></trkpt><trkpt lat="45.6655244" lon="9.4307624"><ele>242.0</ele><time>2026-04-29T12:08:21.764Z</time></trkpt><trkpt lat="45.6654585" lon="9.4306963"><ele>242.0</ele><time>2026-04-29T12:08:22.764Z</time></trkpt><trkpt lat="45.6653863" lon="9.4306157"><ele>242.00000000000003</ele><time>2026-04-29T12:08:23.764Z</time></trkpt><trkpt lat="45.6653187" lon="9.4305524"><ele>242.0</ele><time>2026-04-29T12:08:24.764Z</time></trkpt><trkpt lat="45.6652524" lon="9.4304884"><ele>241.83333333333334</ele><time>2026-04-29T12:08:25.764Z</time></trkpt><trkpt lat="45.6651847" lon="9.4304209"><ele>241.66666666666669</ele><time>2026-04-29T12:08:26.764Z</time></trkpt><trkpt lat="45.6651131" lon="9.4303542"><ele>241.5</ele><time>2026-04-29T12:08:27.764Z</time></trkpt><trkpt lat="45.6650536" lon="9.4302958"><ele>241.33333333333331</ele><time>2026-04-29T12:08:28.764Z</time></trkpt><trkpt lat="45.6649894" lon="9.4302286"><ele>241.16666666666666</ele><time>2026-04-29T12:08:29.763Z</time></trkpt><trkpt lat="45.6649252" lon="9.4301711"><ele>241.0</ele><time>2026-04-29T12:08:30.764Z</time></trkpt><trkpt lat="45.6648497" lon="9.430104"><ele>240.99999999999997</ele><time>2026-04-29T12:08:31.764Z</time></trkpt><trkpt lat="45.6647875" lon="9.4300417"><ele>241.0</ele><time>2026-04-29T12:08:32.764Z</time></trkpt><trkpt lat="45.6647211" lon="9.4299837"><ele>241.0</ele><time>2026-04-29T12:08:33.764Z</time></trkpt><trkpt lat="45.6646592" lon="9.429916"><ele>241.0</ele><time>2026-04-29T12:08:34.763Z</time></trkpt><trkpt lat="45.6645921" lon="9.4298409"><ele>240.99999999999997</ele><time>2026-04-29T12:08:35.764Z</time></trkpt><trkpt lat="45.6645226" lon="9.4297779"><ele>241.0</ele><time>2026-04-29T12:08:36.764Z</time></trkpt><trkpt lat="45.6644452" lon="9.4297156"><ele>240.49999999999997</ele><time>2026-04-29T12:08:37.763Z</time></trkpt><trkpt lat="45.6643807" lon="9.4296408"><ele>240.0</ele><time>2026-04-29T12:08:38.764Z</time></trkpt><trkpt lat="45.664314" lon="9.4295702"><ele>239.5</ele><time>2026-04-29T12:08:39.764Z</time></trkpt><trkpt lat="45.6642567" lon="9.4295113"><ele>239.0</ele><time>2026-04-29T12:08:40.764Z</time></trkpt><trkpt lat="45.6641844" lon="9.4294414"><ele>238.49999999999997</ele><time>2026-04-29T12:08:41.764Z</time></trkpt><trkpt lat="45.6641147" lon="9.4293709"><ele>238.0</ele><time>2026-04-29T12:08:42.763Z</time></trkpt><trkpt lat="45.6640562" lon="9.4293099"><ele>237.99999999999997</ele><time>2026-04-29T12:08:43.764Z</time></trkpt><trkpt lat="45.6639938" lon="9.4292468"><ele>238.0</ele><time>2026-04-29T12:08:44.764Z</time></trkpt><trkpt lat="45.6639271" lon="9.4291834"><ele>238.0</ele><time>2026-04-29T12:08:45.764Z</time></trkpt><trkpt lat="45.6638625" lon="9.4291234"><ele>238.0</ele><time>2026-04-29T12:08:46.764Z</time></trkpt><trkpt lat="45.6637927" lon="9.4290578"><ele>237.99999999999997</ele><time>2026-04-29T12:08:47.764Z</time></trkpt><trkpt lat="45.6637243" lon="9.4289863"><ele>238.0</ele><time>2026-04-29T12:08:48.764Z</time></trkpt><trkpt lat="45.6636538" lon="9.428914"><ele>238.14285714285714</ele><time>2026-04-29T12:08:49.764Z</time></trkpt><trkpt lat="45.6635856" lon="9.4288558"><ele>238.28571428571428</ele><time>2026-04-29T12:08:50.764Z</time></trkpt><trkpt lat="45.6635239" lon="9.4287967"><ele>238.42857142857144</ele><time>2026-04-29T12:08:51.764Z</time></trkpt><trkpt lat="45.6634559" lon="9.4287441"><ele>238.57142857142858</ele><time>2026-04-29T12:08:52.764Z</time></trkpt><trkpt lat="45.6633873" lon="9.4287028"><ele>238.71428571428572</ele><time>2026-04-29T12:08:53.764Z</time></trkpt><trkpt lat="45.6633224" lon="9.4286694"><ele>238.8571428571429</ele><time>2026-04-29T12:08:54.764Z</time></trkpt><trkpt lat="45.6632613" lon="9.4286247"><ele>239.00000000000003</ele><time>2026-04-29T12:08:55.764Z</time></trkpt><trkpt lat="45.6632101" lon="9.4285533"><ele>239.00000000000003</ele><time>2026-04-29T12:08:56.764Z</time></trkpt><trkpt lat="45.6631665" lon="9.4284669"><ele>239.0</ele><time>2026-04-29T12:08:57.764Z</time></trkpt><trkpt lat="45.663141" lon="9.4283711"><ele>239.00000000000003</ele><time>2026-04-29T12:08:58.763Z</time></trkpt><trkpt lat="45.663127" lon="9.4282754"><ele>239.00000000000003</ele><time>2026-04-29T12:08:59.763Z</time></trkpt><trkpt lat="45.6631165" lon="9.4281715"><ele>239.0</ele><time>2026-04-29T12:09:00.764Z</time></trkpt><trkpt lat="45.6631099" lon="9.4280743"><ele>239.00000000000003</ele><time>2026-04-29T12:09:01.764Z</time></trkpt><trkpt lat="45.6631135" lon="9.427971"><ele>239.00000000000003</ele><time>2026-04-29T12:09:02.764Z</time></trkpt><trkpt lat="45.6631129" lon="9.4278751"><ele>239.14285714285717</ele><time>2026-04-29T12:09:03.764Z</time></trkpt><trkpt lat="45.6631115" lon="9.4277706"><ele>239.28571428571428</ele><time>2026-04-29T12:09:04.764Z</time></trkpt><trkpt lat="45.6631152" lon="9.4276695"><ele>239.42857142857144</ele><time>2026-04-29T12:09:05.764Z</time></trkpt><trkpt lat="45.6631201" lon="9.4275726"><ele>239.57142857142858</ele><time>2026-04-29T12:09:06.764Z</time></trkpt><trkpt lat="45.6631334" lon="9.4274702"><ele>239.71428571428572</ele><time>2026-04-29T12:09:07.764Z</time></trkpt><trkpt lat="45.6631448" lon="9.427373"><ele>239.85714285714286</ele><time>2026-04-29T12:09:08.764Z</time></trkpt><trkpt lat="45.663163" lon="9.4272777"><ele>240.0</ele><time>2026-04-29T12:09:09.764Z</time></trkpt><trkpt lat="45.6631822" lon="9.4271848"><ele>240.4</ele><time>2026-04-29T12:09:10.764Z</time></trkpt><trkpt lat="45.663183" lon="9.4270943"><ele>240.8</ele><time>2026-04-29T12:09:11.764Z</time></trkpt><trkpt lat="45.663116" lon="9.42698"><ele>241.2</ele><time>2026-04-29T12:09:13.764Z</time></trkpt><trkpt lat="45.6630109" lon="9.4268834"><ele>241.6</ele><time>2026-04-29T12:09:15.764Z</time></trkpt><trkpt lat="45.6629093" lon="9.4267736"><ele>242.0</ele><time>2026-04-29T12:09:17.764Z</time></trkpt><trkpt lat="45.6628564" lon="9.4267061"><ele>242.0</ele><time>2026-04-29T12:09:18.764Z</time></trkpt><trkpt lat="45.6627994" lon="9.4266513"><ele>241.99999999999997</ele><time>2026-04-29T12:09:19.763Z</time></trkpt><trkpt lat="45.6627469" lon="9.4265978"><ele>242.0</ele><time>2026-04-29T12:09:20.764Z</time></trkpt><trkpt lat="45.6626856" lon="9.4265525"><ele>242.0</ele><time>2026-04-29T12:09:21.764Z</time></trkpt><trkpt lat="45.6626278" lon="9.4264977"><ele>241.99999999999997</ele><time>2026-04-29T12:09:22.764Z</time></trkpt><trkpt lat="45.6625689" lon="9.4264397"><ele>242.0</ele><time>2026-04-29T12:09:23.764Z</time></trkpt><trkpt lat="45.6625014" lon="9.4263822"><ele>242.0</ele><time>2026-04-29T12:09:24.764Z</time></trkpt><trkpt lat="45.6624369" lon="9.4263281"><ele>241.28571428571428</ele><time>2026-04-29T12:09:25.764Z</time></trkpt><trkpt lat="45.6623764" lon="9.4262778"><ele>240.57142857142856</ele><time>2026-04-29T12:09:26.764Z</time></trkpt><trkpt lat="45.6623176" lon="9.4262314"><ele>239.85714285714283</ele><time>2026-04-29T12:09:27.764Z</time></trkpt><trkpt lat="45.6622553" lon="9.426181"><ele>239.1428571428571</ele><time>2026-04-29T12:09:28.764Z</time></trkpt><trkpt lat="45.662195" lon="9.426117"><ele>238.42857142857142</ele><time>2026-04-29T12:09:29.764Z</time></trkpt><trkpt lat="45.6621316" lon="9.4260514"><ele>237.71428571428567</ele><time>2026-04-29T12:09:30.764Z</time></trkpt><trkpt lat="45.6620651" lon="9.4260035"><ele>236.99999999999997</ele><time>2026-04-29T12:09:31.764Z</time></trkpt><trkpt lat="45.6619959" lon="9.4259374"><ele>237.4285714285714</ele><time>2026-04-29T12:09:32.764Z</time></trkpt><trkpt lat="45.6619352" lon="9.4258874"><ele>237.85714285714283</ele><time>2026-04-29T12:09:33.764Z</time></trkpt><trkpt lat="45.6618807" lon="9.4258325"><ele>238.28571428571428</ele><time>2026-04-29T12:09:34.764Z</time></trkpt><trkpt lat="45.6618134" lon="9.4257781"><ele>238.7142857142857</ele><time>2026-04-29T12:09:35.763Z</time></trkpt><trkpt lat="45.6617554" lon="9.4257264"><ele>239.1428571428571</ele><time>2026-04-29T12:09:36.764Z</time></trkpt><trkpt lat="45.6616887" lon="9.4256707"><ele>239.57142857142858</ele><time>2026-04-29T12:09:37.764Z</time></trkpt><trkpt lat="45.6616345" lon="9.4256155"><ele>240.0</ele><time>2026-04-29T12:09:38.764Z</time></trkpt><trkpt lat="45.6615759" lon="9.4255668"><ele>240.0</ele><time>2026-04-29T12:09:39.764Z</time></trkpt><trkpt lat="45.6615107" lon="9.4255234"><ele>240.0</ele><time>2026-04-29T12:09:40.764Z</time></trkpt><trkpt lat="45.6614526" lon="9.4254739"><ele>240.0</ele><time>2026-04-29T12:09:41.764Z</time></trkpt><trkpt lat="45.6613924" lon="9.4254225"><ele>240.0</ele><time>2026-04-29T12:09:42.764Z</time></trkpt><trkpt lat="45.6613387" lon="9.4253633"><ele>240.0</ele><time>2026-04-29T12:09:43.764Z</time></trkpt><trkpt lat="45.6612824" lon="9.4253024"><ele>240.0</ele><time>2026-04-29T12:09:44.764Z</time></trkpt><trkpt lat="45.6612198" lon="9.425245"><ele>240.0</ele><time>2026-04-29T12:09:45.764Z</time></trkpt><trkpt lat="45.6611635" lon="9.4251757"><ele>239.66666666666666</ele><time>2026-04-29T12:09:46.764Z</time></trkpt><trkpt lat="45.6610968" lon="9.4251141"><ele>239.33333333333331</ele><time>2026-04-29T12:09:47.764Z</time></trkpt><trkpt lat="45.661039" lon="9.4250588"><ele>239.0</ele><time>2026-04-29T12:09:48.763Z</time></trkpt><trkpt lat="45.6609717" lon="9.4250021"><ele>238.66666666666666</ele><time>2026-04-29T12:09:49.764Z</time></trkpt><trkpt lat="45.6609041" lon="9.4249314"><ele>238.33333333333331</ele><time>2026-04-29T12:09:50.764Z</time></trkpt><trkpt lat="45.6608424" lon="9.4248763"><ele>238.0</ele><time>2026-04-29T12:09:51.764Z</time></trkpt><trkpt lat="45.6607799" lon="9.4248076"><ele>238.0</ele><time>2026-04-29T12:09:52.764Z</time></trkpt><trkpt lat="45.6607247" lon="9.4247475"><ele>238.0</ele><time>2026-04-29T12:09:53.764Z</time></trkpt><trkpt lat="45.6606697" lon="9.4246828"><ele>238.0</ele><time>2026-04-29T12:09:54.764Z</time></trkpt><trkpt lat="45.6606091" lon="9.4246178"><ele>238.0</ele><time>2026-04-29T12:09:55.764Z</time></trkpt><trkpt lat="45.660547" lon="9.4245539"><ele>238.0</ele><time>2026-04-29T12:09:56.764Z</time></trkpt><trkpt lat="45.6604871" lon="9.4244987"><ele>238.0</ele><time>2026-04-29T12:09:57.764Z</time></trkpt><trkpt lat="45.6604291" lon="9.4244406"><ele>238.0</ele><time>2026-04-29T12:09:58.763Z</time></trkpt><trkpt lat="45.6603687" lon="9.4243735"><ele>237.99999999999997</ele><time>2026-04-29T12:09:59.764Z</time></trkpt><trkpt lat="45.6603008" lon="9.4243181"><ele>238.0</ele><time>2026-04-29T12:10:00.764Z</time></trkpt><trkpt lat="45.6602388" lon="9.4242676"><ele>238.0</ele><time>2026-04-29T12:10:01.764Z</time></trkpt><trkpt lat="45.6601236" lon="9.4241662"><ele>238.0</ele><time>2026-04-29T12:10:03.764Z</time></trkpt><trkpt lat="45.6600618" lon="9.4241101"><ele>237.99999999999997</ele><time>2026-04-29T12:10:04.764Z</time></trkpt><trkpt lat="45.6599993" lon="9.4240568"><ele>238.0</ele><time>2026-04-29T12:10:05.764Z</time></trkpt><trkpt lat="45.6599379" lon="9.4240074"><ele>238.0</ele><time>2026-04-29T12:10:06.764Z</time></trkpt><trkpt lat="45.6598791" lon="9.4239595"><ele>238.0</ele><time>2026-04-29T12:10:07.764Z</time></trkpt><trkpt lat="45.6598127" lon="9.4238941"><ele>238.0</ele><time>2026-04-29T12:10:08.764Z</time></trkpt><trkpt lat="45.6597515" lon="9.4238456"><ele>238.0</ele><time>2026-04-29T12:10:09.764Z</time></trkpt><trkpt lat="45.6596883" lon="9.4238088"><ele>238.0</ele><time>2026-04-29T12:10:10.764Z</time></trkpt><trkpt lat="45.6596192" lon="9.4237956"><ele>238.0</ele><time>2026-04-29T12:10:11.764Z</time></trkpt><trkpt lat="45.6595526" lon="9.423803"><ele>238.0</ele><time>2026-04-29T12:10:12.764Z</time></trkpt><trkpt lat="45.6594963" lon="9.4238451"><ele>237.4</ele><time>2026-04-29T12:10:13.764Z</time></trkpt><trkpt lat="45.659385" lon="9.4239377"><ele>236.8</ele><time>2026-04-29T12:10:15.764Z</time></trkpt><trkpt lat="45.6593384" lon="9.4240029"><ele>236.2</ele><time>2026-04-29T12:10:16.764Z</time></trkpt><trkpt lat="45.6592308" lon="9.4240877"><ele>235.6</ele><time>2026-04-29T12:10:18.764Z</time></trkpt><trkpt lat="45.6591315" lon="9.424063"><ele>235.0</ele><time>2026-04-29T12:10:20.763Z</time></trkpt><trkpt lat="45.6590398" lon="9.4239463"><ele>234.99999999999997</ele><time>2026-04-29T12:10:22.764Z</time></trkpt><trkpt lat="45.6589945" lon="9.4238762"><ele>235.0</ele><time>2026-04-29T12:10:23.764Z</time></trkpt><trkpt lat="45.6589384" lon="9.4238243"><ele>235.0</ele><time>2026-04-29T12:10:24.764Z</time></trkpt><trkpt lat="45.6588341" lon="9.4237274"><ele>235.0</ele><time>2026-04-29T12:10:26.764Z</time></trkpt><trkpt lat="45.6587721" lon="9.4236835"><ele>234.99999999999997</ele><time>2026-04-29T12:10:27.763Z</time></trkpt><trkpt lat="45.6587104" lon="9.4236358"><ele>235.0</ele><time>2026-04-29T12:10:28.763Z</time></trkpt><trkpt lat="45.6586451" lon="9.42358"><ele>235.0</ele><time>2026-04-29T12:10:29.764Z</time></trkpt><trkpt lat="45.6585901" lon="9.4235307"><ele>234.99999999999997</ele><time>2026-04-29T12:10:30.764Z</time></trkpt><trkpt lat="45.6585233" lon="9.4234823"><ele>235.0</ele><time>2026-04-29T12:10:31.764Z</time></trkpt><trkpt lat="45.6584596" lon="9.4234312"><ele>235.0</ele><time>2026-04-29T12:10:32.764Z</time></trkpt><trkpt lat="45.658394" lon="9.4233848"><ele>234.99999999999997</ele><time>2026-04-29T12:10:33.764Z</time></trkpt><trkpt lat="45.6583341" lon="9.4233326"><ele>235.0</ele><time>2026-04-29T12:10:34.764Z</time></trkpt><trkpt lat="45.6582745" lon="9.4232841"><ele>235.0</ele><time>2026-04-29T12:10:35.764Z</time></trkpt><trkpt lat="45.6582183" lon="9.423234"><ele>234.99999999999997</ele><time>2026-04-29T12:10:36.764Z</time></trkpt><trkpt lat="45.6581145" lon="9.4231605"><ele>235.0</ele><time>2026-04-29T12:10:38.764Z</time></trkpt><trkpt lat="45.6580515" lon="9.4231222"><ele>235.0</ele><time>2026-04-29T12:10:39.764Z</time></trkpt><trkpt lat="45.6579893" lon="9.4230891"><ele>235.0</ele><time>2026-04-29T12:10:40.764Z</time></trkpt><trkpt lat="45.6579214" lon="9.4230759"><ele>234.99999999999997</ele><time>2026-04-29T12:10:41.764Z</time></trkpt><trkpt lat="45.6578556" lon="9.4230418"><ele>235.0</ele><time>2026-04-29T12:10:42.764Z</time></trkpt><trkpt lat="45.657788" lon="9.4230344"><ele>235.2</ele><time>2026-04-29T12:10:43.764Z</time></trkpt><trkpt lat="45.6576667" lon="9.4230134"><ele>235.4</ele><time>2026-04-29T12:10:45.764Z</time></trkpt><trkpt lat="45.6575776" lon="9.4229884"><ele>235.60000000000002</ele><time>2026-04-29T12:10:46.764Z</time></trkpt><trkpt lat="45.6574287" lon="9.4229688"><ele>235.8</ele><time>2026-04-29T12:10:48.764Z</time></trkpt><trkpt lat="45.6573652" lon="9.4229291"><ele>236.0</ele><time>2026-04-29T12:10:49.764Z</time></trkpt><trkpt lat="45.6572795" lon="9.4228714"><ele>236.00000000000003</ele><time>2026-04-29T12:10:51.764Z</time></trkpt><trkpt lat="45.6571658" lon="9.4228493"><ele>236.0</ele><time>2026-04-29T12:10:53.764Z</time></trkpt><trkpt lat="45.6570992" lon="9.4228339"><ele>236.0</ele><time>2026-04-29T12:10:54.764Z</time></trkpt><trkpt lat="45.6570108" lon="9.4228034"><ele>236.0</ele><time>2026-04-29T12:10:55.764Z</time></trkpt><trkpt lat="45.6569381" lon="9.4227686"><ele>236.00000000000003</ele><time>2026-04-29T12:10:56.764Z</time></trkpt><trkpt lat="45.6568403" lon="9.4227554"><ele>236.0</ele><time>2026-04-29T12:10:57.764Z</time></trkpt><trkpt lat="45.6567685" lon="9.4227226"><ele>236.0</ele><time>2026-04-29T12:10:58.764Z</time></trkpt><trkpt lat="45.6566657" lon="9.4226656"><ele>236.00000000000003</ele><time>2026-04-29T12:11:00.764Z</time></trkpt><trkpt lat="45.6565751" lon="9.42265"><ele>236.00000000000003</ele><time>2026-04-29T12:11:01.764Z</time></trkpt><trkpt lat="45.6564635" lon="9.4225716"><ele>236.0</ele><time>2026-04-29T12:11:03.764Z</time></trkpt><trkpt lat="45.6563813" lon="9.4225098"><ele>236.0</ele><time>2026-04-29T12:11:04.764Z</time></trkpt><trkpt lat="45.656307" lon="9.4224704"><ele>236.0</ele><time>2026-04-29T12:11:05.764Z</time></trkpt><trkpt lat="45.6562404" lon="9.4224544"><ele>236.0</ele><time>2026-04-29T12:11:06.764Z</time></trkpt><trkpt lat="45.6561573" lon="9.4224146"><ele>236.0</ele><time>2026-04-29T12:11:07.763Z</time></trkpt><trkpt lat="45.6560932" lon="9.4223864"><ele>236.0</ele><time>2026-04-29T12:11:08.764Z</time></trkpt><trkpt lat="45.6560125" lon="9.4223704"><ele>236.0</ele><time>2026-04-29T12:11:09.764Z</time></trkpt><trkpt lat="45.6559576" lon="9.4223236"><ele>236.0</ele><time>2026-04-29T12:11:10.764Z</time></trkpt><trkpt lat="45.6558895" lon="9.4222802"><ele>236.0</ele><time>2026-04-29T12:11:11.764Z</time></trkpt><trkpt lat="45.6558246" lon="9.4222477"><ele>235.85714285714283</ele><time>2026-04-29T12:11:12.764Z</time></trkpt><trkpt lat="45.6557647" lon="9.4222027"><ele>235.71428571428572</ele><time>2026-04-29T12:11:13.764Z</time></trkpt><trkpt lat="45.6556951" lon="9.4221484"><ele>235.57142857142856</ele><time>2026-04-29T12:11:14.764Z</time></trkpt><trkpt lat="45.6556279" lon="9.4220923"><ele>235.42857142857142</ele><time>2026-04-29T12:11:15.764Z</time></trkpt><trkpt lat="45.655569" lon="9.4220436"><ele>235.28571428571428</ele><time>2026-04-29T12:11:16.764Z</time></trkpt><trkpt lat="45.6555056" lon="9.421995"><ele>235.14285714285714</ele><time>2026-04-29T12:11:17.764Z</time></trkpt><trkpt lat="45.6554383" lon="9.4219469"><ele>235.0</ele><time>2026-04-29T12:11:18.764Z</time></trkpt><trkpt lat="45.6553776" lon="9.4219095"><ele>235.16666666666666</ele><time>2026-04-29T12:11:19.764Z</time></trkpt><trkpt lat="45.6553226" lon="9.4218652"><ele>235.33333333333331</ele><time>2026-04-29T12:11:20.764Z</time></trkpt><trkpt lat="45.6552093" lon="9.4218014"><ele>235.5</ele><time>2026-04-29T12:11:22.764Z</time></trkpt><trkpt lat="45.6551244" lon="9.4217927"><ele>235.66666666666669</ele><time>2026-04-29T12:11:23.763Z</time></trkpt><trkpt lat="45.6550524" lon="9.421768"><ele>235.83333333333334</ele><time>2026-04-29T12:11:24.764Z</time></trkpt><trkpt lat="45.6549699" lon="9.4217506"><ele>236.0</ele><time>2026-04-29T12:11:25.764Z</time></trkpt><trkpt lat="45.6548819" lon="9.4217611"><ele>236.0</ele><time>2026-04-29T12:11:26.764Z</time></trkpt><trkpt lat="45.6547895" lon="9.4217897"><ele>236.00000000000003</ele><time>2026-04-29T12:11:28.764Z</time></trkpt><trkpt lat="45.6547236" lon="9.4217476"><ele>236.00000000000003</ele><time>2026-04-29T12:11:29.764Z</time></trkpt><trkpt lat="45.6546058" lon="9.4217598"><ele>236.0</ele><time>2026-04-29T12:11:31.764Z</time></trkpt><trkpt lat="45.6545425" lon="9.4217608"><ele>236.0</ele><time>2026-04-29T12:11:32.764Z</time></trkpt><trkpt lat="45.6544292" lon="9.4217593"><ele>235.83333333333334</ele><time>2026-04-29T12:11:34.764Z</time></trkpt><trkpt lat="45.6543421" lon="9.4217793"><ele>235.66666666666669</ele><time>2026-04-29T12:11:35.764Z</time></trkpt><trkpt lat="45.6542598" lon="9.421791"><ele>235.5</ele><time>2026-04-29T12:11:36.764Z</time></trkpt><trkpt lat="45.654197" lon="9.4218092"><ele>235.33333333333331</ele><time>2026-04-29T12:11:37.764Z</time></trkpt><trkpt lat="45.654127" lon="9.4218138"><ele>235.16666666666666</ele><time>2026-04-29T12:11:38.764Z</time></trkpt><trkpt lat="45.654043" lon="9.4218618"><ele>235.0</ele><time>2026-04-29T12:11:39.764Z</time></trkpt><trkpt lat="45.6539768" lon="9.4218799"><ele>234.99999999999997</ele><time>2026-04-29T12:11:40.764Z</time></trkpt><trkpt lat="45.6538992" lon="9.4218704"><ele>235.0</ele><time>2026-04-29T12:11:41.764Z</time></trkpt><trkpt lat="45.6538217" lon="9.4218745"><ele>235.0</ele><time>2026-04-29T12:11:42.764Z</time></trkpt><trkpt lat="45.6537437" lon="9.4218959"><ele>235.0</ele><time>2026-04-29T12:11:43.764Z</time></trkpt><trkpt lat="45.6536486" lon="9.4218966"><ele>234.99999999999997</ele><time>2026-04-29T12:11:44.764Z</time></trkpt><trkpt lat="45.6535603" lon="9.4219061"><ele>235.0</ele><time>2026-04-29T12:11:46.764Z</time></trkpt><trkpt lat="45.653442" lon="9.4218894"><ele>235.33333333333331</ele><time>2026-04-29T12:11:48.764Z</time></trkpt><trkpt lat="45.6533755" lon="9.4218895"><ele>235.66666666666666</ele><time>2026-04-29T12:11:49.764Z</time></trkpt><trkpt lat="45.6533085" lon="9.4219082"><ele>236.0</ele><time>2026-04-29T12:11:50.764Z</time></trkpt><trkpt lat="45.653213" lon="9.4219335"><ele>236.33333333333331</ele><time>2026-04-29T12:11:52.764Z</time></trkpt><trkpt lat="45.6531027" lon="9.4219363"><ele>236.66666666666666</ele><time>2026-04-29T12:11:54.764Z</time></trkpt><trkpt lat="45.6530355" lon="9.4219318"><ele>237.0</ele><time>2026-04-29T12:11:55.764Z</time></trkpt><trkpt lat="45.6529687" lon="9.421919"><ele>237.0</ele><time>2026-04-29T12:11:56.764Z</time></trkpt><trkpt lat="45.6528437" lon="9.4219144"><ele>237.0</ele><time>2026-04-29T12:11:58.764Z</time></trkpt><trkpt lat="45.6527362" lon="9.4219159"><ele>237.0</ele><time>2026-04-29T12:12:00.764Z</time></trkpt><trkpt lat="45.6526635" lon="9.4219035"><ele>237.0</ele><time>2026-04-29T12:12:01.764Z</time></trkpt><trkpt lat="45.65256" lon="9.4218839"><ele>237.0</ele><time>2026-04-29T12:12:02.764Z</time></trkpt><trkpt lat="45.6524628" lon="9.4218524"><ele>237.16666666666666</ele><time>2026-04-29T12:12:03.764Z</time></trkpt><trkpt lat="45.6523609" lon="9.4218181"><ele>237.33333333333331</ele><time>2026-04-29T12:12:04.763Z</time></trkpt><trkpt lat="45.6522533" lon="9.4217594"><ele>237.5</ele><time>2026-04-29T12:12:06.764Z</time></trkpt><trkpt lat="45.6521832" lon="9.4217389"><ele>237.66666666666666</ele><time>2026-04-29T12:12:07.764Z</time></trkpt><trkpt lat="45.6521191" lon="9.4217113"><ele>237.83333333333331</ele><time>2026-04-29T12:12:08.764Z</time></trkpt><trkpt lat="45.6520453" lon="9.4216816"><ele>238.0</ele><time>2026-04-29T12:12:09.764Z</time></trkpt><trkpt lat="45.6519802" lon="9.4216677"><ele>237.60000000000002</ele><time>2026-04-29T12:12:10.764Z</time></trkpt><trkpt lat="45.6518841" lon="9.4216287"><ele>237.20000000000002</ele><time>2026-04-29T12:12:12.764Z</time></trkpt><trkpt lat="45.651785" lon="9.4216084"><ele>236.8</ele><time>2026-04-29T12:12:14.764Z</time></trkpt><trkpt lat="45.6517016" lon="9.4216671"><ele>236.4</ele><time>2026-04-29T12:12:17.764Z</time></trkpt><trkpt lat="45.651657" lon="9.4217759"><ele>236.0</ele><time>2026-04-29T12:12:19.763Z</time></trkpt><trkpt lat="45.6516154" lon="9.4219336"><ele>236.0</ele><time>2026-04-29T12:12:21.764Z</time></trkpt><trkpt lat="45.6515755" lon="9.4220728"><ele>236.00000000000003</ele><time>2026-04-29T12:12:23.764Z</time></trkpt><trkpt lat="45.6515565" lon="9.4222225"><ele>236.00000000000003</ele><time>2026-04-29T12:12:25.764Z</time></trkpt><trkpt lat="45.6515418" lon="9.4223774"><ele>236.0</ele><time>2026-04-29T12:12:27.764Z</time></trkpt><trkpt lat="45.651524" lon="9.4224794"><ele>236.0</ele><time>2026-04-29T12:12:28.764Z</time></trkpt><trkpt lat="45.651423" lon="9.422529"><ele>235.4</ele><time>2026-04-29T12:12:31.764Z</time></trkpt><trkpt lat="45.6513215" lon="9.4225079"><ele>234.8</ele><time>2026-04-29T12:12:33.764Z</time></trkpt><trkpt lat="45.6512348" lon="9.4225063"><ele>234.20000000000002</ele><time>2026-04-29T12:12:35.764Z</time></trkpt><trkpt lat="45.6511577" lon="9.4224955"><ele>233.60000000000002</ele><time>2026-04-29T12:12:37.764Z</time></trkpt><trkpt lat="45.6510964" lon="9.4224711"><ele>233.0</ele><time>2026-04-29T12:12:38.764Z</time></trkpt><trkpt lat="45.6509667" lon="9.4224585"><ele>233.0</ele><time>2026-04-29T12:12:40.764Z</time></trkpt><trkpt lat="45.6508959" lon="9.4224541"><ele>233.0</ele><time>2026-04-29T12:12:41.764Z</time></trkpt><trkpt lat="45.6507859" lon="9.4224388"><ele>233.0</ele><time>2026-04-29T12:12:43.764Z</time></trkpt><trkpt lat="45.6507068" lon="9.4224319"><ele>233.0</ele><time>2026-04-29T12:12:44.764Z</time></trkpt><trkpt lat="45.6506391" lon="9.4224173"><ele>233.0</ele><time>2026-04-29T12:12:45.764Z</time></trkpt><trkpt lat="45.6505179" lon="9.4224089"><ele>233.0</ele><time>2026-04-29T12:12:47.764Z</time></trkpt><trkpt lat="45.6503947" lon="9.4224118"><ele>233.0</ele><time>2026-04-29T12:12:49.764Z</time></trkpt><trkpt lat="45.6503318" lon="9.4224493"><ele>233.0</ele><time>2026-04-29T12:12:51.764Z</time></trkpt><trkpt lat="45.6502624" lon="9.4224538"><ele>233.0</ele><time>2026-04-29T12:12:52.764Z</time></trkpt><trkpt lat="45.6501493" lon="9.4224197"><ele>233.0</ele><time>2026-04-29T12:12:54.764Z</time></trkpt><trkpt lat="45.650061" lon="9.4224143"><ele>233.14285714285717</ele><time>2026-04-29T12:12:56.764Z</time></trkpt><trkpt lat="45.6499707" lon="9.4224111"><ele>233.28571428571428</ele><time>2026-04-29T12:12:58.764Z</time></trkpt><trkpt lat="45.649903" lon="9.4224021"><ele>233.42857142857144</ele><time>2026-04-29T12:12:59.764Z</time></trkpt><trkpt lat="45.6498385" lon="9.4223834"><ele>233.57142857142858</ele><time>2026-04-29T12:13:00.764Z</time></trkpt><trkpt lat="45.6497682" lon="9.4223607"><ele>233.71428571428572</ele><time>2026-04-29T12:13:01.764Z</time></trkpt><trkpt lat="45.6496974" lon="9.4223395"><ele>233.85714285714286</ele><time>2026-04-29T12:13:02.764Z</time></trkpt><trkpt lat="45.6496217" lon="9.4223261"><ele>234.0</ele><time>2026-04-29T12:13:03.764Z</time></trkpt><trkpt lat="45.649547" lon="9.4223184"><ele>234.0</ele><time>2026-04-29T12:13:04.764Z</time></trkpt><trkpt lat="45.6494614" lon="9.4223104"><ele>234.0</ele><time>2026-04-29T12:13:05.764Z</time></trkpt><trkpt lat="45.6493939" lon="9.4223138"><ele>234.0</ele><time>2026-04-29T12:13:06.764Z</time></trkpt><trkpt lat="45.64932" lon="9.4223064"><ele>234.0</ele><time>2026-04-29T12:13:07.764Z</time></trkpt><trkpt lat="45.6492473" lon="9.4222958"><ele>234.0</ele><time>2026-04-29T12:13:08.764Z</time></trkpt><trkpt lat="45.6491275" lon="9.4222723"><ele>234.0</ele><time>2026-04-29T12:13:10.764Z</time></trkpt><trkpt lat="45.6490618" lon="9.42227"><ele>233.6</ele><time>2026-04-29T12:13:11.764Z</time></trkpt><trkpt lat="45.6489544" lon="9.4223077"><ele>233.2</ele><time>2026-04-29T12:13:13.764Z</time></trkpt><trkpt lat="45.6489394" lon="9.4224165"><ele>232.79999999999998</ele><time>2026-04-29T12:13:15.764Z</time></trkpt><trkpt lat="45.6489358" lon="9.422535"><ele>232.39999999999998</ele><time>2026-04-29T12:13:17.764Z</time></trkpt><trkpt lat="45.6489382" lon="9.4226659"><ele>232.0</ele><time>2026-04-29T12:13:19.764Z</time></trkpt><trkpt lat="45.6489409" lon="9.4227956"><ele>232.0</ele><time>2026-04-29T12:13:21.764Z</time></trkpt><trkpt lat="45.6489498" lon="9.4229252"><ele>232.0</ele><time>2026-04-29T12:13:23.764Z</time></trkpt><trkpt lat="45.6489572" lon="9.4230631"><ele>232.0</ele><time>2026-04-29T12:13:25.764Z</time></trkpt><trkpt lat="45.6489626" lon="9.4232062"><ele>232.0</ele><time>2026-04-29T12:13:27.764Z</time></trkpt><trkpt lat="45.6489461" lon="9.4233288"><ele>232.0</ele><time>2026-04-29T12:13:29.764Z</time></trkpt><trkpt lat="45.6488202" lon="9.423394"><ele>232.71428571428575</ele><time>2026-04-29T12:13:33.764Z</time></trkpt><trkpt lat="45.648742" lon="9.4234008"><ele>233.42857142857144</ele><time>2026-04-29T12:13:34.764Z</time></trkpt><trkpt lat="45.6486682" lon="9.4234071"><ele>234.14285714285714</ele><time>2026-04-29T12:13:35.764Z</time></trkpt><trkpt lat="45.6485993" lon="9.4234143"><ele>234.85714285714286</ele><time>2026-04-29T12:13:36.763Z</time></trkpt><trkpt lat="45.6485335" lon="9.4234199"><ele>235.57142857142856</ele><time>2026-04-29T12:13:37.764Z</time></trkpt><trkpt lat="45.6484705" lon="9.4234248"><ele>236.28571428571425</ele><time>2026-04-29T12:13:38.764Z</time></trkpt><trkpt lat="45.6484053" lon="9.4234297"><ele>236.99999999999997</ele><time>2026-04-29T12:13:39.764Z</time></trkpt><trkpt lat="45.6483393" lon="9.4234339"><ele>237.0</ele><time>2026-04-29T12:13:40.764Z</time></trkpt><trkpt lat="45.6482728" lon="9.4234373"><ele>237.0</ele><time>2026-04-29T12:13:41.764Z</time></trkpt><trkpt lat="45.6482051" lon="9.4234418"><ele>237.0</ele><time>2026-04-29T12:13:42.764Z</time></trkpt><trkpt lat="45.6480823" lon="9.423454"><ele>237.0</ele><time>2026-04-29T12:13:44.764Z</time></trkpt><trkpt lat="45.6480152" lon="9.4234565"><ele>237.0</ele><time>2026-04-29T12:13:45.764Z</time></trkpt><trkpt lat="45.6479523" lon="9.4234605"><ele>237.0</ele><time>2026-04-29T12:13:46.764Z</time></trkpt><trkpt lat="45.6478284" lon="9.4234708"><ele>237.2</ele><time>2026-04-29T12:13:48.764Z</time></trkpt><trkpt lat="45.6477033" lon="9.4234851"><ele>237.39999999999998</ele><time>2026-04-29T12:13:50.763Z</time></trkpt><trkpt lat="45.6476405" lon="9.4234947"><ele>237.60000000000002</ele><time>2026-04-29T12:13:51.764Z</time></trkpt><trkpt lat="45.6475773" lon="9.4235045"><ele>237.8</ele><time>2026-04-29T12:13:52.764Z</time></trkpt><trkpt lat="45.6474536" lon="9.4235171"><ele>238.0</ele><time>2026-04-29T12:13:54.764Z</time></trkpt><trkpt lat="45.6473288" lon="9.4235182"><ele>238.0</ele><time>2026-04-29T12:13:56.764Z</time></trkpt><trkpt lat="45.6472115" lon="9.4235095"><ele>238.0</ele><time>2026-04-29T12:13:58.764Z</time></trkpt><trkpt lat="45.6470979" lon="9.4234692"><ele>238.0</ele><time>2026-04-29T12:14:00.764Z</time></trkpt><trkpt lat="45.646996" lon="9.4233894"><ele>238.0</ele><time>2026-04-29T12:14:02.764Z</time></trkpt><trkpt lat="45.6468991" lon="9.4232996"><ele>238.2</ele><time>2026-04-29T12:14:04.764Z</time></trkpt><trkpt lat="45.6468445" lon="9.4232538"><ele>238.4</ele><time>2026-04-29T12:14:05.764Z</time></trkpt><trkpt lat="45.6467432" lon="9.4231761"><ele>238.59999999999997</ele><time>2026-04-29T12:14:07.763Z</time></trkpt><trkpt lat="45.6466492" lon="9.4230921"><ele>238.79999999999998</ele><time>2026-04-29T12:14:09.764Z</time></trkpt><trkpt lat="45.6465451" lon="9.4230082"><ele>239.0</ele><time>2026-04-29T12:14:11.764Z</time></trkpt><trkpt lat="45.6464353" lon="9.4229237"><ele>239.2</ele><time>2026-04-29T12:14:13.764Z</time></trkpt><trkpt lat="45.646324" lon="9.4228321"><ele>239.39999999999998</ele><time>2026-04-29T12:14:15.764Z</time></trkpt><trkpt lat="45.6462685" lon="9.422783"><ele>239.6</ele><time>2026-04-29T12:14:16.764Z</time></trkpt><trkpt lat="45.6462107" lon="9.4227347"><ele>239.8</ele><time>2026-04-29T12:14:17.764Z</time></trkpt><trkpt lat="45.6460986" lon="9.4226371"><ele>240.0</ele><time>2026-04-29T12:14:19.764Z</time></trkpt><trkpt lat="45.6460408" lon="9.4225974"><ele>240.0</ele><time>2026-04-29T12:14:20.764Z</time></trkpt><trkpt lat="45.6459823" lon="9.4225546"><ele>240.0</ele><time>2026-04-29T12:14:21.764Z</time></trkpt><trkpt lat="45.6459257" lon="9.4225105"><ele>240.0</ele><time>2026-04-29T12:14:22.764Z</time></trkpt><trkpt lat="45.6458198" lon="9.4224262"><ele>240.0</ele><time>2026-04-29T12:14:24.764Z</time></trkpt><trkpt lat="45.6457669" lon="9.4223747"><ele>240.0</ele><time>2026-04-29T12:14:25.764Z</time></trkpt><trkpt lat="45.6457063" lon="9.422321"><ele>240.0</ele><time>2026-04-29T12:14:26.764Z</time></trkpt><trkpt lat="45.6456112" lon="9.4222013"><ele>239.28571428571428</ele><time>2026-04-29T12:14:28.764Z</time></trkpt><trkpt lat="45.6455592" lon="9.4221299"><ele>238.57142857142856</ele><time>2026-04-29T12:14:29.764Z</time></trkpt><trkpt lat="45.6455116" lon="9.4220559"><ele>237.85714285714283</ele><time>2026-04-29T12:14:30.764Z</time></trkpt><trkpt lat="45.6454731" lon="9.4219743"><ele>237.14285714285714</ele><time>2026-04-29T12:14:31.764Z</time></trkpt><trkpt lat="45.6454387" lon="9.4218914"><ele>236.4285714285714</ele><time>2026-04-29T12:14:32.764Z</time></trkpt><trkpt lat="45.6454034" lon="9.4218035"><ele>235.7142857142857</ele><time>2026-04-29T12:14:33.764Z</time></trkpt><trkpt lat="45.6453737" lon="9.4217205"><ele>235.0</ele><time>2026-04-29T12:14:34.764Z</time></trkpt><trkpt lat="45.6453431" lon="9.4216303"><ele>235.0</ele><time>2026-04-29T12:14:35.764Z</time></trkpt><trkpt lat="45.6453094" lon="9.4215423"><ele>234.99999999999997</ele><time>2026-04-29T12:14:36.764Z</time></trkpt><trkpt lat="45.6452754" lon="9.4214514"><ele>235.0</ele><time>2026-04-29T12:14:37.764Z</time></trkpt><trkpt lat="45.6452448" lon="9.4213548"><ele>235.0</ele><time>2026-04-29T12:14:38.764Z</time></trkpt><trkpt lat="45.6452122" lon="9.4212593"><ele>234.99999999999997</ele><time>2026-04-29T12:14:39.764Z</time></trkpt><trkpt lat="45.6451804" lon="9.4211641"><ele>235.0</ele><time>2026-04-29T12:14:40.763Z</time></trkpt><trkpt lat="45.6451468" lon="9.4210681"><ele>235.0</ele><time>2026-04-29T12:14:41.764Z</time></trkpt><trkpt lat="45.6451115" lon="9.4209681"><ele>235.33333333333331</ele><time>2026-04-29T12:14:42.764Z</time></trkpt><trkpt lat="45.6450717" lon="9.4208615"><ele>235.66666666666666</ele><time>2026-04-29T12:14:43.764Z</time></trkpt><trkpt lat="45.64503" lon="9.420757"><ele>236.0</ele><time>2026-04-29T12:14:44.764Z</time></trkpt><trkpt lat="45.6449872" lon="9.4206504"><ele>236.33333333333331</ele><time>2026-04-29T12:14:45.764Z</time></trkpt><trkpt lat="45.6449493" lon="9.4205448"><ele>236.66666666666666</ele><time>2026-04-29T12:14:46.764Z</time></trkpt><trkpt lat="45.6449145" lon="9.4204332"><ele>237.0</ele><time>2026-04-29T12:14:47.764Z</time></trkpt><trkpt lat="45.6448777" lon="9.4203173"><ele>236.33333333333334</ele><time>2026-04-29T12:14:48.764Z</time></trkpt><trkpt lat="45.6448335" lon="9.4202081"><ele>235.66666666666669</ele><time>2026-04-29T12:14:49.764Z</time></trkpt><trkpt lat="45.6447903" lon="9.4200942"><ele>235.0</ele><time>2026-04-29T12:14:50.764Z</time></trkpt><trkpt lat="45.644751" lon="9.4199804"><ele>234.33333333333334</ele><time>2026-04-29T12:14:51.764Z</time></trkpt><trkpt lat="45.6447121" lon="9.4198649"><ele>233.66666666666669</ele><time>2026-04-29T12:14:52.764Z</time></trkpt><trkpt lat="45.6446778" lon="9.4197558"><ele>233.0</ele><time>2026-04-29T12:14:53.764Z</time></trkpt><trkpt lat="45.6446378" lon="9.4196464"><ele>232.50000000000003</ele><time>2026-04-29T12:14:54.764Z</time></trkpt><trkpt lat="45.6446038" lon="9.4195409"><ele>232.0</ele><time>2026-04-29T12:14:55.764Z</time></trkpt><trkpt lat="45.644564" lon="9.4194395"><ele>231.5</ele><time>2026-04-29T12:14:56.764Z</time></trkpt><trkpt lat="45.6445257" lon="9.4193323"><ele>231.0</ele><time>2026-04-29T12:14:57.764Z</time></trkpt><trkpt lat="45.6444902" lon="9.4192328"><ele>230.50000000000003</ele><time>2026-04-29T12:14:58.764Z</time></trkpt><trkpt lat="45.6444584" lon="9.4191232"><ele>230.0</ele><time>2026-04-29T12:14:59.764Z</time></trkpt><trkpt lat="45.6444167" lon="9.419008"><ele>230.00000000000003</ele><time>2026-04-29T12:15:00.764Z</time></trkpt><trkpt lat="45.6443831" lon="9.4189088"><ele>230.0</ele><time>2026-04-29T12:15:01.764Z</time></trkpt><trkpt lat="45.6443463" lon="9.4188073"><ele>230.0</ele><time>2026-04-29T12:15:02.764Z</time></trkpt><trkpt lat="45.6443098" lon="9.4187006"><ele>230.0</ele><time>2026-04-29T12:15:03.764Z</time></trkpt><trkpt lat="45.6442738" lon="9.418598"><ele>230.00000000000003</ele><time>2026-04-29T12:15:04.764Z</time></trkpt><trkpt lat="45.6442371" lon="9.4184899"><ele>230.0</ele><time>2026-04-29T12:15:05.764Z</time></trkpt><trkpt lat="45.6442064" lon="9.418383"><ele>229.66666666666669</ele><time>2026-04-29T12:15:06.764Z</time></trkpt><trkpt lat="45.6441696" lon="9.4182897"><ele>229.33333333333334</ele><time>2026-04-29T12:15:07.764Z</time></trkpt><trkpt lat="45.644125" lon="9.4182015"><ele>229.0</ele><time>2026-04-29T12:15:08.764Z</time></trkpt><trkpt lat="45.6440761" lon="9.4181201"><ele>228.66666666666669</ele><time>2026-04-29T12:15:09.764Z</time></trkpt><trkpt lat="45.6440128" lon="9.4180663"><ele>228.33333333333334</ele><time>2026-04-29T12:15:10.764Z</time></trkpt><trkpt lat="45.6439467" lon="9.4180076"><ele>228.0</ele><time>2026-04-29T12:15:11.764Z</time></trkpt><trkpt lat="45.6438782" lon="9.4179612"><ele>228.16666666666666</ele><time>2026-04-29T12:15:12.764Z</time></trkpt><trkpt lat="45.6438099" lon="9.4179137"><ele>228.33333333333331</ele><time>2026-04-29T12:15:13.764Z</time></trkpt><trkpt lat="45.6437433" lon="9.4178601"><ele>228.5</ele><time>2026-04-29T12:15:14.764Z</time></trkpt><trkpt lat="45.6436716" lon="9.4178178"><ele>228.66666666666666</ele><time>2026-04-29T12:15:15.764Z</time></trkpt><trkpt lat="45.6436006" lon="9.4177761"><ele>228.83333333333331</ele><time>2026-04-29T12:15:16.764Z</time></trkpt><trkpt lat="45.6435375" lon="9.4177256"><ele>229.0</ele><time>2026-04-29T12:15:17.764Z</time></trkpt><trkpt lat="45.6434611" lon="9.4176878"><ele>228.99999999999997</ele><time>2026-04-29T12:15:18.764Z</time></trkpt><trkpt lat="45.6433851" lon="9.4176417"><ele>229.0</ele><time>2026-04-29T12:15:19.764Z</time></trkpt><trkpt lat="45.6433122" lon="9.4175835"><ele>229.0</ele><time>2026-04-29T12:15:20.764Z</time></trkpt><trkpt lat="45.6432355" lon="9.4175409"><ele>229.0</ele><time>2026-04-29T12:15:21.764Z</time></trkpt><trkpt lat="45.6431652" lon="9.4174863"><ele>228.99999999999997</ele><time>2026-04-29T12:15:22.764Z</time></trkpt><trkpt lat="45.6430876" lon="9.4174306"><ele>229.0</ele><time>2026-04-29T12:15:23.764Z</time></trkpt><trkpt lat="45.6430132" lon="9.4173808"><ele>228.99999999999997</ele><time>2026-04-29T12:15:24.764Z</time></trkpt><trkpt lat="45.6429387" lon="9.4173293"><ele>229.0</ele><time>2026-04-29T12:15:25.764Z</time></trkpt><trkpt lat="45.6428654" lon="9.4172691"><ele>229.0</ele><time>2026-04-29T12:15:26.764Z</time></trkpt><trkpt lat="45.6427833" lon="9.4172233"><ele>229.0</ele><time>2026-04-29T12:15:27.764Z</time></trkpt><trkpt lat="45.6427056" lon="9.4171689"><ele>228.99999999999997</ele><time>2026-04-29T12:15:28.764Z</time></trkpt><trkpt lat="45.6426348" lon="9.4171026"><ele>229.0</ele><time>2026-04-29T12:15:29.764Z</time></trkpt><trkpt lat="45.6425456" lon="9.4170589"><ele>228.99999999999997</ele><time>2026-04-29T12:15:30.764Z</time></trkpt><trkpt lat="45.6424708" lon="9.4170105"><ele>229.0</ele><time>2026-04-29T12:15:31.764Z</time></trkpt><trkpt lat="45.6423743" lon="9.4169466"><ele>229.0</ele><time>2026-04-29T12:15:32.764Z</time></trkpt><trkpt lat="45.6423015" lon="9.4168964"><ele>229.0</ele><time>2026-04-29T12:15:33.764Z</time></trkpt><trkpt lat="45.6422292" lon="9.4168441"><ele>228.99999999999997</ele><time>2026-04-29T12:15:34.764Z</time></trkpt><trkpt lat="45.642153" lon="9.4167947"><ele>229.0</ele><time>2026-04-29T12:15:35.764Z</time></trkpt><trkpt lat="45.6420809" lon="9.4167397"><ele>228.99999999999997</ele><time>2026-04-29T12:15:36.764Z</time></trkpt><trkpt lat="45.6419981" lon="9.4166874"><ele>229.0</ele><time>2026-04-29T12:15:37.764Z</time></trkpt><trkpt lat="45.6419141" lon="9.4166321"><ele>229.0</ele><time>2026-04-29T12:15:38.764Z</time></trkpt><trkpt lat="45.6418351" lon="9.4165821"><ele>229.0</ele><time>2026-04-29T12:15:39.764Z</time></trkpt><trkpt lat="45.6417559" lon="9.416522"><ele>228.99999999999997</ele><time>2026-04-29T12:15:40.763Z</time></trkpt><trkpt lat="45.6416806" lon="9.4164693"><ele>229.0</ele><time>2026-04-29T12:15:41.764Z</time></trkpt><trkpt lat="45.641606" lon="9.4164168"><ele>228.99999999999997</ele><time>2026-04-29T12:15:42.763Z</time></trkpt><trkpt lat="45.6415406" lon="9.4163644"><ele>229.0</ele><time>2026-04-29T12:15:43.764Z</time></trkpt><trkpt lat="45.6414813" lon="9.4163198"><ele>229.0</ele><time>2026-04-29T12:15:44.764Z</time></trkpt><trkpt lat="45.6414174" lon="9.4162973"><ele>229.0</ele><time>2026-04-29T12:15:45.764Z</time></trkpt><trkpt lat="45.6413509" lon="9.4162813"><ele>228.99999999999997</ele><time>2026-04-29T12:15:46.764Z</time></trkpt><trkpt lat="45.6412916" lon="9.4163357"><ele>229.0</ele><time>2026-04-29T12:15:47.764Z</time></trkpt><trkpt lat="45.6412393" lon="9.4164891"><ele>228.99999999999997</ele><time>2026-04-29T12:15:49.764Z</time></trkpt><trkpt lat="45.641182" lon="9.4166381"><ele>229.0</ele><time>2026-04-29T12:15:51.764Z</time></trkpt><trkpt lat="45.6411179" lon="9.4167869"><ele>229.0</ele><time>2026-04-29T12:15:53.764Z</time></trkpt><trkpt lat="45.6410888" lon="9.4168724"><ele>229.0</ele><time>2026-04-29T12:15:54.764Z</time></trkpt><trkpt lat="45.6410558" lon="9.4169513"><ele>228.99999999999997</ele><time>2026-04-29T12:15:55.764Z</time></trkpt><trkpt lat="45.6410217" lon="9.4170384"><ele>229.0</ele><time>2026-04-29T12:15:56.764Z</time></trkpt><trkpt lat="45.6409859" lon="9.4171167"><ele>228.99999999999997</ele><time>2026-04-29T12:15:57.764Z</time></trkpt><trkpt lat="45.6409331" lon="9.4172764"><ele>229.0</ele><time>2026-04-29T12:15:59.764Z</time></trkpt><trkpt lat="45.640905" lon="9.4173726"><ele>229.0</ele><time>2026-04-29T12:16:00.764Z</time></trkpt><trkpt lat="45.6408721" lon="9.4174665"><ele>229.0</ele><time>2026-04-29T12:16:01.763Z</time></trkpt><trkpt lat="45.6408369" lon="9.4175512"><ele>228.99999999999997</ele><time>2026-04-29T12:16:02.764Z</time></trkpt><trkpt lat="45.6407974" lon="9.4176447"><ele>229.0</ele><time>2026-04-29T12:16:03.764Z</time></trkpt><trkpt lat="45.6407632" lon="9.4177528"><ele>229.0</ele><time>2026-04-29T12:16:04.764Z</time></trkpt><trkpt lat="45.6407186" lon="9.4178362"><ele>229.0</ele><time>2026-04-29T12:16:05.764Z</time></trkpt><trkpt lat="45.6406689" lon="9.4179112"><ele>229.0</ele><time>2026-04-29T12:16:06.764Z</time></trkpt><trkpt lat="45.6406151" lon="9.4179771"><ele>229.0</ele><time>2026-04-29T12:16:07.764Z</time></trkpt><trkpt lat="45.6405591" lon="9.4180608"><ele>229.0</ele><time>2026-04-29T12:16:08.764Z</time></trkpt><trkpt lat="45.6404914" lon="9.4181192"><ele>229.0</ele><time>2026-04-29T12:16:09.764Z</time></trkpt><trkpt lat="45.6404311" lon="9.4181725"><ele>229.0</ele><time>2026-04-29T12:16:10.764Z</time></trkpt><trkpt lat="45.6403678" lon="9.4182042"><ele>229.0</ele><time>2026-04-29T12:16:11.764Z</time></trkpt><trkpt lat="45.6402908" lon="9.4182271"><ele>228.99999999999997</ele><time>2026-04-29T12:16:12.764Z</time></trkpt><trkpt lat="45.6401497" lon="9.4182501"><ele>228.99999999999997</ele><time>2026-04-29T12:16:14.764Z</time></trkpt><trkpt lat="45.6400115" lon="9.4182448"><ele>229.0</ele><time>2026-04-29T12:16:16.764Z</time></trkpt><trkpt lat="45.6399308" lon="9.41823"><ele>229.0</ele><time>2026-04-29T12:16:17.764Z</time></trkpt><trkpt lat="45.6398557" lon="9.418221"><ele>228.99999999999997</ele><time>2026-04-29T12:16:18.764Z</time></trkpt><trkpt lat="45.6397776" lon="9.4181978"><ele>229.0</ele><time>2026-04-29T12:16:19.764Z</time></trkpt><trkpt lat="45.6396993" lon="9.4181861"><ele>229.0</ele><time>2026-04-29T12:16:20.764Z</time></trkpt><trkpt lat="45.6396254" lon="9.4181763"><ele>229.0</ele><time>2026-04-29T12:16:21.764Z</time></trkpt><trkpt lat="45.6395468" lon="9.4181591"><ele>228.99999999999997</ele><time>2026-04-29T12:16:22.764Z</time></trkpt><trkpt lat="45.6394685" lon="9.4181366"><ele>229.0</ele><time>2026-04-29T12:16:23.764Z</time></trkpt><trkpt lat="45.6393851" lon="9.4181171"><ele>228.66666666666666</ele><time>2026-04-29T12:16:24.763Z</time></trkpt><trkpt lat="45.6393055" lon="9.4180985"><ele>228.33333333333331</ele><time>2026-04-29T12:16:25.764Z</time></trkpt><trkpt lat="45.6392335" lon="9.4180964"><ele>228.0</ele><time>2026-04-29T12:16:26.764Z</time></trkpt><trkpt lat="45.6391579" lon="9.4180844"><ele>227.66666666666669</ele><time>2026-04-29T12:16:27.764Z</time></trkpt><trkpt lat="45.6390761" lon="9.4180719"><ele>227.33333333333334</ele><time>2026-04-29T12:16:28.764Z</time></trkpt><trkpt lat="45.6390047" lon="9.4180602"><ele>227.0</ele><time>2026-04-29T12:16:29.764Z</time></trkpt><trkpt lat="45.6389283" lon="9.4180588"><ele>227.00000000000003</ele><time>2026-04-29T12:16:30.764Z</time></trkpt><trkpt lat="45.6388618" lon="9.4180413"><ele>227.0</ele><time>2026-04-29T12:16:31.764Z</time></trkpt><trkpt lat="45.638795" lon="9.4180303"><ele>227.0</ele><time>2026-04-29T12:16:32.764Z</time></trkpt><trkpt lat="45.6386764" lon="9.4180056"><ele>227.0</ele><time>2026-04-29T12:16:34.764Z</time></trkpt><trkpt lat="45.6385967" lon="9.4180219"><ele>227.00000000000003</ele><time>2026-04-29T12:16:36.764Z</time></trkpt><trkpt lat="45.638515" lon="9.4180496"><ele>227.0</ele><time>2026-04-29T12:16:38.764Z</time></trkpt><trkpt lat="45.6384045" lon="9.4180913"><ele>226.2</ele><time>2026-04-29T12:16:40.763Z</time></trkpt><trkpt lat="45.6382833" lon="9.4181287"><ele>225.39999999999998</ele><time>2026-04-29T12:16:42.763Z</time></trkpt><trkpt lat="45.6382155" lon="9.4181464"><ele>224.60000000000002</ele><time>2026-04-29T12:16:43.764Z</time></trkpt><trkpt lat="45.6380866" lon="9.4181344"><ele>223.8</ele><time>2026-04-29T12:16:45.763Z</time></trkpt><trkpt lat="45.6380139" lon="9.4181146"><ele>223.0</ele><time>2026-04-29T12:16:46.764Z</time></trkpt><trkpt lat="45.6379474" lon="9.4181012"><ele>223.0</ele><time>2026-04-29T12:16:47.764Z</time></trkpt><trkpt lat="45.6378776" lon="9.4180774"><ele>223.0</ele><time>2026-04-29T12:16:48.764Z</time></trkpt><trkpt lat="45.6378036" lon="9.4180587"><ele>223.0</ele><time>2026-04-29T12:16:49.764Z</time></trkpt><trkpt lat="45.637735" lon="9.4180417"><ele>223.0</ele><time>2026-04-29T12:16:50.764Z</time></trkpt><trkpt lat="45.6376544" lon="9.4180225"><ele>223.0</ele><time>2026-04-29T12:16:51.764Z</time></trkpt><trkpt lat="45.6375914" lon="9.4180067"><ele>223.0</ele><time>2026-04-29T12:16:52.764Z</time></trkpt><trkpt lat="45.6375166" lon="9.4179838"><ele>223.0</ele><time>2026-04-29T12:16:53.764Z</time></trkpt><trkpt lat="45.6374424" lon="9.4179696"><ele>223.16666666666666</ele><time>2026-04-29T12:16:54.764Z</time></trkpt><trkpt lat="45.6373686" lon="9.4179482"><ele>223.33333333333331</ele><time>2026-04-29T12:16:55.764Z</time></trkpt><trkpt lat="45.6372904" lon="9.417939"><ele>223.5</ele><time>2026-04-29T12:16:56.764Z</time></trkpt><trkpt lat="45.637219" lon="9.4179388"><ele>223.66666666666669</ele><time>2026-04-29T12:16:57.764Z</time></trkpt><trkpt lat="45.6371382" lon="9.4179263"><ele>223.83333333333334</ele><time>2026-04-29T12:16:58.764Z</time></trkpt><trkpt lat="45.6370732" lon="9.4179141"><ele>224.0</ele><time>2026-04-29T12:16:59.764Z</time></trkpt><trkpt lat="45.6369982" lon="9.4178805"><ele>223.85714285714286</ele><time>2026-04-29T12:17:00.764Z</time></trkpt><trkpt lat="45.6369256" lon="9.4178415"><ele>223.71428571428572</ele><time>2026-04-29T12:17:01.764Z</time></trkpt><trkpt lat="45.6368577" lon="9.4178119"><ele>223.57142857142856</ele><time>2026-04-29T12:17:02.764Z</time></trkpt><trkpt lat="45.6367875" lon="9.417774"><ele>223.42857142857144</ele><time>2026-04-29T12:17:03.764Z</time></trkpt><trkpt lat="45.63672" lon="9.4177268"><ele>223.28571428571428</ele><time>2026-04-29T12:17:04.764Z</time></trkpt><trkpt lat="45.636646" lon="9.4176918"><ele>223.14285714285714</ele><time>2026-04-29T12:17:05.764Z</time></trkpt><trkpt lat="45.6365843" lon="9.4176576"><ele>223.0</ele><time>2026-04-29T12:17:06.764Z</time></trkpt><trkpt lat="45.6365211" lon="9.4176208"><ele>222.99999999999997</ele><time>2026-04-29T12:17:07.763Z</time></trkpt><trkpt lat="45.6364579" lon="9.4175911"><ele>223.0</ele><time>2026-04-29T12:17:08.764Z</time></trkpt><trkpt lat="45.6363535" lon="9.4175543"><ele>223.0</ele><time>2026-04-29T12:17:10.764Z</time></trkpt><trkpt lat="45.6362962" lon="9.4176034"><ele>223.0</ele><time>2026-04-29T12:17:12.764Z</time></trkpt><trkpt lat="45.6362456" lon="9.4177201"><ele>222.99999999999997</ele><time>2026-04-29T12:17:14.764Z</time></trkpt><trkpt lat="45.6361841" lon="9.4178549"><ele>223.0</ele><time>2026-04-29T12:17:16.764Z</time></trkpt><trkpt lat="45.6361238" lon="9.4179897"><ele>223.4</ele><time>2026-04-29T12:17:18.764Z</time></trkpt><trkpt lat="45.6360604" lon="9.4181304"><ele>223.8</ele><time>2026-04-29T12:17:20.764Z</time></trkpt><trkpt lat="45.6360249" lon="9.4182051"><ele>224.2</ele><time>2026-04-29T12:17:21.764Z</time></trkpt><trkpt lat="45.6359565" lon="9.418357"><ele>224.6</ele><time>2026-04-29T12:17:23.764Z</time></trkpt><trkpt lat="45.6358928" lon="9.4184939"><ele>225.0</ele><time>2026-04-29T12:17:25.764Z</time></trkpt><trkpt lat="45.6358232" lon="9.4185963"><ele>225.0</ele><time>2026-04-29T12:17:27.764Z</time></trkpt><trkpt lat="45.6357773" lon="9.4186968"><ele>225.0</ele><time>2026-04-29T12:17:29.764Z</time></trkpt><trkpt lat="45.6357467" lon="9.4188061"><ele>225.0</ele><time>2026-04-29T12:17:31.764Z</time></trkpt><trkpt lat="45.6357243" lon="9.4189226"><ele>225.0</ele><time>2026-04-29T12:17:33.764Z</time></trkpt><trkpt lat="45.6356832" lon="9.4190821"><ele>225.0</ele><time>2026-04-29T12:17:35.764Z</time></trkpt><trkpt lat="45.6356368" lon="9.4192177"><ele>225.33333333333334</ele><time>2026-04-29T12:17:37.764Z</time></trkpt><trkpt lat="45.635612" lon="9.4193428"><ele>225.66666666666669</ele><time>2026-04-29T12:17:39.764Z</time></trkpt><trkpt lat="45.6355749" lon="9.4194188"><ele>226.0</ele><time>2026-04-29T12:17:41.764Z</time></trkpt><trkpt lat="45.6354994" lon="9.4194383"><ele>226.33333333333334</ele><time>2026-04-29T12:17:44.764Z</time></trkpt><trkpt lat="45.6354247" lon="9.4193899"><ele>226.66666666666669</ele><time>2026-04-29T12:17:46.764Z</time></trkpt><trkpt lat="45.6353213" lon="9.4193265"><ele>227.0</ele><time>2026-04-29T12:17:48.764Z</time></trkpt><trkpt lat="45.6352" lon="9.4192586"><ele>227.2857142857143</ele><time>2026-04-29T12:17:50.764Z</time></trkpt><trkpt lat="45.6351339" lon="9.4192219"><ele>227.5714285714286</ele><time>2026-04-29T12:17:51.764Z</time></trkpt><trkpt lat="45.6350748" lon="9.4191888"><ele>227.85714285714286</ele><time>2026-04-29T12:17:52.764Z</time></trkpt><trkpt lat="45.6350102" lon="9.4191505"><ele>228.14285714285717</ele><time>2026-04-29T12:17:53.764Z</time></trkpt><trkpt lat="45.6349493" lon="9.4191109"><ele>228.42857142857144</ele><time>2026-04-29T12:17:54.764Z</time></trkpt><trkpt lat="45.6348809" lon="9.4190807"><ele>228.71428571428572</ele><time>2026-04-29T12:17:55.764Z</time></trkpt><trkpt lat="45.6348179" lon="9.4190382"><ele>229.0</ele><time>2026-04-29T12:17:56.764Z</time></trkpt><trkpt lat="45.6346896" lon="9.4189699"><ele>229.0</ele><time>2026-04-29T12:17:58.764Z</time></trkpt><trkpt lat="45.6346159" lon="9.4189209"><ele>229.0</ele><time>2026-04-29T12:17:59.764Z</time></trkpt><trkpt lat="45.6345465" lon="9.4188866"><ele>229.0</ele><time>2026-04-29T12:18:00.764Z</time></trkpt><trkpt lat="45.6344841" lon="9.4188511"><ele>229.0</ele><time>2026-04-29T12:18:01.764Z</time></trkpt><trkpt lat="45.6344187" lon="9.4188208"><ele>229.0</ele><time>2026-04-29T12:18:02.764Z</time></trkpt><trkpt lat="45.6343512" lon="9.4187968"><ele>229.0</ele><time>2026-04-29T12:18:03.764Z</time></trkpt><trkpt lat="45.6342796" lon="9.4187773"><ele>229.0</ele><time>2026-04-29T12:18:04.764Z</time></trkpt><trkpt lat="45.6342142" lon="9.4187578"><ele>228.28571428571428</ele><time>2026-04-29T12:18:05.764Z</time></trkpt><trkpt lat="45.6341423" lon="9.418741"><ele>227.57142857142858</ele><time>2026-04-29T12:18:06.763Z</time></trkpt><trkpt lat="45.6340765" lon="9.4187294"><ele>226.85714285714286</ele><time>2026-04-29T12:18:07.764Z</time></trkpt><trkpt lat="45.634003" lon="9.4186957"><ele>226.14285714285714</ele><time>2026-04-29T12:18:08.764Z</time></trkpt><trkpt lat="45.633933" lon="9.4186785"><ele>225.42857142857144</ele><time>2026-04-29T12:18:09.764Z</time></trkpt><trkpt lat="45.6338599" lon="9.4186542"><ele>224.71428571428572</ele><time>2026-04-29T12:18:10.764Z</time></trkpt><trkpt lat="45.6337952" lon="9.4186429"><ele>224.0</ele><time>2026-04-29T12:18:11.764Z</time></trkpt><trkpt lat="45.6337247" lon="9.4186212"><ele>224.00000000000003</ele><time>2026-04-29T12:18:12.764Z</time></trkpt><trkpt lat="45.6336573" lon="9.4186065"><ele>224.0</ele><time>2026-04-29T12:18:13.764Z</time></trkpt><trkpt lat="45.6335894" lon="9.4185855"><ele>224.0</ele><time>2026-04-29T12:18:14.764Z</time></trkpt><trkpt lat="45.6335192" lon="9.4185677"><ele>224.0</ele><time>2026-04-29T12:18:15.764Z</time></trkpt><trkpt lat="45.6334499" lon="9.4185469"><ele>224.00000000000003</ele><time>2026-04-29T12:18:16.763Z</time></trkpt><trkpt lat="45.633384" lon="9.4185388"><ele>224.0</ele><time>2026-04-29T12:18:17.764Z</time></trkpt><trkpt lat="45.6332748" lon="9.4185092"><ele>223.83333333333334</ele><time>2026-04-29T12:18:19.764Z</time></trkpt><trkpt lat="45.6331934" lon="9.4185079"><ele>223.66666666666669</ele><time>2026-04-29T12:18:20.764Z</time></trkpt><trkpt lat="45.6331145" lon="9.4184992"><ele>223.5</ele><time>2026-04-29T12:18:21.764Z</time></trkpt><trkpt lat="45.6330436" lon="9.4184817"><ele>223.33333333333331</ele><time>2026-04-29T12:18:22.764Z</time></trkpt><trkpt lat="45.6329651" lon="9.4184576"><ele>223.16666666666666</ele><time>2026-04-29T12:18:23.764Z</time></trkpt><trkpt lat="45.6328869" lon="9.4184352"><ele>223.0</ele><time>2026-04-29T12:18:24.763Z</time></trkpt><trkpt lat="45.6328087" lon="9.4184046"><ele>223.2</ele><time>2026-04-29T12:18:25.764Z</time></trkpt><trkpt lat="45.6327294" lon="9.4183764"><ele>223.4</ele><time>2026-04-29T12:18:26.764Z</time></trkpt><trkpt lat="45.6326464" lon="9.418357"><ele>223.59999999999997</ele><time>2026-04-29T12:18:27.763Z</time></trkpt><trkpt lat="45.6325692" lon="9.4183294"><ele>223.79999999999998</ele><time>2026-04-29T12:18:28.764Z</time></trkpt><trkpt lat="45.6324886" lon="9.4183122"><ele>224.0</ele><time>2026-04-29T12:18:29.764Z</time></trkpt><trkpt lat="45.6323656" lon="9.4182668"><ele>224.00000000000003</ele><time>2026-04-29T12:18:31.764Z</time></trkpt><trkpt lat="45.6322948" lon="9.4182531"><ele>224.0</ele><time>2026-04-29T12:18:32.764Z</time></trkpt><trkpt lat="45.6322275" lon="9.4182336"><ele>224.0</ele><time>2026-04-29T12:18:33.764Z</time></trkpt><trkpt lat="45.6321488" lon="9.4182132"><ele>224.0</ele><time>2026-04-29T12:18:34.764Z</time></trkpt><trkpt lat="45.632078" lon="9.4182001"><ele>224.00000000000003</ele><time>2026-04-29T12:18:35.764Z</time></trkpt><trkpt lat="45.6319972" lon="9.4181822"><ele>224.0</ele><time>2026-04-29T12:18:36.764Z</time></trkpt><trkpt lat="45.6319204" lon="9.4181724"><ele>223.83333333333334</ele><time>2026-04-29T12:18:37.764Z</time></trkpt><trkpt lat="45.6318332" lon="9.4181613"><ele>223.66666666666669</ele><time>2026-04-29T12:18:38.764Z</time></trkpt><trkpt lat="45.63174" lon="9.4181377"><ele>223.5</ele><time>2026-04-29T12:18:39.764Z</time></trkpt><trkpt lat="45.6316584" lon="9.4181168"><ele>223.33333333333331</ele><time>2026-04-29T12:18:40.764Z</time></trkpt><trkpt lat="45.6315833" lon="9.4181032"><ele>223.16666666666666</ele><time>2026-04-29T12:18:41.764Z</time></trkpt><trkpt lat="45.63151" lon="9.4180896"><ele>223.0</ele><time>2026-04-29T12:18:42.764Z</time></trkpt><trkpt lat="45.6314238" lon="9.4180951"><ele>222.99999999999997</ele><time>2026-04-29T12:18:43.764Z</time></trkpt><trkpt lat="45.6313238" lon="9.4180967"><ele>223.0</ele><time>2026-04-29T12:18:44.764Z</time></trkpt><trkpt lat="45.6312014" lon="9.4181056"><ele>223.0</ele><time>2026-04-29T12:18:46.764Z</time></trkpt><trkpt lat="45.6311338" lon="9.4181042"><ele>223.0</ele><time>2026-04-29T12:18:47.764Z</time></trkpt><trkpt lat="45.6310619" lon="9.4180847"><ele>222.99999999999997</ele><time>2026-04-29T12:18:48.764Z</time></trkpt><trkpt lat="45.6309899" lon="9.4180815"><ele>223.0</ele><time>2026-04-29T12:18:49.764Z</time></trkpt><trkpt lat="45.6308987" lon="9.4180679"><ele>223.33333333333331</ele><time>2026-04-29T12:18:50.764Z</time></trkpt><trkpt lat="45.6308262" lon="9.4180544"><ele>223.66666666666666</ele><time>2026-04-29T12:18:51.764Z</time></trkpt><trkpt lat="45.6307561" lon="9.4180537"><ele>224.0</ele><time>2026-04-29T12:18:52.764Z</time></trkpt><trkpt lat="45.6306863" lon="9.4180647"><ele>224.33333333333331</ele><time>2026-04-29T12:18:53.764Z</time></trkpt><trkpt lat="45.6306139" lon="9.4180756"><ele>224.66666666666666</ele><time>2026-04-29T12:18:54.764Z</time></trkpt><trkpt lat="45.6305274" lon="9.4180954"><ele>225.0</ele><time>2026-04-29T12:18:55.764Z</time></trkpt><trkpt lat="45.6304456" lon="9.4181109"><ele>225.0</ele><time>2026-04-29T12:18:56.764Z</time></trkpt><trkpt lat="45.6303558" lon="9.4181272"><ele>225.0</ele><time>2026-04-29T12:18:57.764Z</time></trkpt><trkpt lat="45.6302808" lon="9.4181425"><ele>225.0</ele><time>2026-04-29T12:18:58.764Z</time></trkpt><trkpt lat="45.6302149" lon="9.4181422"><ele>225.0</ele><time>2026-04-29T12:18:59.764Z</time></trkpt><trkpt lat="45.6301477" lon="9.4181567"><ele>225.0</ele><time>2026-04-29T12:19:00.764Z</time></trkpt><trkpt lat="45.6300627" lon="9.4181461"><ele>225.0</ele><time>2026-04-29T12:19:01.764Z</time></trkpt><trkpt lat="45.6299789" lon="9.4181383"><ele>224.33333333333334</ele><time>2026-04-29T12:19:02.764Z</time></trkpt><trkpt lat="45.629901" lon="9.4181232"><ele>223.66666666666669</ele><time>2026-04-29T12:19:03.764Z</time></trkpt><trkpt lat="45.629823" lon="9.4180961"><ele>223.0</ele><time>2026-04-29T12:19:04.764Z</time></trkpt><trkpt lat="45.6297518" lon="9.4181056"><ele>222.33333333333334</ele><time>2026-04-29T12:19:05.764Z</time></trkpt><trkpt lat="45.6296838" lon="9.4181445"><ele>221.66666666666669</ele><time>2026-04-29T12:19:06.764Z</time></trkpt><trkpt lat="45.6296092" lon="9.4181908"><ele>221.0</ele><time>2026-04-29T12:19:07.764Z</time></trkpt><trkpt lat="45.6295341" lon="9.4182284"><ele>220.66666666666669</ele><time>2026-04-29T12:19:08.764Z</time></trkpt><trkpt lat="45.6294552" lon="9.4182491"><ele>220.33333333333334</ele><time>2026-04-29T12:19:09.764Z</time></trkpt><trkpt lat="45.6293712" lon="9.4182659"><ele>220.0</ele><time>2026-04-29T12:19:10.764Z</time></trkpt><trkpt lat="45.6292862" lon="9.4182895"><ele>219.66666666666669</ele><time>2026-04-29T12:19:11.763Z</time></trkpt><trkpt lat="45.6291983" lon="9.4183045"><ele>219.33333333333334</ele><time>2026-04-29T12:19:12.764Z</time></trkpt><trkpt lat="45.6291055" lon="9.4183211"><ele>219.0</ele><time>2026-04-29T12:19:13.764Z</time></trkpt><trkpt lat="45.6290079" lon="9.4183272"><ele>219.0</ele><time>2026-04-29T12:19:14.764Z</time></trkpt><trkpt lat="45.6289206" lon="9.418343"><ele>219.0</ele><time>2026-04-29T12:19:15.764Z</time></trkpt><trkpt lat="45.6288348" lon="9.418353"><ele>219.0</ele><time>2026-04-29T12:19:16.764Z</time></trkpt><trkpt lat="45.628746" lon="9.4183676"><ele>219.0</ele><time>2026-04-29T12:19:17.764Z</time></trkpt><trkpt lat="45.6286574" lon="9.418372"><ele>219.0</ele><time>2026-04-29T12:19:18.764Z</time></trkpt><trkpt lat="45.6285627" lon="9.4183783"><ele>219.0</ele><time>2026-04-29T12:19:19.764Z</time></trkpt><trkpt lat="45.6284815" lon="9.4184029"><ele>218.2</ele><time>2026-04-29T12:19:20.763Z</time></trkpt><trkpt lat="45.6284015" lon="9.4184161"><ele>217.39999999999998</ele><time>2026-04-29T12:19:21.764Z</time></trkpt><trkpt lat="45.6282973" lon="9.4183945"><ele>216.6</ele><time>2026-04-29T12:19:22.764Z</time></trkpt><trkpt lat="45.6282079" lon="9.4183861"><ele>215.8</ele><time>2026-04-29T12:19:23.764Z</time></trkpt><trkpt lat="45.6281146" lon="9.418383"><ele>215.0</ele><time>2026-04-29T12:19:24.764Z</time></trkpt><trkpt lat="45.6280216" lon="9.4183747"><ele>215.0</ele><time>2026-04-29T12:19:25.764Z</time></trkpt><trkpt lat="45.6279258" lon="9.4183701"><ele>215.0</ele><time>2026-04-29T12:19:26.764Z</time></trkpt><trkpt lat="45.6278323" lon="9.4183655"><ele>215.0</ele><time>2026-04-29T12:19:27.764Z</time></trkpt><trkpt lat="45.6277455" lon="9.4183645"><ele>215.0</ele><time>2026-04-29T12:19:28.764Z</time></trkpt><trkpt lat="45.6276544" lon="9.4183526"><ele>215.0</ele><time>2026-04-29T12:19:29.764Z</time></trkpt><trkpt lat="45.6275622" lon="9.4183498"><ele>215.0</ele><time>2026-04-29T12:19:30.764Z</time></trkpt><trkpt lat="45.6274792" lon="9.4183448"><ele>215.0</ele><time>2026-04-29T12:19:31.764Z</time></trkpt><trkpt lat="45.6273838" lon="9.4183342"><ele>215.0</ele><time>2026-04-29T12:19:32.764Z</time></trkpt><trkpt lat="45.6272922" lon="9.4183327"><ele>215.0</ele><time>2026-04-29T12:19:33.764Z</time></trkpt><trkpt lat="45.6271942" lon="9.418339"><ele>215.0</ele><time>2026-04-29T12:19:34.764Z</time></trkpt><trkpt lat="45.6271053" lon="9.4183314"><ele>215.0</ele><time>2026-04-29T12:19:35.764Z</time></trkpt><trkpt lat="45.627012" lon="9.4183227"><ele>215.0</ele><time>2026-04-29T12:19:36.764Z</time></trkpt><trkpt lat="45.6269268" lon="9.4183181"><ele>215.0</ele><time>2026-04-29T12:19:37.764Z</time></trkpt><trkpt lat="45.6268299" lon="9.4183087"><ele>215.0</ele><time>2026-04-29T12:19:38.764Z</time></trkpt><trkpt lat="45.6267347" lon="9.4182914"><ele>215.0</ele><time>2026-04-29T12:19:39.764Z</time></trkpt><trkpt lat="45.6266378" lon="9.4182883"><ele>215.2</ele><time>2026-04-29T12:19:40.763Z</time></trkpt><trkpt lat="45.6265495" lon="9.4182741"><ele>215.4</ele><time>2026-04-29T12:19:41.764Z</time></trkpt><trkpt lat="45.6264486" lon="9.4182586"><ele>215.60000000000002</ele><time>2026-04-29T12:19:42.764Z</time></trkpt><trkpt lat="45.6263613" lon="9.418244"><ele>215.8</ele><time>2026-04-29T12:19:43.764Z</time></trkpt><trkpt lat="45.6262637" lon="9.4182275"><ele>216.0</ele><time>2026-04-29T12:19:44.764Z</time></trkpt><trkpt lat="45.6261665" lon="9.4182152"><ele>215.60000000000002</ele><time>2026-04-29T12:19:45.764Z</time></trkpt><trkpt lat="45.6260739" lon="9.4182008"><ele>215.20000000000002</ele><time>2026-04-29T12:19:46.764Z</time></trkpt><trkpt lat="45.6259796" lon="9.418187"><ele>214.79999999999998</ele><time>2026-04-29T12:19:47.764Z</time></trkpt><trkpt lat="45.6258835" lon="9.4181763"><ele>214.39999999999998</ele><time>2026-04-29T12:19:48.764Z</time></trkpt><trkpt lat="45.625787" lon="9.4181622"><ele>214.0</ele><time>2026-04-29T12:19:49.764Z</time></trkpt><trkpt lat="45.625696" lon="9.4181476"><ele>213.99999999999997</ele><time>2026-04-29T12:19:50.764Z</time></trkpt><trkpt lat="45.6256066" lon="9.4181347"><ele>214.0</ele><time>2026-04-29T12:19:51.764Z</time></trkpt><trkpt lat="45.6255228" lon="9.4181205"><ele>214.0</ele><time>2026-04-29T12:19:52.764Z</time></trkpt><trkpt lat="45.6254425" lon="9.4181057"><ele>214.0</ele><time>2026-04-29T12:19:53.764Z</time></trkpt><trkpt lat="45.6253628" lon="9.4180829"><ele>213.99999999999997</ele><time>2026-04-29T12:19:54.764Z</time></trkpt><trkpt lat="45.6252954" lon="9.4180431"><ele>214.0</ele><time>2026-04-29T12:19:55.764Z</time></trkpt><trkpt lat="45.6252371" lon="9.4179893"><ele>213.79999999999998</ele><time>2026-04-29T12:19:56.764Z</time></trkpt><trkpt lat="45.6251723" lon="9.4178793"><ele>213.59999999999997</ele><time>2026-04-29T12:19:58.763Z</time></trkpt><trkpt lat="45.6251211" lon="9.4178041"><ele>213.4</ele><time>2026-04-29T12:20:00.764Z</time></trkpt><trkpt lat="45.6250428" lon="9.4177359"><ele>213.2</ele><time>2026-04-29T12:20:03.764Z</time></trkpt><trkpt lat="45.6249504" lon="9.4177164"><ele>213.0</ele><time>2026-04-29T12:20:05.764Z</time></trkpt><trkpt lat="45.6248539" lon="9.417769"><ele>213.0</ele><time>2026-04-29T12:20:07.764Z</time></trkpt><trkpt lat="45.6247773" lon="9.417897"><ele>213.0</ele><time>2026-04-29T12:20:09.764Z</time></trkpt><trkpt lat="45.6247082" lon="9.4179836"><ele>213.0</ele><time>2026-04-29T12:20:11.764Z</time></trkpt><trkpt lat="45.624621" lon="9.4179803"><ele>213.0</ele><time>2026-04-29T12:20:13.764Z</time></trkpt><trkpt lat="45.6245146" lon="9.4179715"><ele>213.0</ele><time>2026-04-29T12:20:15.764Z</time></trkpt><trkpt lat="45.6243981" lon="9.4179672"><ele>213.60000000000002</ele><time>2026-04-29T12:20:17.764Z</time></trkpt><trkpt lat="45.6242735" lon="9.4179512"><ele>214.20000000000002</ele><time>2026-04-29T12:20:19.764Z</time></trkpt><trkpt lat="45.6241611" lon="9.4179079"><ele>214.8</ele><time>2026-04-29T12:20:21.764Z</time></trkpt><trkpt lat="45.6240495" lon="9.4178811"><ele>215.4</ele><time>2026-04-29T12:20:23.764Z</time></trkpt><trkpt lat="45.623975" lon="9.4178742"><ele>216.0</ele><time>2026-04-29T12:20:24.764Z</time></trkpt><trkpt lat="45.6239073" lon="9.4178655"><ele>216.0</ele><time>2026-04-29T12:20:25.764Z</time></trkpt><trkpt lat="45.6238414" lon="9.4178543"><ele>216.0</ele><time>2026-04-29T12:20:26.764Z</time></trkpt><trkpt lat="45.6237734" lon="9.4178524"><ele>216.0</ele><time>2026-04-29T12:20:27.764Z</time></trkpt><trkpt lat="45.6237063" lon="9.4178407"><ele>216.0</ele><time>2026-04-29T12:20:28.764Z</time></trkpt><trkpt lat="45.623638" lon="9.417834"><ele>216.0</ele><time>2026-04-29T12:20:29.764Z</time></trkpt><trkpt lat="45.6235613" lon="9.4178248"><ele>216.0</ele><time>2026-04-29T12:20:30.764Z</time></trkpt><trkpt lat="45.6234957" lon="9.4178227"><ele>216.0</ele><time>2026-04-29T12:20:31.764Z</time></trkpt><trkpt lat="45.6234289" lon="9.4177982"><ele>215.8</ele><time>2026-04-29T12:20:32.764Z</time></trkpt><trkpt lat="45.6233032" lon="9.4177797"><ele>215.60000000000002</ele><time>2026-04-29T12:20:34.764Z</time></trkpt><trkpt lat="45.6232353" lon="9.4177743"><ele>215.4</ele><time>2026-04-29T12:20:35.764Z</time></trkpt><trkpt lat="45.6231634" lon="9.417771"><ele>215.2</ele><time>2026-04-29T12:20:36.764Z</time></trkpt><trkpt lat="45.623086" lon="9.4177482"><ele>215.0</ele><time>2026-04-29T12:20:37.764Z</time></trkpt><trkpt lat="45.6229649" lon="9.4177301"><ele>215.00000000000003</ele><time>2026-04-29T12:20:39.764Z</time></trkpt><trkpt lat="45.6228943" lon="9.4177119"><ele>215.0</ele><time>2026-04-29T12:20:40.764Z</time></trkpt><trkpt lat="45.6228302" lon="9.4176931"><ele>215.0</ele><time>2026-04-29T12:20:41.764Z</time></trkpt><trkpt lat="45.6227184" lon="9.417658"><ele>215.0</ele><time>2026-04-29T12:20:43.764Z</time></trkpt><trkpt lat="45.6226508" lon="9.4176477"><ele>215.00000000000003</ele><time>2026-04-29T12:20:44.764Z</time></trkpt><trkpt lat="45.6225652" lon="9.4176525"><ele>215.0</ele><time>2026-04-29T12:20:45.764Z</time></trkpt><trkpt lat="45.6224995" lon="9.4176764"><ele>214.8</ele><time>2026-04-29T12:20:46.764Z</time></trkpt><trkpt lat="45.6224495" lon="9.4177414"><ele>214.6</ele><time>2026-04-29T12:20:47.764Z</time></trkpt><trkpt lat="45.6223743" lon="9.4178706"><ele>214.39999999999998</ele><time>2026-04-29T12:20:49.764Z</time></trkpt><trkpt lat="45.6222943" lon="9.4179817"><ele>214.2</ele><time>2026-04-29T12:20:51.764Z</time></trkpt><trkpt lat="45.62218" lon="9.4180503"><ele>214.0</ele><time>2026-04-29T12:20:53.764Z</time></trkpt><trkpt lat="45.6220775" lon="9.4180435"><ele>213.83333333333331</ele><time>2026-04-29T12:20:55.764Z</time></trkpt><trkpt lat="45.6219623" lon="9.4180207"><ele>213.66666666666666</ele><time>2026-04-29T12:20:57.764Z</time></trkpt><trkpt lat="45.6218911" lon="9.4180163"><ele>213.5</ele><time>2026-04-29T12:20:58.764Z</time></trkpt><trkpt lat="45.6218192" lon="9.4180061"><ele>213.33333333333331</ele><time>2026-04-29T12:20:59.764Z</time></trkpt><trkpt lat="45.6217558" lon="9.4179993"><ele>213.16666666666666</ele><time>2026-04-29T12:21:00.764Z</time></trkpt><trkpt lat="45.6216817" lon="9.4180223"><ele>213.0</ele><time>2026-04-29T12:21:01.764Z</time></trkpt><trkpt lat="45.6215974" lon="9.418043"><ele>213.0</ele><time>2026-04-29T12:21:02.764Z</time></trkpt><trkpt lat="45.6215025" lon="9.4180875"><ele>213.0</ele><time>2026-04-29T12:21:03.764Z</time></trkpt><trkpt lat="45.6213842" lon="9.4181626"><ele>213.0</ele><time>2026-04-29T12:21:05.763Z</time></trkpt><trkpt lat="45.621311" lon="9.4182134"><ele>213.0</ele><time>2026-04-29T12:21:06.764Z</time></trkpt><trkpt lat="45.6211606" lon="9.4182791"><ele>212.8</ele><time>2026-04-29T12:21:08.764Z</time></trkpt><trkpt lat="45.6210857" lon="9.4183088"><ele>212.60000000000002</ele><time>2026-04-29T12:21:09.764Z</time></trkpt><trkpt lat="45.6209693" lon="9.4183783"><ele>212.39999999999998</ele><time>2026-04-29T12:21:11.764Z</time></trkpt><trkpt lat="45.6208619" lon="9.4184202"><ele>212.2</ele><time>2026-04-29T12:21:13.764Z</time></trkpt><trkpt lat="45.6207756" lon="9.4184508"><ele>212.0</ele><time>2026-04-29T12:21:14.764Z</time></trkpt><trkpt lat="45.6207402" lon="9.4185479"><ele>212.0</ele><time>2026-04-29T12:21:16.764Z</time></trkpt><trkpt lat="45.6207303" lon="9.4187053"><ele>212.0</ele><time>2026-04-29T12:21:18.764Z</time></trkpt><trkpt lat="45.6207313" lon="9.4188846"><ele>212.0</ele><time>2026-04-29T12:21:20.764Z</time></trkpt><trkpt lat="45.6207356" lon="9.4189835"><ele>212.0</ele><time>2026-04-29T12:21:21.764Z</time></trkpt><trkpt lat="45.620729" lon="9.419074"><ele>212.0</ele><time>2026-04-29T12:21:22.764Z</time></trkpt><trkpt lat="45.6207324" lon="9.4192454"><ele>211.6</ele><time>2026-04-29T12:21:24.764Z</time></trkpt><trkpt lat="45.6207405" lon="9.419415"><ele>211.2</ele><time>2026-04-29T12:21:26.763Z</time></trkpt><trkpt lat="45.6207449" lon="9.4195062"><ele>210.8</ele><time>2026-04-29T12:21:27.764Z</time></trkpt><trkpt lat="45.6207413" lon="9.4196537"><ele>210.4</ele><time>2026-04-29T12:21:29.763Z</time></trkpt><trkpt lat="45.6207025" lon="9.4197589"><ele>210.0</ele><time>2026-04-29T12:21:32.764Z</time></trkpt><trkpt lat="45.6206132" lon="9.4197725"><ele>210.0</ele><time>2026-04-29T12:21:34.764Z</time></trkpt><trkpt lat="45.6205029" lon="9.4197657"><ele>210.0</ele><time>2026-04-29T12:21:36.764Z</time></trkpt><trkpt lat="45.6204378" lon="9.4197606"><ele>210.0</ele><time>2026-04-29T12:21:37.764Z</time></trkpt><trkpt lat="45.6203656" lon="9.4197627"><ele>210.0</ele><time>2026-04-29T12:21:38.764Z</time></trkpt><trkpt lat="45.6202908" lon="9.419759"><ele>210.0</ele><time>2026-04-29T12:21:39.764Z</time></trkpt><trkpt lat="45.6201992" lon="9.4197957"><ele>210.0</ele><time>2026-04-29T12:21:40.764Z</time></trkpt><trkpt lat="45.6200829" lon="9.4197873"><ele>209.66666666666666</ele><time>2026-04-29T12:21:42.764Z</time></trkpt><trkpt lat="45.6200157" lon="9.4197879"><ele>209.33333333333331</ele><time>2026-04-29T12:21:43.764Z</time></trkpt><trkpt lat="45.619949" lon="9.4197924"><ele>209.0</ele><time>2026-04-29T12:21:44.764Z</time></trkpt><trkpt lat="45.6198842" lon="9.4198021"><ele>208.66666666666666</ele><time>2026-04-29T12:21:45.764Z</time></trkpt><trkpt lat="45.6197685" lon="9.4198251"><ele>208.33333333333331</ele><time>2026-04-29T12:21:47.764Z</time></trkpt><trkpt lat="45.6197067" lon="9.4199664"><ele>208.0</ele><time>2026-04-29T12:21:49.764Z</time></trkpt><trkpt lat="45.6196949" lon="9.4201301"><ele>207.99999999999997</ele><time>2026-04-29T12:21:51.764Z</time></trkpt><trkpt lat="45.619686" lon="9.4202989"><ele>208.0</ele><time>2026-04-29T12:21:53.764Z</time></trkpt><trkpt lat="45.6196801" lon="9.4203898"><ele>208.0</ele><time>2026-04-29T12:21:54.764Z</time></trkpt><trkpt lat="45.6196657" lon="9.420571"><ele>208.0</ele><time>2026-04-29T12:21:56.764Z</time></trkpt><trkpt lat="45.6196607" lon="9.4206614"><ele>207.99999999999997</ele><time>2026-04-29T12:21:57.764Z</time></trkpt><trkpt lat="45.6196582" lon="9.4207566"><ele>208.0</ele><time>2026-04-29T12:21:58.763Z</time></trkpt><trkpt lat="45.6196528" lon="9.4208522"><ele>208.16666666666666</ele><time>2026-04-29T12:21:59.764Z</time></trkpt><trkpt lat="45.6196483" lon="9.4209486"><ele>208.33333333333331</ele><time>2026-04-29T12:22:00.764Z</time></trkpt><trkpt lat="45.6196422" lon="9.4210386"><ele>208.5</ele><time>2026-04-29T12:22:01.764Z</time></trkpt><trkpt lat="45.619629" lon="9.421221"><ele>208.66666666666669</ele><time>2026-04-29T12:22:03.764Z</time></trkpt><trkpt lat="45.6196248" lon="9.4213213"><ele>208.83333333333334</ele><time>2026-04-29T12:22:04.764Z</time></trkpt><trkpt lat="45.6196205" lon="9.4214184"><ele>209.0</ele><time>2026-04-29T12:22:05.764Z</time></trkpt><trkpt lat="45.6196129" lon="9.4215117"><ele>209.16666666666669</ele><time>2026-04-29T12:22:06.764Z</time></trkpt><trkpt lat="45.6196053" lon="9.4216041"><ele>209.33333333333334</ele><time>2026-04-29T12:22:07.764Z</time></trkpt><trkpt lat="45.619599" lon="9.4217022"><ele>209.5</ele><time>2026-04-29T12:22:08.764Z</time></trkpt><trkpt lat="45.619596" lon="9.4218019"><ele>209.66666666666669</ele><time>2026-04-29T12:22:09.764Z</time></trkpt><trkpt lat="45.6195839" lon="9.4219062"><ele>209.83333333333334</ele><time>2026-04-29T12:22:10.764Z</time></trkpt><trkpt lat="45.6195768" lon="9.4220801"><ele>210.0</ele><time>2026-04-29T12:22:12.764Z</time></trkpt><trkpt lat="45.6195732" lon="9.4221771"><ele>210.0</ele><time>2026-04-29T12:22:13.764Z</time></trkpt><trkpt lat="45.6195779" lon="9.4222711"><ele>210.0</ele><time>2026-04-29T12:22:14.764Z</time></trkpt><trkpt lat="45.6195745" lon="9.4223776"><ele>210.0</ele><time>2026-04-29T12:22:15.764Z</time></trkpt><trkpt lat="45.6195698" lon="9.4224723"><ele>210.0</ele><time>2026-04-29T12:22:16.764Z</time></trkpt><trkpt lat="45.6195596" lon="9.4225723"><ele>210.0</ele><time>2026-04-29T12:22:17.764Z</time></trkpt><trkpt lat="45.6195566" lon="9.4226847"><ele>210.0</ele><time>2026-04-29T12:22:18.764Z</time></trkpt><trkpt lat="45.6195529" lon="9.4227815"><ele>210.0</ele><time>2026-04-29T12:22:19.764Z</time></trkpt><trkpt lat="45.6195486" lon="9.4228773"><ele>210.0</ele><time>2026-04-29T12:22:20.764Z</time></trkpt><trkpt lat="45.6195332" lon="9.4230548"><ele>210.0</ele><time>2026-04-29T12:22:22.764Z</time></trkpt><trkpt lat="45.6195221" lon="9.4231447"><ele>210.0</ele><time>2026-04-29T12:22:23.764Z</time></trkpt><trkpt lat="45.619514" lon="9.423244"><ele>210.0</ele><time>2026-04-29T12:22:24.764Z</time></trkpt><trkpt lat="45.6195084" lon="9.4234293"><ele>210.0</ele><time>2026-04-29T12:22:26.764Z</time></trkpt><trkpt lat="45.619521" lon="9.4235403"><ele>210.0</ele><time>2026-04-29T12:22:27.764Z</time></trkpt><trkpt lat="45.6195247" lon="9.4236684"><ele>210.0</ele><time>2026-04-29T12:22:28.764Z</time></trkpt><trkpt lat="45.619525" lon="9.4237644"><ele>210.0</ele><time>2026-04-29T12:22:29.764Z</time></trkpt><trkpt lat="45.619524" lon="9.4238739"><ele>210.0</ele><time>2026-04-29T12:22:30.764Z</time></trkpt><trkpt lat="45.6195223" lon="9.4239782"><ele>210.0</ele><time>2026-04-29T12:22:31.764Z</time></trkpt><trkpt lat="45.6195131" lon="9.4240739"><ele>210.0</ele><time>2026-04-29T12:22:32.764Z</time></trkpt><trkpt lat="45.6195094" lon="9.4241709"><ele>210.0</ele><time>2026-04-29T12:22:33.764Z</time></trkpt><trkpt lat="45.6195053" lon="9.424272"><ele>209.83333333333334</ele><time>2026-04-29T12:22:34.764Z</time></trkpt><trkpt lat="45.6195046" lon="9.4243725"><ele>209.66666666666669</ele><time>2026-04-29T12:22:35.764Z</time></trkpt><trkpt lat="45.6194956" lon="9.4244635"><ele>209.5</ele><time>2026-04-29T12:22:36.764Z</time></trkpt><trkpt lat="45.6194893" lon="9.4245535"><ele>209.33333333333334</ele><time>2026-04-29T12:22:37.764Z</time></trkpt><trkpt lat="45.6194799" lon="9.4247432"><ele>209.16666666666669</ele><time>2026-04-29T12:22:39.764Z</time></trkpt><trkpt lat="45.6194706" lon="9.4248495"><ele>209.0</ele><time>2026-04-29T12:22:40.764Z</time></trkpt><trkpt lat="45.6194652" lon="9.4250348"><ele>209.00000000000003</ele><time>2026-04-29T12:22:42.764Z</time></trkpt><trkpt lat="45.6194653" lon="9.4251441"><ele>209.0</ele><time>2026-04-29T12:22:43.764Z</time></trkpt><trkpt lat="45.6194619" lon="9.4252636"><ele>209.0</ele><time>2026-04-29T12:22:44.764Z</time></trkpt><trkpt lat="45.6194587" lon="9.425369"><ele>209.0</ele><time>2026-04-29T12:22:45.764Z</time></trkpt><trkpt lat="45.6194552" lon="9.4254596"><ele>209.00000000000003</ele><time>2026-04-29T12:22:46.764Z</time></trkpt><trkpt lat="45.6194435" lon="9.4255574"><ele>209.0</ele><time>2026-04-29T12:22:47.764Z</time></trkpt><trkpt lat="45.6194254" lon="9.4257407"><ele>209.0</ele><time>2026-04-29T12:22:49.764Z</time></trkpt><trkpt lat="45.6194071" lon="9.4259148"><ele>209.0</ele><time>2026-04-29T12:22:51.763Z</time></trkpt><trkpt lat="45.6194049" lon="9.4260947"><ele>209.0</ele><time>2026-04-29T12:22:53.764Z</time></trkpt><trkpt lat="45.6194029" lon="9.4261882"><ele>209.0</ele><time>2026-04-29T12:22:54.763Z</time></trkpt><trkpt lat="45.6194014" lon="9.4262962"><ele>209.0</ele><time>2026-04-29T12:22:55.764Z</time></trkpt><trkpt lat="45.6194126" lon="9.4263955"><ele>209.0</ele><time>2026-04-29T12:22:56.764Z</time></trkpt><trkpt lat="45.6194278" lon="9.4265332"><ele>209.0</ele><time>2026-04-29T12:22:58.764Z</time></trkpt><trkpt lat="45.6194217" lon="9.4266232"><ele>209.0</ele><time>2026-04-29T12:22:59.764Z</time></trkpt><trkpt lat="45.6194157" lon="9.426796"><ele>209.0</ele><time>2026-04-29T12:23:01.764Z</time></trkpt><trkpt lat="45.6194217" lon="9.4268925"><ele>209.0</ele><time>2026-04-29T12:23:02.764Z</time></trkpt><trkpt lat="45.619451" lon="9.4270709"><ele>209.0</ele><time>2026-04-29T12:23:04.764Z</time></trkpt><trkpt lat="45.6194474" lon="9.4272412"><ele>209.0</ele><time>2026-04-29T12:23:06.764Z</time></trkpt><trkpt lat="45.6194186" lon="9.427379"><ele>209.0</ele><time>2026-04-29T12:23:08.764Z</time></trkpt><trkpt lat="45.6194401" lon="9.42751"><ele>209.0</ele><time>2026-04-29T12:23:10.764Z</time></trkpt><trkpt lat="45.619501" lon="9.4276106"><ele>209.0</ele><time>2026-04-29T12:23:12.764Z</time></trkpt><trkpt lat="45.619571" lon="9.4277169"><ele>208.79999999999998</ele><time>2026-04-29T12:23:14.764Z</time></trkpt><trkpt lat="45.6196451" lon="9.4278444"><ele>208.6</ele><time>2026-04-29T12:23:16.764Z</time></trkpt><trkpt lat="45.6197264" lon="9.4279601"><ele>208.4</ele><time>2026-04-29T12:23:18.764Z</time></trkpt><trkpt lat="45.619804" lon="9.4280479"><ele>208.2</ele><time>2026-04-29T12:23:20.764Z</time></trkpt><trkpt lat="45.619873" lon="9.4281811"><ele>208.0</ele><time>2026-04-29T12:23:22.764Z</time></trkpt><trkpt lat="45.6199176" lon="9.4283432"><ele>208.0</ele><time>2026-04-29T12:23:24.764Z</time></trkpt><trkpt lat="45.6199332" lon="9.4284331"><ele>208.0</ele><time>2026-04-29T12:23:25.764Z</time></trkpt><trkpt lat="45.619959" lon="9.4285355"><ele>208.0</ele><time>2026-04-29T12:23:26.764Z</time></trkpt><trkpt lat="45.6199235" lon="9.428623"><ele>208.0</ele><time>2026-04-29T12:23:27.764Z</time></trkpt><trkpt lat="45.6199046" lon="9.4287105"><ele>208.0</ele><time>2026-04-29T12:23:28.764Z</time></trkpt><trkpt lat="45.619887" lon="9.4288107"><ele>208.0</ele><time>2026-04-29T12:23:29.764Z</time></trkpt><trkpt lat="45.6198717" lon="9.4289113"><ele>208.0</ele><time>2026-04-29T12:23:30.763Z</time></trkpt><trkpt lat="45.6198514" lon="9.4290085"><ele>208.0</ele><time>2026-04-29T12:23:31.764Z</time></trkpt><trkpt lat="45.6198366" lon="9.4291037"><ele>208.0</ele><time>2026-04-29T12:23:32.764Z</time></trkpt><trkpt lat="45.619819" lon="9.4292113"><ele>208.0</ele><time>2026-04-29T12:23:33.764Z</time></trkpt><trkpt lat="45.6197994" lon="9.4293116"><ele>208.0</ele><time>2026-04-29T12:23:34.764Z</time></trkpt><trkpt lat="45.6197803" lon="9.4294096"><ele>208.0</ele><time>2026-04-29T12:23:35.764Z</time></trkpt><trkpt lat="45.6197581" lon="9.429504"><ele>208.0</ele><time>2026-04-29T12:23:36.764Z</time></trkpt><trkpt lat="45.6197421" lon="9.4295983"><ele>208.0</ele><time>2026-04-29T12:23:37.764Z</time></trkpt><trkpt lat="45.6197279" lon="9.4297083"><ele>208.0</ele><time>2026-04-29T12:23:38.764Z</time></trkpt><trkpt lat="45.6196968" lon="9.4297937"><ele>208.0</ele><time>2026-04-29T12:23:39.764Z</time></trkpt><trkpt lat="45.6196554" lon="9.4298743"><ele>208.0</ele><time>2026-04-29T12:23:40.764Z</time></trkpt><trkpt lat="45.6196094" lon="9.4299677"><ele>208.0</ele><time>2026-04-29T12:23:41.764Z</time></trkpt><trkpt lat="45.6195547" lon="9.4300176"><ele>208.0</ele><time>2026-04-29T12:23:42.764Z</time></trkpt><trkpt lat="45.6194914" lon="9.4300821"><ele>208.0</ele><time>2026-04-29T12:23:43.764Z</time></trkpt><trkpt lat="45.6194325" lon="9.4301413"><ele>208.0</ele><time>2026-04-29T12:23:44.764Z</time></trkpt><trkpt lat="45.6193635" lon="9.4301907"><ele>208.0</ele><time>2026-04-29T12:23:45.764Z</time></trkpt><trkpt lat="45.6192987" lon="9.4302402"><ele>208.0</ele><time>2026-04-29T12:23:46.763Z</time></trkpt><trkpt lat="45.6192339" lon="9.4302743"><ele>208.0</ele><time>2026-04-29T12:23:47.764Z</time></trkpt><trkpt lat="45.6191681" lon="9.4303143"><ele>208.0</ele><time>2026-04-29T12:23:48.764Z</time></trkpt><trkpt lat="45.6190979" lon="9.4303489"><ele>208.0</ele><time>2026-04-29T12:23:49.764Z</time></trkpt><trkpt lat="45.6190217" lon="9.4303787"><ele>208.0</ele><time>2026-04-29T12:23:50.764Z</time></trkpt><trkpt lat="45.6189519" lon="9.4304077"><ele>208.0</ele><time>2026-04-29T12:23:51.763Z</time></trkpt><trkpt lat="45.6188848" lon="9.4304426"><ele>207.99999999999997</ele><time>2026-04-29T12:23:52.764Z</time></trkpt><trkpt lat="45.6188126" lon="9.4304737"><ele>208.0</ele><time>2026-04-29T12:23:53.764Z</time></trkpt><trkpt lat="45.6187418" lon="9.4305013"><ele>208.0</ele><time>2026-04-29T12:23:54.764Z</time></trkpt><trkpt lat="45.6186698" lon="9.4305286"><ele>208.0</ele><time>2026-04-29T12:23:55.764Z</time></trkpt><trkpt lat="45.6185962" lon="9.4305626"><ele>207.99999999999997</ele><time>2026-04-29T12:23:56.764Z</time></trkpt><trkpt lat="45.6185236" lon="9.4305969"><ele>208.0</ele><time>2026-04-29T12:23:57.764Z</time></trkpt><trkpt lat="45.6184444" lon="9.4306275"><ele>207.99999999999997</ele><time>2026-04-29T12:23:58.764Z</time></trkpt><trkpt lat="45.6183824" lon="9.4306626"><ele>208.0</ele><time>2026-04-29T12:23:59.764Z</time></trkpt><trkpt lat="45.6182654" lon="9.4307741"><ele>208.0</ele><time>2026-04-29T12:24:01.763Z</time></trkpt><trkpt lat="45.6182183" lon="9.4308396"><ele>208.0</ele><time>2026-04-29T12:24:02.764Z</time></trkpt><trkpt lat="45.6181745" lon="9.4309091"><ele>207.99999999999997</ele><time>2026-04-29T12:24:03.764Z</time></trkpt><trkpt lat="45.6181365" lon="9.4309884"><ele>208.0</ele><time>2026-04-29T12:24:04.764Z</time></trkpt><trkpt lat="45.6180948" lon="9.4310714"><ele>208.0</ele><time>2026-04-29T12:24:05.764Z</time></trkpt><trkpt lat="45.6180541" lon="9.4311561"><ele>208.0</ele><time>2026-04-29T12:24:06.764Z</time></trkpt><trkpt lat="45.6180202" lon="9.4312504"><ele>208.0</ele><time>2026-04-29T12:24:07.764Z</time></trkpt><trkpt lat="45.6179811" lon="9.4313387"><ele>208.0</ele><time>2026-04-29T12:24:08.764Z</time></trkpt><trkpt lat="45.6179477" lon="9.4314258"><ele>208.0</ele><time>2026-04-29T12:24:09.764Z</time></trkpt><trkpt lat="45.6179088" lon="9.4315176"><ele>208.0</ele><time>2026-04-29T12:24:10.764Z</time></trkpt><trkpt lat="45.6178809" lon="9.4316127"><ele>208.0</ele><time>2026-04-29T12:24:11.764Z</time></trkpt><trkpt lat="45.617849" lon="9.4317053"><ele>207.7142857142857</ele><time>2026-04-29T12:24:12.764Z</time></trkpt><trkpt lat="45.6178141" lon="9.4318061"><ele>207.42857142857144</ele><time>2026-04-29T12:24:13.764Z</time></trkpt><trkpt lat="45.6177749" lon="9.4318956"><ele>207.14285714285714</ele><time>2026-04-29T12:24:14.764Z</time></trkpt><trkpt lat="45.6177472" lon="9.4319953"><ele>206.85714285714283</ele><time>2026-04-29T12:24:15.764Z</time></trkpt><trkpt lat="45.6177208" lon="9.4320806"><ele>206.57142857142856</ele><time>2026-04-29T12:24:16.764Z</time></trkpt><trkpt lat="45.6176866" lon="9.4321797"><ele>206.28571428571428</ele><time>2026-04-29T12:24:17.764Z</time></trkpt><trkpt lat="45.6176452" lon="9.4322697"><ele>206.0</ele><time>2026-04-29T12:24:18.764Z</time></trkpt><trkpt lat="45.6176138" lon="9.432365"><ele>205.99999999999997</ele><time>2026-04-29T12:24:19.764Z</time></trkpt><trkpt lat="45.6175711" lon="9.432454"><ele>206.0</ele><time>2026-04-29T12:24:20.764Z</time></trkpt><trkpt lat="45.6175397" lon="9.4325454"><ele>206.0</ele><time>2026-04-29T12:24:21.764Z</time></trkpt><trkpt lat="45.6174974" lon="9.432624"><ele>206.0</ele><time>2026-04-29T12:24:22.764Z</time></trkpt><trkpt lat="45.61745" lon="9.4327017"><ele>206.0</ele><time>2026-04-29T12:24:23.764Z</time></trkpt><trkpt lat="45.6174003" lon="9.4327787"><ele>205.99999999999997</ele><time>2026-04-29T12:24:24.764Z</time></trkpt><trkpt lat="45.6173521" lon="9.4328647"><ele>206.0</ele><time>2026-04-29T12:24:25.764Z</time></trkpt><trkpt lat="45.6173055" lon="9.4329352"><ele>206.00000000000003</ele><time>2026-04-29T12:24:26.764Z</time></trkpt><trkpt lat="45.6172547" lon="9.4330201"><ele>206.0</ele><time>2026-04-29T12:24:27.764Z</time></trkpt><trkpt lat="45.617209" lon="9.4330927"><ele>206.0</ele><time>2026-04-29T12:24:28.764Z</time></trkpt><trkpt lat="45.6171606" lon="9.4331809"><ele>206.0</ele><time>2026-04-29T12:24:29.764Z</time></trkpt><trkpt lat="45.6171051" lon="9.4332635"><ele>206.00000000000003</ele><time>2026-04-29T12:24:30.764Z</time></trkpt><trkpt lat="45.6170568" lon="9.4333546"><ele>206.0</ele><time>2026-04-29T12:24:31.764Z</time></trkpt><trkpt lat="45.6170067" lon="9.43343"><ele>206.00000000000003</ele><time>2026-04-29T12:24:32.764Z</time></trkpt><trkpt lat="45.6169622" lon="9.4335085"><ele>206.0</ele><time>2026-04-29T12:24:33.764Z</time></trkpt><trkpt lat="45.6169096" lon="9.4335845"><ele>206.0</ele><time>2026-04-29T12:24:34.764Z</time></trkpt><trkpt lat="45.6168666" lon="9.4336546"><ele>206.0</ele><time>2026-04-29T12:24:35.764Z</time></trkpt><trkpt lat="45.6168208" lon="9.4337292"><ele>206.00000000000003</ele><time>2026-04-29T12:24:36.764Z</time></trkpt><trkpt lat="45.6167309" lon="9.4338662"><ele>206.0</ele><time>2026-04-29T12:24:38.764Z</time></trkpt><trkpt lat="45.6166163" lon="9.4339212"><ele>206.0</ele><time>2026-04-29T12:24:40.764Z</time></trkpt><trkpt lat="45.6165099" lon="9.4338859"><ele>206.0</ele><time>2026-04-29T12:24:42.764Z</time></trkpt><trkpt lat="45.6164246" lon="9.4337777"><ele>206.0</ele><time>2026-04-29T12:24:44.764Z</time></trkpt><trkpt lat="45.6163554" lon="9.4336434"><ele>206.0</ele><time>2026-04-29T12:24:46.764Z</time></trkpt><trkpt lat="45.6163267" lon="9.4335543"><ele>206.0</ele><time>2026-04-29T12:24:47.764Z</time></trkpt><trkpt lat="45.6163025" lon="9.4334712"><ele>205.83333333333334</ele><time>2026-04-29T12:24:48.764Z</time></trkpt><trkpt lat="45.6162679" lon="9.4332955"><ele>205.66666666666669</ele><time>2026-04-29T12:24:50.764Z</time></trkpt><trkpt lat="45.616256" lon="9.4331987"><ele>205.5</ele><time>2026-04-29T12:24:51.764Z</time></trkpt><trkpt lat="45.6162442" lon="9.4331078"><ele>205.33333333333331</ele><time>2026-04-29T12:24:52.763Z</time></trkpt><trkpt lat="45.6162383" lon="9.4330036"><ele>205.16666666666666</ele><time>2026-04-29T12:24:53.764Z</time></trkpt><trkpt lat="45.6162257" lon="9.4329073"><ele>205.0</ele><time>2026-04-29T12:24:54.764Z</time></trkpt><trkpt lat="45.6162082" lon="9.4327285"><ele>205.0</ele><time>2026-04-29T12:24:56.764Z</time></trkpt><trkpt lat="45.6161869" lon="9.4325537"><ele>205.0</ele><time>2026-04-29T12:24:58.764Z</time></trkpt><trkpt lat="45.6161785" lon="9.4324615"><ele>205.0</ele><time>2026-04-29T12:24:59.764Z</time></trkpt><trkpt lat="45.6161646" lon="9.4322819"><ele>205.0</ele><time>2026-04-29T12:25:01.764Z</time></trkpt><trkpt lat="45.6161559" lon="9.4321246"><ele>205.0</ele><time>2026-04-29T12:25:03.764Z</time></trkpt><trkpt lat="45.6161247" lon="9.4320296"><ele>204.99999999999997</ele><time>2026-04-29T12:25:05.764Z</time></trkpt><trkpt lat="45.6160502" lon="9.4320062"><ele>205.0</ele><time>2026-04-29T12:25:07.764Z</time></trkpt><trkpt lat="45.6159947" lon="9.4320532"><ele>205.0</ele><time>2026-04-29T12:25:09.764Z</time></trkpt><trkpt lat="45.6159746" lon="9.4321666"><ele>205.0</ele><time>2026-04-29T12:25:11.763Z</time></trkpt><trkpt lat="45.6159642" lon="9.4322974"><ele>204.99999999999997</ele><time>2026-04-29T12:25:13.764Z</time></trkpt><trkpt lat="45.6159417" lon="9.4324293"><ele>205.0</ele><time>2026-04-29T12:25:15.764Z</time></trkpt><trkpt lat="45.6159293" lon="9.4325183"><ele>204.75</ele><time>2026-04-29T12:25:16.764Z</time></trkpt><trkpt lat="45.6159173" lon="9.432608"><ele>204.5</ele><time>2026-04-29T12:25:17.764Z</time></trkpt><trkpt lat="45.6158911" lon="9.4327555"><ele>204.25</ele><time>2026-04-29T12:25:19.764Z</time></trkpt><trkpt lat="45.6158367" lon="9.432846"><ele>204.0</ele><time>2026-04-29T12:25:21.764Z</time></trkpt><trkpt lat="45.6155879" lon="9.4331854"><ele>204.0</ele><time>2026-04-29T12:25:27.752Z</time></trkpt><trkpt lat="45.6155817" lon="9.4333194"><ele>204.0</ele><time>2026-04-29T12:25:29.762Z</time></trkpt><trkpt lat="45.6156116" lon="9.4334782"><ele>204.0</ele><time>2026-04-29T12:25:31.762Z</time></trkpt><trkpt lat="45.6155403" lon="9.4335281"><ele>204.0</ele><time>2026-04-29T12:25:34.761Z</time></trkpt><trkpt lat="45.6154477" lon="9.4334814"><ele>204.0</ele><time>2026-04-29T12:25:36.761Z</time></trkpt><trkpt lat="45.6153379" lon="9.4334388"><ele>204.2</ele><time>2026-04-29T12:25:38.761Z</time></trkpt><trkpt lat="45.6152215" lon="9.4333898"><ele>204.39999999999998</ele><time>2026-04-29T12:25:40.761Z</time></trkpt><trkpt lat="45.6151601" lon="9.4333607"><ele>204.6</ele><time>2026-04-29T12:25:41.761Z</time></trkpt><trkpt lat="45.6150417" lon="9.4333039"><ele>204.8</ele><time>2026-04-29T12:25:43.761Z</time></trkpt><trkpt lat="45.6149745" lon="9.4332699"><ele>205.0</ele><time>2026-04-29T12:25:44.761Z</time></trkpt><trkpt lat="45.6148522" lon="9.4332021"><ele>204.99999999999997</ele><time>2026-04-29T12:25:46.761Z</time></trkpt><trkpt lat="45.6147756" lon="9.4331678"><ele>205.0</ele><time>2026-04-29T12:25:47.761Z</time></trkpt><trkpt lat="45.6147138" lon="9.4331239"><ele>205.0</ele><time>2026-04-29T12:25:48.761Z</time></trkpt><trkpt lat="45.6146495" lon="9.4330935"><ele>205.0</ele><time>2026-04-29T12:25:49.761Z</time></trkpt><trkpt lat="45.6145829" lon="9.4330611"><ele>204.99999999999997</ele><time>2026-04-29T12:25:50.761Z</time></trkpt><trkpt lat="45.6144561" lon="9.4330144"><ele>205.0</ele><time>2026-04-29T12:25:52.761Z</time></trkpt><trkpt lat="45.6143946" lon="9.4329893"><ele>204.71428571428572</ele><time>2026-04-29T12:25:53.761Z</time></trkpt><trkpt lat="45.6143295" lon="9.4329638"><ele>204.42857142857142</ele><time>2026-04-29T12:25:54.761Z</time></trkpt><trkpt lat="45.61426" lon="9.4329125"><ele>204.14285714285714</ele><time>2026-04-29T12:25:55.761Z</time></trkpt><trkpt lat="45.6141789" lon="9.4328797"><ele>203.85714285714286</ele><time>2026-04-29T12:25:56.761Z</time></trkpt><trkpt lat="45.6140995" lon="9.432842"><ele>203.57142857142856</ele><time>2026-04-29T12:25:57.761Z</time></trkpt><trkpt lat="45.6140386" lon="9.4328133"><ele>203.28571428571428</ele><time>2026-04-29T12:25:58.761Z</time></trkpt><trkpt lat="45.6139703" lon="9.4328034"><ele>203.0</ele><time>2026-04-29T12:25:59.761Z</time></trkpt><trkpt lat="45.613908" lon="9.4328233"><ele>203.00000000000003</ele><time>2026-04-29T12:26:00.761Z</time></trkpt><trkpt lat="45.6138438" lon="9.432858"><ele>203.0</ele><time>2026-04-29T12:26:01.761Z</time></trkpt><trkpt lat="45.6137791" lon="9.4328758"><ele>203.0</ele><time>2026-04-29T12:26:02.761Z</time></trkpt><trkpt lat="45.6137133" lon="9.4328765"><ele>203.0</ele><time>2026-04-29T12:26:03.761Z</time></trkpt><trkpt lat="45.6135846" lon="9.4328432"><ele>203.00000000000003</ele><time>2026-04-29T12:26:05.761Z</time></trkpt><trkpt lat="45.6135139" lon="9.4328151"><ele>203.0</ele><time>2026-04-29T12:26:06.761Z</time></trkpt><trkpt lat="45.6134555" lon="9.4327797"><ele>203.00000000000003</ele><time>2026-04-29T12:26:07.761Z</time></trkpt><trkpt lat="45.6133367" lon="9.4327049"><ele>203.0</ele><time>2026-04-29T12:26:09.761Z</time></trkpt><trkpt lat="45.6132719" lon="9.432673"><ele>203.0</ele><time>2026-04-29T12:26:10.761Z</time></trkpt><trkpt lat="45.6132048" lon="9.4326389"><ele>203.0</ele><time>2026-04-29T12:26:11.761Z</time></trkpt><trkpt lat="45.6131356" lon="9.4326044"><ele>203.00000000000003</ele><time>2026-04-29T12:26:12.761Z</time></trkpt><trkpt lat="45.613065" lon="9.432571"><ele>203.0</ele><time>2026-04-29T12:26:13.761Z</time></trkpt><trkpt lat="45.6129981" lon="9.4325391"><ele>203.0</ele><time>2026-04-29T12:26:14.761Z</time></trkpt><trkpt lat="45.6129284" lon="9.432502"><ele>203.0</ele><time>2026-04-29T12:26:15.761Z</time></trkpt><trkpt lat="45.6128588" lon="9.4324709"><ele>203.0</ele><time>2026-04-29T12:26:16.761Z</time></trkpt><trkpt lat="45.6127917" lon="9.4324317"><ele>203.0</ele><time>2026-04-29T12:26:17.761Z</time></trkpt><trkpt lat="45.6127183" lon="9.4324207"><ele>203.0</ele><time>2026-04-29T12:26:18.761Z</time></trkpt><trkpt lat="45.6126468" lon="9.432405"><ele>203.0</ele><time>2026-04-29T12:26:19.761Z</time></trkpt><trkpt lat="45.6125726" lon="9.4323965"><ele>203.0</ele><time>2026-04-29T12:26:20.761Z</time></trkpt><trkpt lat="45.612499" lon="9.4323787"><ele>203.00000000000003</ele><time>2026-04-29T12:26:21.761Z</time></trkpt><trkpt lat="45.6124244" lon="9.4323669"><ele>203.0</ele><time>2026-04-29T12:26:22.761Z</time></trkpt><trkpt lat="45.6123561" lon="9.4323619"><ele>203.0</ele><time>2026-04-29T12:26:23.761Z</time></trkpt><trkpt lat="45.6122774" lon="9.4323493"><ele>203.0</ele><time>2026-04-29T12:26:24.76Z</time></trkpt><trkpt lat="45.6121971" lon="9.4323505"><ele>203.00000000000003</ele><time>2026-04-29T12:26:25.761Z</time></trkpt><trkpt lat="45.6121096" lon="9.4323428"><ele>203.0</ele><time>2026-04-29T12:26:26.761Z</time></trkpt><trkpt lat="45.6119871" lon="9.4323506"><ele>202.85714285714286</ele><time>2026-04-29T12:26:28.761Z</time></trkpt><trkpt lat="45.6119257" lon="9.4323179"><ele>202.71428571428572</ele><time>2026-04-29T12:26:29.761Z</time></trkpt><trkpt lat="45.6118709" lon="9.4322717"><ele>202.57142857142856</ele><time>2026-04-29T12:26:30.761Z</time></trkpt><trkpt lat="45.6118077" lon="9.4322156"><ele>202.42857142857144</ele><time>2026-04-29T12:26:31.761Z</time></trkpt><trkpt lat="45.6117643" lon="9.4321439"><ele>202.28571428571428</ele><time>2026-04-29T12:26:32.761Z</time></trkpt><trkpt lat="45.6117116" lon="9.4320768"><ele>202.14285714285714</ele><time>2026-04-29T12:26:33.761Z</time></trkpt><trkpt lat="45.6116481" lon="9.4320256"><ele>202.0</ele><time>2026-04-29T12:26:34.761Z</time></trkpt><trkpt lat="45.6115431" lon="9.431969"><ele>202.0</ele><time>2026-04-29T12:26:36.761Z</time></trkpt><trkpt lat="45.6114443" lon="9.4319565"><ele>202.0</ele><time>2026-04-29T12:26:38.761Z</time></trkpt><trkpt lat="45.6113663" lon="9.4319576"><ele>202.0</ele><time>2026-04-29T12:26:39.761Z</time></trkpt><trkpt lat="45.6112335" lon="9.4319514"><ele>202.0</ele><time>2026-04-29T12:26:41.761Z</time></trkpt><trkpt lat="45.6111595" lon="9.4319636"><ele>202.0</ele><time>2026-04-29T12:26:42.761Z</time></trkpt><trkpt lat="45.6110773" lon="9.4319422"><ele>201.49999999999997</ele><time>2026-04-29T12:26:43.761Z</time></trkpt><trkpt lat="45.6110049" lon="9.431929"><ele>201.0</ele><time>2026-04-29T12:26:44.761Z</time></trkpt><trkpt lat="45.6109139" lon="9.431937"><ele>200.5</ele><time>2026-04-29T12:26:45.761Z</time></trkpt><trkpt lat="45.6108406" lon="9.4319419"><ele>200.0</ele><time>2026-04-29T12:26:46.761Z</time></trkpt><trkpt lat="45.6107609" lon="9.4319619"><ele>199.49999999999997</ele><time>2026-04-29T12:26:47.761Z</time></trkpt><trkpt lat="45.6106838" lon="9.4319706"><ele>199.0</ele><time>2026-04-29T12:26:48.761Z</time></trkpt><trkpt lat="45.6106257" lon="9.432034"><ele>198.6</ele><time>2026-04-29T12:26:49.761Z</time></trkpt><trkpt lat="45.6105171" lon="9.4321433"><ele>198.2</ele><time>2026-04-29T12:26:51.761Z</time></trkpt><trkpt lat="45.610463" lon="9.4321958"><ele>197.79999999999998</ele><time>2026-04-29T12:26:52.761Z</time></trkpt><trkpt lat="45.6103928" lon="9.4322354"><ele>197.39999999999998</ele><time>2026-04-29T12:26:53.761Z</time></trkpt><trkpt lat="45.610267" lon="9.4322457"><ele>197.0</ele><time>2026-04-29T12:26:55.761Z</time></trkpt><trkpt lat="45.6101524" lon="9.4322254"><ele>196.8</ele><time>2026-04-29T12:26:57.761Z</time></trkpt><trkpt lat="45.6100265" lon="9.4322896"><ele>196.6</ele><time>2026-04-29T12:26:59.761Z</time></trkpt><trkpt lat="45.6099564" lon="9.4323142"><ele>196.4</ele><time>2026-04-29T12:27:00.761Z</time></trkpt><trkpt lat="45.6098845" lon="9.4323203"><ele>196.20000000000002</ele><time>2026-04-29T12:27:01.761Z</time></trkpt><trkpt lat="45.6097562" lon="9.4322728"><ele>196.0</ele><time>2026-04-29T12:27:03.761Z</time></trkpt><trkpt lat="45.6096732" lon="9.4322603"><ele>196.0</ele><time>2026-04-29T12:27:04.761Z</time></trkpt><trkpt lat="45.6095955" lon="9.4322334"><ele>196.0</ele><time>2026-04-29T12:27:05.761Z</time></trkpt><trkpt lat="45.6095266" lon="9.4322097"><ele>196.0</ele><time>2026-04-29T12:27:06.761Z</time></trkpt><trkpt lat="45.6094584" lon="9.4321808"><ele>196.0</ele><time>2026-04-29T12:27:07.761Z</time></trkpt><trkpt lat="45.6093882" lon="9.4321554"><ele>196.0</ele><time>2026-04-29T12:27:08.761Z</time></trkpt><trkpt lat="45.6093163" lon="9.4321249"><ele>196.0</ele><time>2026-04-29T12:27:09.761Z</time></trkpt><trkpt lat="45.6092467" lon="9.4320832"><ele>196.0</ele><time>2026-04-29T12:27:10.761Z</time></trkpt><trkpt lat="45.6091192" lon="9.4320314"><ele>195.83333333333331</ele><time>2026-04-29T12:27:12.761Z</time></trkpt><trkpt lat="45.609053" lon="9.4319977"><ele>195.66666666666666</ele><time>2026-04-29T12:27:13.761Z</time></trkpt><trkpt lat="45.6089786" lon="9.4319761"><ele>195.5</ele><time>2026-04-29T12:27:14.761Z</time></trkpt><trkpt lat="45.6089114" lon="9.4319371"><ele>195.33333333333331</ele><time>2026-04-29T12:27:15.761Z</time></trkpt><trkpt lat="45.6088369" lon="9.4319046"><ele>195.16666666666666</ele><time>2026-04-29T12:27:16.761Z</time></trkpt><trkpt lat="45.6087727" lon="9.4318677"><ele>195.0</ele><time>2026-04-29T12:27:17.761Z</time></trkpt><trkpt lat="45.6086485" lon="9.4318249"><ele>195.5</ele><time>2026-04-29T12:27:19.761Z</time></trkpt><trkpt lat="45.6085857" lon="9.4317982"><ele>196.0</ele><time>2026-04-29T12:27:20.761Z</time></trkpt><trkpt lat="45.6085116" lon="9.4317979"><ele>196.5</ele><time>2026-04-29T12:27:21.761Z</time></trkpt><trkpt lat="45.6084338" lon="9.4318091"><ele>197.0</ele><time>2026-04-29T12:27:22.761Z</time></trkpt><trkpt lat="45.6083647" lon="9.4318253"><ele>197.5</ele><time>2026-04-29T12:27:23.761Z</time></trkpt><trkpt lat="45.6082584" lon="9.4319182"><ele>198.0</ele><time>2026-04-29T12:27:25.761Z</time></trkpt><trkpt lat="45.6082023" lon="9.4319666"><ele>198.0</ele><time>2026-04-29T12:27:26.761Z</time></trkpt><trkpt lat="45.6080726" lon="9.4320205"><ele>198.0</ele><time>2026-04-29T12:27:28.761Z</time></trkpt><trkpt lat="45.608002" lon="9.4320132"><ele>198.0</ele><time>2026-04-29T12:27:29.761Z</time></trkpt><trkpt lat="45.6079247" lon="9.4319986"><ele>198.0</ele><time>2026-04-29T12:27:30.761Z</time></trkpt><trkpt lat="45.6078556" lon="9.4319906"><ele>198.0</ele><time>2026-04-29T12:27:31.761Z</time></trkpt><trkpt lat="45.6077807" lon="9.4319716"><ele>198.0</ele><time>2026-04-29T12:27:32.761Z</time></trkpt><trkpt lat="45.6077032" lon="9.4319566"><ele>197.83333333333334</ele><time>2026-04-29T12:27:33.761Z</time></trkpt><trkpt lat="45.6076355" lon="9.4319403"><ele>197.66666666666669</ele><time>2026-04-29T12:27:34.761Z</time></trkpt><trkpt lat="45.607566" lon="9.4319225"><ele>197.5</ele><time>2026-04-29T12:27:35.761Z</time></trkpt><trkpt lat="45.6074955" lon="9.4318995"><ele>197.33333333333334</ele><time>2026-04-29T12:27:36.761Z</time></trkpt><trkpt lat="45.60744" lon="9.4318534"><ele>197.16666666666669</ele><time>2026-04-29T12:27:37.761Z</time></trkpt><trkpt lat="45.607383" lon="9.4317359"><ele>197.0</ele><time>2026-04-29T12:27:39.761Z</time></trkpt><trkpt lat="45.6073736" lon="9.4315961"><ele>197.0</ele><time>2026-04-29T12:27:41.761Z</time></trkpt><trkpt lat="45.6073395" lon="9.431471"><ele>197.0</ele><time>2026-04-29T12:27:43.761Z</time></trkpt><trkpt lat="45.6072571" lon="9.4313836"><ele>197.0</ele><time>2026-04-29T12:27:45.761Z</time></trkpt><trkpt lat="45.6071389" lon="9.4313511"><ele>197.0</ele><time>2026-04-29T12:27:47.761Z</time></trkpt><trkpt lat="45.607033" lon="9.4312938"><ele>197.0</ele><time>2026-04-29T12:27:49.761Z</time></trkpt><trkpt lat="45.6069538" lon="9.4311989"><ele>197.0</ele><time>2026-04-29T12:27:51.761Z</time></trkpt><trkpt lat="45.6069573" lon="9.4310598"><ele>197.0</ele><time>2026-04-29T12:27:53.761Z</time></trkpt><trkpt lat="45.6069852" lon="9.4308988"><ele>197.0</ele><time>2026-04-29T12:27:55.761Z</time></trkpt><trkpt lat="45.6069922" lon="9.4307147"><ele>197.0</ele><time>2026-04-29T12:27:57.761Z</time></trkpt><trkpt lat="45.606982" lon="9.430606"><ele>197.0</ele><time>2026-04-29T12:27:58.761Z</time></trkpt><trkpt lat="45.6069953" lon="9.4305099"><ele>196.8</ele><time>2026-04-29T12:27:59.761Z</time></trkpt><trkpt lat="45.6070156" lon="9.4304235"><ele>196.6</ele><time>2026-04-29T12:28:00.761Z</time></trkpt><trkpt lat="45.6070883" lon="9.430307"><ele>196.4</ele><time>2026-04-29T12:28:02.761Z</time></trkpt><trkpt lat="45.607148" lon="9.4302353"><ele>196.20000000000002</ele><time>2026-04-29T12:28:04.761Z</time></trkpt><trkpt lat="45.6072192" lon="9.4300995"><ele>196.0</ele><time>2026-04-29T12:28:06.761Z</time></trkpt><trkpt lat="45.607232" lon="9.4299663"><ele>195.99999999999997</ele><time>2026-04-29T12:28:08.761Z</time></trkpt><trkpt lat="45.6072572" lon="9.4298044"><ele>196.0</ele><time>2026-04-29T12:28:10.761Z</time></trkpt><trkpt lat="45.6072698" lon="9.4297036"><ele>196.0</ele><time>2026-04-29T12:28:11.761Z</time></trkpt><trkpt lat="45.6072766" lon="9.4296087"><ele>196.0</ele><time>2026-04-29T12:28:12.761Z</time></trkpt><trkpt lat="45.6072798" lon="9.4295123"><ele>195.99999999999997</ele><time>2026-04-29T12:28:13.761Z</time></trkpt><trkpt lat="45.60729" lon="9.4294195"><ele>196.0</ele><time>2026-04-29T12:28:14.761Z</time></trkpt><trkpt lat="45.6072971" lon="9.4293152"><ele>195.83333333333331</ele><time>2026-04-29T12:28:15.761Z</time></trkpt><trkpt lat="45.6072915" lon="9.4291885"><ele>195.66666666666666</ele><time>2026-04-29T12:28:16.761Z</time></trkpt><trkpt lat="45.607293" lon="9.4290029"><ele>195.5</ele><time>2026-04-29T12:28:18.761Z</time></trkpt><trkpt lat="45.6072887" lon="9.4289015"><ele>195.33333333333331</ele><time>2026-04-29T12:28:19.761Z</time></trkpt><trkpt lat="45.6072833" lon="9.4287993"><ele>195.16666666666666</ele><time>2026-04-29T12:28:20.761Z</time></trkpt><trkpt lat="45.6072838" lon="9.4286904"><ele>195.0</ele><time>2026-04-29T12:28:21.761Z</time></trkpt><trkpt lat="45.607282" lon="9.4285685"><ele>195.0</ele><time>2026-04-29T12:28:22.761Z</time></trkpt><trkpt lat="45.6072817" lon="9.4283752"><ele>195.0</ele><time>2026-04-29T12:28:24.761Z</time></trkpt><trkpt lat="45.6072927" lon="9.4282568"><ele>195.0</ele><time>2026-04-29T12:28:25.761Z</time></trkpt><trkpt lat="45.607291" lon="9.4281467"><ele>195.0</ele><time>2026-04-29T12:28:26.761Z</time></trkpt><trkpt lat="45.6073043" lon="9.4280265"><ele>195.0</ele><time>2026-04-29T12:28:27.761Z</time></trkpt><trkpt lat="45.6072946" lon="9.4279354"><ele>195.0</ele><time>2026-04-29T12:28:28.761Z</time></trkpt><trkpt lat="45.6072935" lon="9.4278449"><ele>195.0</ele><time>2026-04-29T12:28:29.761Z</time></trkpt><trkpt lat="45.6072966" lon="9.4277502"><ele>195.0</ele><time>2026-04-29T12:28:30.761Z</time></trkpt><trkpt lat="45.6073182" lon="9.4275614"><ele>195.0</ele><time>2026-04-29T12:28:32.761Z</time></trkpt><trkpt lat="45.6073412" lon="9.4274478"><ele>195.0</ele><time>2026-04-29T12:28:33.76Z</time></trkpt><trkpt lat="45.6073659" lon="9.4272743"><ele>195.0</ele><time>2026-04-29T12:28:35.761Z</time></trkpt><trkpt lat="45.6073731" lon="9.4271838"><ele>195.0</ele><time>2026-04-29T12:28:36.761Z</time></trkpt><trkpt lat="45.6073835" lon="9.4270932"><ele>195.0</ele><time>2026-04-29T12:28:37.761Z</time></trkpt><trkpt lat="45.6073962" lon="9.4269718"><ele>195.0</ele><time>2026-04-29T12:28:38.761Z</time></trkpt><trkpt lat="45.6073853" lon="9.4267939"><ele>195.0</ele><time>2026-04-29T12:28:40.761Z</time></trkpt><trkpt lat="45.6073801" lon="9.426635"><ele>195.0</ele><time>2026-04-29T12:28:42.76Z</time></trkpt><trkpt lat="45.6073823" lon="9.4264672"><ele>195.0</ele><time>2026-04-29T12:28:44.761Z</time></trkpt><trkpt lat="45.6073799" lon="9.4263123"><ele>195.0</ele><time>2026-04-29T12:28:46.761Z</time></trkpt><trkpt lat="45.6073869" lon="9.4261654"><ele>195.0</ele><time>2026-04-29T12:28:48.761Z</time></trkpt><trkpt lat="45.6073978" lon="9.4260296"><ele>195.0</ele><time>2026-04-29T12:28:50.761Z</time></trkpt><trkpt lat="45.6073952" lon="9.4258565"><ele>195.0</ele><time>2026-04-29T12:28:52.761Z</time></trkpt><trkpt lat="45.6073997" lon="9.4256846"><ele>195.0</ele><time>2026-04-29T12:28:54.761Z</time></trkpt><trkpt lat="45.6074069" lon="9.425504"><ele>195.0</ele><time>2026-04-29T12:28:56.761Z</time></trkpt><trkpt lat="45.6074158" lon="9.4254063"><ele>195.0</ele><time>2026-04-29T12:28:57.761Z</time></trkpt><trkpt lat="45.6074053" lon="9.4252234"><ele>195.0</ele><time>2026-04-29T12:28:59.76Z</time></trkpt><trkpt lat="45.607397" lon="9.4250348"><ele>195.16666666666666</ele><time>2026-04-29T12:29:01.761Z</time></trkpt><trkpt lat="45.6073977" lon="9.4249405"><ele>195.33333333333331</ele><time>2026-04-29T12:29:02.761Z</time></trkpt><trkpt lat="45.6074021" lon="9.4247522"><ele>195.5</ele><time>2026-04-29T12:29:04.761Z</time></trkpt><trkpt lat="45.607407" lon="9.424662"><ele>195.66666666666666</ele><time>2026-04-29T12:29:05.761Z</time></trkpt><trkpt lat="45.607409" lon="9.4245594"><ele>195.83333333333331</ele><time>2026-04-29T12:29:06.761Z</time></trkpt><trkpt lat="45.607403" lon="9.4244629"><ele>196.0</ele><time>2026-04-29T12:29:07.761Z</time></trkpt><trkpt lat="45.6073986" lon="9.4243597"><ele>195.66666666666666</ele><time>2026-04-29T12:29:08.761Z</time></trkpt><trkpt lat="45.6073914" lon="9.4242482"><ele>195.33333333333331</ele><time>2026-04-29T12:29:09.761Z</time></trkpt><trkpt lat="45.6073767" lon="9.4241357"><ele>195.0</ele><time>2026-04-29T12:29:10.761Z</time></trkpt><trkpt lat="45.6073548" lon="9.4240278"><ele>194.66666666666669</ele><time>2026-04-29T12:29:11.761Z</time></trkpt><trkpt lat="45.6073298" lon="9.4239111"><ele>194.33333333333334</ele><time>2026-04-29T12:29:12.761Z</time></trkpt><trkpt lat="45.6073063" lon="9.4238019"><ele>194.0</ele><time>2026-04-29T12:29:13.761Z</time></trkpt><trkpt lat="45.6072858" lon="9.4236932"><ele>193.83333333333334</ele><time>2026-04-29T12:29:14.761Z</time></trkpt><trkpt lat="45.6072665" lon="9.4235654"><ele>193.66666666666669</ele><time>2026-04-29T12:29:15.761Z</time></trkpt><trkpt lat="45.6072611" lon="9.4234455"><ele>193.5</ele><time>2026-04-29T12:29:16.761Z</time></trkpt><trkpt lat="45.6072582" lon="9.4233315"><ele>193.33333333333331</ele><time>2026-04-29T12:29:17.761Z</time></trkpt><trkpt lat="45.6072573" lon="9.4232309"><ele>193.16666666666666</ele><time>2026-04-29T12:29:18.761Z</time></trkpt><trkpt lat="45.6072598" lon="9.423126"><ele>193.0</ele><time>2026-04-29T12:29:19.761Z</time></trkpt><trkpt lat="45.6072584" lon="9.4230182"><ele>192.99999999999997</ele><time>2026-04-29T12:29:20.761Z</time></trkpt><trkpt lat="45.6072596" lon="9.4229057"><ele>193.0</ele><time>2026-04-29T12:29:21.761Z</time></trkpt><trkpt lat="45.6072624" lon="9.4227896"><ele>193.0</ele><time>2026-04-29T12:29:22.761Z</time></trkpt><trkpt lat="45.6072598" lon="9.4226757"><ele>193.0</ele><time>2026-04-29T12:29:23.761Z</time></trkpt><trkpt lat="45.6072623" lon="9.4225639"><ele>192.99999999999997</ele><time>2026-04-29T12:29:24.761Z</time></trkpt><trkpt lat="45.6072654" lon="9.4224551"><ele>193.0</ele><time>2026-04-29T12:29:25.761Z</time></trkpt><trkpt lat="45.607269" lon="9.4223491"><ele>192.99999999999997</ele><time>2026-04-29T12:29:26.761Z</time></trkpt><trkpt lat="45.607268" lon="9.4222428"><ele>193.0</ele><time>2026-04-29T12:29:27.761Z</time></trkpt><trkpt lat="45.607277" lon="9.4221238"><ele>193.0</ele><time>2026-04-29T12:29:28.761Z</time></trkpt><trkpt lat="45.6072804" lon="9.4220206"><ele>193.0</ele><time>2026-04-29T12:29:29.761Z</time></trkpt><trkpt lat="45.6072816" lon="9.4219108"><ele>192.99999999999997</ele><time>2026-04-29T12:29:30.761Z</time></trkpt><trkpt lat="45.6072824" lon="9.4218059"><ele>193.0</ele><time>2026-04-29T12:29:31.761Z</time></trkpt><trkpt lat="45.6072842" lon="9.421701"><ele>192.99999999999997</ele><time>2026-04-29T12:29:32.761Z</time></trkpt><trkpt lat="45.6072876" lon="9.421592"><ele>193.0</ele><time>2026-04-29T12:29:33.761Z</time></trkpt><trkpt lat="45.6072941" lon="9.4214751"><ele>193.0</ele><time>2026-04-29T12:29:34.76Z</time></trkpt><trkpt lat="45.6072999" lon="9.4213698"><ele>193.0</ele><time>2026-04-29T12:29:35.761Z</time></trkpt><trkpt lat="45.6073036" lon="9.4212576"><ele>192.99999999999997</ele><time>2026-04-29T12:29:36.76Z</time></trkpt><trkpt lat="45.6073033" lon="9.4211406"><ele>193.0</ele><time>2026-04-29T12:29:37.761Z</time></trkpt><trkpt lat="45.6073045" lon="9.421035"><ele>193.0</ele><time>2026-04-29T12:29:38.761Z</time></trkpt><trkpt lat="45.6073025" lon="9.4209183"><ele>193.0</ele><time>2026-04-29T12:29:39.76Z</time></trkpt><trkpt lat="45.6073058" lon="9.4208244"><ele>193.0</ele><time>2026-04-29T12:29:40.761Z</time></trkpt><trkpt lat="45.6073048" lon="9.4207131"><ele>193.0</ele><time>2026-04-29T12:29:41.761Z</time></trkpt><trkpt lat="45.6073023" lon="9.420537"><ele>193.0</ele><time>2026-04-29T12:29:43.761Z</time></trkpt><trkpt lat="45.6073398" lon="9.4203795"><ele>192.99999999999997</ele><time>2026-04-29T12:29:45.761Z</time></trkpt><trkpt lat="45.6074422" lon="9.4202765"><ele>193.0</ele><time>2026-04-29T12:29:47.761Z</time></trkpt><trkpt lat="45.607498" lon="9.4202119"><ele>193.0</ele><time>2026-04-29T12:29:48.761Z</time></trkpt><trkpt lat="45.6075519" lon="9.4201556"><ele>193.0</ele><time>2026-04-29T12:29:49.761Z</time></trkpt><trkpt lat="45.6076025" lon="9.4200816"><ele>192.99999999999997</ele><time>2026-04-29T12:29:50.761Z</time></trkpt><trkpt lat="45.6076357" lon="9.4199964"><ele>193.0</ele><time>2026-04-29T12:29:51.761Z</time></trkpt><trkpt lat="45.6076622" lon="9.4199014"><ele>192.99999999999997</ele><time>2026-04-29T12:29:52.761Z</time></trkpt><trkpt lat="45.6076867" lon="9.4198094"><ele>193.0</ele><time>2026-04-29T12:29:53.761Z</time></trkpt><trkpt lat="45.6077275" lon="9.4197278"><ele>193.0</ele><time>2026-04-29T12:29:54.761Z</time></trkpt><trkpt lat="45.6077661" lon="9.4196292"><ele>193.0</ele><time>2026-04-29T12:29:55.761Z</time></trkpt><trkpt lat="45.6078153" lon="9.4195353"><ele>192.99999999999997</ele><time>2026-04-29T12:29:56.761Z</time></trkpt><trkpt lat="45.6078978" lon="9.419542"><ele>193.0</ele><time>2026-04-29T12:29:57.761Z</time></trkpt><trkpt lat="45.6079926" lon="9.4195131"><ele>193.16666666666666</ele><time>2026-04-29T12:29:58.761Z</time></trkpt><trkpt lat="45.6080714" lon="9.4194992"><ele>193.33333333333331</ele><time>2026-04-29T12:29:59.761Z</time></trkpt><trkpt lat="45.6081528" lon="9.4194994"><ele>193.5</ele><time>2026-04-29T12:30:00.761Z</time></trkpt><trkpt lat="45.6082375" lon="9.4194859"><ele>193.66666666666669</ele><time>2026-04-29T12:30:01.761Z</time></trkpt><trkpt lat="45.608317" lon="9.4194811"><ele>193.83333333333334</ele><time>2026-04-29T12:30:02.761Z</time></trkpt><trkpt lat="45.6083971" lon="9.4194691"><ele>194.0</ele><time>2026-04-29T12:30:03.761Z</time></trkpt><trkpt lat="45.6084838" lon="9.4194583"><ele>194.00000000000003</ele><time>2026-04-29T12:30:04.761Z</time></trkpt><trkpt lat="45.6085556" lon="9.419453"><ele>194.0</ele><time>2026-04-29T12:30:05.761Z</time></trkpt><trkpt lat="45.6086459" lon="9.4194476"><ele>194.0</ele><time>2026-04-29T12:30:06.761Z</time></trkpt><trkpt lat="45.608724" lon="9.4194347"><ele>194.0</ele><time>2026-04-29T12:30:07.76Z</time></trkpt><trkpt lat="45.6088114" lon="9.4194285"><ele>194.00000000000003</ele><time>2026-04-29T12:30:08.761Z</time></trkpt><trkpt lat="45.6088958" lon="9.4194188"><ele>194.0</ele><time>2026-04-29T12:30:09.761Z</time></trkpt><trkpt lat="45.6089776" lon="9.4194104"><ele>194.16666666666669</ele><time>2026-04-29T12:30:10.761Z</time></trkpt><trkpt lat="45.6090669" lon="9.419412"><ele>194.33333333333334</ele><time>2026-04-29T12:30:11.761Z</time></trkpt><trkpt lat="45.6091475" lon="9.4194014"><ele>194.5</ele><time>2026-04-29T12:30:12.761Z</time></trkpt><trkpt lat="45.6092331" lon="9.4193929"><ele>194.66666666666669</ele><time>2026-04-29T12:30:13.761Z</time></trkpt><trkpt lat="45.6093168" lon="9.4193818"><ele>194.83333333333334</ele><time>2026-04-29T12:30:14.761Z</time></trkpt><trkpt lat="45.6093991" lon="9.4193824"><ele>195.0</ele><time>2026-04-29T12:30:15.761Z</time></trkpt><trkpt lat="45.6094881" lon="9.4193775"><ele>195.16666666666666</ele><time>2026-04-29T12:30:16.761Z</time></trkpt><trkpt lat="45.6095704" lon="9.4193691"><ele>195.33333333333331</ele><time>2026-04-29T12:30:17.76Z</time></trkpt><trkpt lat="45.6096527" lon="9.4193626"><ele>195.5</ele><time>2026-04-29T12:30:18.761Z</time></trkpt><trkpt lat="45.6097331" lon="9.4193604"><ele>195.66666666666666</ele><time>2026-04-29T12:30:19.761Z</time></trkpt><trkpt lat="45.609816" lon="9.4193482"><ele>195.83333333333331</ele><time>2026-04-29T12:30:20.761Z</time></trkpt><trkpt lat="45.6098984" lon="9.4193391"><ele>196.0</ele><time>2026-04-29T12:30:21.761Z</time></trkpt><trkpt lat="45.6099768" lon="9.4193307"><ele>195.99999999999997</ele><time>2026-04-29T12:30:22.761Z</time></trkpt><trkpt lat="45.6100619" lon="9.4193235"><ele>196.0</ele><time>2026-04-29T12:30:23.761Z</time></trkpt><trkpt lat="45.6101422" lon="9.4193146"><ele>196.0</ele><time>2026-04-29T12:30:24.761Z</time></trkpt><trkpt lat="45.6102228" lon="9.4193036"><ele>196.0</ele><time>2026-04-29T12:30:25.761Z</time></trkpt><trkpt lat="45.6102944" lon="9.4192996"><ele>195.99999999999997</ele><time>2026-04-29T12:30:26.761Z</time></trkpt><trkpt lat="45.6103725" lon="9.4192935"><ele>196.0</ele><time>2026-04-29T12:30:27.761Z</time></trkpt><trkpt lat="45.6104418" lon="9.4192765"><ele>196.16666666666666</ele><time>2026-04-29T12:30:28.761Z</time></trkpt><trkpt lat="45.6105082" lon="9.4192615"><ele>196.33333333333331</ele><time>2026-04-29T12:30:29.761Z</time></trkpt><trkpt lat="45.6105758" lon="9.4192395"><ele>196.5</ele><time>2026-04-29T12:30:30.761Z</time></trkpt><trkpt lat="45.6106667" lon="9.4192754"><ele>196.66666666666669</ele><time>2026-04-29T12:30:32.761Z</time></trkpt><trkpt lat="45.6106911" lon="9.4193898"><ele>196.83333333333334</ele><time>2026-04-29T12:30:34.761Z</time></trkpt><trkpt lat="45.6106881" lon="9.4195385"><ele>197.0</ele><time>2026-04-29T12:30:36.761Z</time></trkpt><trkpt lat="45.6106824" lon="9.4196293"><ele>196.57142857142858</ele><time>2026-04-29T12:30:37.761Z</time></trkpt><trkpt lat="45.610681" lon="9.4197282"><ele>196.14285714285717</ele><time>2026-04-29T12:30:38.761Z</time></trkpt><trkpt lat="45.6106781" lon="9.4198265"><ele>195.71428571428572</ele><time>2026-04-29T12:30:39.761Z</time></trkpt><trkpt lat="45.6106779" lon="9.4199384"><ele>195.28571428571428</ele><time>2026-04-29T12:30:40.761Z</time></trkpt><trkpt lat="45.610681" lon="9.4200468"><ele>194.85714285714286</ele><time>2026-04-29T12:30:41.761Z</time></trkpt><trkpt lat="45.6106752" lon="9.4201505"><ele>194.42857142857142</ele><time>2026-04-29T12:30:42.761Z</time></trkpt><trkpt lat="45.6106709" lon="9.4202585"><ele>194.0</ele><time>2026-04-29T12:30:43.761Z</time></trkpt><trkpt lat="45.6106688" lon="9.4203679"><ele>194.00000000000003</ele><time>2026-04-29T12:30:44.76Z</time></trkpt><trkpt lat="45.610672" lon="9.4204773"><ele>194.0</ele><time>2026-04-29T12:30:45.761Z</time></trkpt><trkpt lat="45.6106697" lon="9.4205835"><ele>194.0</ele><time>2026-04-29T12:30:46.761Z</time></trkpt><trkpt lat="45.6106667" lon="9.4207055"><ele>194.0</ele><time>2026-04-29T12:30:47.761Z</time></trkpt><trkpt lat="45.6106677" lon="9.4208172"><ele>194.00000000000003</ele><time>2026-04-29T12:30:48.761Z</time></trkpt><trkpt lat="45.6106673" lon="9.4209284"><ele>194.0</ele><time>2026-04-29T12:30:49.761Z</time></trkpt><trkpt lat="45.6106763" lon="9.4210474"><ele>194.33333333333334</ele><time>2026-04-29T12:30:50.761Z</time></trkpt><trkpt lat="45.6106757" lon="9.4211658"><ele>194.66666666666669</ele><time>2026-04-29T12:30:51.761Z</time></trkpt><trkpt lat="45.6106753" lon="9.4212873"><ele>195.0</ele><time>2026-04-29T12:30:52.761Z</time></trkpt><trkpt lat="45.610677" lon="9.4214016"><ele>195.33333333333331</ele><time>2026-04-29T12:30:53.761Z</time></trkpt><trkpt lat="45.610671" lon="9.4215323"><ele>195.66666666666666</ele><time>2026-04-29T12:30:54.761Z</time></trkpt><trkpt lat="45.6106785" lon="9.4216307"><ele>196.0</ele><time>2026-04-29T12:30:55.761Z</time></trkpt><trkpt lat="45.6106834" lon="9.4217527"><ele>195.99999999999997</ele><time>2026-04-29T12:30:56.761Z</time></trkpt><trkpt lat="45.6106866" lon="9.4218694"><ele>196.0</ele><time>2026-04-29T12:30:57.761Z</time></trkpt><trkpt lat="45.6106869" lon="9.4219907"><ele>196.0</ele><time>2026-04-29T12:30:58.761Z</time></trkpt><trkpt lat="45.6106888" lon="9.42211"><ele>196.0</ele><time>2026-04-29T12:30:59.761Z</time></trkpt><trkpt lat="45.6106909" lon="9.4222272"><ele>195.99999999999997</ele><time>2026-04-29T12:31:00.761Z</time></trkpt><trkpt lat="45.6106911" lon="9.4223475"><ele>196.0</ele><time>2026-04-29T12:31:01.761Z</time></trkpt><trkpt lat="45.6106861" lon="9.4224682"><ele>195.99999999999997</ele><time>2026-04-29T12:31:02.761Z</time></trkpt><trkpt lat="45.6106878" lon="9.4225892"><ele>196.0</ele><time>2026-04-29T12:31:03.761Z</time></trkpt><trkpt lat="45.6106878" lon="9.4227068"><ele>196.0</ele><time>2026-04-29T12:31:04.761Z</time></trkpt><trkpt lat="45.6106901" lon="9.4228333"><ele>196.0</ele><time>2026-04-29T12:31:05.76Z</time></trkpt><trkpt lat="45.610692" lon="9.422956"><ele>195.99999999999997</ele><time>2026-04-29T12:31:06.761Z</time></trkpt><trkpt lat="45.6106944" lon="9.4230805"><ele>196.0</ele><time>2026-04-29T12:31:07.761Z</time></trkpt><trkpt lat="45.6106953" lon="9.4232035"><ele>195.99999999999997</ele><time>2026-04-29T12:31:08.761Z</time></trkpt><trkpt lat="45.6107052" lon="9.423327"><ele>196.0</ele><time>2026-04-29T12:31:09.761Z</time></trkpt><trkpt lat="45.6107106" lon="9.4234458"><ele>196.0</ele><time>2026-04-29T12:31:10.761Z</time></trkpt><trkpt lat="45.6107124" lon="9.4235733"><ele>196.0</ele><time>2026-04-29T12:31:11.761Z</time></trkpt><trkpt lat="45.6107125" lon="9.4236907"><ele>195.99999999999997</ele><time>2026-04-29T12:31:12.761Z</time></trkpt><trkpt lat="45.6107137" lon="9.4238071"><ele>196.0</ele><time>2026-04-29T12:31:13.761Z</time></trkpt><trkpt lat="45.6107114" lon="9.4239302"><ele>195.99999999999997</ele><time>2026-04-29T12:31:14.761Z</time></trkpt><trkpt lat="45.6107096" lon="9.4240574"><ele>196.0</ele><time>2026-04-29T12:31:15.761Z</time></trkpt><trkpt lat="45.6107092" lon="9.424184"><ele>196.0</ele><time>2026-04-29T12:31:16.761Z</time></trkpt><trkpt lat="45.6107112" lon="9.4243167"><ele>196.0</ele><time>2026-04-29T12:31:17.761Z</time></trkpt><trkpt lat="45.6107155" lon="9.4244452"><ele>195.99999999999997</ele><time>2026-04-29T12:31:18.761Z</time></trkpt><trkpt lat="45.6107174" lon="9.4245596"><ele>196.0</ele><time>2026-04-29T12:31:19.761Z</time></trkpt><trkpt lat="45.6107171" lon="9.4246745"><ele>196.14285714285714</ele><time>2026-04-29T12:31:20.761Z</time></trkpt><trkpt lat="45.610719" lon="9.4247904"><ele>196.28571428571428</ele><time>2026-04-29T12:31:21.761Z</time></trkpt><trkpt lat="45.6107214" lon="9.4249026"><ele>196.42857142857144</ele><time>2026-04-29T12:31:22.761Z</time></trkpt><trkpt lat="45.6107226" lon="9.4250099"><ele>196.57142857142856</ele><time>2026-04-29T12:31:23.761Z</time></trkpt><trkpt lat="45.6107302" lon="9.4251169"><ele>196.71428571428572</ele><time>2026-04-29T12:31:24.761Z</time></trkpt><trkpt lat="45.6107327" lon="9.4252141"><ele>196.85714285714286</ele><time>2026-04-29T12:31:25.761Z</time></trkpt><trkpt lat="45.610735" lon="9.4253072"><ele>197.0</ele><time>2026-04-29T12:31:26.761Z</time></trkpt><trkpt lat="45.6107241" lon="9.4254654"><ele>197.0</ele><time>2026-04-29T12:31:28.761Z</time></trkpt><trkpt lat="45.6106646" lon="9.4255336"><ele>197.0</ele><time>2026-04-29T12:31:30.761Z</time></trkpt><trkpt lat="45.6105974" lon="9.4255216"><ele>197.0</ele><time>2026-04-29T12:31:32.761Z</time></trkpt><trkpt lat="45.6105058" lon="9.4255102"><ele>197.0</ele><time>2026-04-29T12:31:34.761Z</time></trkpt><trkpt lat="45.6103896" lon="9.4254676"><ele>197.0</ele><time>2026-04-29T12:31:36.761Z</time></trkpt><trkpt lat="45.6102768" lon="9.4254201"><ele>197.0</ele><time>2026-04-29T12:31:38.761Z</time></trkpt><trkpt lat="45.610166" lon="9.4253826"><ele>197.0</ele><time>2026-04-29T12:31:40.761Z</time></trkpt><trkpt lat="45.6100695" lon="9.4253339"><ele>197.0</ele><time>2026-04-29T12:31:42.761Z</time></trkpt><trkpt lat="45.6099549" lon="9.4252789"><ele>197.0</ele><time>2026-04-29T12:31:44.761Z</time></trkpt><trkpt lat="45.6098294" lon="9.4252275"><ele>197.0</ele><time>2026-04-29T12:31:46.761Z</time></trkpt><trkpt lat="45.6097317" lon="9.4252083"><ele>197.0</ele><time>2026-04-29T12:31:48.761Z</time></trkpt><trkpt lat="45.6096534" lon="9.4252656"><ele>197.0</ele><time>2026-04-29T12:31:50.761Z</time></trkpt><trkpt lat="45.6095915" lon="9.4253523"><ele>197.0</ele><time>2026-04-29T12:31:52.761Z</time></trkpt><trkpt lat="45.6095294" lon="9.4254669"><ele>197.0</ele><time>2026-04-29T12:31:54.761Z</time></trkpt><trkpt lat="45.6095139" lon="9.4256248"><ele>197.83333333333334</ele><time>2026-04-29T12:31:56.761Z</time></trkpt><trkpt lat="45.6095074" lon="9.4257707"><ele>198.66666666666669</ele><time>2026-04-29T12:31:58.761Z</time></trkpt><trkpt lat="45.6095185" lon="9.4259073"><ele>199.5</ele><time>2026-04-29T12:32:00.761Z</time></trkpt><trkpt lat="45.6095847" lon="9.4259726"><ele>200.33333333333331</ele><time>2026-04-29T12:32:02.761Z</time></trkpt><trkpt lat="45.6096478" lon="9.4259766"><ele>201.16666666666666</ele><time>2026-04-29T12:32:04.761Z</time></trkpt><trkpt lat="45.6097114" lon="9.4259582"><ele>202.0</ele><time>2026-04-29T12:32:06.761Z</time></trkpt><trkpt lat="45.6097649" lon="9.4260149"><ele>201.99999999999997</ele><time>2026-04-29T12:32:08.761Z</time></trkpt><trkpt lat="45.6097766" lon="9.4261175"><ele>202.0</ele><time>2026-04-29T12:32:10.761Z</time></trkpt><trkpt lat="45.6097638" lon="9.4262072"><ele>202.0</ele><time>2026-04-29T12:32:12.761Z</time></trkpt><trkpt lat="45.6097329" lon="9.4263196"><ele>202.0</ele><time>2026-04-29T12:32:15.76Z</time></trkpt><trkpt lat="45.6097048" lon="9.4264265"><ele>201.99999999999997</ele><time>2026-04-29T12:32:18.761Z</time></trkpt><trkpt lat="45.6096909" lon="9.4265293"><ele>202.0</ele><time>2026-04-29T12:32:21.761Z</time></trkpt><trkpt lat="45.6096907" lon="9.4266392"><ele>201.99999999999997</ele><time>2026-04-29T12:32:24.761Z</time></trkpt><trkpt lat="45.6096941" lon="9.4267459"><ele>202.0</ele><time>2026-04-29T12:32:27.761Z</time></trkpt><trkpt lat="45.6096927" lon="9.4268687"><ele>202.0</ele><time>2026-04-29T12:32:31.761Z</time></trkpt><trkpt lat="45.6096712" lon="9.4269591"><ele>202.0</ele><time>2026-04-29T12:32:33.761Z</time></trkpt><trkpt lat="45.6096665" lon="9.4270568"><ele>201.99999999999997</ele><time>2026-04-29T12:32:35.761Z</time></trkpt><trkpt lat="45.6097193" lon="9.4271384"><ele>202.0</ele><time>2026-04-29T12:32:38.761Z</time></trkpt><trkpt lat="45.6099502" lon="9.4272246"><ele>200.0</ele><time>2026-04-29T12:35:43.761Z</time></trkpt><trkpt lat="45.6099952" lon="9.4271505"><ele>200.0</ele><time>2026-04-29T12:35:53.76Z</time></trkpt></trkseg></trk></gpx>